<?xml version="1.0" encoding="UTF-8" standalone="no" ?>
<gpx xmlns="http://www.topografix.com/GPX/1/1" xmlns:xsi="http://www.w3.org/2001/XMLSchema-instance" xsi:schemaLocation="http://www.topografix.com/GPX/1/1 http://www.topografix.com/GPX/1/1/gpx.xsd" version="1.1" creator="VisuGPX - https://www.visugpx.com">
  <metadata>
    <name>Rambouillet / La minière (buc)</name>
    <desc><![CDATA[Départ de la gare de Rambouillet.
10 km de plat pour se mettre en jambe.
Et ensuite c\'est parti.
Pas trop de difficultés techniques à part pas mal de bonnes cote à partir de Chevreuse.
A faire entre potes !
]]></desc>
  </metadata>
  <trk>
    <name><![CDATA[RAMBOUILLET5:26:31 PM]]></name>
    <trkseg>
      <trkpt lat="48.64377" lon="1.83126">
        <ele>75.6</ele>
        <time>2011-05-21T06:55:05Z</time>
      </trkpt>
      <trkpt lat="48.64376" lon="1.83124">
        <ele>75.6</ele>
        <time>2011-05-21T06:55:06Z</time>
      </trkpt>
      <trkpt lat="48.64376" lon="1.83124">
        <ele>76.56</ele>
        <time>2011-05-21T06:55:37Z</time>
      </trkpt>
      <trkpt lat="48.64377" lon="1.83125">
        <ele>77.04</ele>
        <time>2011-05-21T06:55:43Z</time>
      </trkpt>
      <trkpt lat="48.64372" lon="1.83133">
        <ele>77.52</ele>
        <time>2011-05-21T06:55:54Z</time>
      </trkpt>
      <trkpt lat="48.64354" lon="1.83101">
        <ele>77.52</ele>
        <time>2011-05-21T06:56:06Z</time>
      </trkpt>
      <trkpt lat="48.6432" lon="1.83048">
        <ele>74.16</ele>
        <time>2011-05-21T06:56:15Z</time>
      </trkpt>
      <trkpt lat="48.64302" lon="1.83019">
        <ele>72.24</ele>
        <time>2011-05-21T06:56:19Z</time>
      </trkpt>
      <trkpt lat="48.64299" lon="1.83014">
        <ele>72.24</ele>
        <time>2011-05-21T06:56:20Z</time>
      </trkpt>
      <trkpt lat="48.64294" lon="1.83011">
        <ele>71.76</ele>
        <time>2011-05-21T06:56:21Z</time>
      </trkpt>
      <trkpt lat="48.6429" lon="1.83008">
        <ele>71.76</ele>
        <time>2011-05-21T06:56:22Z</time>
      </trkpt>
      <trkpt lat="48.64285" lon="1.83007">
        <ele>71.76</ele>
        <time>2011-05-21T06:56:23Z</time>
      </trkpt>
      <trkpt lat="48.6428" lon="1.83006">
        <ele>71.76</ele>
        <time>2011-05-21T06:56:24Z</time>
      </trkpt>
      <trkpt lat="48.64276" lon="1.83006">
        <ele>71.76</ele>
        <time>2011-05-21T06:56:25Z</time>
      </trkpt>
      <trkpt lat="48.64272" lon="1.83008">
        <ele>71.76</ele>
        <time>2011-05-21T06:56:26Z</time>
      </trkpt>
      <trkpt lat="48.64267" lon="1.83011">
        <ele>71.76</ele>
        <time>2011-05-21T06:56:27Z</time>
      </trkpt>
      <trkpt lat="48.64253" lon="1.83026">
        <ele>71.76</ele>
        <time>2011-05-21T06:56:30Z</time>
      </trkpt>
      <trkpt lat="48.6425" lon="1.83032">
        <ele>72.24</ele>
        <time>2011-05-21T06:56:31Z</time>
      </trkpt>
      <trkpt lat="48.64247" lon="1.83038">
        <ele>72.24</ele>
        <time>2011-05-21T06:56:32Z</time>
      </trkpt>
      <trkpt lat="48.64245" lon="1.83044">
        <ele>72.72</ele>
        <time>2011-05-21T06:56:33Z</time>
      </trkpt>
      <trkpt lat="48.64244" lon="1.83049">
        <ele>72.72</ele>
        <time>2011-05-21T06:56:34Z</time>
      </trkpt>
      <trkpt lat="48.64249" lon="1.83075">
        <ele>73.68</ele>
        <time>2011-05-21T06:56:39Z</time>
      </trkpt>
      <trkpt lat="48.64255" lon="1.83081">
        <ele>74.16</ele>
        <time>2011-05-21T06:56:40Z</time>
      </trkpt>
      <trkpt lat="48.64261" lon="1.83088">
        <ele>74.16</ele>
        <time>2011-05-21T06:56:41Z</time>
      </trkpt>
      <trkpt lat="48.64285" lon="1.83169">
        <ele>77.04</ele>
        <time>2011-05-21T06:56:57Z</time>
      </trkpt>
      <trkpt lat="48.64298" lon="1.83257">
        <ele>79.45</ele>
        <time>2011-05-21T06:57:13Z</time>
      </trkpt>
      <trkpt lat="48.64314" lon="1.83371">
        <ele>81.85</ele>
        <time>2011-05-21T06:57:31Z</time>
      </trkpt>
      <trkpt lat="48.64327" lon="1.83509">
        <ele>83.29</ele>
        <time>2011-05-21T06:57:51Z</time>
      </trkpt>
      <trkpt lat="48.64342" lon="1.83647">
        <ele>84.25</ele>
        <time>2011-05-21T06:58:09Z</time>
      </trkpt>
      <trkpt lat="48.64351" lon="1.83699">
        <ele>84.25</ele>
        <time>2011-05-21T06:58:16Z</time>
      </trkpt>
      <trkpt lat="48.64362" lon="1.83833">
        <ele>85.21</ele>
        <time>2011-05-21T06:58:32Z</time>
      </trkpt>
      <trkpt lat="48.64369" lon="1.83939">
        <ele>86.18</ele>
        <time>2011-05-21T06:58:45Z</time>
      </trkpt>
      <trkpt lat="48.64369" lon="1.83947">
        <ele>86.18</ele>
        <time>2011-05-21T06:58:46Z</time>
      </trkpt>
      <trkpt lat="48.64367" lon="1.83962">
        <ele>86.66</ele>
        <time>2011-05-21T06:58:48Z</time>
      </trkpt>
      <trkpt lat="48.64365" lon="1.8397">
        <ele>86.18</ele>
        <time>2011-05-21T06:58:49Z</time>
      </trkpt>
      <trkpt lat="48.6436" lon="1.83991">
        <ele>86.18</ele>
        <time>2011-05-21T06:58:52Z</time>
      </trkpt>
      <trkpt lat="48.6436" lon="1.83997">
        <ele>86.66</ele>
        <time>2011-05-21T06:58:53Z</time>
      </trkpt>
      <trkpt lat="48.64362" lon="1.84004">
        <ele>86.18</ele>
        <time>2011-05-21T06:58:54Z</time>
      </trkpt>
      <trkpt lat="48.64371" lon="1.84028">
        <ele>86.18</ele>
        <time>2011-05-21T06:58:58Z</time>
      </trkpt>
      <trkpt lat="48.64372" lon="1.84035">
        <ele>86.18</ele>
        <time>2011-05-21T06:58:59Z</time>
      </trkpt>
      <trkpt lat="48.64375" lon="1.84063">
        <ele>86.18</ele>
        <time>2011-05-21T06:59:03Z</time>
      </trkpt>
      <trkpt lat="48.64376" lon="1.84071">
        <ele>85.69</ele>
        <time>2011-05-21T06:59:04Z</time>
      </trkpt>
      <trkpt lat="48.64383" lon="1.84192">
        <ele>84.25</ele>
        <time>2011-05-21T06:59:17Z</time>
      </trkpt>
      <trkpt lat="48.64388" lon="1.84245">
        <ele>87.14</ele>
        <time>2011-05-21T06:59:23Z</time>
      </trkpt>
      <trkpt lat="48.64394" lon="1.84298">
        <ele>88.58</ele>
        <time>2011-05-21T06:59:30Z</time>
      </trkpt>
      <trkpt lat="48.64394" lon="1.84313">
        <ele>89.06</ele>
        <time>2011-05-21T06:59:32Z</time>
      </trkpt>
      <trkpt lat="48.64395" lon="1.8432">
        <ele>89.06</ele>
        <time>2011-05-21T06:59:33Z</time>
      </trkpt>
      <trkpt lat="48.64396" lon="1.84328">
        <ele>89.54</ele>
        <time>2011-05-21T06:59:34Z</time>
      </trkpt>
      <trkpt lat="48.64399" lon="1.84335">
        <ele>89.54</ele>
        <time>2011-05-21T06:59:35Z</time>
      </trkpt>
      <trkpt lat="48.64402" lon="1.84341">
        <ele>89.54</ele>
        <time>2011-05-21T06:59:36Z</time>
      </trkpt>
      <trkpt lat="48.64404" lon="1.84348">
        <ele>89.06</ele>
        <time>2011-05-21T06:59:37Z</time>
      </trkpt>
      <trkpt lat="48.64406" lon="1.84355">
        <ele>90.02</ele>
        <time>2011-05-21T06:59:38Z</time>
      </trkpt>
      <trkpt lat="48.64407" lon="1.84363">
        <ele>89.54</ele>
        <time>2011-05-21T06:59:39Z</time>
      </trkpt>
      <trkpt lat="48.64409" lon="1.84378">
        <ele>90.02</ele>
        <time>2011-05-21T06:59:41Z</time>
      </trkpt>
      <trkpt lat="48.64409" lon="1.84385">
        <ele>90.02</ele>
        <time>2011-05-21T06:59:42Z</time>
      </trkpt>
      <trkpt lat="48.64409" lon="1.84391">
        <ele>90.5</ele>
        <time>2011-05-21T06:59:43Z</time>
      </trkpt>
      <trkpt lat="48.64408" lon="1.84397">
        <ele>90.5</ele>
        <time>2011-05-21T06:59:44Z</time>
      </trkpt>
      <trkpt lat="48.64409" lon="1.84403">
        <ele>90.98</ele>
        <time>2011-05-21T06:59:45Z</time>
      </trkpt>
      <trkpt lat="48.6441" lon="1.84408">
        <ele>90.5</ele>
        <time>2011-05-21T06:59:46Z</time>
      </trkpt>
      <trkpt lat="48.64412" lon="1.84415">
        <ele>90.5</ele>
        <time>2011-05-21T06:59:47Z</time>
      </trkpt>
      <trkpt lat="48.64414" lon="1.84421">
        <ele>90.5</ele>
        <time>2011-05-21T06:59:48Z</time>
      </trkpt>
      <trkpt lat="48.6442" lon="1.84442">
        <ele>90.98</ele>
        <time>2011-05-21T06:59:52Z</time>
      </trkpt>
      <trkpt lat="48.64423" lon="1.84445">
        <ele>90.98</ele>
        <time>2011-05-21T06:59:53Z</time>
      </trkpt>
      <trkpt lat="48.64426" lon="1.84446">
        <ele>90.98</ele>
        <time>2011-05-21T06:59:54Z</time>
      </trkpt>
      <trkpt lat="48.6443" lon="1.84448">
        <ele>90.98</ele>
        <time>2011-05-21T06:59:55Z</time>
      </trkpt>
      <trkpt lat="48.64431" lon="1.84452">
        <ele>91.46</ele>
        <time>2011-05-21T06:59:56Z</time>
      </trkpt>
      <trkpt lat="48.64432" lon="1.84458">
        <ele>91.46</ele>
        <time>2011-05-21T06:59:57Z</time>
      </trkpt>
      <trkpt lat="48.64431" lon="1.84464">
        <ele>91.94</ele>
        <time>2011-05-21T06:59:58Z</time>
      </trkpt>
      <trkpt lat="48.64431" lon="1.8447">
        <ele>91.46</ele>
        <time>2011-05-21T06:59:59Z</time>
      </trkpt>
      <trkpt lat="48.64431" lon="1.84475">
        <ele>91.94</ele>
        <time>2011-05-21T07:00:00Z</time>
      </trkpt>
      <trkpt lat="48.64431" lon="1.84481">
        <ele>91.46</ele>
        <time>2011-05-21T07:00:01Z</time>
      </trkpt>
      <trkpt lat="48.64433" lon="1.84487">
        <ele>91.94</ele>
        <time>2011-05-21T07:00:02Z</time>
      </trkpt>
      <trkpt lat="48.64434" lon="1.84494">
        <ele>91.46</ele>
        <time>2011-05-21T07:00:03Z</time>
      </trkpt>
      <trkpt lat="48.64437" lon="1.84507">
        <ele>91.94</ele>
        <time>2011-05-21T07:00:05Z</time>
      </trkpt>
      <trkpt lat="48.64438" lon="1.84514">
        <ele>92.42</ele>
        <time>2011-05-21T07:00:06Z</time>
      </trkpt>
      <trkpt lat="48.64449" lon="1.84558">
        <ele>92.42</ele>
        <time>2011-05-21T07:00:13Z</time>
      </trkpt>
      <trkpt lat="48.64465" lon="1.84639">
        <ele>93.87</ele>
        <time>2011-05-21T07:00:25Z</time>
      </trkpt>
      <trkpt lat="48.64466" lon="1.84645">
        <ele>94.35</ele>
        <time>2011-05-21T07:00:26Z</time>
      </trkpt>
      <trkpt lat="48.64468" lon="1.8466">
        <ele>93.87</ele>
        <time>2011-05-21T07:00:28Z</time>
      </trkpt>
      <trkpt lat="48.64473" lon="1.84701">
        <ele>94.83</ele>
        <time>2011-05-21T07:00:34Z</time>
      </trkpt>
      <trkpt lat="48.64473" lon="1.84709">
        <ele>94.83</ele>
        <time>2011-05-21T07:00:35Z</time>
      </trkpt>
      <trkpt lat="48.64478" lon="1.8476">
        <ele>95.31</ele>
        <time>2011-05-21T07:00:42Z</time>
      </trkpt>
      <trkpt lat="48.6448" lon="1.84766">
        <ele>95.31</ele>
        <time>2011-05-21T07:00:43Z</time>
      </trkpt>
      <trkpt lat="48.64489" lon="1.84781">
        <ele>95.31</ele>
        <time>2011-05-21T07:00:46Z</time>
      </trkpt>
      <trkpt lat="48.64493" lon="1.84786">
        <ele>94.83</ele>
        <time>2011-05-21T07:00:47Z</time>
      </trkpt>
      <trkpt lat="48.64496" lon="1.84791">
        <ele>94.35</ele>
        <time>2011-05-21T07:00:48Z</time>
      </trkpt>
      <trkpt lat="48.64499" lon="1.84797">
        <ele>94.35</ele>
        <time>2011-05-21T07:00:49Z</time>
      </trkpt>
      <trkpt lat="48.64502" lon="1.84804">
        <ele>94.35</ele>
        <time>2011-05-21T07:00:50Z</time>
      </trkpt>
      <trkpt lat="48.64503" lon="1.84811">
        <ele>94.83</ele>
        <time>2011-05-21T07:00:51Z</time>
      </trkpt>
      <trkpt lat="48.64504" lon="1.84818">
        <ele>94.83</ele>
        <time>2011-05-21T07:00:52Z</time>
      </trkpt>
      <trkpt lat="48.64505" lon="1.84825">
        <ele>94.83</ele>
        <time>2011-05-21T07:00:53Z</time>
      </trkpt>
      <trkpt lat="48.64504" lon="1.84832">
        <ele>95.31</ele>
        <time>2011-05-21T07:00:54Z</time>
      </trkpt>
      <trkpt lat="48.64502" lon="1.84839">
        <ele>95.31</ele>
        <time>2011-05-21T07:00:55Z</time>
      </trkpt>
      <trkpt lat="48.64501" lon="1.84845">
        <ele>95.79</ele>
        <time>2011-05-21T07:00:56Z</time>
      </trkpt>
      <trkpt lat="48.64498" lon="1.84851">
        <ele>95.79</ele>
        <time>2011-05-21T07:00:57Z</time>
      </trkpt>
      <trkpt lat="48.64494" lon="1.84854">
        <ele>95.31</ele>
        <time>2011-05-21T07:00:58Z</time>
      </trkpt>
      <trkpt lat="48.64485" lon="1.84861">
        <ele>95.79</ele>
        <time>2011-05-21T07:01:00Z</time>
      </trkpt>
      <trkpt lat="48.64482" lon="1.84866">
        <ele>95.79</ele>
        <time>2011-05-21T07:01:01Z</time>
      </trkpt>
      <trkpt lat="48.6448" lon="1.84872">
        <ele>95.79</ele>
        <time>2011-05-21T07:01:02Z</time>
      </trkpt>
      <trkpt lat="48.64479" lon="1.84879">
        <ele>95.79</ele>
        <time>2011-05-21T07:01:03Z</time>
      </trkpt>
      <trkpt lat="48.64478" lon="1.84887">
        <ele>95.79</ele>
        <time>2011-05-21T07:01:04Z</time>
      </trkpt>
      <trkpt lat="48.64478" lon="1.84938">
        <ele>96.75</ele>
        <time>2011-05-21T07:01:11Z</time>
      </trkpt>
      <trkpt lat="48.64478" lon="1.84953">
        <ele>96.27</ele>
        <time>2011-05-21T07:01:13Z</time>
      </trkpt>
      <trkpt lat="48.64479" lon="1.8496">
        <ele>96.27</ele>
        <time>2011-05-21T07:01:14Z</time>
      </trkpt>
      <trkpt lat="48.6448" lon="1.84997">
        <ele>97.23</ele>
        <time>2011-05-21T07:01:19Z</time>
      </trkpt>
      <trkpt lat="48.64483" lon="1.85055">
        <ele>97.71</ele>
        <time>2011-05-21T07:01:27Z</time>
      </trkpt>
      <trkpt lat="48.64486" lon="1.85139">
        <ele>98.19</ele>
        <time>2011-05-21T07:01:38Z</time>
      </trkpt>
      <trkpt lat="48.64487" lon="1.85147">
        <ele>98.19</ele>
        <time>2011-05-21T07:01:39Z</time>
      </trkpt>
      <trkpt lat="48.64489" lon="1.85154">
        <ele>97.23</ele>
        <time>2011-05-21T07:01:40Z</time>
      </trkpt>
      <trkpt lat="48.64491" lon="1.85161">
        <ele>97.71</ele>
        <time>2011-05-21T07:01:41Z</time>
      </trkpt>
      <trkpt lat="48.64492" lon="1.85169">
        <ele>98.19</ele>
        <time>2011-05-21T07:01:42Z</time>
      </trkpt>
      <trkpt lat="48.64494" lon="1.85177">
        <ele>98.19</ele>
        <time>2011-05-21T07:01:43Z</time>
      </trkpt>
      <trkpt lat="48.64512" lon="1.85288">
        <ele>98.67</ele>
        <time>2011-05-21T07:01:58Z</time>
      </trkpt>
      <trkpt lat="48.64518" lon="1.85317">
        <ele>99.15</ele>
        <time>2011-05-21T07:02:02Z</time>
      </trkpt>
      <trkpt lat="48.64521" lon="1.85322">
        <ele>99.15</ele>
        <time>2011-05-21T07:02:03Z</time>
      </trkpt>
      <trkpt lat="48.64525" lon="1.85325">
        <ele>99.15</ele>
        <time>2011-05-21T07:02:04Z</time>
      </trkpt>
      <trkpt lat="48.64528" lon="1.85328">
        <ele>100.11</ele>
        <time>2011-05-21T07:02:05Z</time>
      </trkpt>
      <trkpt lat="48.6453" lon="1.85331">
        <ele>99.63</ele>
        <time>2011-05-21T07:02:06Z</time>
      </trkpt>
      <trkpt lat="48.64533" lon="1.85335">
        <ele>100.11</ele>
        <time>2011-05-21T07:02:07Z</time>
      </trkpt>
      <trkpt lat="48.64535" lon="1.8534">
        <ele>99.63</ele>
        <time>2011-05-21T07:02:08Z</time>
      </trkpt>
      <trkpt lat="48.64537" lon="1.85344">
        <ele>100.11</ele>
        <time>2011-05-21T07:02:09Z</time>
      </trkpt>
      <trkpt lat="48.64539" lon="1.8535">
        <ele>100.11</ele>
        <time>2011-05-21T07:02:10Z</time>
      </trkpt>
      <trkpt lat="48.6454" lon="1.85357">
        <ele>100.11</ele>
        <time>2011-05-21T07:02:11Z</time>
      </trkpt>
      <trkpt lat="48.6454" lon="1.85364">
        <ele>100.6</ele>
        <time>2011-05-21T07:02:12Z</time>
      </trkpt>
      <trkpt lat="48.64539" lon="1.85372">
        <ele>100.6</ele>
        <time>2011-05-21T07:02:13Z</time>
      </trkpt>
      <trkpt lat="48.64537" lon="1.85401">
        <ele>101.08</ele>
        <time>2011-05-21T07:02:17Z</time>
      </trkpt>
      <trkpt lat="48.64538" lon="1.85408">
        <ele>101.08</ele>
        <time>2011-05-21T07:02:18Z</time>
      </trkpt>
      <trkpt lat="48.64539" lon="1.85415">
        <ele>101.08</ele>
        <time>2011-05-21T07:02:19Z</time>
      </trkpt>
      <trkpt lat="48.64539" lon="1.85422">
        <ele>100.6</ele>
        <time>2011-05-21T07:02:20Z</time>
      </trkpt>
      <trkpt lat="48.64541" lon="1.85429">
        <ele>101.08</ele>
        <time>2011-05-21T07:02:21Z</time>
      </trkpt>
      <trkpt lat="48.64553" lon="1.85478">
        <ele>102.52</ele>
        <time>2011-05-21T07:02:28Z</time>
      </trkpt>
      <trkpt lat="48.64555" lon="1.85484">
        <ele>102.52</ele>
        <time>2011-05-21T07:02:29Z</time>
      </trkpt>
      <trkpt lat="48.64571" lon="1.85545">
        <ele>103</ele>
        <time>2011-05-21T07:02:39Z</time>
      </trkpt>
      <trkpt lat="48.6457" lon="1.85548">
        <ele>103</ele>
        <time>2011-05-21T07:02:40Z</time>
      </trkpt>
      <trkpt lat="48.64568" lon="1.85551">
        <ele>103.96</ele>
        <time>2011-05-21T07:02:41Z</time>
      </trkpt>
      <trkpt lat="48.64565" lon="1.85552">
        <ele>103.48</ele>
        <time>2011-05-21T07:02:42Z</time>
      </trkpt>
      <trkpt lat="48.6456" lon="1.85553">
        <ele>103.48</ele>
        <time>2011-05-21T07:02:43Z</time>
      </trkpt>
      <trkpt lat="48.64549" lon="1.85556">
        <ele>103.48</ele>
        <time>2011-05-21T07:02:46Z</time>
      </trkpt>
      <trkpt lat="48.64545" lon="1.85558">
        <ele>103.96</ele>
        <time>2011-05-21T07:02:47Z</time>
      </trkpt>
      <trkpt lat="48.64542" lon="1.85562">
        <ele>103.48</ele>
        <time>2011-05-21T07:02:48Z</time>
      </trkpt>
      <trkpt lat="48.64541" lon="1.85566">
        <ele>103.48</ele>
        <time>2011-05-21T07:02:49Z</time>
      </trkpt>
      <trkpt lat="48.6454" lon="1.85569">
        <ele>103.96</ele>
        <time>2011-05-21T07:02:50Z</time>
      </trkpt>
      <trkpt lat="48.64538" lon="1.85573">
        <ele>103.48</ele>
        <time>2011-05-21T07:02:51Z</time>
      </trkpt>
      <trkpt lat="48.64537" lon="1.85578">
        <ele>103.48</ele>
        <time>2011-05-21T07:02:52Z</time>
      </trkpt>
      <trkpt lat="48.64535" lon="1.85583">
        <ele>103.48</ele>
        <time>2011-05-21T07:02:53Z</time>
      </trkpt>
      <trkpt lat="48.64533" lon="1.8559">
        <ele>103.48</ele>
        <time>2011-05-21T07:02:54Z</time>
      </trkpt>
      <trkpt lat="48.64533" lon="1.85596">
        <ele>103</ele>
        <time>2011-05-21T07:02:55Z</time>
      </trkpt>
      <trkpt lat="48.64534" lon="1.85611">
        <ele>103.96</ele>
        <time>2011-05-21T07:02:57Z</time>
      </trkpt>
      <trkpt lat="48.64558" lon="1.85755">
        <ele>104.44</ele>
        <time>2011-05-21T07:03:15Z</time>
      </trkpt>
      <trkpt lat="48.64554" lon="1.8589">
        <ele>104.44</ele>
        <time>2011-05-21T07:03:31Z</time>
      </trkpt>
      <trkpt lat="48.64558" lon="1.8597">
        <ele>104.92</ele>
        <time>2011-05-21T07:03:40Z</time>
      </trkpt>
      <trkpt lat="48.64562" lon="1.85978">
        <ele>104.92</ele>
        <time>2011-05-21T07:03:41Z</time>
      </trkpt>
      <trkpt lat="48.64616" lon="1.86106">
        <ele>105.4</ele>
        <time>2011-05-21T07:03:58Z</time>
      </trkpt>
      <trkpt lat="48.64672" lon="1.86225">
        <ele>103.96</ele>
        <time>2011-05-21T07:04:13Z</time>
      </trkpt>
      <trkpt lat="48.64693" lon="1.86282">
        <ele>103.48</ele>
        <time>2011-05-21T07:04:20Z</time>
      </trkpt>
      <trkpt lat="48.64693" lon="1.8629">
        <ele>103.48</ele>
        <time>2011-05-21T07:04:21Z</time>
      </trkpt>
      <trkpt lat="48.64692" lon="1.86297">
        <ele>103.48</ele>
        <time>2011-05-21T07:04:22Z</time>
      </trkpt>
      <trkpt lat="48.64688" lon="1.86301">
        <ele>103.96</ele>
        <time>2011-05-21T07:04:23Z</time>
      </trkpt>
      <trkpt lat="48.64684" lon="1.86304">
        <ele>103.96</ele>
        <time>2011-05-21T07:04:24Z</time>
      </trkpt>
      <trkpt lat="48.6468" lon="1.86305">
        <ele>104.44</ele>
        <time>2011-05-21T07:04:25Z</time>
      </trkpt>
      <trkpt lat="48.64675" lon="1.86307">
        <ele>104.92</ele>
        <time>2011-05-21T07:04:26Z</time>
      </trkpt>
      <trkpt lat="48.6467" lon="1.86308">
        <ele>104.44</ele>
        <time>2011-05-21T07:04:27Z</time>
      </trkpt>
      <trkpt lat="48.64609" lon="1.86339">
        <ele>103.96</ele>
        <time>2011-05-21T07:04:40Z</time>
      </trkpt>
      <trkpt lat="48.64603" lon="1.86342">
        <ele>103.96</ele>
        <time>2011-05-21T07:04:41Z</time>
      </trkpt>
      <trkpt lat="48.64565" lon="1.86391">
        <ele>100.6</ele>
        <time>2011-05-21T07:04:50Z</time>
      </trkpt>
      <trkpt lat="48.64502" lon="1.86473">
        <ele>98.19</ele>
        <time>2011-05-21T07:05:02Z</time>
      </trkpt>
      <trkpt lat="48.64497" lon="1.8648">
        <ele>98.19</ele>
        <time>2011-05-21T07:05:03Z</time>
      </trkpt>
      <trkpt lat="48.64483" lon="1.86501">
        <ele>98.19</ele>
        <time>2011-05-21T07:05:06Z</time>
      </trkpt>
      <trkpt lat="48.64473" lon="1.86521">
        <ele>98.19</ele>
        <time>2011-05-21T07:05:09Z</time>
      </trkpt>
      <trkpt lat="48.64472" lon="1.86528">
        <ele>97.71</ele>
        <time>2011-05-21T07:05:10Z</time>
      </trkpt>
      <trkpt lat="48.64471" lon="1.86533">
        <ele>98.19</ele>
        <time>2011-05-21T07:05:11Z</time>
      </trkpt>
      <trkpt lat="48.64456" lon="1.86561">
        <ele>100.11</ele>
        <time>2011-05-21T07:05:20Z</time>
      </trkpt>
      <trkpt lat="48.64459" lon="1.86561">
        <ele>100.11</ele>
        <time>2011-05-21T07:05:29Z</time>
      </trkpt>
      <trkpt lat="48.6446" lon="1.86559">
        <ele>99.63</ele>
        <time>2011-05-21T07:05:30Z</time>
      </trkpt>
      <trkpt lat="48.64463" lon="1.86556">
        <ele>99.63</ele>
        <time>2011-05-21T07:05:31Z</time>
      </trkpt>
      <trkpt lat="48.64466" lon="1.86554">
        <ele>98.67</ele>
        <time>2011-05-21T07:05:32Z</time>
      </trkpt>
      <trkpt lat="48.64469" lon="1.86553">
        <ele>99.63</ele>
        <time>2011-05-21T07:05:33Z</time>
      </trkpt>
      <trkpt lat="48.64472" lon="1.86552">
        <ele>99.63</ele>
        <time>2011-05-21T07:05:34Z</time>
      </trkpt>
      <trkpt lat="48.64484" lon="1.86552">
        <ele>99.63</ele>
        <time>2011-05-21T07:05:37Z</time>
      </trkpt>
      <trkpt lat="48.64488" lon="1.86552">
        <ele>99.63</ele>
        <time>2011-05-21T07:05:38Z</time>
      </trkpt>
      <trkpt lat="48.64496" lon="1.86552">
        <ele>99.63</ele>
        <time>2011-05-21T07:05:40Z</time>
      </trkpt>
      <trkpt lat="48.645" lon="1.86553">
        <ele>99.63</ele>
        <time>2011-05-21T07:05:41Z</time>
      </trkpt>
      <trkpt lat="48.64539" lon="1.86558">
        <ele>100.11</ele>
        <time>2011-05-21T07:05:49Z</time>
      </trkpt>
      <trkpt lat="48.64554" lon="1.86565">
        <ele>99.63</ele>
        <time>2011-05-21T07:05:52Z</time>
      </trkpt>
      <trkpt lat="48.64558" lon="1.86569">
        <ele>99.63</ele>
        <time>2011-05-21T07:05:53Z</time>
      </trkpt>
      <trkpt lat="48.64562" lon="1.86574">
        <ele>99.63</ele>
        <time>2011-05-21T07:05:54Z</time>
      </trkpt>
      <trkpt lat="48.64586" lon="1.86611">
        <ele>100.11</ele>
        <time>2011-05-21T07:06:01Z</time>
      </trkpt>
      <trkpt lat="48.64593" lon="1.86623">
        <ele>100.11</ele>
        <time>2011-05-21T07:06:03Z</time>
      </trkpt>
      <trkpt lat="48.64595" lon="1.86629">
        <ele>100.11</ele>
        <time>2011-05-21T07:06:04Z</time>
      </trkpt>
      <trkpt lat="48.64597" lon="1.86636">
        <ele>100.11</ele>
        <time>2011-05-21T07:06:05Z</time>
      </trkpt>
      <trkpt lat="48.646" lon="1.86642">
        <ele>100.11</ele>
        <time>2011-05-21T07:06:06Z</time>
      </trkpt>
      <trkpt lat="48.64603" lon="1.86649">
        <ele>100.11</ele>
        <time>2011-05-21T07:06:07Z</time>
      </trkpt>
      <trkpt lat="48.64606" lon="1.86656">
        <ele>100.6</ele>
        <time>2011-05-21T07:06:08Z</time>
      </trkpt>
      <trkpt lat="48.64609" lon="1.86663">
        <ele>100.6</ele>
        <time>2011-05-21T07:06:09Z</time>
      </trkpt>
      <trkpt lat="48.64612" lon="1.86669">
        <ele>100.6</ele>
        <time>2011-05-21T07:06:10Z</time>
      </trkpt>
      <trkpt lat="48.64619" lon="1.8669">
        <ele>101.08</ele>
        <time>2011-05-21T07:06:13Z</time>
      </trkpt>
      <trkpt lat="48.64623" lon="1.86696">
        <ele>100.6</ele>
        <time>2011-05-21T07:06:14Z</time>
      </trkpt>
      <trkpt lat="48.64635" lon="1.86715">
        <ele>100.11</ele>
        <time>2011-05-21T07:06:17Z</time>
      </trkpt>
      <trkpt lat="48.64659" lon="1.86739">
        <ele>101.56</ele>
        <time>2011-05-21T07:06:22Z</time>
      </trkpt>
      <trkpt lat="48.64664" lon="1.86744">
        <ele>101.08</ele>
        <time>2011-05-21T07:06:23Z</time>
      </trkpt>
      <trkpt lat="48.64668" lon="1.8675">
        <ele>101.56</ele>
        <time>2011-05-21T07:06:24Z</time>
      </trkpt>
      <trkpt lat="48.64671" lon="1.86756">
        <ele>101.08</ele>
        <time>2011-05-21T07:06:25Z</time>
      </trkpt>
      <trkpt lat="48.64675" lon="1.86762">
        <ele>101.08</ele>
        <time>2011-05-21T07:06:26Z</time>
      </trkpt>
      <trkpt lat="48.64679" lon="1.86768">
        <ele>100.6</ele>
        <time>2011-05-21T07:06:27Z</time>
      </trkpt>
      <trkpt lat="48.6469" lon="1.86786">
        <ele>100.6</ele>
        <time>2011-05-21T07:06:30Z</time>
      </trkpt>
      <trkpt lat="48.64695" lon="1.86791">
        <ele>101.56</ele>
        <time>2011-05-21T07:06:31Z</time>
      </trkpt>
      <trkpt lat="48.64699" lon="1.86794">
        <ele>101.56</ele>
        <time>2011-05-21T07:06:32Z</time>
      </trkpt>
      <trkpt lat="48.64755" lon="1.86843">
        <ele>102.04</ele>
        <time>2011-05-21T07:06:44Z</time>
      </trkpt>
      <trkpt lat="48.64782" lon="1.86869">
        <ele>102.04</ele>
        <time>2011-05-21T07:06:50Z</time>
      </trkpt>
      <trkpt lat="48.64784" lon="1.86874">
        <ele>102.04</ele>
        <time>2011-05-21T07:06:51Z</time>
      </trkpt>
      <trkpt lat="48.64785" lon="1.8688">
        <ele>101.56</ele>
        <time>2011-05-21T07:06:52Z</time>
      </trkpt>
      <trkpt lat="48.64786" lon="1.86894">
        <ele>102.04</ele>
        <time>2011-05-21T07:06:54Z</time>
      </trkpt>
      <trkpt lat="48.64786" lon="1.86901">
        <ele>102.52</ele>
        <time>2011-05-21T07:06:55Z</time>
      </trkpt>
      <trkpt lat="48.64786" lon="1.86907">
        <ele>103</ele>
        <time>2011-05-21T07:06:56Z</time>
      </trkpt>
      <trkpt lat="48.64788" lon="1.86934">
        <ele>105.4</ele>
        <time>2011-05-21T07:07:01Z</time>
      </trkpt>
      <trkpt lat="48.64787" lon="1.86952">
        <ele>106.84</ele>
        <time>2011-05-21T07:07:05Z</time>
      </trkpt>
      <trkpt lat="48.64776" lon="1.86984">
        <ele>110.21</ele>
        <time>2011-05-21T07:07:13Z</time>
      </trkpt>
      <trkpt lat="48.64758" lon="1.87027">
        <ele>111.17</ele>
        <time>2011-05-21T07:07:23Z</time>
      </trkpt>
      <trkpt lat="48.64737" lon="1.87081">
        <ele>111.65</ele>
        <time>2011-05-21T07:07:35Z</time>
      </trkpt>
      <trkpt lat="48.64732" lon="1.87098">
        <ele>111.65</ele>
        <time>2011-05-21T07:07:38Z</time>
      </trkpt>
      <trkpt lat="48.64719" lon="1.87127">
        <ele>112.13</ele>
        <time>2011-05-21T07:07:43Z</time>
      </trkpt>
      <trkpt lat="48.64717" lon="1.87133">
        <ele>111.65</ele>
        <time>2011-05-21T07:07:44Z</time>
      </trkpt>
      <trkpt lat="48.64713" lon="1.87145">
        <ele>112.61</ele>
        <time>2011-05-21T07:07:46Z</time>
      </trkpt>
      <trkpt lat="48.64684" lon="1.87209">
        <ele>113.09</ele>
        <time>2011-05-21T07:07:56Z</time>
      </trkpt>
      <trkpt lat="48.64677" lon="1.87226">
        <ele>113.57</ele>
        <time>2011-05-21T07:07:59Z</time>
      </trkpt>
      <trkpt lat="48.64671" lon="1.87283">
        <ele>114.05</ele>
        <time>2011-05-21T07:08:12Z</time>
      </trkpt>
      <trkpt lat="48.64693" lon="1.873">
        <ele>114.05</ele>
        <time>2011-05-21T07:08:17Z</time>
      </trkpt>
      <trkpt lat="48.64697" lon="1.87304">
        <ele>113.57</ele>
        <time>2011-05-21T07:08:18Z</time>
      </trkpt>
      <trkpt lat="48.64701" lon="1.87308">
        <ele>114.05</ele>
        <time>2011-05-21T07:08:19Z</time>
      </trkpt>
      <trkpt lat="48.64705" lon="1.87312">
        <ele>114.05</ele>
        <time>2011-05-21T07:08:20Z</time>
      </trkpt>
      <trkpt lat="48.6471" lon="1.87316">
        <ele>113.57</ele>
        <time>2011-05-21T07:08:21Z</time>
      </trkpt>
      <trkpt lat="48.64714" lon="1.8732">
        <ele>113.57</ele>
        <time>2011-05-21T07:08:22Z</time>
      </trkpt>
      <trkpt lat="48.64719" lon="1.87324">
        <ele>114.05</ele>
        <time>2011-05-21T07:08:23Z</time>
      </trkpt>
      <trkpt lat="48.64752" lon="1.87358">
        <ele>114.05</ele>
        <time>2011-05-21T07:08:31Z</time>
      </trkpt>
      <trkpt lat="48.64764" lon="1.87372">
        <ele>114.05</ele>
        <time>2011-05-21T07:08:34Z</time>
      </trkpt>
      <trkpt lat="48.64767" lon="1.87376">
        <ele>114.53</ele>
        <time>2011-05-21T07:08:35Z</time>
      </trkpt>
      <trkpt lat="48.64771" lon="1.87381">
        <ele>114.05</ele>
        <time>2011-05-21T07:08:36Z</time>
      </trkpt>
      <trkpt lat="48.64774" lon="1.87386">
        <ele>114.53</ele>
        <time>2011-05-21T07:08:37Z</time>
      </trkpt>
      <trkpt lat="48.64779" lon="1.8739">
        <ele>114.05</ele>
        <time>2011-05-21T07:08:38Z</time>
      </trkpt>
      <trkpt lat="48.64834" lon="1.8745">
        <ele>115.01</ele>
        <time>2011-05-21T07:08:51Z</time>
      </trkpt>
      <trkpt lat="48.64857" lon="1.87474">
        <ele>115.01</ele>
        <time>2011-05-21T07:08:56Z</time>
      </trkpt>
      <trkpt lat="48.64869" lon="1.8749">
        <ele>115.01</ele>
        <time>2011-05-21T07:08:59Z</time>
      </trkpt>
      <trkpt lat="48.64915" lon="1.8754">
        <ele>115.01</ele>
        <time>2011-05-21T07:09:09Z</time>
      </trkpt>
      <trkpt lat="48.64941" lon="1.87569">
        <ele>114.53</ele>
        <time>2011-05-21T07:09:15Z</time>
      </trkpt>
      <trkpt lat="48.64954" lon="1.87589">
        <ele>114.05</ele>
        <time>2011-05-21T07:09:18Z</time>
      </trkpt>
      <trkpt lat="48.64956" lon="1.87597">
        <ele>114.53</ele>
        <time>2011-05-21T07:09:19Z</time>
      </trkpt>
      <trkpt lat="48.64957" lon="1.87604">
        <ele>114.53</ele>
        <time>2011-05-21T07:09:20Z</time>
      </trkpt>
      <trkpt lat="48.64957" lon="1.87612">
        <ele>114.53</ele>
        <time>2011-05-21T07:09:21Z</time>
      </trkpt>
      <trkpt lat="48.64956" lon="1.87619">
        <ele>114.53</ele>
        <time>2011-05-21T07:09:22Z</time>
      </trkpt>
      <trkpt lat="48.64947" lon="1.87666">
        <ele>115.5</ele>
        <time>2011-05-21T07:09:28Z</time>
      </trkpt>
      <trkpt lat="48.64945" lon="1.87674">
        <ele>115.01</ele>
        <time>2011-05-21T07:09:29Z</time>
      </trkpt>
      <trkpt lat="48.64939" lon="1.87712">
        <ele>115.01</ele>
        <time>2011-05-21T07:09:34Z</time>
      </trkpt>
      <trkpt lat="48.64937" lon="1.8772">
        <ele>115.01</ele>
        <time>2011-05-21T07:09:35Z</time>
      </trkpt>
      <trkpt lat="48.64936" lon="1.87737">
        <ele>115.01</ele>
        <time>2011-05-21T07:09:37Z</time>
      </trkpt>
      <trkpt lat="48.64936" lon="1.87745">
        <ele>115.01</ele>
        <time>2011-05-21T07:09:38Z</time>
      </trkpt>
      <trkpt lat="48.64936" lon="1.87753">
        <ele>115.01</ele>
        <time>2011-05-21T07:09:39Z</time>
      </trkpt>
      <trkpt lat="48.64938" lon="1.8776">
        <ele>115.5</ele>
        <time>2011-05-21T07:09:40Z</time>
      </trkpt>
      <trkpt lat="48.6494" lon="1.87767">
        <ele>115.01</ele>
        <time>2011-05-21T07:09:41Z</time>
      </trkpt>
      <trkpt lat="48.64943" lon="1.87773">
        <ele>115.5</ele>
        <time>2011-05-21T07:09:42Z</time>
      </trkpt>
      <trkpt lat="48.64947" lon="1.87778">
        <ele>115.01</ele>
        <time>2011-05-21T07:09:43Z</time>
      </trkpt>
      <trkpt lat="48.64951" lon="1.87781">
        <ele>114.53</ele>
        <time>2011-05-21T07:09:44Z</time>
      </trkpt>
      <trkpt lat="48.64959" lon="1.87788">
        <ele>114.05</ele>
        <time>2011-05-21T07:09:46Z</time>
      </trkpt>
      <trkpt lat="48.64985" lon="1.87808">
        <ele>113.09</ele>
        <time>2011-05-21T07:09:51Z</time>
      </trkpt>
      <trkpt lat="48.65057" lon="1.87862">
        <ele>110.69</ele>
        <time>2011-05-21T07:10:03Z</time>
      </trkpt>
      <trkpt lat="48.65068" lon="1.87869">
        <ele>110.69</ele>
        <time>2011-05-21T07:10:05Z</time>
      </trkpt>
      <trkpt lat="48.65088" lon="1.87876">
        <ele>110.21</ele>
        <time>2011-05-21T07:10:08Z</time>
      </trkpt>
      <trkpt lat="48.65094" lon="1.87878">
        <ele>110.21</ele>
        <time>2011-05-21T07:10:09Z</time>
      </trkpt>
      <trkpt lat="48.65099" lon="1.8788">
        <ele>111.17</ele>
        <time>2011-05-21T07:10:10Z</time>
      </trkpt>
      <trkpt lat="48.65148" lon="1.87895">
        <ele>109.73</ele>
        <time>2011-05-21T07:10:18Z</time>
      </trkpt>
      <trkpt lat="48.65155" lon="1.87897">
        <ele>108.77</ele>
        <time>2011-05-21T07:10:19Z</time>
      </trkpt>
      <trkpt lat="48.65194" lon="1.8791">
        <ele>108.29</ele>
        <time>2011-05-21T07:10:25Z</time>
      </trkpt>
      <trkpt lat="48.65201" lon="1.87913">
        <ele>108.77</ele>
        <time>2011-05-21T07:10:26Z</time>
      </trkpt>
      <trkpt lat="48.65228" lon="1.87922">
        <ele>110.69</ele>
        <time>2011-05-21T07:10:31Z</time>
      </trkpt>
      <trkpt lat="48.65249" lon="1.87929">
        <ele>113.09</ele>
        <time>2011-05-21T07:10:36Z</time>
      </trkpt>
      <trkpt lat="48.65253" lon="1.8793">
        <ele>113.57</ele>
        <time>2011-05-21T07:10:37Z</time>
      </trkpt>
      <trkpt lat="48.65261" lon="1.87933">
        <ele>115.01</ele>
        <time>2011-05-21T07:10:39Z</time>
      </trkpt>
      <trkpt lat="48.6527" lon="1.87944">
        <ele>115.98</ele>
        <time>2011-05-21T07:10:44Z</time>
      </trkpt>
      <trkpt lat="48.65282" lon="1.87955">
        <ele>116.46</ele>
        <time>2011-05-21T07:10:50Z</time>
      </trkpt>
      <trkpt lat="48.65282" lon="1.87959">
        <ele>116.46</ele>
        <time>2011-05-21T07:10:51Z</time>
      </trkpt>
      <trkpt lat="48.65286" lon="1.87963">
        <ele>116.46</ele>
        <time>2011-05-21T07:10:52Z</time>
      </trkpt>
      <trkpt lat="48.65287" lon="1.87967">
        <ele>115.98</ele>
        <time>2011-05-21T07:10:53Z</time>
      </trkpt>
      <trkpt lat="48.65291" lon="1.87972">
        <ele>116.46</ele>
        <time>2011-05-21T07:10:54Z</time>
      </trkpt>
      <trkpt lat="48.65296" lon="1.87977">
        <ele>115.98</ele>
        <time>2011-05-21T07:10:55Z</time>
      </trkpt>
      <trkpt lat="48.65316" lon="1.87998">
        <ele>116.94</ele>
        <time>2011-05-21T07:11:01Z</time>
      </trkpt>
      <trkpt lat="48.65318" lon="1.87999">
        <ele>116.94</ele>
        <time>2011-05-21T07:11:02Z</time>
      </trkpt>
      <trkpt lat="48.6532" lon="1.88002">
        <ele>116.94</ele>
        <time>2011-05-21T07:11:03Z</time>
      </trkpt>
      <trkpt lat="48.65321" lon="1.88005">
        <ele>116.46</ele>
        <time>2011-05-21T07:11:04Z</time>
      </trkpt>
      <trkpt lat="48.65321" lon="1.88008">
        <ele>117.9</ele>
        <time>2011-05-21T07:11:05Z</time>
      </trkpt>
      <trkpt lat="48.65321" lon="1.88012">
        <ele>116.94</ele>
        <time>2011-05-21T07:11:06Z</time>
      </trkpt>
      <trkpt lat="48.65322" lon="1.88015">
        <ele>116.94</ele>
        <time>2011-05-21T07:11:07Z</time>
      </trkpt>
      <trkpt lat="48.65322" lon="1.88019">
        <ele>116.94</ele>
        <time>2011-05-21T07:11:08Z</time>
      </trkpt>
      <trkpt lat="48.65321" lon="1.88022">
        <ele>116.94</ele>
        <time>2011-05-21T07:11:09Z</time>
      </trkpt>
      <trkpt lat="48.65322" lon="1.88025">
        <ele>116.94</ele>
        <time>2011-05-21T07:11:10Z</time>
      </trkpt>
      <trkpt lat="48.65324" lon="1.88026">
        <ele>116.94</ele>
        <time>2011-05-21T07:11:11Z</time>
      </trkpt>
      <trkpt lat="48.65326" lon="1.88024">
        <ele>116.94</ele>
        <time>2011-05-21T07:11:12Z</time>
      </trkpt>
      <trkpt lat="48.65328" lon="1.88021">
        <ele>117.42</ele>
        <time>2011-05-21T07:11:13Z</time>
      </trkpt>
      <trkpt lat="48.65344" lon="1.88023">
        <ele>117.42</ele>
        <time>2011-05-21T07:11:20Z</time>
      </trkpt>
      <trkpt lat="48.65348" lon="1.88027">
        <ele>117.42</ele>
        <time>2011-05-21T07:11:21Z</time>
      </trkpt>
      <trkpt lat="48.65355" lon="1.88036">
        <ele>117.42</ele>
        <time>2011-05-21T07:11:23Z</time>
      </trkpt>
      <trkpt lat="48.65372" lon="1.88054">
        <ele>117.42</ele>
        <time>2011-05-21T07:11:27Z</time>
      </trkpt>
      <trkpt lat="48.65377" lon="1.88058">
        <ele>117.42</ele>
        <time>2011-05-21T07:11:28Z</time>
      </trkpt>
      <trkpt lat="48.65389" lon="1.88073">
        <ele>117.42</ele>
        <time>2011-05-21T07:11:31Z</time>
      </trkpt>
      <trkpt lat="48.65411" lon="1.88104">
        <ele>117.9</ele>
        <time>2011-05-21T07:11:37Z</time>
      </trkpt>
      <trkpt lat="48.65415" lon="1.88111">
        <ele>117.42</ele>
        <time>2011-05-21T07:11:38Z</time>
      </trkpt>
      <trkpt lat="48.65418" lon="1.88119">
        <ele>117.42</ele>
        <time>2011-05-21T07:11:39Z</time>
      </trkpt>
      <trkpt lat="48.65421" lon="1.88127">
        <ele>117.9</ele>
        <time>2011-05-21T07:11:40Z</time>
      </trkpt>
      <trkpt lat="48.65422" lon="1.88135">
        <ele>117.9</ele>
        <time>2011-05-21T07:11:41Z</time>
      </trkpt>
      <trkpt lat="48.65422" lon="1.88143">
        <ele>117.42</ele>
        <time>2011-05-21T07:11:42Z</time>
      </trkpt>
      <trkpt lat="48.65423" lon="1.88174">
        <ele>117.9</ele>
        <time>2011-05-21T07:11:46Z</time>
      </trkpt>
      <trkpt lat="48.65428" lon="1.88229">
        <ele>118.86</ele>
        <time>2011-05-21T07:11:53Z</time>
      </trkpt>
      <trkpt lat="48.65426" lon="1.88351">
        <ele>118.86</ele>
        <time>2011-05-21T07:12:08Z</time>
      </trkpt>
      <trkpt lat="48.65427" lon="1.8839">
        <ele>118.86</ele>
        <time>2011-05-21T07:12:13Z</time>
      </trkpt>
      <trkpt lat="48.65426" lon="1.88397">
        <ele>119.34</ele>
        <time>2011-05-21T07:12:14Z</time>
      </trkpt>
      <trkpt lat="48.65424" lon="1.88435">
        <ele>118.86</ele>
        <time>2011-05-21T07:12:19Z</time>
      </trkpt>
      <trkpt lat="48.65425" lon="1.88442">
        <ele>119.34</ele>
        <time>2011-05-21T07:12:20Z</time>
      </trkpt>
      <trkpt lat="48.65426" lon="1.88448">
        <ele>118.86</ele>
        <time>2011-05-21T07:12:21Z</time>
      </trkpt>
      <trkpt lat="48.65427" lon="1.88454">
        <ele>118.86</ele>
        <time>2011-05-21T07:12:22Z</time>
      </trkpt>
      <trkpt lat="48.65431" lon="1.88459">
        <ele>118.86</ele>
        <time>2011-05-21T07:12:23Z</time>
      </trkpt>
      <trkpt lat="48.65434" lon="1.88464">
        <ele>118.38</ele>
        <time>2011-05-21T07:12:24Z</time>
      </trkpt>
      <trkpt lat="48.65438" lon="1.88468">
        <ele>118.86</ele>
        <time>2011-05-21T07:12:25Z</time>
      </trkpt>
      <trkpt lat="48.65443" lon="1.88471">
        <ele>118.86</ele>
        <time>2011-05-21T07:12:26Z</time>
      </trkpt>
      <trkpt lat="48.65448" lon="1.88473">
        <ele>118.86</ele>
        <time>2011-05-21T07:12:27Z</time>
      </trkpt>
      <trkpt lat="48.65452" lon="1.88475">
        <ele>119.34</ele>
        <time>2011-05-21T07:12:28Z</time>
      </trkpt>
      <trkpt lat="48.65461" lon="1.88479">
        <ele>119.82</ele>
        <time>2011-05-21T07:12:30Z</time>
      </trkpt>
      <trkpt lat="48.65478" lon="1.88488">
        <ele>119.82</ele>
        <time>2011-05-21T07:12:34Z</time>
      </trkpt>
      <trkpt lat="48.65499" lon="1.88497">
        <ele>120.3</ele>
        <time>2011-05-21T07:12:39Z</time>
      </trkpt>
      <trkpt lat="48.65551" lon="1.88514">
        <ele>119.82</ele>
        <time>2011-05-21T07:12:50Z</time>
      </trkpt>
      <trkpt lat="48.65585" lon="1.88527">
        <ele>120.3</ele>
        <time>2011-05-21T07:12:57Z</time>
      </trkpt>
      <trkpt lat="48.65606" lon="1.88528">
        <ele>120.3</ele>
        <time>2011-05-21T07:13:01Z</time>
      </trkpt>
      <trkpt lat="48.65611" lon="1.88529">
        <ele>120.3</ele>
        <time>2011-05-21T07:13:02Z</time>
      </trkpt>
      <trkpt lat="48.65652" lon="1.88528">
        <ele>119.82</ele>
        <time>2011-05-21T07:13:10Z</time>
      </trkpt>
      <trkpt lat="48.65673" lon="1.88531">
        <ele>119.82</ele>
        <time>2011-05-21T07:13:14Z</time>
      </trkpt>
      <trkpt lat="48.65678" lon="1.88531">
        <ele>120.3</ele>
        <time>2011-05-21T07:13:15Z</time>
      </trkpt>
      <trkpt lat="48.65684" lon="1.88531">
        <ele>120.3</ele>
        <time>2011-05-21T07:13:16Z</time>
      </trkpt>
      <trkpt lat="48.65689" lon="1.88531">
        <ele>120.3</ele>
        <time>2011-05-21T07:13:17Z</time>
      </trkpt>
      <trkpt lat="48.65694" lon="1.8853">
        <ele>120.3</ele>
        <time>2011-05-21T07:13:18Z</time>
      </trkpt>
      <trkpt lat="48.65706" lon="1.88528">
        <ele>120.3</ele>
        <time>2011-05-21T07:13:20Z</time>
      </trkpt>
      <trkpt lat="48.65711" lon="1.88527">
        <ele>120.78</ele>
        <time>2011-05-21T07:13:21Z</time>
      </trkpt>
      <trkpt lat="48.65717" lon="1.88526">
        <ele>120.3</ele>
        <time>2011-05-21T07:13:22Z</time>
      </trkpt>
      <trkpt lat="48.65727" lon="1.88523">
        <ele>120.78</ele>
        <time>2011-05-21T07:13:24Z</time>
      </trkpt>
      <trkpt lat="48.65748" lon="1.88516">
        <ele>120.3</ele>
        <time>2011-05-21T07:13:28Z</time>
      </trkpt>
      <trkpt lat="48.65807" lon="1.885">
        <ele>121.26</ele>
        <time>2011-05-21T07:13:40Z</time>
      </trkpt>
      <trkpt lat="48.65852" lon="1.88476">
        <ele>121.74</ele>
        <time>2011-05-21T07:13:50Z</time>
      </trkpt>
      <trkpt lat="48.65859" lon="1.88469">
        <ele>122.22</ele>
        <time>2011-05-21T07:13:52Z</time>
      </trkpt>
      <trkpt lat="48.65863" lon="1.88467">
        <ele>122.22</ele>
        <time>2011-05-21T07:13:53Z</time>
      </trkpt>
      <trkpt lat="48.65868" lon="1.88466">
        <ele>122.71</ele>
        <time>2011-05-21T07:13:54Z</time>
      </trkpt>
      <trkpt lat="48.65871" lon="1.88467">
        <ele>122.71</ele>
        <time>2011-05-21T07:13:55Z</time>
      </trkpt>
      <trkpt lat="48.65876" lon="1.88468">
        <ele>122.71</ele>
        <time>2011-05-21T07:13:56Z</time>
      </trkpt>
      <trkpt lat="48.659" lon="1.88486">
        <ele>123.67</ele>
        <time>2011-05-21T07:14:03Z</time>
      </trkpt>
      <trkpt lat="48.65903" lon="1.8849">
        <ele>124.15</ele>
        <time>2011-05-21T07:14:04Z</time>
      </trkpt>
      <trkpt lat="48.65907" lon="1.88493">
        <ele>123.67</ele>
        <time>2011-05-21T07:14:05Z</time>
      </trkpt>
      <trkpt lat="48.6591" lon="1.88496">
        <ele>124.15</ele>
        <time>2011-05-21T07:14:06Z</time>
      </trkpt>
      <trkpt lat="48.65913" lon="1.88499">
        <ele>124.63</ele>
        <time>2011-05-21T07:14:07Z</time>
      </trkpt>
      <trkpt lat="48.65916" lon="1.88501">
        <ele>124.63</ele>
        <time>2011-05-21T07:14:08Z</time>
      </trkpt>
      <trkpt lat="48.6592" lon="1.88502">
        <ele>124.15</ele>
        <time>2011-05-21T07:14:09Z</time>
      </trkpt>
      <trkpt lat="48.65923" lon="1.88502">
        <ele>124.15</ele>
        <time>2011-05-21T07:14:10Z</time>
      </trkpt>
      <trkpt lat="48.65926" lon="1.885">
        <ele>124.15</ele>
        <time>2011-05-21T07:14:11Z</time>
      </trkpt>
      <trkpt lat="48.65929" lon="1.88496">
        <ele>123.67</ele>
        <time>2011-05-21T07:14:12Z</time>
      </trkpt>
      <trkpt lat="48.65931" lon="1.8849">
        <ele>124.15</ele>
        <time>2011-05-21T07:14:13Z</time>
      </trkpt>
      <trkpt lat="48.65977" lon="1.88391">
        <ele>125.11</ele>
        <time>2011-05-21T07:14:30Z</time>
      </trkpt>
      <trkpt lat="48.65999" lon="1.8835">
        <ele>125.11</ele>
        <time>2011-05-21T07:14:37Z</time>
      </trkpt>
      <trkpt lat="48.6601" lon="1.88325">
        <ele>125.59</ele>
        <time>2011-05-21T07:14:41Z</time>
      </trkpt>
      <trkpt lat="48.66016" lon="1.88313">
        <ele>125.11</ele>
        <time>2011-05-21T07:14:43Z</time>
      </trkpt>
      <trkpt lat="48.66067" lon="1.88207">
        <ele>125.59</ele>
        <time>2011-05-21T07:14:59Z</time>
      </trkpt>
      <trkpt lat="48.66136" lon="1.88066">
        <ele>124.15</ele>
        <time>2011-05-21T07:15:18Z</time>
      </trkpt>
      <trkpt lat="48.66155" lon="1.88029">
        <ele>124.15</ele>
        <time>2011-05-21T07:15:23Z</time>
      </trkpt>
      <trkpt lat="48.66215" lon="1.87904">
        <ele>124.63</ele>
        <time>2011-05-21T07:15:40Z</time>
      </trkpt>
      <trkpt lat="48.66243" lon="1.87861">
        <ele>124.63</ele>
        <time>2011-05-21T07:15:47Z</time>
      </trkpt>
      <trkpt lat="48.66263" lon="1.87846">
        <ele>125.11</ele>
        <time>2011-05-21T07:15:51Z</time>
      </trkpt>
      <trkpt lat="48.66298" lon="1.87829">
        <ele>126.07</ele>
        <time>2011-05-21T07:15:58Z</time>
      </trkpt>
      <trkpt lat="48.66303" lon="1.87826">
        <ele>126.55</ele>
        <time>2011-05-21T07:15:59Z</time>
      </trkpt>
      <trkpt lat="48.66367" lon="1.87794">
        <ele>127.03</ele>
        <time>2011-05-21T07:16:12Z</time>
      </trkpt>
      <trkpt lat="48.66381" lon="1.87784">
        <ele>127.03</ele>
        <time>2011-05-21T07:16:15Z</time>
      </trkpt>
      <trkpt lat="48.66384" lon="1.8778">
        <ele>127.03</ele>
        <time>2011-05-21T07:16:16Z</time>
      </trkpt>
      <trkpt lat="48.66386" lon="1.87775">
        <ele>127.03</ele>
        <time>2011-05-21T07:16:17Z</time>
      </trkpt>
      <trkpt lat="48.66388" lon="1.87769">
        <ele>127.51</ele>
        <time>2011-05-21T07:16:18Z</time>
      </trkpt>
      <trkpt lat="48.66389" lon="1.87763">
        <ele>127.51</ele>
        <time>2011-05-21T07:16:19Z</time>
      </trkpt>
      <trkpt lat="48.66391" lon="1.87756">
        <ele>127.03</ele>
        <time>2011-05-21T07:16:20Z</time>
      </trkpt>
      <trkpt lat="48.66392" lon="1.87747">
        <ele>127.51</ele>
        <time>2011-05-21T07:16:21Z</time>
      </trkpt>
      <trkpt lat="48.66418" lon="1.87605">
        <ele>127.51</ele>
        <time>2011-05-21T07:16:39Z</time>
      </trkpt>
      <trkpt lat="48.66426" lon="1.87566">
        <ele>127.51</ele>
        <time>2011-05-21T07:16:44Z</time>
      </trkpt>
      <trkpt lat="48.66427" lon="1.87559">
        <ele>127.99</ele>
        <time>2011-05-21T07:16:45Z</time>
      </trkpt>
      <trkpt lat="48.66443" lon="1.8746">
        <ele>127.99</ele>
        <time>2011-05-21T07:16:58Z</time>
      </trkpt>
      <trkpt lat="48.66446" lon="1.87443">
        <ele>128.47</ele>
        <time>2011-05-21T07:17:01Z</time>
      </trkpt>
      <trkpt lat="48.66449" lon="1.87441">
        <ele>127.99</ele>
        <time>2011-05-21T07:17:02Z</time>
      </trkpt>
      <trkpt lat="48.66451" lon="1.87442">
        <ele>128.47</ele>
        <time>2011-05-21T07:17:03Z</time>
      </trkpt>
      <trkpt lat="48.66457" lon="1.87449">
        <ele>128.95</ele>
        <time>2011-05-21T07:17:06Z</time>
      </trkpt>
      <trkpt lat="48.66459" lon="1.87448">
        <ele>128.95</ele>
        <time>2011-05-21T07:17:07Z</time>
      </trkpt>
      <trkpt lat="48.6646" lon="1.87448">
        <ele>128.95</ele>
        <time>2011-05-21T07:17:08Z</time>
      </trkpt>
      <trkpt lat="48.66462" lon="1.87448">
        <ele>128.47</ele>
        <time>2011-05-21T07:17:09Z</time>
      </trkpt>
      <trkpt lat="48.66464" lon="1.87448">
        <ele>128.47</ele>
        <time>2011-05-21T07:17:10Z</time>
      </trkpt>
      <trkpt lat="48.66497" lon="1.87435">
        <ele>128.95</ele>
        <time>2011-05-21T07:17:20Z</time>
      </trkpt>
      <trkpt lat="48.66552" lon="1.87409">
        <ele>129.92</ele>
        <time>2011-05-21T07:17:31Z</time>
      </trkpt>
      <trkpt lat="48.6656" lon="1.87404">
        <ele>129.92</ele>
        <time>2011-05-21T07:17:33Z</time>
      </trkpt>
      <trkpt lat="48.66564" lon="1.87403">
        <ele>130.4</ele>
        <time>2011-05-21T07:17:34Z</time>
      </trkpt>
      <trkpt lat="48.66569" lon="1.87402">
        <ele>129.92</ele>
        <time>2011-05-21T07:17:35Z</time>
      </trkpt>
      <trkpt lat="48.66574" lon="1.87401">
        <ele>130.4</ele>
        <time>2011-05-21T07:17:36Z</time>
      </trkpt>
      <trkpt lat="48.66578" lon="1.874">
        <ele>130.88</ele>
        <time>2011-05-21T07:17:37Z</time>
      </trkpt>
      <trkpt lat="48.66582" lon="1.87397">
        <ele>130.4</ele>
        <time>2011-05-21T07:17:38Z</time>
      </trkpt>
      <trkpt lat="48.66586" lon="1.87394">
        <ele>130.88</ele>
        <time>2011-05-21T07:17:39Z</time>
      </trkpt>
      <trkpt lat="48.66591" lon="1.8739">
        <ele>130.4</ele>
        <time>2011-05-21T07:17:40Z</time>
      </trkpt>
      <trkpt lat="48.66596" lon="1.87388">
        <ele>130.4</ele>
        <time>2011-05-21T07:17:41Z</time>
      </trkpt>
      <trkpt lat="48.66602" lon="1.87386">
        <ele>130.88</ele>
        <time>2011-05-21T07:17:42Z</time>
      </trkpt>
      <trkpt lat="48.66623" lon="1.87377">
        <ele>130.88</ele>
        <time>2011-05-21T07:17:46Z</time>
      </trkpt>
      <trkpt lat="48.66639" lon="1.87372">
        <ele>131.36</ele>
        <time>2011-05-21T07:17:49Z</time>
      </trkpt>
      <trkpt lat="48.6665" lon="1.87367">
        <ele>130.88</ele>
        <time>2011-05-21T07:17:51Z</time>
      </trkpt>
      <trkpt lat="48.66661" lon="1.87363">
        <ele>130.88</ele>
        <time>2011-05-21T07:17:53Z</time>
      </trkpt>
      <trkpt lat="48.66696" lon="1.87342">
        <ele>131.36</ele>
        <time>2011-05-21T07:18:00Z</time>
      </trkpt>
      <trkpt lat="48.66702" lon="1.8734">
        <ele>130.88</ele>
        <time>2011-05-21T07:18:01Z</time>
      </trkpt>
      <trkpt lat="48.66718" lon="1.87334">
        <ele>131.36</ele>
        <time>2011-05-21T07:18:04Z</time>
      </trkpt>
      <trkpt lat="48.66748" lon="1.87317">
        <ele>130.88</ele>
        <time>2011-05-21T07:18:10Z</time>
      </trkpt>
      <trkpt lat="48.66753" lon="1.87314">
        <ele>131.36</ele>
        <time>2011-05-21T07:18:11Z</time>
      </trkpt>
      <trkpt lat="48.66775" lon="1.87304">
        <ele>131.36</ele>
        <time>2011-05-21T07:18:15Z</time>
      </trkpt>
      <trkpt lat="48.66781" lon="1.87302">
        <ele>131.36</ele>
        <time>2011-05-21T07:18:16Z</time>
      </trkpt>
      <trkpt lat="48.66787" lon="1.873">
        <ele>130.88</ele>
        <time>2011-05-21T07:18:17Z</time>
      </trkpt>
      <trkpt lat="48.66793" lon="1.87297">
        <ele>131.84</ele>
        <time>2011-05-21T07:18:18Z</time>
      </trkpt>
      <trkpt lat="48.66798" lon="1.87294">
        <ele>131.36</ele>
        <time>2011-05-21T07:18:19Z</time>
      </trkpt>
      <trkpt lat="48.66822" lon="1.87281">
        <ele>131.84</ele>
        <time>2011-05-21T07:18:24Z</time>
      </trkpt>
      <trkpt lat="48.66838" lon="1.87275">
        <ele>131.84</ele>
        <time>2011-05-21T07:18:27Z</time>
      </trkpt>
      <trkpt lat="48.66853" lon="1.87269">
        <ele>132.32</ele>
        <time>2011-05-21T07:18:30Z</time>
      </trkpt>
      <trkpt lat="48.66859" lon="1.87267">
        <ele>131.36</ele>
        <time>2011-05-21T07:18:31Z</time>
      </trkpt>
      <trkpt lat="48.66864" lon="1.87264">
        <ele>131.84</ele>
        <time>2011-05-21T07:18:32Z</time>
      </trkpt>
      <trkpt lat="48.6687" lon="1.87261">
        <ele>131.84</ele>
        <time>2011-05-21T07:18:33Z</time>
      </trkpt>
      <trkpt lat="48.66876" lon="1.87258">
        <ele>131.84</ele>
        <time>2011-05-21T07:18:34Z</time>
      </trkpt>
      <trkpt lat="48.66881" lon="1.87255">
        <ele>131.84</ele>
        <time>2011-05-21T07:18:35Z</time>
      </trkpt>
      <trkpt lat="48.66924" lon="1.87239">
        <ele>132.32</ele>
        <time>2011-05-21T07:18:43Z</time>
      </trkpt>
      <trkpt lat="48.6694" lon="1.87236">
        <ele>131.36</ele>
        <time>2011-05-21T07:18:47Z</time>
      </trkpt>
      <trkpt lat="48.66944" lon="1.87237">
        <ele>130.88</ele>
        <time>2011-05-21T07:18:48Z</time>
      </trkpt>
      <trkpt lat="48.6695" lon="1.87238">
        <ele>131.36</ele>
        <time>2011-05-21T07:18:50Z</time>
      </trkpt>
      <trkpt lat="48.66953" lon="1.87237">
        <ele>131.36</ele>
        <time>2011-05-21T07:18:51Z</time>
      </trkpt>
      <trkpt lat="48.66955" lon="1.87236">
        <ele>131.36</ele>
        <time>2011-05-21T07:18:52Z</time>
      </trkpt>
      <trkpt lat="48.66975" lon="1.87222">
        <ele>129.92</ele>
        <time>2011-05-21T07:18:58Z</time>
      </trkpt>
      <trkpt lat="48.67" lon="1.87204">
        <ele>129.43</ele>
        <time>2011-05-21T07:19:02Z</time>
      </trkpt>
      <trkpt lat="48.67007" lon="1.87199">
        <ele>129.43</ele>
        <time>2011-05-21T07:19:03Z</time>
      </trkpt>
      <trkpt lat="48.67064" lon="1.87159">
        <ele>128.95</ele>
        <time>2011-05-21T07:19:12Z</time>
      </trkpt>
      <trkpt lat="48.67117" lon="1.87124">
        <ele>129.43</ele>
        <time>2011-05-21T07:19:21Z</time>
      </trkpt>
      <trkpt lat="48.67185" lon="1.87082">
        <ele>129.43</ele>
        <time>2011-05-21T07:19:33Z</time>
      </trkpt>
      <trkpt lat="48.67262" lon="1.8703">
        <ele>129.92</ele>
        <time>2011-05-21T07:19:46Z</time>
      </trkpt>
      <trkpt lat="48.67268" lon="1.87027">
        <ele>129.92</ele>
        <time>2011-05-21T07:19:47Z</time>
      </trkpt>
      <trkpt lat="48.67275" lon="1.87026">
        <ele>129.92</ele>
        <time>2011-05-21T07:19:48Z</time>
      </trkpt>
      <trkpt lat="48.67281" lon="1.87027">
        <ele>130.4</ele>
        <time>2011-05-21T07:19:49Z</time>
      </trkpt>
      <trkpt lat="48.67287" lon="1.87028">
        <ele>129.92</ele>
        <time>2011-05-21T07:19:50Z</time>
      </trkpt>
      <trkpt lat="48.67364" lon="1.87049">
        <ele>130.4</ele>
        <time>2011-05-21T07:20:02Z</time>
      </trkpt>
      <trkpt lat="48.67398" lon="1.8706">
        <ele>130.4</ele>
        <time>2011-05-21T07:20:08Z</time>
      </trkpt>
      <trkpt lat="48.67403" lon="1.87063">
        <ele>129.92</ele>
        <time>2011-05-21T07:20:09Z</time>
      </trkpt>
      <trkpt lat="48.67408" lon="1.87065">
        <ele>130.88</ele>
        <time>2011-05-21T07:20:10Z</time>
      </trkpt>
      <trkpt lat="48.67434" lon="1.87072">
        <ele>130.4</ele>
        <time>2011-05-21T07:20:14Z</time>
      </trkpt>
      <trkpt lat="48.6744" lon="1.87074">
        <ele>130.88</ele>
        <time>2011-05-21T07:20:15Z</time>
      </trkpt>
      <trkpt lat="48.67445" lon="1.87075">
        <ele>130.4</ele>
        <time>2011-05-21T07:20:16Z</time>
      </trkpt>
      <trkpt lat="48.67451" lon="1.87077">
        <ele>130.4</ele>
        <time>2011-05-21T07:20:17Z</time>
      </trkpt>
      <trkpt lat="48.67457" lon="1.8708">
        <ele>130.4</ele>
        <time>2011-05-21T07:20:18Z</time>
      </trkpt>
      <trkpt lat="48.67462" lon="1.87085">
        <ele>131.36</ele>
        <time>2011-05-21T07:20:19Z</time>
      </trkpt>
      <trkpt lat="48.67467" lon="1.87088">
        <ele>132.8</ele>
        <time>2011-05-21T07:20:20Z</time>
      </trkpt>
      <trkpt lat="48.67471" lon="1.87089">
        <ele>133.28</ele>
        <time>2011-05-21T07:20:21Z</time>
      </trkpt>
      <trkpt lat="48.67482" lon="1.8706">
        <ele>132.8</ele>
        <time>2011-05-21T07:20:28Z</time>
      </trkpt>
      <trkpt lat="48.67486" lon="1.87061">
        <ele>132.8</ele>
        <time>2011-05-21T07:20:29Z</time>
      </trkpt>
      <trkpt lat="48.67491" lon="1.87065">
        <ele>131.36</ele>
        <time>2011-05-21T07:20:30Z</time>
      </trkpt>
      <trkpt lat="48.67496" lon="1.8707">
        <ele>130.88</ele>
        <time>2011-05-21T07:20:31Z</time>
      </trkpt>
      <trkpt lat="48.67501" lon="1.87074">
        <ele>130.4</ele>
        <time>2011-05-21T07:20:32Z</time>
      </trkpt>
      <trkpt lat="48.67507" lon="1.87077">
        <ele>130.4</ele>
        <time>2011-05-21T07:20:33Z</time>
      </trkpt>
      <trkpt lat="48.67513" lon="1.87079">
        <ele>130.4</ele>
        <time>2011-05-21T07:20:34Z</time>
      </trkpt>
      <trkpt lat="48.67595" lon="1.87104">
        <ele>131.36</ele>
        <time>2011-05-21T07:20:47Z</time>
      </trkpt>
      <trkpt lat="48.67607" lon="1.87107">
        <ele>131.84</ele>
        <time>2011-05-21T07:20:49Z</time>
      </trkpt>
      <trkpt lat="48.67613" lon="1.87109">
        <ele>131.36</ele>
        <time>2011-05-21T07:20:50Z</time>
      </trkpt>
      <trkpt lat="48.67691" lon="1.87126">
        <ele>131.84</ele>
        <time>2011-05-21T07:21:03Z</time>
      </trkpt>
      <trkpt lat="48.67714" lon="1.87122">
        <ele>131.84</ele>
        <time>2011-05-21T07:21:07Z</time>
      </trkpt>
      <trkpt lat="48.67719" lon="1.87119">
        <ele>132.32</ele>
        <time>2011-05-21T07:21:08Z</time>
      </trkpt>
      <trkpt lat="48.67725" lon="1.87117">
        <ele>132.8</ele>
        <time>2011-05-21T07:21:09Z</time>
      </trkpt>
      <trkpt lat="48.67729" lon="1.87117">
        <ele>133.76</ele>
        <time>2011-05-21T07:21:10Z</time>
      </trkpt>
      <trkpt lat="48.67733" lon="1.87116">
        <ele>133.76</ele>
        <time>2011-05-21T07:21:11Z</time>
      </trkpt>
      <trkpt lat="48.67736" lon="1.87115">
        <ele>133.76</ele>
        <time>2011-05-21T07:21:12Z</time>
      </trkpt>
      <trkpt lat="48.67739" lon="1.87116">
        <ele>134.24</ele>
        <time>2011-05-21T07:21:13Z</time>
      </trkpt>
      <trkpt lat="48.6774" lon="1.87118">
        <ele>134.24</ele>
        <time>2011-05-21T07:21:14Z</time>
      </trkpt>
      <trkpt lat="48.67741" lon="1.87123">
        <ele>134.24</ele>
        <time>2011-05-21T07:21:15Z</time>
      </trkpt>
      <trkpt lat="48.67741" lon="1.87128">
        <ele>134.24</ele>
        <time>2011-05-21T07:21:16Z</time>
      </trkpt>
      <trkpt lat="48.6774" lon="1.87133">
        <ele>134.24</ele>
        <time>2011-05-21T07:21:17Z</time>
      </trkpt>
      <trkpt lat="48.6774" lon="1.87142">
        <ele>134.24</ele>
        <time>2011-05-21T07:21:19Z</time>
      </trkpt>
      <trkpt lat="48.67742" lon="1.87144">
        <ele>134.72</ele>
        <time>2011-05-21T07:21:20Z</time>
      </trkpt>
      <trkpt lat="48.67744" lon="1.87144">
        <ele>134.72</ele>
        <time>2011-05-21T07:21:21Z</time>
      </trkpt>
      <trkpt lat="48.67747" lon="1.87145">
        <ele>134.24</ele>
        <time>2011-05-21T07:21:22Z</time>
      </trkpt>
      <trkpt lat="48.67751" lon="1.87145">
        <ele>134.24</ele>
        <time>2011-05-21T07:21:23Z</time>
      </trkpt>
      <trkpt lat="48.67755" lon="1.87143">
        <ele>133.76</ele>
        <time>2011-05-21T07:21:24Z</time>
      </trkpt>
      <trkpt lat="48.67761" lon="1.87141">
        <ele>133.28</ele>
        <time>2011-05-21T07:21:25Z</time>
      </trkpt>
      <trkpt lat="48.67767" lon="1.87138">
        <ele>132.8</ele>
        <time>2011-05-21T07:21:26Z</time>
      </trkpt>
      <trkpt lat="48.67773" lon="1.87137">
        <ele>132.32</ele>
        <time>2011-05-21T07:21:27Z</time>
      </trkpt>
      <trkpt lat="48.67854" lon="1.87128">
        <ele>132.32</ele>
        <time>2011-05-21T07:21:40Z</time>
      </trkpt>
      <trkpt lat="48.67934" lon="1.8712">
        <ele>132.32</ele>
        <time>2011-05-21T07:21:53Z</time>
      </trkpt>
      <trkpt lat="48.68004" lon="1.87098">
        <ele>132.8</ele>
        <time>2011-05-21T07:22:05Z</time>
      </trkpt>
      <trkpt lat="48.68021" lon="1.87092">
        <ele>132.8</ele>
        <time>2011-05-21T07:22:08Z</time>
      </trkpt>
      <trkpt lat="48.68037" lon="1.87089">
        <ele>133.76</ele>
        <time>2011-05-21T07:22:11Z</time>
      </trkpt>
      <trkpt lat="48.68052" lon="1.87089">
        <ele>134.72</ele>
        <time>2011-05-21T07:22:14Z</time>
      </trkpt>
      <trkpt lat="48.68056" lon="1.87086">
        <ele>135.2</ele>
        <time>2011-05-21T07:22:15Z</time>
      </trkpt>
      <trkpt lat="48.68066" lon="1.87077">
        <ele>137.13</ele>
        <time>2011-05-21T07:22:18Z</time>
      </trkpt>
      <trkpt lat="48.6807" lon="1.87076">
        <ele>136.64</ele>
        <time>2011-05-21T07:22:19Z</time>
      </trkpt>
      <trkpt lat="48.68077" lon="1.87073">
        <ele>136.16</ele>
        <time>2011-05-21T07:22:21Z</time>
      </trkpt>
      <trkpt lat="48.68085" lon="1.87068">
        <ele>136.16</ele>
        <time>2011-05-21T07:22:23Z</time>
      </trkpt>
      <trkpt lat="48.68089" lon="1.87067">
        <ele>136.64</ele>
        <time>2011-05-21T07:22:24Z</time>
      </trkpt>
      <trkpt lat="48.68094" lon="1.87065">
        <ele>136.64</ele>
        <time>2011-05-21T07:22:25Z</time>
      </trkpt>
      <trkpt lat="48.68098" lon="1.87063">
        <ele>137.13</ele>
        <time>2011-05-21T07:22:26Z</time>
      </trkpt>
      <trkpt lat="48.68103" lon="1.87061">
        <ele>136.64</ele>
        <time>2011-05-21T07:22:27Z</time>
      </trkpt>
      <trkpt lat="48.68108" lon="1.8706">
        <ele>136.64</ele>
        <time>2011-05-21T07:22:28Z</time>
      </trkpt>
      <trkpt lat="48.68113" lon="1.87058">
        <ele>136.64</ele>
        <time>2011-05-21T07:22:29Z</time>
      </trkpt>
      <trkpt lat="48.68118" lon="1.87057">
        <ele>136.64</ele>
        <time>2011-05-21T07:22:30Z</time>
      </trkpt>
      <trkpt lat="48.68127" lon="1.87054">
        <ele>136.64</ele>
        <time>2011-05-21T07:22:32Z</time>
      </trkpt>
      <trkpt lat="48.68132" lon="1.87052">
        <ele>136.64</ele>
        <time>2011-05-21T07:22:33Z</time>
      </trkpt>
      <trkpt lat="48.68168" lon="1.87042">
        <ele>137.13</ele>
        <time>2011-05-21T07:22:40Z</time>
      </trkpt>
      <trkpt lat="48.68178" lon="1.87037">
        <ele>137.13</ele>
        <time>2011-05-21T07:22:42Z</time>
      </trkpt>
      <trkpt lat="48.68203" lon="1.87025">
        <ele>136.64</ele>
        <time>2011-05-21T07:22:47Z</time>
      </trkpt>
      <trkpt lat="48.68219" lon="1.87019">
        <ele>136.64</ele>
        <time>2011-05-21T07:22:50Z</time>
      </trkpt>
      <trkpt lat="48.68224" lon="1.87018">
        <ele>136.64</ele>
        <time>2011-05-21T07:22:51Z</time>
      </trkpt>
      <trkpt lat="48.68229" lon="1.87015">
        <ele>136.64</ele>
        <time>2011-05-21T07:22:52Z</time>
      </trkpt>
      <trkpt lat="48.68234" lon="1.87014">
        <ele>137.13</ele>
        <time>2011-05-21T07:22:53Z</time>
      </trkpt>
      <trkpt lat="48.68239" lon="1.87013">
        <ele>137.13</ele>
        <time>2011-05-21T07:22:54Z</time>
      </trkpt>
      <trkpt lat="48.68244" lon="1.87011">
        <ele>137.13</ele>
        <time>2011-05-21T07:22:55Z</time>
      </trkpt>
      <trkpt lat="48.68249" lon="1.87009">
        <ele>136.64</ele>
        <time>2011-05-21T07:22:56Z</time>
      </trkpt>
      <trkpt lat="48.68255" lon="1.87008">
        <ele>137.13</ele>
        <time>2011-05-21T07:22:57Z</time>
      </trkpt>
      <trkpt lat="48.6826" lon="1.87006">
        <ele>137.61</ele>
        <time>2011-05-21T07:22:58Z</time>
      </trkpt>
      <trkpt lat="48.68327" lon="1.86986">
        <ele>137.61</ele>
        <time>2011-05-21T07:23:11Z</time>
      </trkpt>
      <trkpt lat="48.68332" lon="1.86985">
        <ele>137.13</ele>
        <time>2011-05-21T07:23:12Z</time>
      </trkpt>
      <trkpt lat="48.68346" lon="1.86981">
        <ele>138.09</ele>
        <time>2011-05-21T07:23:15Z</time>
      </trkpt>
      <trkpt lat="48.68414" lon="1.8696">
        <ele>138.09</ele>
        <time>2011-05-21T07:23:28Z</time>
      </trkpt>
      <trkpt lat="48.68451" lon="1.86944">
        <ele>138.57</ele>
        <time>2011-05-21T07:23:36Z</time>
      </trkpt>
      <trkpt lat="48.6846" lon="1.86939">
        <ele>138.57</ele>
        <time>2011-05-21T07:23:38Z</time>
      </trkpt>
      <trkpt lat="48.68465" lon="1.86937">
        <ele>138.09</ele>
        <time>2011-05-21T07:23:39Z</time>
      </trkpt>
      <trkpt lat="48.68499" lon="1.86927">
        <ele>138.09</ele>
        <time>2011-05-21T07:23:45Z</time>
      </trkpt>
      <trkpt lat="48.68503" lon="1.86926">
        <ele>138.57</ele>
        <time>2011-05-21T07:23:46Z</time>
      </trkpt>
      <trkpt lat="48.68507" lon="1.86924">
        <ele>138.09</ele>
        <time>2011-05-21T07:23:47Z</time>
      </trkpt>
      <trkpt lat="48.68512" lon="1.86921">
        <ele>138.57</ele>
        <time>2011-05-21T07:23:48Z</time>
      </trkpt>
      <trkpt lat="48.68518" lon="1.8692">
        <ele>138.57</ele>
        <time>2011-05-21T07:23:49Z</time>
      </trkpt>
      <trkpt lat="48.68523" lon="1.86919">
        <ele>138.09</ele>
        <time>2011-05-21T07:23:50Z</time>
      </trkpt>
      <trkpt lat="48.68529" lon="1.86917">
        <ele>138.57</ele>
        <time>2011-05-21T07:23:51Z</time>
      </trkpt>
      <trkpt lat="48.68554" lon="1.86907">
        <ele>137.61</ele>
        <time>2011-05-21T07:23:56Z</time>
      </trkpt>
      <trkpt lat="48.68604" lon="1.86893">
        <ele>138.09</ele>
        <time>2011-05-21T07:24:05Z</time>
      </trkpt>
      <trkpt lat="48.6861" lon="1.86892">
        <ele>138.57</ele>
        <time>2011-05-21T07:24:06Z</time>
      </trkpt>
      <trkpt lat="48.68616" lon="1.86892">
        <ele>138.57</ele>
        <time>2011-05-21T07:24:07Z</time>
      </trkpt>
      <trkpt lat="48.68621" lon="1.86891">
        <ele>138.57</ele>
        <time>2011-05-21T07:24:08Z</time>
      </trkpt>
      <trkpt lat="48.68627" lon="1.8689">
        <ele>139.05</ele>
        <time>2011-05-21T07:24:09Z</time>
      </trkpt>
      <trkpt lat="48.68649" lon="1.86883">
        <ele>139.05</ele>
        <time>2011-05-21T07:24:13Z</time>
      </trkpt>
      <trkpt lat="48.68654" lon="1.86881">
        <ele>138.57</ele>
        <time>2011-05-21T07:24:14Z</time>
      </trkpt>
      <trkpt lat="48.68659" lon="1.86879">
        <ele>139.05</ele>
        <time>2011-05-21T07:24:15Z</time>
      </trkpt>
      <trkpt lat="48.68664" lon="1.86876">
        <ele>138.57</ele>
        <time>2011-05-21T07:24:16Z</time>
      </trkpt>
      <trkpt lat="48.68669" lon="1.86872">
        <ele>138.57</ele>
        <time>2011-05-21T07:24:17Z</time>
      </trkpt>
      <trkpt lat="48.68673" lon="1.86866">
        <ele>139.05</ele>
        <time>2011-05-21T07:24:18Z</time>
      </trkpt>
      <trkpt lat="48.68676" lon="1.86863">
        <ele>139.05</ele>
        <time>2011-05-21T07:24:19Z</time>
      </trkpt>
      <trkpt lat="48.6868" lon="1.86862">
        <ele>139.05</ele>
        <time>2011-05-21T07:24:20Z</time>
      </trkpt>
      <trkpt lat="48.68684" lon="1.86861">
        <ele>139.05</ele>
        <time>2011-05-21T07:24:21Z</time>
      </trkpt>
      <trkpt lat="48.687" lon="1.86862">
        <ele>140.01</ele>
        <time>2011-05-21T07:24:25Z</time>
      </trkpt>
      <trkpt lat="48.68704" lon="1.86862">
        <ele>139.05</ele>
        <time>2011-05-21T07:24:26Z</time>
      </trkpt>
      <trkpt lat="48.68707" lon="1.86862">
        <ele>139.05</ele>
        <time>2011-05-21T07:24:27Z</time>
      </trkpt>
      <trkpt lat="48.68711" lon="1.86861">
        <ele>139.05</ele>
        <time>2011-05-21T07:24:28Z</time>
      </trkpt>
      <trkpt lat="48.68714" lon="1.8686">
        <ele>139.53</ele>
        <time>2011-05-21T07:24:29Z</time>
      </trkpt>
      <trkpt lat="48.68718" lon="1.86859">
        <ele>139.05</ele>
        <time>2011-05-21T07:24:30Z</time>
      </trkpt>
      <trkpt lat="48.68722" lon="1.86858">
        <ele>139.53</ele>
        <time>2011-05-21T07:24:31Z</time>
      </trkpt>
      <trkpt lat="48.68743" lon="1.86851">
        <ele>140.01</ele>
        <time>2011-05-21T07:24:36Z</time>
      </trkpt>
      <trkpt lat="48.68748" lon="1.8685">
        <ele>140.01</ele>
        <time>2011-05-21T07:24:37Z</time>
      </trkpt>
      <trkpt lat="48.68763" lon="1.86847">
        <ele>140.01</ele>
        <time>2011-05-21T07:24:40Z</time>
      </trkpt>
      <trkpt lat="48.68768" lon="1.86845">
        <ele>140.49</ele>
        <time>2011-05-21T07:24:41Z</time>
      </trkpt>
      <trkpt lat="48.6878" lon="1.86839">
        <ele>140.49</ele>
        <time>2011-05-21T07:24:44Z</time>
      </trkpt>
      <trkpt lat="48.68785" lon="1.86838">
        <ele>140.49</ele>
        <time>2011-05-21T07:24:45Z</time>
      </trkpt>
      <trkpt lat="48.68789" lon="1.86837">
        <ele>140.49</ele>
        <time>2011-05-21T07:24:46Z</time>
      </trkpt>
      <trkpt lat="48.68794" lon="1.86835">
        <ele>140.49</ele>
        <time>2011-05-21T07:24:47Z</time>
      </trkpt>
      <trkpt lat="48.68799" lon="1.86834">
        <ele>140.01</ele>
        <time>2011-05-21T07:24:48Z</time>
      </trkpt>
      <trkpt lat="48.68836" lon="1.86821">
        <ele>140.97</ele>
        <time>2011-05-21T07:24:56Z</time>
      </trkpt>
      <trkpt lat="48.68841" lon="1.86817">
        <ele>140.97</ele>
        <time>2011-05-21T07:24:57Z</time>
      </trkpt>
      <trkpt lat="48.68845" lon="1.86814">
        <ele>140.97</ele>
        <time>2011-05-21T07:24:58Z</time>
      </trkpt>
      <trkpt lat="48.6885" lon="1.86812">
        <ele>140.97</ele>
        <time>2011-05-21T07:24:59Z</time>
      </trkpt>
      <trkpt lat="48.68855" lon="1.86811">
        <ele>140.97</ele>
        <time>2011-05-21T07:25:00Z</time>
      </trkpt>
      <trkpt lat="48.6886" lon="1.8681">
        <ele>140.97</ele>
        <time>2011-05-21T07:25:01Z</time>
      </trkpt>
      <trkpt lat="48.68875" lon="1.86804">
        <ele>140.49</ele>
        <time>2011-05-21T07:25:04Z</time>
      </trkpt>
      <trkpt lat="48.6888" lon="1.86805">
        <ele>140.97</ele>
        <time>2011-05-21T07:25:05Z</time>
      </trkpt>
      <trkpt lat="48.68885" lon="1.86808">
        <ele>140.97</ele>
        <time>2011-05-21T07:25:06Z</time>
      </trkpt>
      <trkpt lat="48.68889" lon="1.86813">
        <ele>140.97</ele>
        <time>2011-05-21T07:25:07Z</time>
      </trkpt>
      <trkpt lat="48.68893" lon="1.86819">
        <ele>140.97</ele>
        <time>2011-05-21T07:25:08Z</time>
      </trkpt>
      <trkpt lat="48.68895" lon="1.86825">
        <ele>140.97</ele>
        <time>2011-05-21T07:25:09Z</time>
      </trkpt>
      <trkpt lat="48.68898" lon="1.86833">
        <ele>140.49</ele>
        <time>2011-05-21T07:25:10Z</time>
      </trkpt>
      <trkpt lat="48.68903" lon="1.86847">
        <ele>140.49</ele>
        <time>2011-05-21T07:25:12Z</time>
      </trkpt>
      <trkpt lat="48.68909" lon="1.86861">
        <ele>140.97</ele>
        <time>2011-05-21T07:25:14Z</time>
      </trkpt>
      <trkpt lat="48.68913" lon="1.86866">
        <ele>140.49</ele>
        <time>2011-05-21T07:25:15Z</time>
      </trkpt>
      <trkpt lat="48.68918" lon="1.86869">
        <ele>140.49</ele>
        <time>2011-05-21T07:25:16Z</time>
      </trkpt>
      <trkpt lat="48.68924" lon="1.86871">
        <ele>140.49</ele>
        <time>2011-05-21T07:25:17Z</time>
      </trkpt>
      <trkpt lat="48.68929" lon="1.86872">
        <ele>140.97</ele>
        <time>2011-05-21T07:25:18Z</time>
      </trkpt>
      <trkpt lat="48.68935" lon="1.86872">
        <ele>140.49</ele>
        <time>2011-05-21T07:25:19Z</time>
      </trkpt>
      <trkpt lat="48.68941" lon="1.86871">
        <ele>140.97</ele>
        <time>2011-05-21T07:25:20Z</time>
      </trkpt>
      <trkpt lat="48.69027" lon="1.86866">
        <ele>141.45</ele>
        <time>2011-05-21T07:25:35Z</time>
      </trkpt>
      <trkpt lat="48.69104" lon="1.86864">
        <ele>142.41</ele>
        <time>2011-05-21T07:25:49Z</time>
      </trkpt>
      <trkpt lat="48.6911" lon="1.86864">
        <ele>142.41</ele>
        <time>2011-05-21T07:25:50Z</time>
      </trkpt>
      <trkpt lat="48.69143" lon="1.86861">
        <ele>142.41</ele>
        <time>2011-05-21T07:25:56Z</time>
      </trkpt>
      <trkpt lat="48.69165" lon="1.86861">
        <ele>142.41</ele>
        <time>2011-05-21T07:26:00Z</time>
      </trkpt>
      <trkpt lat="48.6917" lon="1.86861">
        <ele>142.41</ele>
        <time>2011-05-21T07:26:01Z</time>
      </trkpt>
      <trkpt lat="48.69237" lon="1.86855">
        <ele>142.89</ele>
        <time>2011-05-21T07:26:13Z</time>
      </trkpt>
      <trkpt lat="48.69243" lon="1.86855">
        <ele>142.41</ele>
        <time>2011-05-21T07:26:14Z</time>
      </trkpt>
      <trkpt lat="48.69247" lon="1.86853">
        <ele>142.41</ele>
        <time>2011-05-21T07:26:15Z</time>
      </trkpt>
      <trkpt lat="48.69252" lon="1.86849">
        <ele>141.93</ele>
        <time>2011-05-21T07:26:16Z</time>
      </trkpt>
      <trkpt lat="48.69256" lon="1.86843">
        <ele>141.93</ele>
        <time>2011-05-21T07:26:17Z</time>
      </trkpt>
      <trkpt lat="48.69259" lon="1.86837">
        <ele>142.41</ele>
        <time>2011-05-21T07:26:18Z</time>
      </trkpt>
      <trkpt lat="48.69261" lon="1.8683">
        <ele>142.41</ele>
        <time>2011-05-21T07:26:19Z</time>
      </trkpt>
      <trkpt lat="48.69263" lon="1.86823">
        <ele>142.89</ele>
        <time>2011-05-21T07:26:20Z</time>
      </trkpt>
      <trkpt lat="48.69266" lon="1.86815">
        <ele>142.89</ele>
        <time>2011-05-21T07:26:21Z</time>
      </trkpt>
      <trkpt lat="48.69269" lon="1.86808">
        <ele>142.89</ele>
        <time>2011-05-21T07:26:22Z</time>
      </trkpt>
      <trkpt lat="48.69272" lon="1.86801">
        <ele>142.41</ele>
        <time>2011-05-21T07:26:23Z</time>
      </trkpt>
      <trkpt lat="48.69274" lon="1.86793">
        <ele>142.89</ele>
        <time>2011-05-21T07:26:24Z</time>
      </trkpt>
      <trkpt lat="48.69302" lon="1.86707">
        <ele>142.41</ele>
        <time>2011-05-21T07:26:35Z</time>
      </trkpt>
      <trkpt lat="48.69305" lon="1.86699">
        <ele>142.89</ele>
        <time>2011-05-21T07:26:36Z</time>
      </trkpt>
      <trkpt lat="48.69312" lon="1.86676">
        <ele>142.89</ele>
        <time>2011-05-21T07:26:39Z</time>
      </trkpt>
      <trkpt lat="48.69316" lon="1.86661">
        <ele>142.89</ele>
        <time>2011-05-21T07:26:41Z</time>
      </trkpt>
      <trkpt lat="48.69342" lon="1.86586">
        <ele>142.89</ele>
        <time>2011-05-21T07:26:52Z</time>
      </trkpt>
      <trkpt lat="48.69343" lon="1.86579">
        <ele>143.37</ele>
        <time>2011-05-21T07:26:53Z</time>
      </trkpt>
      <trkpt lat="48.69345" lon="1.86573">
        <ele>142.89</ele>
        <time>2011-05-21T07:26:54Z</time>
      </trkpt>
      <trkpt lat="48.69378" lon="1.86475">
        <ele>142.89</ele>
        <time>2011-05-21T07:27:08Z</time>
      </trkpt>
      <trkpt lat="48.69387" lon="1.86441">
        <ele>143.37</ele>
        <time>2011-05-21T07:27:13Z</time>
      </trkpt>
      <trkpt lat="48.69389" lon="1.86436">
        <ele>143.37</ele>
        <time>2011-05-21T07:27:14Z</time>
      </trkpt>
      <trkpt lat="48.69391" lon="1.86431">
        <ele>143.85</ele>
        <time>2011-05-21T07:27:15Z</time>
      </trkpt>
      <trkpt lat="48.69393" lon="1.86427">
        <ele>143.37</ele>
        <time>2011-05-21T07:27:16Z</time>
      </trkpt>
      <trkpt lat="48.69396" lon="1.86425">
        <ele>143.37</ele>
        <time>2011-05-21T07:27:17Z</time>
      </trkpt>
      <trkpt lat="48.694" lon="1.86424">
        <ele>143.85</ele>
        <time>2011-05-21T07:27:18Z</time>
      </trkpt>
      <trkpt lat="48.69404" lon="1.86423">
        <ele>143.85</ele>
        <time>2011-05-21T07:27:19Z</time>
      </trkpt>
      <trkpt lat="48.69407" lon="1.86424">
        <ele>143.85</ele>
        <time>2011-05-21T07:27:20Z</time>
      </trkpt>
      <trkpt lat="48.6941" lon="1.86426">
        <ele>143.85</ele>
        <time>2011-05-21T07:27:21Z</time>
      </trkpt>
      <trkpt lat="48.69413" lon="1.86428">
        <ele>143.85</ele>
        <time>2011-05-21T07:27:22Z</time>
      </trkpt>
      <trkpt lat="48.69417" lon="1.8643">
        <ele>143.85</ele>
        <time>2011-05-21T07:27:23Z</time>
      </trkpt>
      <trkpt lat="48.6942" lon="1.86431">
        <ele>143.85</ele>
        <time>2011-05-21T07:27:24Z</time>
      </trkpt>
      <trkpt lat="48.69429" lon="1.86434">
        <ele>143.85</ele>
        <time>2011-05-21T07:27:26Z</time>
      </trkpt>
      <trkpt lat="48.69438" lon="1.86439">
        <ele>143.85</ele>
        <time>2011-05-21T07:27:28Z</time>
      </trkpt>
      <trkpt lat="48.69443" lon="1.8644">
        <ele>143.85</ele>
        <time>2011-05-21T07:27:29Z</time>
      </trkpt>
      <trkpt lat="48.69523" lon="1.86469">
        <ele>144.34</ele>
        <time>2011-05-21T07:27:45Z</time>
      </trkpt>
      <trkpt lat="48.6958" lon="1.86487">
        <ele>143.85</ele>
        <time>2011-05-21T07:27:58Z</time>
      </trkpt>
      <trkpt lat="48.69583" lon="1.86486">
        <ele>144.34</ele>
        <time>2011-05-21T07:27:59Z</time>
      </trkpt>
      <trkpt lat="48.69585" lon="1.86488">
        <ele>144.34</ele>
        <time>2011-05-21T07:28:00Z</time>
      </trkpt>
      <trkpt lat="48.69587" lon="1.86491">
        <ele>144.34</ele>
        <time>2011-05-21T07:28:01Z</time>
      </trkpt>
      <trkpt lat="48.69588" lon="1.86495">
        <ele>144.34</ele>
        <time>2011-05-21T07:28:02Z</time>
      </trkpt>
      <trkpt lat="48.69589" lon="1.86499">
        <ele>144.34</ele>
        <time>2011-05-21T07:28:03Z</time>
      </trkpt>
      <trkpt lat="48.6959" lon="1.86503">
        <ele>144.82</ele>
        <time>2011-05-21T07:28:04Z</time>
      </trkpt>
      <trkpt lat="48.6959" lon="1.86506">
        <ele>144.34</ele>
        <time>2011-05-21T07:28:05Z</time>
      </trkpt>
      <trkpt lat="48.69591" lon="1.86508">
        <ele>144.34</ele>
        <time>2011-05-21T07:28:06Z</time>
      </trkpt>
      <trkpt lat="48.69591" lon="1.8651">
        <ele>144.34</ele>
        <time>2011-05-21T07:28:07Z</time>
      </trkpt>
      <trkpt lat="48.69592" lon="1.86512">
        <ele>145.3</ele>
        <time>2011-05-21T07:28:20Z</time>
      </trkpt>
      <trkpt lat="48.69592" lon="1.86512">
        <ele>144.82</ele>
        <time>2011-05-21T07:28:38Z</time>
      </trkpt>
      <trkpt lat="48.69592" lon="1.86512">
        <ele>145.3</ele>
        <time>2011-05-21T07:29:03Z</time>
      </trkpt>
      <trkpt lat="48.69592" lon="1.86512">
        <ele>145.3</ele>
        <time>2011-05-21T07:29:27Z</time>
      </trkpt>
      <trkpt lat="48.69592" lon="1.86513">
        <ele>146.26</ele>
        <time>2011-05-21T07:29:37Z</time>
      </trkpt>
      <trkpt lat="48.69592" lon="1.86515">
        <ele>146.26</ele>
        <time>2011-05-21T07:29:38Z</time>
      </trkpt>
      <trkpt lat="48.69592" lon="1.86522">
        <ele>146.26</ele>
        <time>2011-05-21T07:29:42Z</time>
      </trkpt>
      <trkpt lat="48.69592" lon="1.86524">
        <ele>145.78</ele>
        <time>2011-05-21T07:29:43Z</time>
      </trkpt>
      <trkpt lat="48.69592" lon="1.86527">
        <ele>146.26</ele>
        <time>2011-05-21T07:29:44Z</time>
      </trkpt>
      <trkpt lat="48.69592" lon="1.8653">
        <ele>146.26</ele>
        <time>2011-05-21T07:29:45Z</time>
      </trkpt>
      <trkpt lat="48.69593" lon="1.86533">
        <ele>145.78</ele>
        <time>2011-05-21T07:29:46Z</time>
      </trkpt>
      <trkpt lat="48.69593" lon="1.86537">
        <ele>145.78</ele>
        <time>2011-05-21T07:29:47Z</time>
      </trkpt>
      <trkpt lat="48.69599" lon="1.86592">
        <ele>146.26</ele>
        <time>2011-05-21T07:29:59Z</time>
      </trkpt>
      <trkpt lat="48.69604" lon="1.86609">
        <ele>145.78</ele>
        <time>2011-05-21T07:30:03Z</time>
      </trkpt>
      <trkpt lat="48.69603" lon="1.86613">
        <ele>145.78</ele>
        <time>2011-05-21T07:30:04Z</time>
      </trkpt>
      <trkpt lat="48.69601" lon="1.86616">
        <ele>145.78</ele>
        <time>2011-05-21T07:30:05Z</time>
      </trkpt>
      <trkpt lat="48.69598" lon="1.86619">
        <ele>145.3</ele>
        <time>2011-05-21T07:30:06Z</time>
      </trkpt>
      <trkpt lat="48.69595" lon="1.86621">
        <ele>144.82</ele>
        <time>2011-05-21T07:30:07Z</time>
      </trkpt>
      <trkpt lat="48.69592" lon="1.86623">
        <ele>145.3</ele>
        <time>2011-05-21T07:30:08Z</time>
      </trkpt>
      <trkpt lat="48.69588" lon="1.86625">
        <ele>144.82</ele>
        <time>2011-05-21T07:30:09Z</time>
      </trkpt>
      <trkpt lat="48.69544" lon="1.86659">
        <ele>141.45</ele>
        <time>2011-05-21T07:30:18Z</time>
      </trkpt>
      <trkpt lat="48.6952" lon="1.86678">
        <ele>138.09</ele>
        <time>2011-05-21T07:30:21Z</time>
      </trkpt>
      <trkpt lat="48.69429" lon="1.86748">
        <ele>139.53</ele>
        <time>2011-05-21T07:30:33Z</time>
      </trkpt>
      <trkpt lat="48.69418" lon="1.8676">
        <ele>141.45</ele>
        <time>2011-05-21T07:30:36Z</time>
      </trkpt>
      <trkpt lat="48.69416" lon="1.86764">
        <ele>141.45</ele>
        <time>2011-05-21T07:30:37Z</time>
      </trkpt>
      <trkpt lat="48.69416" lon="1.86768">
        <ele>141.93</ele>
        <time>2011-05-21T07:30:38Z</time>
      </trkpt>
      <trkpt lat="48.69418" lon="1.86771">
        <ele>141.45</ele>
        <time>2011-05-21T07:30:39Z</time>
      </trkpt>
      <trkpt lat="48.6942" lon="1.86776">
        <ele>141.45</ele>
        <time>2011-05-21T07:30:40Z</time>
      </trkpt>
      <trkpt lat="48.69421" lon="1.86781">
        <ele>140.49</ele>
        <time>2011-05-21T07:30:41Z</time>
      </trkpt>
      <trkpt lat="48.69423" lon="1.86787">
        <ele>140.49</ele>
        <time>2011-05-21T07:30:42Z</time>
      </trkpt>
      <trkpt lat="48.69425" lon="1.86793">
        <ele>140.01</ele>
        <time>2011-05-21T07:30:43Z</time>
      </trkpt>
      <trkpt lat="48.69428" lon="1.86799">
        <ele>139.53</ele>
        <time>2011-05-21T07:30:44Z</time>
      </trkpt>
      <trkpt lat="48.69431" lon="1.86807">
        <ele>139.53</ele>
        <time>2011-05-21T07:30:45Z</time>
      </trkpt>
      <trkpt lat="48.69433" lon="1.86815">
        <ele>138.57</ele>
        <time>2011-05-21T07:30:46Z</time>
      </trkpt>
      <trkpt lat="48.6945" lon="1.86861">
        <ele>136.64</ele>
        <time>2011-05-21T07:30:51Z</time>
      </trkpt>
      <trkpt lat="48.69455" lon="1.86879">
        <ele>135.68</ele>
        <time>2011-05-21T07:30:53Z</time>
      </trkpt>
      <trkpt lat="48.69457" lon="1.86884">
        <ele>136.16</ele>
        <time>2011-05-21T07:30:54Z</time>
      </trkpt>
      <trkpt lat="48.69459" lon="1.86889">
        <ele>135.68</ele>
        <time>2011-05-21T07:30:55Z</time>
      </trkpt>
      <trkpt lat="48.69461" lon="1.86893">
        <ele>135.68</ele>
        <time>2011-05-21T07:30:56Z</time>
      </trkpt>
      <trkpt lat="48.69463" lon="1.86897">
        <ele>135.68</ele>
        <time>2011-05-21T07:30:57Z</time>
      </trkpt>
      <trkpt lat="48.69464" lon="1.86901">
        <ele>135.68</ele>
        <time>2011-05-21T07:30:58Z</time>
      </trkpt>
      <trkpt lat="48.69465" lon="1.86905">
        <ele>135.68</ele>
        <time>2011-05-21T07:30:59Z</time>
      </trkpt>
      <trkpt lat="48.69471" lon="1.86937">
        <ele>135.2</ele>
        <time>2011-05-21T07:31:05Z</time>
      </trkpt>
      <trkpt lat="48.69475" lon="1.86941">
        <ele>135.68</ele>
        <time>2011-05-21T07:31:06Z</time>
      </trkpt>
      <trkpt lat="48.69494" lon="1.86958">
        <ele>133.76</ele>
        <time>2011-05-21T07:31:09Z</time>
      </trkpt>
      <trkpt lat="48.69519" lon="1.86972">
        <ele>132.8</ele>
        <time>2011-05-21T07:31:12Z</time>
      </trkpt>
      <trkpt lat="48.69544" lon="1.86983">
        <ele>132.32</ele>
        <time>2011-05-21T07:31:15Z</time>
      </trkpt>
      <trkpt lat="48.69577" lon="1.87006">
        <ele>131.36</ele>
        <time>2011-05-21T07:31:19Z</time>
      </trkpt>
      <trkpt lat="48.69611" lon="1.87045">
        <ele>130.88</ele>
        <time>2011-05-21T07:31:24Z</time>
      </trkpt>
      <trkpt lat="48.6964" lon="1.87102">
        <ele>130.88</ele>
        <time>2011-05-21T07:31:29Z</time>
      </trkpt>
      <trkpt lat="48.69644" lon="1.87113">
        <ele>130.88</ele>
        <time>2011-05-21T07:31:30Z</time>
      </trkpt>
      <trkpt lat="48.69674" lon="1.87243">
        <ele>128.95</ele>
        <time>2011-05-21T07:31:41Z</time>
      </trkpt>
      <trkpt lat="48.69701" lon="1.87331">
        <ele>128.95</ele>
        <time>2011-05-21T07:31:50Z</time>
      </trkpt>
      <trkpt lat="48.69704" lon="1.87337">
        <ele>128.47</ele>
        <time>2011-05-21T07:31:51Z</time>
      </trkpt>
      <trkpt lat="48.69714" lon="1.87359">
        <ele>127.51</ele>
        <time>2011-05-21T07:31:55Z</time>
      </trkpt>
      <trkpt lat="48.69715" lon="1.87367">
        <ele>127.51</ele>
        <time>2011-05-21T07:31:56Z</time>
      </trkpt>
      <trkpt lat="48.69716" lon="1.87375">
        <ele>127.51</ele>
        <time>2011-05-21T07:31:57Z</time>
      </trkpt>
      <trkpt lat="48.69716" lon="1.87398">
        <ele>127.99</ele>
        <time>2011-05-21T07:32:00Z</time>
      </trkpt>
      <trkpt lat="48.6972" lon="1.87424">
        <ele>127.51</ele>
        <time>2011-05-21T07:32:03Z</time>
      </trkpt>
      <trkpt lat="48.6972" lon="1.87438">
        <ele>127.51</ele>
        <time>2011-05-21T07:32:05Z</time>
      </trkpt>
      <trkpt lat="48.69721" lon="1.87458">
        <ele>127.51</ele>
        <time>2011-05-21T07:32:08Z</time>
      </trkpt>
      <trkpt lat="48.69723" lon="1.87479">
        <ele>127.03</ele>
        <time>2011-05-21T07:32:11Z</time>
      </trkpt>
      <trkpt lat="48.69725" lon="1.87486">
        <ele>126.55</ele>
        <time>2011-05-21T07:32:12Z</time>
      </trkpt>
      <trkpt lat="48.69747" lon="1.8754">
        <ele>126.07</ele>
        <time>2011-05-21T07:32:20Z</time>
      </trkpt>
      <trkpt lat="48.69751" lon="1.87547">
        <ele>126.07</ele>
        <time>2011-05-21T07:32:21Z</time>
      </trkpt>
      <trkpt lat="48.698" lon="1.87619">
        <ele>125.11</ele>
        <time>2011-05-21T07:32:31Z</time>
      </trkpt>
      <trkpt lat="48.69804" lon="1.87629">
        <ele>124.63</ele>
        <time>2011-05-21T07:32:32Z</time>
      </trkpt>
      <trkpt lat="48.69807" lon="1.87639">
        <ele>125.59</ele>
        <time>2011-05-21T07:32:33Z</time>
      </trkpt>
      <trkpt lat="48.6981" lon="1.8765">
        <ele>125.59</ele>
        <time>2011-05-21T07:32:34Z</time>
      </trkpt>
      <trkpt lat="48.69812" lon="1.8766">
        <ele>125.59</ele>
        <time>2011-05-21T07:32:35Z</time>
      </trkpt>
      <trkpt lat="48.69817" lon="1.8769">
        <ele>124.63</ele>
        <time>2011-05-21T07:32:38Z</time>
      </trkpt>
      <trkpt lat="48.69835" lon="1.87815">
        <ele>123.19</ele>
        <time>2011-05-21T07:32:50Z</time>
      </trkpt>
      <trkpt lat="48.69841" lon="1.87846">
        <ele>123.67</ele>
        <time>2011-05-21T07:32:53Z</time>
      </trkpt>
      <trkpt lat="48.69855" lon="1.87961">
        <ele>121.26</ele>
        <time>2011-05-21T07:33:03Z</time>
      </trkpt>
      <trkpt lat="48.69859" lon="1.87969">
        <ele>120.78</ele>
        <time>2011-05-21T07:33:04Z</time>
      </trkpt>
      <trkpt lat="48.69864" lon="1.87974">
        <ele>120.78</ele>
        <time>2011-05-21T07:33:05Z</time>
      </trkpt>
      <trkpt lat="48.69876" lon="1.87983">
        <ele>120.78</ele>
        <time>2011-05-21T07:33:07Z</time>
      </trkpt>
      <trkpt lat="48.69881" lon="1.87989">
        <ele>120.78</ele>
        <time>2011-05-21T07:33:08Z</time>
      </trkpt>
      <trkpt lat="48.69886" lon="1.87996">
        <ele>120.78</ele>
        <time>2011-05-21T07:33:09Z</time>
      </trkpt>
      <trkpt lat="48.69888" lon="1.88004">
        <ele>120.78</ele>
        <time>2011-05-21T07:33:10Z</time>
      </trkpt>
      <trkpt lat="48.69891" lon="1.8801">
        <ele>120.78</ele>
        <time>2011-05-21T07:33:11Z</time>
      </trkpt>
      <trkpt lat="48.69894" lon="1.88017">
        <ele>120.78</ele>
        <time>2011-05-21T07:33:12Z</time>
      </trkpt>
      <trkpt lat="48.69897" lon="1.88024">
        <ele>120.3</ele>
        <time>2011-05-21T07:33:13Z</time>
      </trkpt>
      <trkpt lat="48.69899" lon="1.88031">
        <ele>120.78</ele>
        <time>2011-05-21T07:33:14Z</time>
      </trkpt>
      <trkpt lat="48.69918" lon="1.88082">
        <ele>119.82</ele>
        <time>2011-05-21T07:33:22Z</time>
      </trkpt>
      <trkpt lat="48.69922" lon="1.88088">
        <ele>119.82</ele>
        <time>2011-05-21T07:33:23Z</time>
      </trkpt>
      <trkpt lat="48.6995" lon="1.88116">
        <ele>120.3</ele>
        <time>2011-05-21T07:33:29Z</time>
      </trkpt>
      <trkpt lat="48.69954" lon="1.8812">
        <ele>120.3</ele>
        <time>2011-05-21T07:33:30Z</time>
      </trkpt>
      <trkpt lat="48.69959" lon="1.88123">
        <ele>120.78</ele>
        <time>2011-05-21T07:33:31Z</time>
      </trkpt>
      <trkpt lat="48.69964" lon="1.88127">
        <ele>119.82</ele>
        <time>2011-05-21T07:33:32Z</time>
      </trkpt>
      <trkpt lat="48.69969" lon="1.88131">
        <ele>120.3</ele>
        <time>2011-05-21T07:33:33Z</time>
      </trkpt>
      <trkpt lat="48.69992" lon="1.88152">
        <ele>119.82</ele>
        <time>2011-05-21T07:33:38Z</time>
      </trkpt>
      <trkpt lat="48.7" lon="1.88161">
        <ele>119.34</ele>
        <time>2011-05-21T07:33:40Z</time>
      </trkpt>
      <trkpt lat="48.70004" lon="1.88167">
        <ele>119.82</ele>
        <time>2011-05-21T07:33:41Z</time>
      </trkpt>
      <trkpt lat="48.70007" lon="1.88173">
        <ele>119.82</ele>
        <time>2011-05-21T07:33:42Z</time>
      </trkpt>
      <trkpt lat="48.70009" lon="1.8818">
        <ele>119.82</ele>
        <time>2011-05-21T07:33:43Z</time>
      </trkpt>
      <trkpt lat="48.70011" lon="1.88187">
        <ele>119.82</ele>
        <time>2011-05-21T07:33:44Z</time>
      </trkpt>
      <trkpt lat="48.70041" lon="1.88299">
        <ele>119.82</ele>
        <time>2011-05-21T07:34:00Z</time>
      </trkpt>
      <trkpt lat="48.70069" lon="1.88385">
        <ele>122.71</ele>
        <time>2011-05-21T07:34:15Z</time>
      </trkpt>
      <trkpt lat="48.70092" lon="1.88444">
        <ele>126.07</ele>
        <time>2011-05-21T07:34:27Z</time>
      </trkpt>
      <trkpt lat="48.70096" lon="1.88455">
        <ele>127.03</ele>
        <time>2011-05-21T07:34:31Z</time>
      </trkpt>
      <trkpt lat="48.70099" lon="1.88456">
        <ele>127.03</ele>
        <time>2011-05-21T07:34:32Z</time>
      </trkpt>
      <trkpt lat="48.70101" lon="1.88456">
        <ele>126.55</ele>
        <time>2011-05-21T07:34:33Z</time>
      </trkpt>
      <trkpt lat="48.70104" lon="1.88454">
        <ele>126.55</ele>
        <time>2011-05-21T07:34:34Z</time>
      </trkpt>
      <trkpt lat="48.70107" lon="1.88452">
        <ele>126.55</ele>
        <time>2011-05-21T07:34:35Z</time>
      </trkpt>
      <trkpt lat="48.7011" lon="1.8845">
        <ele>126.55</ele>
        <time>2011-05-21T07:34:36Z</time>
      </trkpt>
      <trkpt lat="48.70114" lon="1.8845">
        <ele>126.07</ele>
        <time>2011-05-21T07:34:37Z</time>
      </trkpt>
      <trkpt lat="48.70117" lon="1.8845">
        <ele>126.55</ele>
        <time>2011-05-21T07:34:38Z</time>
      </trkpt>
      <trkpt lat="48.7016" lon="1.88463">
        <ele>125.11</ele>
        <time>2011-05-21T07:34:50Z</time>
      </trkpt>
      <trkpt lat="48.70169" lon="1.88469">
        <ele>125.59</ele>
        <time>2011-05-21T07:34:52Z</time>
      </trkpt>
      <trkpt lat="48.70174" lon="1.88473">
        <ele>124.63</ele>
        <time>2011-05-21T07:34:53Z</time>
      </trkpt>
      <trkpt lat="48.7018" lon="1.88476">
        <ele>125.11</ele>
        <time>2011-05-21T07:34:54Z</time>
      </trkpt>
      <trkpt lat="48.70215" lon="1.88494">
        <ele>125.11</ele>
        <time>2011-05-21T07:35:01Z</time>
      </trkpt>
      <trkpt lat="48.70224" lon="1.88501">
        <ele>125.11</ele>
        <time>2011-05-21T07:35:03Z</time>
      </trkpt>
      <trkpt lat="48.70237" lon="1.8851">
        <ele>125.11</ele>
        <time>2011-05-21T07:35:06Z</time>
      </trkpt>
      <trkpt lat="48.7024" lon="1.88514">
        <ele>125.59</ele>
        <time>2011-05-21T07:35:07Z</time>
      </trkpt>
      <trkpt lat="48.70253" lon="1.88531">
        <ele>125.59</ele>
        <time>2011-05-21T07:35:13Z</time>
      </trkpt>
      <trkpt lat="48.70255" lon="1.88532">
        <ele>125.59</ele>
        <time>2011-05-21T07:35:14Z</time>
      </trkpt>
      <trkpt lat="48.70258" lon="1.88532">
        <ele>125.59</ele>
        <time>2011-05-21T07:35:15Z</time>
      </trkpt>
      <trkpt lat="48.70305" lon="1.88533">
        <ele>123.19</ele>
        <time>2011-05-21T07:35:26Z</time>
      </trkpt>
      <trkpt lat="48.70368" lon="1.88534">
        <ele>120.3</ele>
        <time>2011-05-21T07:35:35Z</time>
      </trkpt>
      <trkpt lat="48.70388" lon="1.88535">
        <ele>119.82</ele>
        <time>2011-05-21T07:35:38Z</time>
      </trkpt>
      <trkpt lat="48.70392" lon="1.88538">
        <ele>119.82</ele>
        <time>2011-05-21T07:35:39Z</time>
      </trkpt>
      <trkpt lat="48.70395" lon="1.8854">
        <ele>119.82</ele>
        <time>2011-05-21T07:35:40Z</time>
      </trkpt>
      <trkpt lat="48.70399" lon="1.88542">
        <ele>120.3</ele>
        <time>2011-05-21T07:35:42Z</time>
      </trkpt>
      <trkpt lat="48.70401" lon="1.88541">
        <ele>120.78</ele>
        <time>2011-05-21T07:35:43Z</time>
      </trkpt>
      <trkpt lat="48.70403" lon="1.88542">
        <ele>120.78</ele>
        <time>2011-05-21T07:35:44Z</time>
      </trkpt>
      <trkpt lat="48.70404" lon="1.88543">
        <ele>120.78</ele>
        <time>2011-05-21T07:35:45Z</time>
      </trkpt>
      <trkpt lat="48.70404" lon="1.88547">
        <ele>120.78</ele>
        <time>2011-05-21T07:35:57Z</time>
      </trkpt>
      <trkpt lat="48.70404" lon="1.88548">
        <ele>120.78</ele>
        <time>2011-05-21T07:35:58Z</time>
      </trkpt>
      <trkpt lat="48.70404" lon="1.88559">
        <ele>117.9</ele>
        <time>2011-05-21T07:36:08Z</time>
      </trkpt>
      <trkpt lat="48.70404" lon="1.8856">
        <ele>118.38</ele>
        <time>2011-05-21T07:36:09Z</time>
      </trkpt>
      <trkpt lat="48.70404" lon="1.88563">
        <ele>118.38</ele>
        <time>2011-05-21T07:36:10Z</time>
      </trkpt>
      <trkpt lat="48.70404" lon="1.88566">
        <ele>117.9</ele>
        <time>2011-05-21T07:36:11Z</time>
      </trkpt>
      <trkpt lat="48.70404" lon="1.88569">
        <ele>118.38</ele>
        <time>2011-05-21T07:36:12Z</time>
      </trkpt>
      <trkpt lat="48.70405" lon="1.88572">
        <ele>117.9</ele>
        <time>2011-05-21T07:36:13Z</time>
      </trkpt>
      <trkpt lat="48.70405" lon="1.88577">
        <ele>117.9</ele>
        <time>2011-05-21T07:36:14Z</time>
      </trkpt>
      <trkpt lat="48.70406" lon="1.88581">
        <ele>117.9</ele>
        <time>2011-05-21T07:36:15Z</time>
      </trkpt>
      <trkpt lat="48.70404" lon="1.88605">
        <ele>117.9</ele>
        <time>2011-05-21T07:36:20Z</time>
      </trkpt>
      <trkpt lat="48.70405" lon="1.88609">
        <ele>117.9</ele>
        <time>2011-05-21T07:36:21Z</time>
      </trkpt>
      <trkpt lat="48.70406" lon="1.88614">
        <ele>117.9</ele>
        <time>2011-05-21T07:36:22Z</time>
      </trkpt>
      <trkpt lat="48.70409" lon="1.8863">
        <ele>117.9</ele>
        <time>2011-05-21T07:36:25Z</time>
      </trkpt>
      <trkpt lat="48.70411" lon="1.88637">
        <ele>117.9</ele>
        <time>2011-05-21T07:36:26Z</time>
      </trkpt>
      <trkpt lat="48.70412" lon="1.88645">
        <ele>117.9</ele>
        <time>2011-05-21T07:36:27Z</time>
      </trkpt>
      <trkpt lat="48.70412" lon="1.88668">
        <ele>118.86</ele>
        <time>2011-05-21T07:36:30Z</time>
      </trkpt>
      <trkpt lat="48.70412" lon="1.88675">
        <ele>118.38</ele>
        <time>2011-05-21T07:36:31Z</time>
      </trkpt>
      <trkpt lat="48.70414" lon="1.88688">
        <ele>118.86</ele>
        <time>2011-05-21T07:36:33Z</time>
      </trkpt>
      <trkpt lat="48.70414" lon="1.88697">
        <ele>118.86</ele>
        <time>2011-05-21T07:36:34Z</time>
      </trkpt>
      <trkpt lat="48.70412" lon="1.88707">
        <ele>118.86</ele>
        <time>2011-05-21T07:36:35Z</time>
      </trkpt>
      <trkpt lat="48.70408" lon="1.8874">
        <ele>119.34</ele>
        <time>2011-05-21T07:36:39Z</time>
      </trkpt>
      <trkpt lat="48.70407" lon="1.88747">
        <ele>118.86</ele>
        <time>2011-05-21T07:36:40Z</time>
      </trkpt>
      <trkpt lat="48.70406" lon="1.88754">
        <ele>119.34</ele>
        <time>2011-05-21T07:36:41Z</time>
      </trkpt>
      <trkpt lat="48.70404" lon="1.88761">
        <ele>119.34</ele>
        <time>2011-05-21T07:36:42Z</time>
      </trkpt>
      <trkpt lat="48.70402" lon="1.88768">
        <ele>118.86</ele>
        <time>2011-05-21T07:36:43Z</time>
      </trkpt>
      <trkpt lat="48.70399" lon="1.88774">
        <ele>118.86</ele>
        <time>2011-05-21T07:36:44Z</time>
      </trkpt>
      <trkpt lat="48.70397" lon="1.88779">
        <ele>118.38</ele>
        <time>2011-05-21T07:36:45Z</time>
      </trkpt>
      <trkpt lat="48.70371" lon="1.88835">
        <ele>118.38</ele>
        <time>2011-05-21T07:36:56Z</time>
      </trkpt>
      <trkpt lat="48.70361" lon="1.8884">
        <ele>116.94</ele>
        <time>2011-05-21T07:37:01Z</time>
      </trkpt>
      <trkpt lat="48.70359" lon="1.88842">
        <ele>116.94</ele>
        <time>2011-05-21T07:37:02Z</time>
      </trkpt>
      <trkpt lat="48.70357" lon="1.88846">
        <ele>116.94</ele>
        <time>2011-05-21T07:37:03Z</time>
      </trkpt>
      <trkpt lat="48.70355" lon="1.88851">
        <ele>116.94</ele>
        <time>2011-05-21T07:37:04Z</time>
      </trkpt>
      <trkpt lat="48.70352" lon="1.88856">
        <ele>116.46</ele>
        <time>2011-05-21T07:37:05Z</time>
      </trkpt>
      <trkpt lat="48.70348" lon="1.8886">
        <ele>116.46</ele>
        <time>2011-05-21T07:37:06Z</time>
      </trkpt>
      <trkpt lat="48.70343" lon="1.88865">
        <ele>116.46</ele>
        <time>2011-05-21T07:37:07Z</time>
      </trkpt>
      <trkpt lat="48.70325" lon="1.88909">
        <ele>115.5</ele>
        <time>2011-05-21T07:37:15Z</time>
      </trkpt>
      <trkpt lat="48.70321" lon="1.88916">
        <ele>115.98</ele>
        <time>2011-05-21T07:37:16Z</time>
      </trkpt>
      <trkpt lat="48.70316" lon="1.88925">
        <ele>115.98</ele>
        <time>2011-05-21T07:37:17Z</time>
      </trkpt>
      <trkpt lat="48.70311" lon="1.88933">
        <ele>115.5</ele>
        <time>2011-05-21T07:37:18Z</time>
      </trkpt>
      <trkpt lat="48.70308" lon="1.88941">
        <ele>115.98</ele>
        <time>2011-05-21T07:37:19Z</time>
      </trkpt>
      <trkpt lat="48.70301" lon="1.88952">
        <ele>115.98</ele>
        <time>2011-05-21T07:37:21Z</time>
      </trkpt>
      <trkpt lat="48.70297" lon="1.88955">
        <ele>116.46</ele>
        <time>2011-05-21T07:37:22Z</time>
      </trkpt>
      <trkpt lat="48.70294" lon="1.88959">
        <ele>115.98</ele>
        <time>2011-05-21T07:37:23Z</time>
      </trkpt>
      <trkpt lat="48.70292" lon="1.88962">
        <ele>115.98</ele>
        <time>2011-05-21T07:37:24Z</time>
      </trkpt>
      <trkpt lat="48.70289" lon="1.88964">
        <ele>116.46</ele>
        <time>2011-05-21T07:37:25Z</time>
      </trkpt>
      <trkpt lat="48.70288" lon="1.88965">
        <ele>116.46</ele>
        <time>2011-05-21T07:37:26Z</time>
      </trkpt>
      <trkpt lat="48.70285" lon="1.88966">
        <ele>115.98</ele>
        <time>2011-05-21T07:37:27Z</time>
      </trkpt>
      <trkpt lat="48.70269" lon="1.88966">
        <ele>116.46</ele>
        <time>2011-05-21T07:37:31Z</time>
      </trkpt>
      <trkpt lat="48.70245" lon="1.88972">
        <ele>116.46</ele>
        <time>2011-05-21T07:37:37Z</time>
      </trkpt>
      <trkpt lat="48.7022" lon="1.89047">
        <ele>116.46</ele>
        <time>2011-05-21T07:37:51Z</time>
      </trkpt>
      <trkpt lat="48.70192" lon="1.89156">
        <ele>117.42</ele>
        <time>2011-05-21T07:38:07Z</time>
      </trkpt>
      <trkpt lat="48.70178" lon="1.89212">
        <ele>117.9</ele>
        <time>2011-05-21T07:38:18Z</time>
      </trkpt>
      <trkpt lat="48.70178" lon="1.89216">
        <ele>117.9</ele>
        <time>2011-05-21T07:38:27Z</time>
      </trkpt>
      <trkpt lat="48.70181" lon="1.89198">
        <ele>117.9</ele>
        <time>2011-05-21T07:38:33Z</time>
      </trkpt>
      <trkpt lat="48.70184" lon="1.89195">
        <ele>117.9</ele>
        <time>2011-05-21T07:38:45Z</time>
      </trkpt>
      <trkpt lat="48.70184" lon="1.89196">
        <ele>117.9</ele>
        <time>2011-05-21T07:38:59Z</time>
      </trkpt>
      <trkpt lat="48.70184" lon="1.89197">
        <ele>117.9</ele>
        <time>2011-05-21T07:39:03Z</time>
      </trkpt>
      <trkpt lat="48.70186" lon="1.89199">
        <ele>117.42</ele>
        <time>2011-05-21T07:39:04Z</time>
      </trkpt>
      <trkpt lat="48.70187" lon="1.89201">
        <ele>117.42</ele>
        <time>2011-05-21T07:39:05Z</time>
      </trkpt>
      <trkpt lat="48.70211" lon="1.89225">
        <ele>116.46</ele>
        <time>2011-05-21T07:39:12Z</time>
      </trkpt>
      <trkpt lat="48.70234" lon="1.89255">
        <ele>115.98</ele>
        <time>2011-05-21T07:39:18Z</time>
      </trkpt>
      <trkpt lat="48.70237" lon="1.8926">
        <ele>115.98</ele>
        <time>2011-05-21T07:39:19Z</time>
      </trkpt>
      <trkpt lat="48.70285" lon="1.89332">
        <ele>116.46</ele>
        <time>2011-05-21T07:39:33Z</time>
      </trkpt>
      <trkpt lat="48.70288" lon="1.89337">
        <ele>116.46</ele>
        <time>2011-05-21T07:39:34Z</time>
      </trkpt>
      <trkpt lat="48.70294" lon="1.89349">
        <ele>116.46</ele>
        <time>2011-05-21T07:39:36Z</time>
      </trkpt>
      <trkpt lat="48.70296" lon="1.89356">
        <ele>116.94</ele>
        <time>2011-05-21T07:39:37Z</time>
      </trkpt>
      <trkpt lat="48.70296" lon="1.89365">
        <ele>116.94</ele>
        <time>2011-05-21T07:39:38Z</time>
      </trkpt>
      <trkpt lat="48.703" lon="1.89416">
        <ele>115.98</ele>
        <time>2011-05-21T07:39:44Z</time>
      </trkpt>
      <trkpt lat="48.70302" lon="1.89424">
        <ele>115.98</ele>
        <time>2011-05-21T07:39:45Z</time>
      </trkpt>
      <trkpt lat="48.70305" lon="1.89431">
        <ele>116.46</ele>
        <time>2011-05-21T07:39:46Z</time>
      </trkpt>
      <trkpt lat="48.70309" lon="1.89437">
        <ele>116.46</ele>
        <time>2011-05-21T07:39:47Z</time>
      </trkpt>
      <trkpt lat="48.70314" lon="1.89444">
        <ele>116.46</ele>
        <time>2011-05-21T07:39:48Z</time>
      </trkpt>
      <trkpt lat="48.70319" lon="1.8945">
        <ele>115.98</ele>
        <time>2011-05-21T07:39:49Z</time>
      </trkpt>
      <trkpt lat="48.70329" lon="1.89462">
        <ele>115.98</ele>
        <time>2011-05-21T07:39:51Z</time>
      </trkpt>
      <trkpt lat="48.70343" lon="1.89484">
        <ele>115.5</ele>
        <time>2011-05-21T07:39:54Z</time>
      </trkpt>
      <trkpt lat="48.70346" lon="1.89492">
        <ele>115.98</ele>
        <time>2011-05-21T07:39:55Z</time>
      </trkpt>
      <trkpt lat="48.70348" lon="1.895">
        <ele>116.46</ele>
        <time>2011-05-21T07:39:56Z</time>
      </trkpt>
      <trkpt lat="48.70349" lon="1.89507">
        <ele>116.46</ele>
        <time>2011-05-21T07:39:57Z</time>
      </trkpt>
      <trkpt lat="48.70349" lon="1.89514">
        <ele>116.46</ele>
        <time>2011-05-21T07:39:58Z</time>
      </trkpt>
      <trkpt lat="48.70347" lon="1.89522">
        <ele>116.46</ele>
        <time>2011-05-21T07:39:59Z</time>
      </trkpt>
      <trkpt lat="48.70343" lon="1.89529">
        <ele>116.94</ele>
        <time>2011-05-21T07:40:00Z</time>
      </trkpt>
      <trkpt lat="48.7034" lon="1.89536">
        <ele>116.46</ele>
        <time>2011-05-21T07:40:01Z</time>
      </trkpt>
      <trkpt lat="48.70338" lon="1.89542">
        <ele>116.46</ele>
        <time>2011-05-21T07:40:02Z</time>
      </trkpt>
      <trkpt lat="48.70334" lon="1.89549">
        <ele>115.98</ele>
        <time>2011-05-21T07:40:03Z</time>
      </trkpt>
      <trkpt lat="48.7033" lon="1.89555">
        <ele>116.46</ele>
        <time>2011-05-21T07:40:04Z</time>
      </trkpt>
      <trkpt lat="48.70324" lon="1.8956">
        <ele>115.5</ele>
        <time>2011-05-21T07:40:05Z</time>
      </trkpt>
      <trkpt lat="48.70318" lon="1.89565">
        <ele>115.5</ele>
        <time>2011-05-21T07:40:06Z</time>
      </trkpt>
      <trkpt lat="48.7031" lon="1.89569">
        <ele>115.5</ele>
        <time>2011-05-21T07:40:07Z</time>
      </trkpt>
      <trkpt lat="48.70304" lon="1.89572">
        <ele>115.5</ele>
        <time>2011-05-21T07:40:08Z</time>
      </trkpt>
      <trkpt lat="48.70288" lon="1.89582">
        <ele>115.5</ele>
        <time>2011-05-21T07:40:11Z</time>
      </trkpt>
      <trkpt lat="48.70283" lon="1.89586">
        <ele>115.98</ele>
        <time>2011-05-21T07:40:12Z</time>
      </trkpt>
      <trkpt lat="48.70275" lon="1.89597">
        <ele>115.98</ele>
        <time>2011-05-21T07:40:14Z</time>
      </trkpt>
      <trkpt lat="48.70268" lon="1.89608">
        <ele>115.98</ele>
        <time>2011-05-21T07:40:16Z</time>
      </trkpt>
      <trkpt lat="48.70263" lon="1.89614">
        <ele>115.98</ele>
        <time>2011-05-21T07:40:17Z</time>
      </trkpt>
      <trkpt lat="48.70218" lon="1.89684">
        <ele>115.98</ele>
        <time>2011-05-21T07:40:29Z</time>
      </trkpt>
      <trkpt lat="48.70208" lon="1.89697">
        <ele>116.46</ele>
        <time>2011-05-21T07:40:31Z</time>
      </trkpt>
      <trkpt lat="48.70197" lon="1.89707">
        <ele>116.46</ele>
        <time>2011-05-21T07:40:33Z</time>
      </trkpt>
      <trkpt lat="48.70177" lon="1.89723">
        <ele>117.42</ele>
        <time>2011-05-21T07:40:37Z</time>
      </trkpt>
      <trkpt lat="48.70172" lon="1.89727">
        <ele>116.94</ele>
        <time>2011-05-21T07:40:38Z</time>
      </trkpt>
      <trkpt lat="48.70163" lon="1.8973">
        <ele>116.46</ele>
        <time>2011-05-21T07:40:40Z</time>
      </trkpt>
      <trkpt lat="48.70158" lon="1.89731">
        <ele>116.46</ele>
        <time>2011-05-21T07:40:41Z</time>
      </trkpt>
      <trkpt lat="48.70129" lon="1.89737">
        <ele>115.5</ele>
        <time>2011-05-21T07:40:47Z</time>
      </trkpt>
      <trkpt lat="48.70124" lon="1.8974">
        <ele>115.98</ele>
        <time>2011-05-21T07:40:48Z</time>
      </trkpt>
      <trkpt lat="48.7012" lon="1.89744">
        <ele>115.01</ele>
        <time>2011-05-21T07:40:49Z</time>
      </trkpt>
      <trkpt lat="48.70106" lon="1.89763">
        <ele>115.01</ele>
        <time>2011-05-21T07:40:52Z</time>
      </trkpt>
      <trkpt lat="48.70104" lon="1.89771">
        <ele>115.01</ele>
        <time>2011-05-21T07:40:53Z</time>
      </trkpt>
      <trkpt lat="48.70103" lon="1.89779">
        <ele>115.01</ele>
        <time>2011-05-21T07:40:54Z</time>
      </trkpt>
      <trkpt lat="48.70101" lon="1.89798">
        <ele>115.01</ele>
        <time>2011-05-21T07:40:56Z</time>
      </trkpt>
      <trkpt lat="48.701" lon="1.89808">
        <ele>114.53</ele>
        <time>2011-05-21T07:40:57Z</time>
      </trkpt>
      <trkpt lat="48.70099" lon="1.89818">
        <ele>114.53</ele>
        <time>2011-05-21T07:40:58Z</time>
      </trkpt>
      <trkpt lat="48.70097" lon="1.89827">
        <ele>114.53</ele>
        <time>2011-05-21T07:40:59Z</time>
      </trkpt>
      <trkpt lat="48.70093" lon="1.89834">
        <ele>114.53</ele>
        <time>2011-05-21T07:41:00Z</time>
      </trkpt>
      <trkpt lat="48.70089" lon="1.89841">
        <ele>114.53</ele>
        <time>2011-05-21T07:41:01Z</time>
      </trkpt>
      <trkpt lat="48.70084" lon="1.89846">
        <ele>114.53</ele>
        <time>2011-05-21T07:41:02Z</time>
      </trkpt>
      <trkpt lat="48.70079" lon="1.89851">
        <ele>114.53</ele>
        <time>2011-05-21T07:41:03Z</time>
      </trkpt>
      <trkpt lat="48.70074" lon="1.89855">
        <ele>115.01</ele>
        <time>2011-05-21T07:41:04Z</time>
      </trkpt>
      <trkpt lat="48.70028" lon="1.89881">
        <ele>115.98</ele>
        <time>2011-05-21T07:41:13Z</time>
      </trkpt>
      <trkpt lat="48.70019" lon="1.89888">
        <ele>115.5</ele>
        <time>2011-05-21T07:41:15Z</time>
      </trkpt>
      <trkpt lat="48.70016" lon="1.89894">
        <ele>115.5</ele>
        <time>2011-05-21T07:41:16Z</time>
      </trkpt>
      <trkpt lat="48.70014" lon="1.89902">
        <ele>115.5</ele>
        <time>2011-05-21T07:41:17Z</time>
      </trkpt>
      <trkpt lat="48.70013" lon="1.89911">
        <ele>115.01</ele>
        <time>2011-05-21T07:41:18Z</time>
      </trkpt>
      <trkpt lat="48.70013" lon="1.89921">
        <ele>114.53</ele>
        <time>2011-05-21T07:41:19Z</time>
      </trkpt>
      <trkpt lat="48.70013" lon="1.8993">
        <ele>114.05</ele>
        <time>2011-05-21T07:41:20Z</time>
      </trkpt>
      <trkpt lat="48.70013" lon="1.8994">
        <ele>114.53</ele>
        <time>2011-05-21T07:41:21Z</time>
      </trkpt>
      <trkpt lat="48.70012" lon="1.89949">
        <ele>114.05</ele>
        <time>2011-05-21T07:41:22Z</time>
      </trkpt>
      <trkpt lat="48.7001" lon="1.89991">
        <ele>114.53</ele>
        <time>2011-05-21T07:41:27Z</time>
      </trkpt>
      <trkpt lat="48.70009" lon="1.89999">
        <ele>114.53</ele>
        <time>2011-05-21T07:41:28Z</time>
      </trkpt>
      <trkpt lat="48.70009" lon="1.90007">
        <ele>114.05</ele>
        <time>2011-05-21T07:41:29Z</time>
      </trkpt>
      <trkpt lat="48.70009" lon="1.90015">
        <ele>114.53</ele>
        <time>2011-05-21T07:41:30Z</time>
      </trkpt>
      <trkpt lat="48.70009" lon="1.90023">
        <ele>114.05</ele>
        <time>2011-05-21T07:41:31Z</time>
      </trkpt>
      <trkpt lat="48.70008" lon="1.90032">
        <ele>114.05</ele>
        <time>2011-05-21T07:41:32Z</time>
      </trkpt>
      <trkpt lat="48.70008" lon="1.9004">
        <ele>114.05</ele>
        <time>2011-05-21T07:41:33Z</time>
      </trkpt>
      <trkpt lat="48.70009" lon="1.90049">
        <ele>113.57</ele>
        <time>2011-05-21T07:41:34Z</time>
      </trkpt>
      <trkpt lat="48.7001" lon="1.90057">
        <ele>114.05</ele>
        <time>2011-05-21T07:41:35Z</time>
      </trkpt>
      <trkpt lat="48.7001" lon="1.90066">
        <ele>114.05</ele>
        <time>2011-05-21T07:41:36Z</time>
      </trkpt>
      <trkpt lat="48.70015" lon="1.90147">
        <ele>113.57</ele>
        <time>2011-05-21T07:41:46Z</time>
      </trkpt>
      <trkpt lat="48.70015" lon="1.90179">
        <ele>113.09</ele>
        <time>2011-05-21T07:41:50Z</time>
      </trkpt>
      <trkpt lat="48.70014" lon="1.90194">
        <ele>113.57</ele>
        <time>2011-05-21T07:41:52Z</time>
      </trkpt>
      <trkpt lat="48.70013" lon="1.90202">
        <ele>113.57</ele>
        <time>2011-05-21T07:41:53Z</time>
      </trkpt>
      <trkpt lat="48.70009" lon="1.90255">
        <ele>114.05</ele>
        <time>2011-05-21T07:42:00Z</time>
      </trkpt>
      <trkpt lat="48.70009" lon="1.90263">
        <ele>114.05</ele>
        <time>2011-05-21T07:42:01Z</time>
      </trkpt>
      <trkpt lat="48.70008" lon="1.90272">
        <ele>114.05</ele>
        <time>2011-05-21T07:42:02Z</time>
      </trkpt>
      <trkpt lat="48.7001" lon="1.90322">
        <ele>114.05</ele>
        <time>2011-05-21T07:42:08Z</time>
      </trkpt>
      <trkpt lat="48.70015" lon="1.90348">
        <ele>114.05</ele>
        <time>2011-05-21T07:42:12Z</time>
      </trkpt>
      <trkpt lat="48.70021" lon="1.9039">
        <ele>114.53</ele>
        <time>2011-05-21T07:42:17Z</time>
      </trkpt>
      <trkpt lat="48.70026" lon="1.90415">
        <ele>114.53</ele>
        <time>2011-05-21T07:42:20Z</time>
      </trkpt>
      <trkpt lat="48.70028" lon="1.90432">
        <ele>115.01</ele>
        <time>2011-05-21T07:42:22Z</time>
      </trkpt>
      <trkpt lat="48.70029" lon="1.9044">
        <ele>114.53</ele>
        <time>2011-05-21T07:42:23Z</time>
      </trkpt>
      <trkpt lat="48.70031" lon="1.90486">
        <ele>112.61</ele>
        <time>2011-05-21T07:42:28Z</time>
      </trkpt>
      <trkpt lat="48.70033" lon="1.90495">
        <ele>111.65</ele>
        <time>2011-05-21T07:42:29Z</time>
      </trkpt>
      <trkpt lat="48.70035" lon="1.90504">
        <ele>112.13</ele>
        <time>2011-05-21T07:42:30Z</time>
      </trkpt>
      <trkpt lat="48.70042" lon="1.90545">
        <ele>111.65</ele>
        <time>2011-05-21T07:42:34Z</time>
      </trkpt>
      <trkpt lat="48.70044" lon="1.90555">
        <ele>111.65</ele>
        <time>2011-05-21T07:42:35Z</time>
      </trkpt>
      <trkpt lat="48.70047" lon="1.90564">
        <ele>111.17</ele>
        <time>2011-05-21T07:42:36Z</time>
      </trkpt>
      <trkpt lat="48.7005" lon="1.90572">
        <ele>112.61</ele>
        <time>2011-05-21T07:42:37Z</time>
      </trkpt>
      <trkpt lat="48.70054" lon="1.9058">
        <ele>113.09</ele>
        <time>2011-05-21T07:42:38Z</time>
      </trkpt>
      <trkpt lat="48.70057" lon="1.90586">
        <ele>112.61</ele>
        <time>2011-05-21T07:42:39Z</time>
      </trkpt>
      <trkpt lat="48.70064" lon="1.906">
        <ele>112.13</ele>
        <time>2011-05-21T07:42:41Z</time>
      </trkpt>
      <trkpt lat="48.70067" lon="1.90608">
        <ele>112.13</ele>
        <time>2011-05-21T07:42:42Z</time>
      </trkpt>
      <trkpt lat="48.7007" lon="1.90617">
        <ele>111.65</ele>
        <time>2011-05-21T07:42:43Z</time>
      </trkpt>
      <trkpt lat="48.70071" lon="1.90626">
        <ele>112.13</ele>
        <time>2011-05-21T07:42:44Z</time>
      </trkpt>
      <trkpt lat="48.70072" lon="1.90635">
        <ele>112.13</ele>
        <time>2011-05-21T07:42:45Z</time>
      </trkpt>
      <trkpt lat="48.70073" lon="1.90643">
        <ele>112.13</ele>
        <time>2011-05-21T07:42:46Z</time>
      </trkpt>
      <trkpt lat="48.70075" lon="1.90666">
        <ele>113.57</ele>
        <time>2011-05-21T07:42:49Z</time>
      </trkpt>
      <trkpt lat="48.70073" lon="1.90672">
        <ele>113.09</ele>
        <time>2011-05-21T07:42:50Z</time>
      </trkpt>
      <trkpt lat="48.70071" lon="1.90677">
        <ele>112.61</ele>
        <time>2011-05-21T07:42:51Z</time>
      </trkpt>
      <trkpt lat="48.70068" lon="1.90682">
        <ele>112.13</ele>
        <time>2011-05-21T07:42:52Z</time>
      </trkpt>
      <trkpt lat="48.70065" lon="1.90686">
        <ele>111.65</ele>
        <time>2011-05-21T07:42:53Z</time>
      </trkpt>
      <trkpt lat="48.70061" lon="1.90689">
        <ele>111.65</ele>
        <time>2011-05-21T07:42:54Z</time>
      </trkpt>
      <trkpt lat="48.70056" lon="1.90692">
        <ele>111.65</ele>
        <time>2011-05-21T07:42:55Z</time>
      </trkpt>
      <trkpt lat="48.70052" lon="1.90695">
        <ele>111.65</ele>
        <time>2011-05-21T07:42:56Z</time>
      </trkpt>
      <trkpt lat="48.70049" lon="1.90699">
        <ele>111.17</ele>
        <time>2011-05-21T07:42:57Z</time>
      </trkpt>
      <trkpt lat="48.70047" lon="1.90703">
        <ele>111.17</ele>
        <time>2011-05-21T07:42:58Z</time>
      </trkpt>
      <trkpt lat="48.70044" lon="1.90708">
        <ele>111.17</ele>
        <time>2011-05-21T07:42:59Z</time>
      </trkpt>
      <trkpt lat="48.70041" lon="1.90714">
        <ele>111.17</ele>
        <time>2011-05-21T07:43:00Z</time>
      </trkpt>
      <trkpt lat="48.7001" lon="1.90772">
        <ele>111.65</ele>
        <time>2011-05-21T07:43:08Z</time>
      </trkpt>
      <trkpt lat="48.70005" lon="1.9078">
        <ele>111.65</ele>
        <time>2011-05-21T07:43:09Z</time>
      </trkpt>
      <trkpt lat="48.70002" lon="1.90787">
        <ele>111.65</ele>
        <time>2011-05-21T07:43:10Z</time>
      </trkpt>
      <trkpt lat="48.69988" lon="1.90825">
        <ele>111.65</ele>
        <time>2011-05-21T07:43:15Z</time>
      </trkpt>
      <trkpt lat="48.69985" lon="1.90833">
        <ele>112.13</ele>
        <time>2011-05-21T07:43:16Z</time>
      </trkpt>
      <trkpt lat="48.69981" lon="1.90848">
        <ele>112.13</ele>
        <time>2011-05-21T07:43:18Z</time>
      </trkpt>
      <trkpt lat="48.69978" lon="1.90855">
        <ele>112.13</ele>
        <time>2011-05-21T07:43:19Z</time>
      </trkpt>
      <trkpt lat="48.69964" lon="1.9091">
        <ele>115.01</ele>
        <time>2011-05-21T07:43:28Z</time>
      </trkpt>
      <trkpt lat="48.69956" lon="1.90966">
        <ele>116.46</ele>
        <time>2011-05-21T07:43:40Z</time>
      </trkpt>
      <trkpt lat="48.69957" lon="1.90978">
        <ele>115.01</ele>
        <time>2011-05-21T07:43:42Z</time>
      </trkpt>
      <trkpt lat="48.69956" lon="1.90986">
        <ele>114.53</ele>
        <time>2011-05-21T07:43:43Z</time>
      </trkpt>
      <trkpt lat="48.69951" lon="1.91015">
        <ele>114.53</ele>
        <time>2011-05-21T07:43:47Z</time>
      </trkpt>
      <trkpt lat="48.69952" lon="1.91036">
        <ele>111.65</ele>
        <time>2011-05-21T07:43:51Z</time>
      </trkpt>
      <trkpt lat="48.69952" lon="1.91044">
        <ele>111.17</ele>
        <time>2011-05-21T07:43:52Z</time>
      </trkpt>
      <trkpt lat="48.69951" lon="1.9105">
        <ele>110.69</ele>
        <time>2011-05-21T07:43:53Z</time>
      </trkpt>
      <trkpt lat="48.6995" lon="1.91057">
        <ele>109.73</ele>
        <time>2011-05-21T07:43:54Z</time>
      </trkpt>
      <trkpt lat="48.6995" lon="1.91063">
        <ele>109.73</ele>
        <time>2011-05-21T07:43:55Z</time>
      </trkpt>
      <trkpt lat="48.6995" lon="1.9107">
        <ele>109.25</ele>
        <time>2011-05-21T07:43:56Z</time>
      </trkpt>
      <trkpt lat="48.69951" lon="1.91086">
        <ele>108.77</ele>
        <time>2011-05-21T07:43:58Z</time>
      </trkpt>
      <trkpt lat="48.69952" lon="1.91094">
        <ele>109.25</ele>
        <time>2011-05-21T07:43:59Z</time>
      </trkpt>
      <trkpt lat="48.69957" lon="1.91144">
        <ele>108.29</ele>
        <time>2011-05-21T07:44:05Z</time>
      </trkpt>
      <trkpt lat="48.69957" lon="1.91151">
        <ele>108.77</ele>
        <time>2011-05-21T07:44:06Z</time>
      </trkpt>
      <trkpt lat="48.69956" lon="1.91157">
        <ele>108.77</ele>
        <time>2011-05-21T07:44:07Z</time>
      </trkpt>
      <trkpt lat="48.69954" lon="1.91164">
        <ele>107.81</ele>
        <time>2011-05-21T07:44:08Z</time>
      </trkpt>
      <trkpt lat="48.69952" lon="1.9117">
        <ele>107.32</ele>
        <time>2011-05-21T07:44:09Z</time>
      </trkpt>
      <trkpt lat="48.69948" lon="1.91178">
        <ele>106.84</ele>
        <time>2011-05-21T07:44:10Z</time>
      </trkpt>
      <trkpt lat="48.69944" lon="1.91185">
        <ele>106.84</ele>
        <time>2011-05-21T07:44:11Z</time>
      </trkpt>
      <trkpt lat="48.69939" lon="1.9119">
        <ele>107.81</ele>
        <time>2011-05-21T07:44:12Z</time>
      </trkpt>
      <trkpt lat="48.69919" lon="1.91206">
        <ele>107.81</ele>
        <time>2011-05-21T07:44:19Z</time>
      </trkpt>
      <trkpt lat="48.69917" lon="1.91214">
        <ele>108.77</ele>
        <time>2011-05-21T07:44:26Z</time>
      </trkpt>
      <trkpt lat="48.6991" lon="1.91226">
        <ele>107.81</ele>
        <time>2011-05-21T07:44:37Z</time>
      </trkpt>
      <trkpt lat="48.69907" lon="1.91228">
        <ele>106.84</ele>
        <time>2011-05-21T07:44:39Z</time>
      </trkpt>
      <trkpt lat="48.69904" lon="1.91233">
        <ele>106.84</ele>
        <time>2011-05-21T07:44:42Z</time>
      </trkpt>
      <trkpt lat="48.69903" lon="1.91236">
        <ele>106.84</ele>
        <time>2011-05-21T07:44:43Z</time>
      </trkpt>
      <trkpt lat="48.69903" lon="1.91247">
        <ele>106.84</ele>
        <time>2011-05-21T07:44:46Z</time>
      </trkpt>
      <trkpt lat="48.69895" lon="1.9132">
        <ele>105.88</ele>
        <time>2011-05-21T07:44:58Z</time>
      </trkpt>
      <trkpt lat="48.69894" lon="1.91326">
        <ele>105.4</ele>
        <time>2011-05-21T07:44:59Z</time>
      </trkpt>
      <trkpt lat="48.69894" lon="1.91334">
        <ele>105.88</ele>
        <time>2011-05-21T07:45:00Z</time>
      </trkpt>
      <trkpt lat="48.69894" lon="1.91341">
        <ele>105.88</ele>
        <time>2011-05-21T07:45:01Z</time>
      </trkpt>
      <trkpt lat="48.69893" lon="1.91349">
        <ele>106.84</ele>
        <time>2011-05-21T07:45:02Z</time>
      </trkpt>
      <trkpt lat="48.69893" lon="1.91357">
        <ele>106.36</ele>
        <time>2011-05-21T07:45:03Z</time>
      </trkpt>
      <trkpt lat="48.69892" lon="1.91364">
        <ele>105.88</ele>
        <time>2011-05-21T07:45:04Z</time>
      </trkpt>
      <trkpt lat="48.6989" lon="1.91388">
        <ele>105.4</ele>
        <time>2011-05-21T07:45:07Z</time>
      </trkpt>
      <trkpt lat="48.69888" lon="1.91395">
        <ele>105.88</ele>
        <time>2011-05-21T07:45:08Z</time>
      </trkpt>
      <trkpt lat="48.69886" lon="1.91402">
        <ele>105.88</ele>
        <time>2011-05-21T07:45:09Z</time>
      </trkpt>
      <trkpt lat="48.69883" lon="1.91409">
        <ele>105.88</ele>
        <time>2011-05-21T07:45:10Z</time>
      </trkpt>
      <trkpt lat="48.69878" lon="1.91414">
        <ele>105.88</ele>
        <time>2011-05-21T07:45:11Z</time>
      </trkpt>
      <trkpt lat="48.69875" lon="1.91417">
        <ele>105.88</ele>
        <time>2011-05-21T07:45:12Z</time>
      </trkpt>
      <trkpt lat="48.6987" lon="1.9142">
        <ele>105.88</ele>
        <time>2011-05-21T07:45:13Z</time>
      </trkpt>
      <trkpt lat="48.69866" lon="1.91423">
        <ele>105.88</ele>
        <time>2011-05-21T07:45:14Z</time>
      </trkpt>
      <trkpt lat="48.69862" lon="1.91426">
        <ele>105.88</ele>
        <time>2011-05-21T07:45:15Z</time>
      </trkpt>
      <trkpt lat="48.69857" lon="1.91427">
        <ele>105.88</ele>
        <time>2011-05-21T07:45:16Z</time>
      </trkpt>
      <trkpt lat="48.69854" lon="1.91427">
        <ele>105.4</ele>
        <time>2011-05-21T07:45:17Z</time>
      </trkpt>
      <trkpt lat="48.6985" lon="1.91424">
        <ele>105.88</ele>
        <time>2011-05-21T07:45:18Z</time>
      </trkpt>
      <trkpt lat="48.69846" lon="1.91421">
        <ele>105.4</ele>
        <time>2011-05-21T07:45:19Z</time>
      </trkpt>
      <trkpt lat="48.69843" lon="1.91419">
        <ele>105.88</ele>
        <time>2011-05-21T07:45:20Z</time>
      </trkpt>
      <trkpt lat="48.69781" lon="1.91398">
        <ele>109.73</ele>
        <time>2011-05-21T07:45:30Z</time>
      </trkpt>
      <trkpt lat="48.69777" lon="1.91396">
        <ele>109.73</ele>
        <time>2011-05-21T07:45:31Z</time>
      </trkpt>
      <trkpt lat="48.69756" lon="1.91387">
        <ele>107.81</ele>
        <time>2011-05-21T07:45:37Z</time>
      </trkpt>
      <trkpt lat="48.69751" lon="1.91387">
        <ele>106.84</ele>
        <time>2011-05-21T07:45:38Z</time>
      </trkpt>
      <trkpt lat="48.69746" lon="1.91387">
        <ele>106.84</ele>
        <time>2011-05-21T07:45:39Z</time>
      </trkpt>
      <trkpt lat="48.69741" lon="1.91388">
        <ele>106.36</ele>
        <time>2011-05-21T07:45:40Z</time>
      </trkpt>
      <trkpt lat="48.69735" lon="1.91389">
        <ele>105.88</ele>
        <time>2011-05-21T07:45:41Z</time>
      </trkpt>
      <trkpt lat="48.6973" lon="1.9139">
        <ele>105.88</ele>
        <time>2011-05-21T07:45:42Z</time>
      </trkpt>
      <trkpt lat="48.69724" lon="1.91389">
        <ele>106.36</ele>
        <time>2011-05-21T07:45:43Z</time>
      </trkpt>
      <trkpt lat="48.69719" lon="1.91389">
        <ele>105.88</ele>
        <time>2011-05-21T07:45:44Z</time>
      </trkpt>
      <trkpt lat="48.69713" lon="1.91388">
        <ele>105.4</ele>
        <time>2011-05-21T07:45:45Z</time>
      </trkpt>
      <trkpt lat="48.69707" lon="1.91389">
        <ele>105.88</ele>
        <time>2011-05-21T07:45:46Z</time>
      </trkpt>
      <trkpt lat="48.69702" lon="1.9139">
        <ele>105.88</ele>
        <time>2011-05-21T07:45:47Z</time>
      </trkpt>
      <trkpt lat="48.69696" lon="1.91391">
        <ele>105.4</ele>
        <time>2011-05-21T07:45:48Z</time>
      </trkpt>
      <trkpt lat="48.69692" lon="1.9139">
        <ele>105.88</ele>
        <time>2011-05-21T07:45:49Z</time>
      </trkpt>
      <trkpt lat="48.69687" lon="1.91389">
        <ele>105.88</ele>
        <time>2011-05-21T07:45:50Z</time>
      </trkpt>
      <trkpt lat="48.69682" lon="1.9139">
        <ele>105.88</ele>
        <time>2011-05-21T07:45:51Z</time>
      </trkpt>
      <trkpt lat="48.69663" lon="1.91391">
        <ele>104.92</ele>
        <time>2011-05-21T07:45:55Z</time>
      </trkpt>
      <trkpt lat="48.6966" lon="1.91389">
        <ele>104.92</ele>
        <time>2011-05-21T07:45:56Z</time>
      </trkpt>
      <trkpt lat="48.69634" lon="1.91385">
        <ele>103.96</ele>
        <time>2011-05-21T07:46:04Z</time>
      </trkpt>
      <trkpt lat="48.69629" lon="1.91381">
        <ele>104.92</ele>
        <time>2011-05-21T07:46:05Z</time>
      </trkpt>
      <trkpt lat="48.69625" lon="1.91377">
        <ele>104.44</ele>
        <time>2011-05-21T07:46:06Z</time>
      </trkpt>
      <trkpt lat="48.69614" lon="1.91365">
        <ele>104.92</ele>
        <time>2011-05-21T07:46:09Z</time>
      </trkpt>
      <trkpt lat="48.69609" lon="1.91361">
        <ele>104.92</ele>
        <time>2011-05-21T07:46:10Z</time>
      </trkpt>
      <trkpt lat="48.69605" lon="1.91358">
        <ele>104.92</ele>
        <time>2011-05-21T07:46:11Z</time>
      </trkpt>
      <trkpt lat="48.696" lon="1.91356">
        <ele>104.44</ele>
        <time>2011-05-21T07:46:12Z</time>
      </trkpt>
      <trkpt lat="48.69595" lon="1.91355">
        <ele>104.44</ele>
        <time>2011-05-21T07:46:13Z</time>
      </trkpt>
      <trkpt lat="48.6959" lon="1.91356">
        <ele>104.44</ele>
        <time>2011-05-21T07:46:14Z</time>
      </trkpt>
      <trkpt lat="48.69586" lon="1.91358">
        <ele>104.44</ele>
        <time>2011-05-21T07:46:15Z</time>
      </trkpt>
      <trkpt lat="48.69555" lon="1.91364">
        <ele>103.96</ele>
        <time>2011-05-21T07:46:22Z</time>
      </trkpt>
      <trkpt lat="48.6955" lon="1.91368">
        <ele>103.96</ele>
        <time>2011-05-21T07:46:23Z</time>
      </trkpt>
      <trkpt lat="48.69547" lon="1.9137">
        <ele>104.44</ele>
        <time>2011-05-21T07:46:24Z</time>
      </trkpt>
      <trkpt lat="48.69542" lon="1.91372">
        <ele>103.96</ele>
        <time>2011-05-21T07:46:25Z</time>
      </trkpt>
      <trkpt lat="48.69537" lon="1.91374">
        <ele>103.96</ele>
        <time>2011-05-21T07:46:26Z</time>
      </trkpt>
      <trkpt lat="48.69513" lon="1.91388">
        <ele>104.44</ele>
        <time>2011-05-21T07:46:32Z</time>
      </trkpt>
      <trkpt lat="48.69515" lon="1.91434">
        <ele>104.92</ele>
        <time>2011-05-21T07:46:40Z</time>
      </trkpt>
      <trkpt lat="48.69514" lon="1.91438">
        <ele>104.44</ele>
        <time>2011-05-21T07:46:41Z</time>
      </trkpt>
      <trkpt lat="48.69513" lon="1.9144">
        <ele>104.92</ele>
        <time>2011-05-21T07:46:42Z</time>
      </trkpt>
      <trkpt lat="48.69494" lon="1.91444">
        <ele>106.36</ele>
        <time>2011-05-21T07:46:45Z</time>
      </trkpt>
      <trkpt lat="48.69448" lon="1.91456">
        <ele>108.77</ele>
        <time>2011-05-21T07:46:56Z</time>
      </trkpt>
      <trkpt lat="48.6941" lon="1.91453">
        <ele>107.81</ele>
        <time>2011-05-21T07:47:06Z</time>
      </trkpt>
      <trkpt lat="48.69397" lon="1.91466">
        <ele>104.44</ele>
        <time>2011-05-21T07:47:11Z</time>
      </trkpt>
      <trkpt lat="48.69387" lon="1.91489">
        <ele>103.48</ele>
        <time>2011-05-21T07:47:22Z</time>
      </trkpt>
      <trkpt lat="48.69387" lon="1.91489">
        <ele>94.83</ele>
        <time>2011-05-21T07:47:36Z</time>
      </trkpt>
      <trkpt lat="48.69387" lon="1.91489">
        <ele>105.4</ele>
        <time>2011-05-21T07:47:37Z</time>
      </trkpt>
      <trkpt lat="48.69387" lon="1.91489">
        <ele>103.96</ele>
        <time>2011-05-21T07:47:38Z</time>
      </trkpt>
      <trkpt lat="48.69387" lon="1.91489">
        <ele>103.48</ele>
        <time>2011-05-21T07:48:07Z</time>
      </trkpt>
      <trkpt lat="48.69387" lon="1.91489">
        <ele>97.23</ele>
        <time>2011-05-21T07:48:29Z</time>
      </trkpt>
      <trkpt lat="48.69387" lon="1.91489">
        <ele>104.44</ele>
        <time>2011-05-21T07:48:30Z</time>
      </trkpt>
      <trkpt lat="48.69387" lon="1.91489">
        <ele>103.48</ele>
        <time>2011-05-21T07:48:39Z</time>
      </trkpt>
      <trkpt lat="48.69393" lon="1.91497">
        <ele>103.48</ele>
        <time>2011-05-21T07:48:43Z</time>
      </trkpt>
      <trkpt lat="48.69407" lon="1.91544">
        <ele>106.84</ele>
        <time>2011-05-21T07:48:54Z</time>
      </trkpt>
      <trkpt lat="48.69422" lon="1.91581">
        <ele>109.73</ele>
        <time>2011-05-21T07:49:06Z</time>
      </trkpt>
      <trkpt lat="48.6942" lon="1.91611">
        <ele>113.57</ele>
        <time>2011-05-21T07:49:17Z</time>
      </trkpt>
      <trkpt lat="48.69408" lon="1.91639">
        <ele>116.94</ele>
        <time>2011-05-21T07:49:29Z</time>
      </trkpt>
      <trkpt lat="48.69406" lon="1.91641">
        <ele>116.94</ele>
        <time>2011-05-21T07:49:30Z</time>
      </trkpt>
      <trkpt lat="48.69401" lon="1.91657">
        <ele>119.82</ele>
        <time>2011-05-21T07:49:39Z</time>
      </trkpt>
      <trkpt lat="48.69404" lon="1.91673">
        <ele>122.22</ele>
        <time>2011-05-21T07:49:53Z</time>
      </trkpt>
      <trkpt lat="48.69409" lon="1.91682">
        <ele>124.15</ele>
        <time>2011-05-21T07:50:05Z</time>
      </trkpt>
      <trkpt lat="48.69413" lon="1.91694">
        <ele>127.51</ele>
        <time>2011-05-21T07:50:18Z</time>
      </trkpt>
      <trkpt lat="48.69414" lon="1.91704">
        <ele>129.92</ele>
        <time>2011-05-21T07:50:32Z</time>
      </trkpt>
      <trkpt lat="48.6941" lon="1.91707">
        <ele>130.88</ele>
        <time>2011-05-21T07:50:45Z</time>
      </trkpt>
      <trkpt lat="48.69409" lon="1.91707">
        <ele>131.36</ele>
        <time>2011-05-21T07:50:49Z</time>
      </trkpt>
      <trkpt lat="48.69398" lon="1.91698">
        <ele>132.8</ele>
        <time>2011-05-21T07:50:57Z</time>
      </trkpt>
      <trkpt lat="48.69375" lon="1.91683">
        <ele>136.16</ele>
        <time>2011-05-21T07:51:10Z</time>
      </trkpt>
      <trkpt lat="48.69362" lon="1.91677">
        <ele>139.05</ele>
        <time>2011-05-21T07:51:19Z</time>
      </trkpt>
      <trkpt lat="48.69354" lon="1.91677">
        <ele>140.49</ele>
        <time>2011-05-21T07:51:32Z</time>
      </trkpt>
      <trkpt lat="48.69351" lon="1.9169">
        <ele>141.93</ele>
        <time>2011-05-21T07:51:46Z</time>
      </trkpt>
      <trkpt lat="48.69343" lon="1.91703">
        <ele>144.34</ele>
        <time>2011-05-21T07:52:03Z</time>
      </trkpt>
      <trkpt lat="48.69342" lon="1.91705">
        <ele>144.82</ele>
        <time>2011-05-21T07:52:10Z</time>
      </trkpt>
      <trkpt lat="48.69339" lon="1.9172">
        <ele>147.22</ele>
        <time>2011-05-21T07:52:17Z</time>
      </trkpt>
      <trkpt lat="48.69328" lon="1.91759">
        <ele>150.1</ele>
        <time>2011-05-21T07:52:31Z</time>
      </trkpt>
      <trkpt lat="48.69325" lon="1.91787">
        <ele>150.58</ele>
        <time>2011-05-21T07:52:42Z</time>
      </trkpt>
      <trkpt lat="48.69321" lon="1.91799">
        <ele>151.54</ele>
        <time>2011-05-21T07:52:54Z</time>
      </trkpt>
      <trkpt lat="48.6932" lon="1.91802">
        <ele>151.06</ele>
        <time>2011-05-21T07:52:55Z</time>
      </trkpt>
      <trkpt lat="48.69316" lon="1.91819">
        <ele>151.06</ele>
        <time>2011-05-21T07:53:00Z</time>
      </trkpt>
      <trkpt lat="48.69306" lon="1.9186">
        <ele>151.06</ele>
        <time>2011-05-21T07:53:08Z</time>
      </trkpt>
      <trkpt lat="48.69299" lon="1.91907">
        <ele>149.62</ele>
        <time>2011-05-21T07:53:15Z</time>
      </trkpt>
      <trkpt lat="48.69294" lon="1.91945">
        <ele>147.7</ele>
        <time>2011-05-21T07:53:20Z</time>
      </trkpt>
      <trkpt lat="48.6929" lon="1.9197">
        <ele>147.7</ele>
        <time>2011-05-21T07:53:23Z</time>
      </trkpt>
      <trkpt lat="48.69288" lon="1.91977">
        <ele>148.66</ele>
        <time>2011-05-21T07:53:24Z</time>
      </trkpt>
      <trkpt lat="48.69277" lon="1.92004">
        <ele>148.66</ele>
        <time>2011-05-21T07:53:29Z</time>
      </trkpt>
      <trkpt lat="48.69274" lon="1.92009">
        <ele>147.7</ele>
        <time>2011-05-21T07:53:30Z</time>
      </trkpt>
      <trkpt lat="48.69262" lon="1.92029">
        <ele>144.34</ele>
        <time>2011-05-21T07:53:33Z</time>
      </trkpt>
      <trkpt lat="48.69257" lon="1.92035">
        <ele>144.34</ele>
        <time>2011-05-21T07:53:34Z</time>
      </trkpt>
      <trkpt lat="48.69252" lon="1.9204">
        <ele>144.82</ele>
        <time>2011-05-21T07:53:35Z</time>
      </trkpt>
      <trkpt lat="48.69247" lon="1.92044">
        <ele>146.26</ele>
        <time>2011-05-21T07:53:36Z</time>
      </trkpt>
      <trkpt lat="48.69242" lon="1.92046">
        <ele>146.74</ele>
        <time>2011-05-21T07:53:37Z</time>
      </trkpt>
      <trkpt lat="48.69237" lon="1.92046">
        <ele>147.7</ele>
        <time>2011-05-21T07:53:38Z</time>
      </trkpt>
      <trkpt lat="48.69232" lon="1.92046">
        <ele>147.7</ele>
        <time>2011-05-21T07:53:39Z</time>
      </trkpt>
      <trkpt lat="48.69228" lon="1.92046">
        <ele>148.66</ele>
        <time>2011-05-21T07:53:40Z</time>
      </trkpt>
      <trkpt lat="48.69223" lon="1.92045">
        <ele>148.18</ele>
        <time>2011-05-21T07:53:41Z</time>
      </trkpt>
      <trkpt lat="48.69219" lon="1.92045">
        <ele>148.18</ele>
        <time>2011-05-21T07:53:42Z</time>
      </trkpt>
      <trkpt lat="48.69215" lon="1.92044">
        <ele>148.66</ele>
        <time>2011-05-21T07:53:43Z</time>
      </trkpt>
      <trkpt lat="48.69211" lon="1.92043">
        <ele>148.66</ele>
        <time>2011-05-21T07:53:44Z</time>
      </trkpt>
      <trkpt lat="48.69179" lon="1.92038">
        <ele>150.1</ele>
        <time>2011-05-21T07:53:51Z</time>
      </trkpt>
      <trkpt lat="48.69175" lon="1.92039">
        <ele>150.1</ele>
        <time>2011-05-21T07:53:52Z</time>
      </trkpt>
      <trkpt lat="48.69171" lon="1.92041">
        <ele>150.1</ele>
        <time>2011-05-21T07:53:53Z</time>
      </trkpt>
      <trkpt lat="48.69161" lon="1.92049">
        <ele>150.1</ele>
        <time>2011-05-21T07:53:56Z</time>
      </trkpt>
      <trkpt lat="48.69138" lon="1.92109">
        <ele>150.1</ele>
        <time>2011-05-21T07:54:08Z</time>
      </trkpt>
      <trkpt lat="48.69136" lon="1.92117">
        <ele>150.1</ele>
        <time>2011-05-21T07:54:09Z</time>
      </trkpt>
      <trkpt lat="48.69131" lon="1.92156">
        <ele>150.1</ele>
        <time>2011-05-21T07:54:15Z</time>
      </trkpt>
      <trkpt lat="48.69124" lon="1.92211">
        <ele>145.78</ele>
        <time>2011-05-21T07:54:23Z</time>
      </trkpt>
      <trkpt lat="48.69124" lon="1.92221">
        <ele>143.85</ele>
        <time>2011-05-21T07:54:24Z</time>
      </trkpt>
      <trkpt lat="48.69124" lon="1.92234">
        <ele>140.01</ele>
        <time>2011-05-21T07:54:25Z</time>
      </trkpt>
      <trkpt lat="48.69123" lon="1.92261">
        <ele>138.57</ele>
        <time>2011-05-21T07:54:27Z</time>
      </trkpt>
      <trkpt lat="48.69124" lon="1.92302">
        <ele>139.53</ele>
        <time>2011-05-21T07:54:30Z</time>
      </trkpt>
      <trkpt lat="48.69122" lon="1.92323">
        <ele>142.89</ele>
        <time>2011-05-21T07:54:32Z</time>
      </trkpt>
      <trkpt lat="48.6912" lon="1.9233">
        <ele>144.82</ele>
        <time>2011-05-21T07:54:33Z</time>
      </trkpt>
      <trkpt lat="48.69119" lon="1.92334">
        <ele>145.78</ele>
        <time>2011-05-21T07:54:34Z</time>
      </trkpt>
      <trkpt lat="48.69115" lon="1.92343">
        <ele>147.22</ele>
        <time>2011-05-21T07:54:37Z</time>
      </trkpt>
      <trkpt lat="48.69108" lon="1.92366">
        <ele>147.22</ele>
        <time>2011-05-21T07:54:45Z</time>
      </trkpt>
      <trkpt lat="48.69107" lon="1.92369">
        <ele>146.74</ele>
        <time>2011-05-21T07:54:46Z</time>
      </trkpt>
      <trkpt lat="48.69106" lon="1.92373">
        <ele>146.26</ele>
        <time>2011-05-21T07:54:47Z</time>
      </trkpt>
      <trkpt lat="48.69105" lon="1.92385">
        <ele>145.78</ele>
        <time>2011-05-21T07:54:49Z</time>
      </trkpt>
      <trkpt lat="48.6909" lon="1.92425">
        <ele>148.66</ele>
        <time>2011-05-21T07:54:59Z</time>
      </trkpt>
      <trkpt lat="48.69082" lon="1.92449">
        <ele>149.62</ele>
        <time>2011-05-21T07:55:06Z</time>
      </trkpt>
      <trkpt lat="48.69077" lon="1.92464">
        <ele>149.62</ele>
        <time>2011-05-21T07:55:20Z</time>
      </trkpt>
      <trkpt lat="48.69064" lon="1.92508">
        <ele>149.62</ele>
        <time>2011-05-21T07:55:31Z</time>
      </trkpt>
      <trkpt lat="48.69046" lon="1.92554">
        <ele>150.58</ele>
        <time>2011-05-21T07:55:42Z</time>
      </trkpt>
      <trkpt lat="48.69056" lon="1.92632">
        <ele>150.1</ele>
        <time>2011-05-21T07:55:55Z</time>
      </trkpt>
      <trkpt lat="48.6909" lon="1.92676">
        <ele>148.66</ele>
        <time>2011-05-21T07:56:05Z</time>
      </trkpt>
      <trkpt lat="48.69096" lon="1.92677">
        <ele>148.66</ele>
        <time>2011-05-21T07:56:06Z</time>
      </trkpt>
      <trkpt lat="48.69104" lon="1.92678">
        <ele>148.66</ele>
        <time>2011-05-21T07:56:07Z</time>
      </trkpt>
      <trkpt lat="48.69109" lon="1.92681">
        <ele>148.66</ele>
        <time>2011-05-21T07:56:08Z</time>
      </trkpt>
      <trkpt lat="48.69114" lon="1.92685">
        <ele>148.66</ele>
        <time>2011-05-21T07:56:09Z</time>
      </trkpt>
      <trkpt lat="48.69151" lon="1.92717">
        <ele>146.26</ele>
        <time>2011-05-21T07:56:18Z</time>
      </trkpt>
      <trkpt lat="48.69159" lon="1.92725">
        <ele>142.41</ele>
        <time>2011-05-21T07:56:20Z</time>
      </trkpt>
      <trkpt lat="48.69162" lon="1.92735">
        <ele>141.45</ele>
        <time>2011-05-21T07:56:21Z</time>
      </trkpt>
      <trkpt lat="48.69172" lon="1.92752">
        <ele>141.93</ele>
        <time>2011-05-21T07:56:23Z</time>
      </trkpt>
      <trkpt lat="48.69177" lon="1.92759">
        <ele>142.41</ele>
        <time>2011-05-21T07:56:24Z</time>
      </trkpt>
      <trkpt lat="48.69194" lon="1.92777">
        <ele>145.3</ele>
        <time>2011-05-21T07:56:27Z</time>
      </trkpt>
      <trkpt lat="48.69221" lon="1.928">
        <ele>146.74</ele>
        <time>2011-05-21T07:56:33Z</time>
      </trkpt>
      <trkpt lat="48.69225" lon="1.92804">
        <ele>147.7</ele>
        <time>2011-05-21T07:56:34Z</time>
      </trkpt>
      <trkpt lat="48.69229" lon="1.92807">
        <ele>147.22</ele>
        <time>2011-05-21T07:56:35Z</time>
      </trkpt>
      <trkpt lat="48.69261" lon="1.92828">
        <ele>150.1</ele>
        <time>2011-05-21T07:56:44Z</time>
      </trkpt>
      <trkpt lat="48.69266" lon="1.9283">
        <ele>150.1</ele>
        <time>2011-05-21T07:56:45Z</time>
      </trkpt>
      <trkpt lat="48.6927" lon="1.92833">
        <ele>150.58</ele>
        <time>2011-05-21T07:56:46Z</time>
      </trkpt>
      <trkpt lat="48.69308" lon="1.92855">
        <ele>153.47</ele>
        <time>2011-05-21T07:56:56Z</time>
      </trkpt>
      <trkpt lat="48.69337" lon="1.9287">
        <ele>153.95</ele>
        <time>2011-05-21T07:57:08Z</time>
      </trkpt>
      <trkpt lat="48.69366" lon="1.92891">
        <ele>154.91</ele>
        <time>2011-05-21T07:57:20Z</time>
      </trkpt>
      <trkpt lat="48.69384" lon="1.9292">
        <ele>154.91</ele>
        <time>2011-05-21T07:57:30Z</time>
      </trkpt>
      <trkpt lat="48.69373" lon="1.92936">
        <ele>155.39</ele>
        <time>2011-05-21T07:57:38Z</time>
      </trkpt>
      <trkpt lat="48.69315" lon="1.92951">
        <ele>154.43</ele>
        <time>2011-05-21T07:57:53Z</time>
      </trkpt>
      <trkpt lat="48.69238" lon="1.92992">
        <ele>153.47</ele>
        <time>2011-05-21T07:58:07Z</time>
      </trkpt>
      <trkpt lat="48.69159" lon="1.93048">
        <ele>152.51</ele>
        <time>2011-05-21T07:58:20Z</time>
      </trkpt>
      <trkpt lat="48.69124" lon="1.93081">
        <ele>151.54</ele>
        <time>2011-05-21T07:58:26Z</time>
      </trkpt>
      <trkpt lat="48.69119" lon="1.93084">
        <ele>151.54</ele>
        <time>2011-05-21T07:58:27Z</time>
      </trkpt>
      <trkpt lat="48.6911" lon="1.93086">
        <ele>151.54</ele>
        <time>2011-05-21T07:58:29Z</time>
      </trkpt>
      <trkpt lat="48.6908" lon="1.93089">
        <ele>151.54</ele>
        <time>2011-05-21T07:58:34Z</time>
      </trkpt>
      <trkpt lat="48.69065" lon="1.93094">
        <ele>151.54</ele>
        <time>2011-05-21T07:58:36Z</time>
      </trkpt>
      <trkpt lat="48.69046" lon="1.93096">
        <ele>152.03</ele>
        <time>2011-05-21T07:58:39Z</time>
      </trkpt>
      <trkpt lat="48.69032" lon="1.93102">
        <ele>152.03</ele>
        <time>2011-05-21T07:58:42Z</time>
      </trkpt>
      <trkpt lat="48.69027" lon="1.93102">
        <ele>151.54</ele>
        <time>2011-05-21T07:58:43Z</time>
      </trkpt>
      <trkpt lat="48.69021" lon="1.93101">
        <ele>151.54</ele>
        <time>2011-05-21T07:58:44Z</time>
      </trkpt>
      <trkpt lat="48.69006" lon="1.93098">
        <ele>151.54</ele>
        <time>2011-05-21T07:58:47Z</time>
      </trkpt>
      <trkpt lat="48.69" lon="1.93099">
        <ele>151.54</ele>
        <time>2011-05-21T07:58:48Z</time>
      </trkpt>
      <trkpt lat="48.68996" lon="1.93103">
        <ele>151.54</ele>
        <time>2011-05-21T07:58:49Z</time>
      </trkpt>
      <trkpt lat="48.68993" lon="1.93108">
        <ele>151.54</ele>
        <time>2011-05-21T07:58:50Z</time>
      </trkpt>
      <trkpt lat="48.6899" lon="1.93113">
        <ele>152.03</ele>
        <time>2011-05-21T07:58:51Z</time>
      </trkpt>
      <trkpt lat="48.68987" lon="1.93118">
        <ele>152.03</ele>
        <time>2011-05-21T07:58:52Z</time>
      </trkpt>
      <trkpt lat="48.68967" lon="1.93153">
        <ele>152.99</ele>
        <time>2011-05-21T07:59:02Z</time>
      </trkpt>
      <trkpt lat="48.68966" lon="1.93153">
        <ele>152.99</ele>
        <time>2011-05-21T07:59:11Z</time>
      </trkpt>
      <trkpt lat="48.68956" lon="1.93149">
        <ele>152.51</ele>
        <time>2011-05-21T07:59:18Z</time>
      </trkpt>
      <trkpt lat="48.68947" lon="1.93139">
        <ele>152.51</ele>
        <time>2011-05-21T07:59:22Z</time>
      </trkpt>
      <trkpt lat="48.68921" lon="1.93117">
        <ele>152.51</ele>
        <time>2011-05-21T07:59:30Z</time>
      </trkpt>
      <trkpt lat="48.68887" lon="1.93078">
        <ele>151.54</ele>
        <time>2011-05-21T07:59:40Z</time>
      </trkpt>
      <trkpt lat="48.68874" lon="1.93069">
        <ele>149.62</ele>
        <time>2011-05-21T07:59:44Z</time>
      </trkpt>
      <trkpt lat="48.68857" lon="1.93084">
        <ele>150.58</ele>
        <time>2011-05-21T07:59:50Z</time>
      </trkpt>
      <trkpt lat="48.68842" lon="1.931">
        <ele>149.62</ele>
        <time>2011-05-21T07:59:54Z</time>
      </trkpt>
      <trkpt lat="48.68833" lon="1.93113">
        <ele>149.62</ele>
        <time>2011-05-21T07:59:57Z</time>
      </trkpt>
      <trkpt lat="48.68815" lon="1.93154">
        <ele>149.14</ele>
        <time>2011-05-21T08:00:05Z</time>
      </trkpt>
      <trkpt lat="48.68813" lon="1.93256">
        <ele>149.62</ele>
        <time>2011-05-21T08:00:18Z</time>
      </trkpt>
      <trkpt lat="48.68811" lon="1.93264">
        <ele>149.14</ele>
        <time>2011-05-21T08:00:19Z</time>
      </trkpt>
      <trkpt lat="48.68808" lon="1.93305">
        <ele>149.14</ele>
        <time>2011-05-21T08:00:31Z</time>
      </trkpt>
      <trkpt lat="48.68808" lon="1.93305">
        <ele>142.89</ele>
        <time>2011-05-21T08:00:34Z</time>
      </trkpt>
      <trkpt lat="48.68808" lon="1.93305">
        <ele>143.85</ele>
        <time>2011-05-21T08:00:35Z</time>
      </trkpt>
      <trkpt lat="48.68808" lon="1.93305">
        <ele>148.18</ele>
        <time>2011-05-21T08:00:36Z</time>
      </trkpt>
      <trkpt lat="48.68808" lon="1.93305">
        <ele>152.51</ele>
        <time>2011-05-21T08:00:37Z</time>
      </trkpt>
      <trkpt lat="48.68808" lon="1.93305">
        <ele>145.78</ele>
        <time>2011-05-21T08:00:38Z</time>
      </trkpt>
      <trkpt lat="48.68808" lon="1.93305">
        <ele>149.14</ele>
        <time>2011-05-21T08:00:39Z</time>
      </trkpt>
      <trkpt lat="48.68808" lon="1.93305">
        <ele>153.95</ele>
        <time>2011-05-21T08:00:45Z</time>
      </trkpt>
      <trkpt lat="48.68808" lon="1.93305">
        <ele>149.14</ele>
        <time>2011-05-21T08:00:46Z</time>
      </trkpt>
      <trkpt lat="48.68808" lon="1.93305">
        <ele>153.47</ele>
        <time>2011-05-21T08:00:47Z</time>
      </trkpt>
      <trkpt lat="48.68808" lon="1.93305">
        <ele>149.62</ele>
        <time>2011-05-21T08:00:49Z</time>
      </trkpt>
      <trkpt lat="48.68808" lon="1.93305">
        <ele>149.14</ele>
        <time>2011-05-21T08:00:50Z</time>
      </trkpt>
      <trkpt lat="48.68808" lon="1.93305">
        <ele>140.49</ele>
        <time>2011-05-21T08:00:51Z</time>
      </trkpt>
      <trkpt lat="48.68808" lon="1.93305">
        <ele>152.51</ele>
        <time>2011-05-21T08:00:52Z</time>
      </trkpt>
      <trkpt lat="48.68808" lon="1.93305">
        <ele>147.7</ele>
        <time>2011-05-21T08:00:53Z</time>
      </trkpt>
      <trkpt lat="48.68808" lon="1.93305">
        <ele>154.91</ele>
        <time>2011-05-21T08:00:55Z</time>
      </trkpt>
      <trkpt lat="48.68808" lon="1.93305">
        <ele>149.62</ele>
        <time>2011-05-21T08:00:56Z</time>
      </trkpt>
      <trkpt lat="48.68808" lon="1.93305">
        <ele>142.41</ele>
        <time>2011-05-21T08:00:59Z</time>
      </trkpt>
      <trkpt lat="48.68808" lon="1.93305">
        <ele>151.54</ele>
        <time>2011-05-21T08:01:00Z</time>
      </trkpt>
      <trkpt lat="48.68808" lon="1.93305">
        <ele>145.78</ele>
        <time>2011-05-21T08:01:02Z</time>
      </trkpt>
      <trkpt lat="48.68808" lon="1.93305">
        <ele>152.03</ele>
        <time>2011-05-21T08:01:03Z</time>
      </trkpt>
      <trkpt lat="48.68808" lon="1.93304">
        <ele>158.75</ele>
        <time>2011-05-21T08:01:16Z</time>
      </trkpt>
      <trkpt lat="48.68808" lon="1.93304">
        <ele>149.62</ele>
        <time>2011-05-21T08:01:17Z</time>
      </trkpt>
      <trkpt lat="48.68812" lon="1.93301">
        <ele>149.62</ele>
        <time>2011-05-21T08:01:35Z</time>
      </trkpt>
      <trkpt lat="48.6884" lon="1.93312">
        <ele>151.54</ele>
        <time>2011-05-21T08:01:48Z</time>
      </trkpt>
      <trkpt lat="48.6887" lon="1.93337">
        <ele>152.03</ele>
        <time>2011-05-21T08:02:00Z</time>
      </trkpt>
      <trkpt lat="48.68873" lon="1.93361">
        <ele>149.14</ele>
        <time>2011-05-21T08:02:08Z</time>
      </trkpt>
      <trkpt lat="48.68805" lon="1.93455">
        <ele>150.1</ele>
        <time>2011-05-21T08:02:19Z</time>
      </trkpt>
      <trkpt lat="48.6879" lon="1.93511">
        <ele>152.03</ele>
        <time>2011-05-21T08:02:30Z</time>
      </trkpt>
      <trkpt lat="48.68776" lon="1.93612">
        <ele>151.54</ele>
        <time>2011-05-21T08:02:45Z</time>
      </trkpt>
      <trkpt lat="48.68772" lon="1.93649">
        <ele>150.58</ele>
        <time>2011-05-21T08:02:50Z</time>
      </trkpt>
      <trkpt lat="48.68772" lon="1.93657">
        <ele>150.58</ele>
        <time>2011-05-21T08:02:51Z</time>
      </trkpt>
      <trkpt lat="48.68774" lon="1.93665">
        <ele>150.58</ele>
        <time>2011-05-21T08:02:52Z</time>
      </trkpt>
      <trkpt lat="48.68777" lon="1.93672">
        <ele>150.58</ele>
        <time>2011-05-21T08:02:53Z</time>
      </trkpt>
      <trkpt lat="48.6878" lon="1.93678">
        <ele>150.58</ele>
        <time>2011-05-21T08:02:54Z</time>
      </trkpt>
      <trkpt lat="48.68783" lon="1.93682">
        <ele>151.06</ele>
        <time>2011-05-21T08:02:55Z</time>
      </trkpt>
      <trkpt lat="48.68787" lon="1.93687">
        <ele>151.54</ele>
        <time>2011-05-21T08:02:56Z</time>
      </trkpt>
      <trkpt lat="48.68794" lon="1.93695">
        <ele>152.03</ele>
        <time>2011-05-21T08:02:58Z</time>
      </trkpt>
      <trkpt lat="48.68797" lon="1.937">
        <ele>152.51</ele>
        <time>2011-05-21T08:02:59Z</time>
      </trkpt>
      <trkpt lat="48.68798" lon="1.93706">
        <ele>152.51</ele>
        <time>2011-05-21T08:03:00Z</time>
      </trkpt>
      <trkpt lat="48.68798" lon="1.93712">
        <ele>152.51</ele>
        <time>2011-05-21T08:03:01Z</time>
      </trkpt>
      <trkpt lat="48.68798" lon="1.93719">
        <ele>152.51</ele>
        <time>2011-05-21T08:03:02Z</time>
      </trkpt>
      <trkpt lat="48.68797" lon="1.93725">
        <ele>152.03</ele>
        <time>2011-05-21T08:03:03Z</time>
      </trkpt>
      <trkpt lat="48.68796" lon="1.93732">
        <ele>152.03</ele>
        <time>2011-05-21T08:03:04Z</time>
      </trkpt>
      <trkpt lat="48.68794" lon="1.93738">
        <ele>152.03</ele>
        <time>2011-05-21T08:03:05Z</time>
      </trkpt>
      <trkpt lat="48.68792" lon="1.93752">
        <ele>152.03</ele>
        <time>2011-05-21T08:03:07Z</time>
      </trkpt>
      <trkpt lat="48.68788" lon="1.93765">
        <ele>152.51</ele>
        <time>2011-05-21T08:03:09Z</time>
      </trkpt>
      <trkpt lat="48.68786" lon="1.93771">
        <ele>152.51</ele>
        <time>2011-05-21T08:03:10Z</time>
      </trkpt>
      <trkpt lat="48.68782" lon="1.93776">
        <ele>151.54</ele>
        <time>2011-05-21T08:03:11Z</time>
      </trkpt>
      <trkpt lat="48.68774" lon="1.93786">
        <ele>152.03</ele>
        <time>2011-05-21T08:03:13Z</time>
      </trkpt>
      <trkpt lat="48.68771" lon="1.93791">
        <ele>152.51</ele>
        <time>2011-05-21T08:03:14Z</time>
      </trkpt>
      <trkpt lat="48.68768" lon="1.93796">
        <ele>152.51</ele>
        <time>2011-05-21T08:03:15Z</time>
      </trkpt>
      <trkpt lat="48.68747" lon="1.93834">
        <ele>152.99</ele>
        <time>2011-05-21T08:03:23Z</time>
      </trkpt>
      <trkpt lat="48.68736" lon="1.93906">
        <ele>152.51</ele>
        <time>2011-05-21T08:03:33Z</time>
      </trkpt>
      <trkpt lat="48.68733" lon="1.93911">
        <ele>152.03</ele>
        <time>2011-05-21T08:03:34Z</time>
      </trkpt>
      <trkpt lat="48.68711" lon="1.9393">
        <ele>152.03</ele>
        <time>2011-05-21T08:03:42Z</time>
      </trkpt>
      <trkpt lat="48.68703" lon="1.93928">
        <ele>151.54</ele>
        <time>2011-05-21T08:03:44Z</time>
      </trkpt>
      <trkpt lat="48.68699" lon="1.93925">
        <ele>151.06</ele>
        <time>2011-05-21T08:03:45Z</time>
      </trkpt>
      <trkpt lat="48.6869" lon="1.93921">
        <ele>151.06</ele>
        <time>2011-05-21T08:03:47Z</time>
      </trkpt>
      <trkpt lat="48.68685" lon="1.93919">
        <ele>151.06</ele>
        <time>2011-05-21T08:03:48Z</time>
      </trkpt>
      <trkpt lat="48.68658" lon="1.93907">
        <ele>150.1</ele>
        <time>2011-05-21T08:03:53Z</time>
      </trkpt>
      <trkpt lat="48.68654" lon="1.93903">
        <ele>150.1</ele>
        <time>2011-05-21T08:03:54Z</time>
      </trkpt>
      <trkpt lat="48.68644" lon="1.93898">
        <ele>150.1</ele>
        <time>2011-05-21T08:03:56Z</time>
      </trkpt>
      <trkpt lat="48.68613" lon="1.93906">
        <ele>150.1</ele>
        <time>2011-05-21T08:04:05Z</time>
      </trkpt>
      <trkpt lat="48.68608" lon="1.93908">
        <ele>150.58</ele>
        <time>2011-05-21T08:04:06Z</time>
      </trkpt>
      <trkpt lat="48.68604" lon="1.9391">
        <ele>149.14</ele>
        <time>2011-05-21T08:04:07Z</time>
      </trkpt>
      <trkpt lat="48.68599" lon="1.93912">
        <ele>149.14</ele>
        <time>2011-05-21T08:04:08Z</time>
      </trkpt>
      <trkpt lat="48.68596" lon="1.93914">
        <ele>150.1</ele>
        <time>2011-05-21T08:04:09Z</time>
      </trkpt>
      <trkpt lat="48.68592" lon="1.93914">
        <ele>150.1</ele>
        <time>2011-05-21T08:04:10Z</time>
      </trkpt>
      <trkpt lat="48.68589" lon="1.93915">
        <ele>149.62</ele>
        <time>2011-05-21T08:04:11Z</time>
      </trkpt>
      <trkpt lat="48.68587" lon="1.93916">
        <ele>149.62</ele>
        <time>2011-05-21T08:04:12Z</time>
      </trkpt>
      <trkpt lat="48.68586" lon="1.93916">
        <ele>149.62</ele>
        <time>2011-05-21T08:04:13Z</time>
      </trkpt>
      <trkpt lat="48.68584" lon="1.93917">
        <ele>149.62</ele>
        <time>2011-05-21T08:04:14Z</time>
      </trkpt>
      <trkpt lat="48.68581" lon="1.93919">
        <ele>149.62</ele>
        <time>2011-05-21T08:04:18Z</time>
      </trkpt>
      <trkpt lat="48.68582" lon="1.93912">
        <ele>149.62</ele>
        <time>2011-05-21T08:04:23Z</time>
      </trkpt>
      <trkpt lat="48.68582" lon="1.93909">
        <ele>149.14</ele>
        <time>2011-05-21T08:04:24Z</time>
      </trkpt>
      <trkpt lat="48.68582" lon="1.93907">
        <ele>149.14</ele>
        <time>2011-05-21T08:04:25Z</time>
      </trkpt>
      <trkpt lat="48.68583" lon="1.93903">
        <ele>148.18</ele>
        <time>2011-05-21T08:04:26Z</time>
      </trkpt>
      <trkpt lat="48.68583" lon="1.93899">
        <ele>148.18</ele>
        <time>2011-05-21T08:04:27Z</time>
      </trkpt>
      <trkpt lat="48.68583" lon="1.93895">
        <ele>148.66</ele>
        <time>2011-05-21T08:04:28Z</time>
      </trkpt>
      <trkpt lat="48.68583" lon="1.93892">
        <ele>148.18</ele>
        <time>2011-05-21T08:04:29Z</time>
      </trkpt>
      <trkpt lat="48.68584" lon="1.93882">
        <ele>146.26</ele>
        <time>2011-05-21T08:04:32Z</time>
      </trkpt>
      <trkpt lat="48.68583" lon="1.93862">
        <ele>141.93</ele>
        <time>2011-05-21T08:04:38Z</time>
      </trkpt>
      <trkpt lat="48.68578" lon="1.93847">
        <ele>139.05</ele>
        <time>2011-05-21T08:04:42Z</time>
      </trkpt>
      <trkpt lat="48.68576" lon="1.93843">
        <ele>138.09</ele>
        <time>2011-05-21T08:04:43Z</time>
      </trkpt>
      <trkpt lat="48.68576" lon="1.93839">
        <ele>137.61</ele>
        <time>2011-05-21T08:04:44Z</time>
      </trkpt>
      <trkpt lat="48.68571" lon="1.93818">
        <ele>134.24</ele>
        <time>2011-05-21T08:04:49Z</time>
      </trkpt>
      <trkpt lat="48.6857" lon="1.93815">
        <ele>133.76</ele>
        <time>2011-05-21T08:04:50Z</time>
      </trkpt>
      <trkpt lat="48.68571" lon="1.93811">
        <ele>132.32</ele>
        <time>2011-05-21T08:04:51Z</time>
      </trkpt>
      <trkpt lat="48.68572" lon="1.93807">
        <ele>132.32</ele>
        <time>2011-05-21T08:04:52Z</time>
      </trkpt>
      <trkpt lat="48.68575" lon="1.93801">
        <ele>131.84</ele>
        <time>2011-05-21T08:04:53Z</time>
      </trkpt>
      <trkpt lat="48.68578" lon="1.93798">
        <ele>131.36</ele>
        <time>2011-05-21T08:04:54Z</time>
      </trkpt>
      <trkpt lat="48.68581" lon="1.93796">
        <ele>131.36</ele>
        <time>2011-05-21T08:04:55Z</time>
      </trkpt>
      <trkpt lat="48.68586" lon="1.93793">
        <ele>130.88</ele>
        <time>2011-05-21T08:04:56Z</time>
      </trkpt>
      <trkpt lat="48.68591" lon="1.9379">
        <ele>129.92</ele>
        <time>2011-05-21T08:04:57Z</time>
      </trkpt>
      <trkpt lat="48.68605" lon="1.93779">
        <ele>126.55</ele>
        <time>2011-05-21T08:05:02Z</time>
      </trkpt>
      <trkpt lat="48.68607" lon="1.93778">
        <ele>125.59</ele>
        <time>2011-05-21T08:05:03Z</time>
      </trkpt>
      <trkpt lat="48.68617" lon="1.93768">
        <ele>122.22</ele>
        <time>2011-05-21T08:05:07Z</time>
      </trkpt>
      <trkpt lat="48.68623" lon="1.93764">
        <ele>118.86</ele>
        <time>2011-05-21T08:05:10Z</time>
      </trkpt>
      <trkpt lat="48.68625" lon="1.93762">
        <ele>118.86</ele>
        <time>2011-05-21T08:05:11Z</time>
      </trkpt>
      <trkpt lat="48.68623" lon="1.93754">
        <ele>115.01</ele>
        <time>2011-05-21T08:05:14Z</time>
      </trkpt>
      <trkpt lat="48.68543" lon="1.93721">
        <ele>111.17</ele>
        <time>2011-05-21T08:05:16Z</time>
      </trkpt>
      <trkpt lat="48.68533" lon="1.9372">
        <ele>108.29</ele>
        <time>2011-05-21T08:05:19Z</time>
      </trkpt>
      <trkpt lat="48.68529" lon="1.93719">
        <ele>107.81</ele>
        <time>2011-05-21T08:05:21Z</time>
      </trkpt>
      <trkpt lat="48.6852" lon="1.93727">
        <ele>107.81</ele>
        <time>2011-05-21T08:05:22Z</time>
      </trkpt>
      <trkpt lat="48.68512" lon="1.9371">
        <ele>107.32</ele>
        <time>2011-05-21T08:05:27Z</time>
      </trkpt>
      <trkpt lat="48.68505" lon="1.93704">
        <ele>105.88</ele>
        <time>2011-05-21T08:05:31Z</time>
      </trkpt>
      <trkpt lat="48.68502" lon="1.93705">
        <ele>106.36</ele>
        <time>2011-05-21T08:05:41Z</time>
      </trkpt>
      <trkpt lat="48.68502" lon="1.93705">
        <ele>106.36</ele>
        <time>2011-05-21T08:06:05Z</time>
      </trkpt>
      <trkpt lat="48.68502" lon="1.93705">
        <ele>106.36</ele>
        <time>2011-05-21T08:06:38Z</time>
      </trkpt>
      <trkpt lat="48.68503" lon="1.93705">
        <ele>107.32</ele>
        <time>2011-05-21T08:07:08Z</time>
      </trkpt>
      <trkpt lat="48.68503" lon="1.93705">
        <ele>107.81</ele>
        <time>2011-05-21T08:07:34Z</time>
      </trkpt>
      <trkpt lat="48.68503" lon="1.93705">
        <ele>107.81</ele>
        <time>2011-05-21T08:07:56Z</time>
      </trkpt>
      <trkpt lat="48.68499" lon="1.93731">
        <ele>107.81</ele>
        <time>2011-05-21T08:08:06Z</time>
      </trkpt>
      <trkpt lat="48.68496" lon="1.93745">
        <ele>107.81</ele>
        <time>2011-05-21T08:08:10Z</time>
      </trkpt>
      <trkpt lat="48.68477" lon="1.93812">
        <ele>108.29</ele>
        <time>2011-05-21T08:08:24Z</time>
      </trkpt>
      <trkpt lat="48.68459" lon="1.9384">
        <ele>109.25</ele>
        <time>2011-05-21T08:08:30Z</time>
      </trkpt>
      <trkpt lat="48.68442" lon="1.93869">
        <ele>108.77</ele>
        <time>2011-05-21T08:08:34Z</time>
      </trkpt>
      <trkpt lat="48.68435" lon="1.93884">
        <ele>108.29</ele>
        <time>2011-05-21T08:08:36Z</time>
      </trkpt>
      <trkpt lat="48.68433" lon="1.93891">
        <ele>108.29</ele>
        <time>2011-05-21T08:08:37Z</time>
      </trkpt>
      <trkpt lat="48.68405" lon="1.93931">
        <ele>107.81</ele>
        <time>2011-05-21T08:08:47Z</time>
      </trkpt>
      <trkpt lat="48.68386" lon="1.9395">
        <ele>107.81</ele>
        <time>2011-05-21T08:08:52Z</time>
      </trkpt>
      <trkpt lat="48.68382" lon="1.93956">
        <ele>107.81</ele>
        <time>2011-05-21T08:08:53Z</time>
      </trkpt>
      <trkpt lat="48.68376" lon="1.93967">
        <ele>107.81</ele>
        <time>2011-05-21T08:08:55Z</time>
      </trkpt>
      <trkpt lat="48.68373" lon="1.93973">
        <ele>107.81</ele>
        <time>2011-05-21T08:08:56Z</time>
      </trkpt>
      <trkpt lat="48.68343" lon="1.94024">
        <ele>107.32</ele>
        <time>2011-05-21T08:09:05Z</time>
      </trkpt>
      <trkpt lat="48.6834" lon="1.94031">
        <ele>107.81</ele>
        <time>2011-05-21T08:09:06Z</time>
      </trkpt>
      <trkpt lat="48.68326" lon="1.94077">
        <ele>108.29</ele>
        <time>2011-05-21T08:09:13Z</time>
      </trkpt>
      <trkpt lat="48.68324" lon="1.94083">
        <ele>108.29</ele>
        <time>2011-05-21T08:09:14Z</time>
      </trkpt>
      <trkpt lat="48.68322" lon="1.94094">
        <ele>108.29</ele>
        <time>2011-05-21T08:09:16Z</time>
      </trkpt>
      <trkpt lat="48.6831" lon="1.94155">
        <ele>107.32</ele>
        <time>2011-05-21T08:09:24Z</time>
      </trkpt>
      <trkpt lat="48.68308" lon="1.94164">
        <ele>106.84</ele>
        <time>2011-05-21T08:09:25Z</time>
      </trkpt>
      <trkpt lat="48.68297" lon="1.94207">
        <ele>106.36</ele>
        <time>2011-05-21T08:09:30Z</time>
      </trkpt>
      <trkpt lat="48.68295" lon="1.94214">
        <ele>106.36</ele>
        <time>2011-05-21T08:09:31Z</time>
      </trkpt>
      <trkpt lat="48.68293" lon="1.94219">
        <ele>105.88</ele>
        <time>2011-05-21T08:09:32Z</time>
      </trkpt>
      <trkpt lat="48.68292" lon="1.94225">
        <ele>105.88</ele>
        <time>2011-05-21T08:09:33Z</time>
      </trkpt>
      <trkpt lat="48.68291" lon="1.9423">
        <ele>105.4</ele>
        <time>2011-05-21T08:09:34Z</time>
      </trkpt>
      <trkpt lat="48.68291" lon="1.94236">
        <ele>105.4</ele>
        <time>2011-05-21T08:09:35Z</time>
      </trkpt>
      <trkpt lat="48.6829" lon="1.94244">
        <ele>105.4</ele>
        <time>2011-05-21T08:09:36Z</time>
      </trkpt>
      <trkpt lat="48.68288" lon="1.94262">
        <ele>106.84</ele>
        <time>2011-05-21T08:09:43Z</time>
      </trkpt>
      <trkpt lat="48.68282" lon="1.94282">
        <ele>105.88</ele>
        <time>2011-05-21T08:09:56Z</time>
      </trkpt>
      <trkpt lat="48.68281" lon="1.94285">
        <ele>105.4</ele>
        <time>2011-05-21T08:09:57Z</time>
      </trkpt>
      <trkpt lat="48.68275" lon="1.94307">
        <ele>105.88</ele>
        <time>2011-05-21T08:10:02Z</time>
      </trkpt>
      <trkpt lat="48.68274" lon="1.9431">
        <ele>105.88</ele>
        <time>2011-05-21T08:10:03Z</time>
      </trkpt>
      <trkpt lat="48.68273" lon="1.94312">
        <ele>105.4</ele>
        <time>2011-05-21T08:10:04Z</time>
      </trkpt>
      <trkpt lat="48.68272" lon="1.94315">
        <ele>105.4</ele>
        <time>2011-05-21T08:10:05Z</time>
      </trkpt>
      <trkpt lat="48.68271" lon="1.94319">
        <ele>105.4</ele>
        <time>2011-05-21T08:10:06Z</time>
      </trkpt>
      <trkpt lat="48.6827" lon="1.94322">
        <ele>104.92</ele>
        <time>2011-05-21T08:10:07Z</time>
      </trkpt>
      <trkpt lat="48.68268" lon="1.94327">
        <ele>104.92</ele>
        <time>2011-05-21T08:10:08Z</time>
      </trkpt>
      <trkpt lat="48.68266" lon="1.94334">
        <ele>104.92</ele>
        <time>2011-05-21T08:10:09Z</time>
      </trkpt>
      <trkpt lat="48.68262" lon="1.94349">
        <ele>104.92</ele>
        <time>2011-05-21T08:10:11Z</time>
      </trkpt>
      <trkpt lat="48.68256" lon="1.94372">
        <ele>105.88</ele>
        <time>2011-05-21T08:10:14Z</time>
      </trkpt>
      <trkpt lat="48.68247" lon="1.9439">
        <ele>104.92</ele>
        <time>2011-05-21T08:10:17Z</time>
      </trkpt>
      <trkpt lat="48.68245" lon="1.94397">
        <ele>105.4</ele>
        <time>2011-05-21T08:10:18Z</time>
      </trkpt>
      <trkpt lat="48.68241" lon="1.9441">
        <ele>106.36</ele>
        <time>2011-05-21T08:10:20Z</time>
      </trkpt>
      <trkpt lat="48.68233" lon="1.94423">
        <ele>105.4</ele>
        <time>2011-05-21T08:10:23Z</time>
      </trkpt>
      <trkpt lat="48.68193" lon="1.94435">
        <ele>104.44</ele>
        <time>2011-05-21T08:10:33Z</time>
      </trkpt>
      <trkpt lat="48.68178" lon="1.94443">
        <ele>105.4</ele>
        <time>2011-05-21T08:10:39Z</time>
      </trkpt>
      <trkpt lat="48.68176" lon="1.94444">
        <ele>105.4</ele>
        <time>2011-05-21T08:10:40Z</time>
      </trkpt>
      <trkpt lat="48.68174" lon="1.94447">
        <ele>104.92</ele>
        <time>2011-05-21T08:10:41Z</time>
      </trkpt>
      <trkpt lat="48.68171" lon="1.94449">
        <ele>104.92</ele>
        <time>2011-05-21T08:10:42Z</time>
      </trkpt>
      <trkpt lat="48.68169" lon="1.94453">
        <ele>104.92</ele>
        <time>2011-05-21T08:10:43Z</time>
      </trkpt>
      <trkpt lat="48.68166" lon="1.94458">
        <ele>104.44</ele>
        <time>2011-05-21T08:10:44Z</time>
      </trkpt>
      <trkpt lat="48.68144" lon="1.94521">
        <ele>106.36</ele>
        <time>2011-05-21T08:10:55Z</time>
      </trkpt>
      <trkpt lat="48.68138" lon="1.9459">
        <ele>108.77</ele>
        <time>2011-05-21T08:11:05Z</time>
      </trkpt>
      <trkpt lat="48.68136" lon="1.94647">
        <ele>110.69</ele>
        <time>2011-05-21T08:11:15Z</time>
      </trkpt>
      <trkpt lat="48.68133" lon="1.94712">
        <ele>110.21</ele>
        <time>2011-05-21T08:11:29Z</time>
      </trkpt>
      <trkpt lat="48.6812" lon="1.94757">
        <ele>106.36</ele>
        <time>2011-05-21T08:11:36Z</time>
      </trkpt>
      <trkpt lat="48.68101" lon="1.94826">
        <ele>103</ele>
        <time>2011-05-21T08:11:47Z</time>
      </trkpt>
      <trkpt lat="48.6809" lon="1.94887">
        <ele>103.96</ele>
        <time>2011-05-21T08:12:01Z</time>
      </trkpt>
      <trkpt lat="48.68066" lon="1.94966">
        <ele>106.84</ele>
        <time>2011-05-21T08:12:14Z</time>
      </trkpt>
      <trkpt lat="48.68062" lon="1.94977">
        <ele>107.81</ele>
        <time>2011-05-21T08:12:16Z</time>
      </trkpt>
      <trkpt lat="48.68057" lon="1.94989">
        <ele>109.25</ele>
        <time>2011-05-21T08:12:19Z</time>
      </trkpt>
      <trkpt lat="48.68031" lon="1.95032">
        <ele>107.81</ele>
        <time>2011-05-21T08:12:31Z</time>
      </trkpt>
      <trkpt lat="48.67977" lon="1.9512">
        <ele>107.81</ele>
        <time>2011-05-21T08:12:44Z</time>
      </trkpt>
      <trkpt lat="48.67974" lon="1.95128">
        <ele>107.32</ele>
        <time>2011-05-21T08:12:45Z</time>
      </trkpt>
      <trkpt lat="48.67971" lon="1.95137">
        <ele>107.32</ele>
        <time>2011-05-21T08:12:46Z</time>
      </trkpt>
      <trkpt lat="48.67969" lon="1.95146">
        <ele>107.32</ele>
        <time>2011-05-21T08:12:47Z</time>
      </trkpt>
      <trkpt lat="48.67966" lon="1.95163">
        <ele>107.32</ele>
        <time>2011-05-21T08:12:49Z</time>
      </trkpt>
      <trkpt lat="48.67952" lon="1.95255">
        <ele>107.81</ele>
        <time>2011-05-21T08:13:01Z</time>
      </trkpt>
      <trkpt lat="48.67928" lon="1.95348">
        <ele>109.25</ele>
        <time>2011-05-21T08:13:15Z</time>
      </trkpt>
      <trkpt lat="48.67905" lon="1.95431">
        <ele>109.25</ele>
        <time>2011-05-21T08:13:28Z</time>
      </trkpt>
      <trkpt lat="48.67911" lon="1.95531">
        <ele>111.65</ele>
        <time>2011-05-21T08:13:41Z</time>
      </trkpt>
      <trkpt lat="48.6791" lon="1.95539">
        <ele>111.65</ele>
        <time>2011-05-21T08:13:42Z</time>
      </trkpt>
      <trkpt lat="48.67885" lon="1.95604">
        <ele>113.57</ele>
        <time>2011-05-21T08:13:54Z</time>
      </trkpt>
      <trkpt lat="48.67874" lon="1.95628">
        <ele>116.94</ele>
        <time>2011-05-21T08:14:00Z</time>
      </trkpt>
      <trkpt lat="48.67859" lon="1.95649">
        <ele>113.57</ele>
        <time>2011-05-21T08:14:07Z</time>
      </trkpt>
      <trkpt lat="48.67813" lon="1.95739">
        <ele>114.05</ele>
        <time>2011-05-21T08:14:20Z</time>
      </trkpt>
      <trkpt lat="48.67821" lon="1.95807">
        <ele>116.94</ele>
        <time>2011-05-21T08:14:32Z</time>
      </trkpt>
      <trkpt lat="48.67819" lon="1.95835">
        <ele>117.9</ele>
        <time>2011-05-21T08:14:44Z</time>
      </trkpt>
      <trkpt lat="48.67784" lon="1.95904">
        <ele>117.42</ele>
        <time>2011-05-21T08:14:58Z</time>
      </trkpt>
      <trkpt lat="48.67741" lon="1.95986">
        <ele>115.5</ele>
        <time>2011-05-21T08:15:12Z</time>
      </trkpt>
      <trkpt lat="48.67735" lon="1.96027">
        <ele>118.86</ele>
        <time>2011-05-21T08:15:21Z</time>
      </trkpt>
      <trkpt lat="48.67738" lon="1.96046">
        <ele>122.22</ele>
        <time>2011-05-21T08:15:27Z</time>
      </trkpt>
      <trkpt lat="48.6774" lon="1.96067">
        <ele>124.63</ele>
        <time>2011-05-21T08:15:33Z</time>
      </trkpt>
      <trkpt lat="48.6774" lon="1.96084">
        <ele>127.03</ele>
        <time>2011-05-21T08:15:40Z</time>
      </trkpt>
      <trkpt lat="48.6774" lon="1.96086">
        <ele>127.03</ele>
        <time>2011-05-21T08:15:41Z</time>
      </trkpt>
      <trkpt lat="48.67739" lon="1.96089">
        <ele>127.51</ele>
        <time>2011-05-21T08:15:42Z</time>
      </trkpt>
      <trkpt lat="48.67738" lon="1.96091">
        <ele>127.51</ele>
        <time>2011-05-21T08:15:43Z</time>
      </trkpt>
      <trkpt lat="48.67738" lon="1.96094">
        <ele>127.99</ele>
        <time>2011-05-21T08:15:44Z</time>
      </trkpt>
      <trkpt lat="48.67737" lon="1.96098">
        <ele>127.99</ele>
        <time>2011-05-21T08:15:45Z</time>
      </trkpt>
      <trkpt lat="48.67737" lon="1.96101">
        <ele>128.47</ele>
        <time>2011-05-21T08:15:46Z</time>
      </trkpt>
      <trkpt lat="48.67737" lon="1.96125">
        <ele>131.36</ele>
        <time>2011-05-21T08:15:56Z</time>
      </trkpt>
      <trkpt lat="48.67737" lon="1.96128">
        <ele>131.84</ele>
        <time>2011-05-21T08:15:57Z</time>
      </trkpt>
      <trkpt lat="48.67737" lon="1.9613">
        <ele>131.84</ele>
        <time>2011-05-21T08:15:58Z</time>
      </trkpt>
      <trkpt lat="48.67736" lon="1.96133">
        <ele>132.32</ele>
        <time>2011-05-21T08:15:59Z</time>
      </trkpt>
      <trkpt lat="48.67736" lon="1.96135">
        <ele>131.84</ele>
        <time>2011-05-21T08:16:00Z</time>
      </trkpt>
      <trkpt lat="48.67736" lon="1.96138">
        <ele>132.32</ele>
        <time>2011-05-21T08:16:01Z</time>
      </trkpt>
      <trkpt lat="48.67736" lon="1.9614">
        <ele>132.8</ele>
        <time>2011-05-21T08:16:02Z</time>
      </trkpt>
      <trkpt lat="48.67736" lon="1.96143">
        <ele>132.8</ele>
        <time>2011-05-21T08:16:03Z</time>
      </trkpt>
      <trkpt lat="48.67736" lon="1.96145">
        <ele>132.8</ele>
        <time>2011-05-21T08:16:04Z</time>
      </trkpt>
      <trkpt lat="48.67742" lon="1.96176">
        <ele>136.16</ele>
        <time>2011-05-21T08:16:18Z</time>
      </trkpt>
      <trkpt lat="48.67749" lon="1.96184">
        <ele>137.61</ele>
        <time>2011-05-21T08:16:25Z</time>
      </trkpt>
      <trkpt lat="48.67749" lon="1.96186">
        <ele>138.09</ele>
        <time>2011-05-21T08:16:26Z</time>
      </trkpt>
      <trkpt lat="48.67751" lon="1.96188">
        <ele>138.09</ele>
        <time>2011-05-21T08:16:27Z</time>
      </trkpt>
      <trkpt lat="48.67752" lon="1.96189">
        <ele>138.09</ele>
        <time>2011-05-21T08:16:28Z</time>
      </trkpt>
      <trkpt lat="48.67753" lon="1.9619">
        <ele>138.09</ele>
        <time>2011-05-21T08:16:29Z</time>
      </trkpt>
      <trkpt lat="48.67754" lon="1.96192">
        <ele>138.09</ele>
        <time>2011-05-21T08:16:30Z</time>
      </trkpt>
      <trkpt lat="48.67756" lon="1.96195">
        <ele>137.61</ele>
        <time>2011-05-21T08:16:31Z</time>
      </trkpt>
      <trkpt lat="48.67761" lon="1.96207">
        <ele>138.57</ele>
        <time>2011-05-21T08:16:44Z</time>
      </trkpt>
      <trkpt lat="48.67766" lon="1.96211">
        <ele>141.45</ele>
        <time>2011-05-21T08:16:56Z</time>
      </trkpt>
      <trkpt lat="48.6777" lon="1.96213">
        <ele>144.82</ele>
        <time>2011-05-21T08:17:07Z</time>
      </trkpt>
      <trkpt lat="48.67777" lon="1.96211">
        <ele>146.74</ele>
        <time>2011-05-21T08:17:20Z</time>
      </trkpt>
      <trkpt lat="48.67784" lon="1.9621">
        <ele>149.62</ele>
        <time>2011-05-21T08:17:30Z</time>
      </trkpt>
      <trkpt lat="48.67789" lon="1.96212">
        <ele>152.51</ele>
        <time>2011-05-21T08:17:43Z</time>
      </trkpt>
      <trkpt lat="48.67795" lon="1.96218">
        <ele>152.99</ele>
        <time>2011-05-21T08:17:50Z</time>
      </trkpt>
      <trkpt lat="48.67804" lon="1.96238">
        <ele>153.47</ele>
        <time>2011-05-21T08:18:02Z</time>
      </trkpt>
      <trkpt lat="48.67805" lon="1.9624">
        <ele>153.95</ele>
        <time>2011-05-21T08:18:04Z</time>
      </trkpt>
      <trkpt lat="48.6781" lon="1.96248">
        <ele>154.91</ele>
        <time>2011-05-21T08:18:17Z</time>
      </trkpt>
      <trkpt lat="48.6781" lon="1.96248">
        <ele>155.39</ele>
        <time>2011-05-21T08:18:53Z</time>
      </trkpt>
      <trkpt lat="48.6781" lon="1.96249">
        <ele>155.39</ele>
        <time>2011-05-21T08:19:37Z</time>
      </trkpt>
      <trkpt lat="48.6781" lon="1.96249">
        <ele>155.87</ele>
        <time>2011-05-21T08:20:16Z</time>
      </trkpt>
      <trkpt lat="48.6781" lon="1.9625">
        <ele>156.35</ele>
        <time>2011-05-21T08:21:00Z</time>
      </trkpt>
      <trkpt lat="48.6781" lon="1.9625">
        <ele>156.83</ele>
        <time>2011-05-21T08:21:45Z</time>
      </trkpt>
      <trkpt lat="48.6781" lon="1.96251">
        <ele>156.83</ele>
        <time>2011-05-21T08:22:19Z</time>
      </trkpt>
      <trkpt lat="48.6781" lon="1.96251">
        <ele>156.83</ele>
        <time>2011-05-21T08:22:53Z</time>
      </trkpt>
      <trkpt lat="48.6781" lon="1.96251">
        <ele>157.31</ele>
        <time>2011-05-21T08:23:32Z</time>
      </trkpt>
      <trkpt lat="48.67811" lon="1.9625">
        <ele>157.79</ele>
        <time>2011-05-21T08:24:09Z</time>
      </trkpt>
      <trkpt lat="48.67812" lon="1.9625">
        <ele>158.27</ele>
        <time>2011-05-21T08:24:32Z</time>
      </trkpt>
      <trkpt lat="48.67817" lon="1.96253">
        <ele>159.24</ele>
        <time>2011-05-21T08:24:47Z</time>
      </trkpt>
      <trkpt lat="48.67819" lon="1.96254">
        <ele>158.75</ele>
        <time>2011-05-21T08:24:48Z</time>
      </trkpt>
      <trkpt lat="48.67819" lon="1.96257">
        <ele>159.24</ele>
        <time>2011-05-21T08:24:49Z</time>
      </trkpt>
      <trkpt lat="48.6782" lon="1.96259">
        <ele>159.72</ele>
        <time>2011-05-21T08:24:50Z</time>
      </trkpt>
      <trkpt lat="48.67821" lon="1.96261">
        <ele>159.72</ele>
        <time>2011-05-21T08:24:51Z</time>
      </trkpt>
      <trkpt lat="48.67822" lon="1.96263">
        <ele>159.72</ele>
        <time>2011-05-21T08:24:52Z</time>
      </trkpt>
      <trkpt lat="48.67823" lon="1.96265">
        <ele>159.72</ele>
        <time>2011-05-21T08:24:53Z</time>
      </trkpt>
      <trkpt lat="48.67824" lon="1.96268">
        <ele>159.72</ele>
        <time>2011-05-21T08:24:54Z</time>
      </trkpt>
      <trkpt lat="48.67825" lon="1.96272">
        <ele>159.72</ele>
        <time>2011-05-21T08:25:08Z</time>
      </trkpt>
      <trkpt lat="48.67825" lon="1.96274">
        <ele>160.2</ele>
        <time>2011-05-21T08:25:10Z</time>
      </trkpt>
      <trkpt lat="48.67826" lon="1.96276">
        <ele>159.72</ele>
        <time>2011-05-21T08:25:11Z</time>
      </trkpt>
      <trkpt lat="48.67827" lon="1.96279">
        <ele>159.72</ele>
        <time>2011-05-21T08:25:12Z</time>
      </trkpt>
      <trkpt lat="48.67828" lon="1.96281">
        <ele>160.2</ele>
        <time>2011-05-21T08:25:13Z</time>
      </trkpt>
      <trkpt lat="48.6783" lon="1.96284">
        <ele>159.72</ele>
        <time>2011-05-21T08:25:14Z</time>
      </trkpt>
      <trkpt lat="48.67845" lon="1.96296">
        <ele>160.2</ele>
        <time>2011-05-21T08:25:22Z</time>
      </trkpt>
      <trkpt lat="48.67885" lon="1.96333">
        <ele>159.24</ele>
        <time>2011-05-21T08:25:36Z</time>
      </trkpt>
      <trkpt lat="48.67939" lon="1.96315">
        <ele>159.24</ele>
        <time>2011-05-21T08:25:46Z</time>
      </trkpt>
      <trkpt lat="48.67944" lon="1.96313">
        <ele>159.72</ele>
        <time>2011-05-21T08:25:47Z</time>
      </trkpt>
      <trkpt lat="48.67982" lon="1.96301">
        <ele>159.72</ele>
        <time>2011-05-21T08:25:58Z</time>
      </trkpt>
      <trkpt lat="48.68038" lon="1.96287">
        <ele>160.2</ele>
        <time>2011-05-21T08:26:12Z</time>
      </trkpt>
      <trkpt lat="48.68093" lon="1.96279">
        <ele>157.31</ele>
        <time>2011-05-21T08:26:25Z</time>
      </trkpt>
      <trkpt lat="48.68138" lon="1.96269">
        <ele>157.31</ele>
        <time>2011-05-21T08:26:32Z</time>
      </trkpt>
      <trkpt lat="48.68156" lon="1.96257">
        <ele>157.31</ele>
        <time>2011-05-21T08:26:36Z</time>
      </trkpt>
      <trkpt lat="48.68161" lon="1.96253">
        <ele>156.83</ele>
        <time>2011-05-21T08:26:37Z</time>
      </trkpt>
      <trkpt lat="48.68208" lon="1.96222">
        <ele>159.24</ele>
        <time>2011-05-21T08:26:48Z</time>
      </trkpt>
      <trkpt lat="48.68226" lon="1.9621">
        <ele>159.72</ele>
        <time>2011-05-21T08:26:53Z</time>
      </trkpt>
      <trkpt lat="48.6823" lon="1.96208">
        <ele>159.72</ele>
        <time>2011-05-21T08:26:54Z</time>
      </trkpt>
      <trkpt lat="48.68239" lon="1.96203">
        <ele>159.72</ele>
        <time>2011-05-21T08:26:56Z</time>
      </trkpt>
      <trkpt lat="48.68248" lon="1.96196">
        <ele>159.24</ele>
        <time>2011-05-21T08:26:58Z</time>
      </trkpt>
      <trkpt lat="48.68274" lon="1.96182">
        <ele>158.75</ele>
        <time>2011-05-21T08:27:03Z</time>
      </trkpt>
      <trkpt lat="48.68279" lon="1.9618">
        <ele>158.27</ele>
        <time>2011-05-21T08:27:04Z</time>
      </trkpt>
      <trkpt lat="48.68284" lon="1.96177">
        <ele>157.79</ele>
        <time>2011-05-21T08:27:05Z</time>
      </trkpt>
      <trkpt lat="48.68323" lon="1.96152">
        <ele>158.27</ele>
        <time>2011-05-21T08:27:13Z</time>
      </trkpt>
      <trkpt lat="48.68337" lon="1.96146">
        <ele>157.31</ele>
        <time>2011-05-21T08:27:16Z</time>
      </trkpt>
      <trkpt lat="48.68354" lon="1.9614">
        <ele>155.87</ele>
        <time>2011-05-21T08:27:19Z</time>
      </trkpt>
      <trkpt lat="48.6836" lon="1.96139">
        <ele>155.39</ele>
        <time>2011-05-21T08:27:20Z</time>
      </trkpt>
      <trkpt lat="48.68371" lon="1.96136">
        <ele>154.43</ele>
        <time>2011-05-21T08:27:22Z</time>
      </trkpt>
      <trkpt lat="48.68398" lon="1.96128">
        <ele>152.99</ele>
        <time>2011-05-21T08:27:27Z</time>
      </trkpt>
      <trkpt lat="48.68405" lon="1.96129">
        <ele>152.51</ele>
        <time>2011-05-21T08:27:29Z</time>
      </trkpt>
      <trkpt lat="48.68406" lon="1.96134">
        <ele>151.54</ele>
        <time>2011-05-21T08:27:30Z</time>
      </trkpt>
      <trkpt lat="48.68406" lon="1.96139">
        <ele>151.06</ele>
        <time>2011-05-21T08:27:31Z</time>
      </trkpt>
      <trkpt lat="48.68405" lon="1.96144">
        <ele>150.1</ele>
        <time>2011-05-21T08:27:32Z</time>
      </trkpt>
      <trkpt lat="48.68404" lon="1.96149">
        <ele>149.14</ele>
        <time>2011-05-21T08:27:33Z</time>
      </trkpt>
      <trkpt lat="48.68404" lon="1.96165">
        <ele>146.26</ele>
        <time>2011-05-21T08:27:36Z</time>
      </trkpt>
      <trkpt lat="48.68406" lon="1.96176">
        <ele>144.34</ele>
        <time>2011-05-21T08:27:38Z</time>
      </trkpt>
      <trkpt lat="48.68409" lon="1.96213">
        <ele>140.01</ele>
        <time>2011-05-21T08:27:42Z</time>
      </trkpt>
      <trkpt lat="48.6841" lon="1.96243">
        <ele>137.13</ele>
        <time>2011-05-21T08:27:45Z</time>
      </trkpt>
      <trkpt lat="48.68411" lon="1.96266">
        <ele>136.16</ele>
        <time>2011-05-21T08:27:47Z</time>
      </trkpt>
      <trkpt lat="48.68409" lon="1.96338">
        <ele>133.28</ele>
        <time>2011-05-21T08:27:54Z</time>
      </trkpt>
      <trkpt lat="48.68409" lon="1.96346">
        <ele>133.28</ele>
        <time>2011-05-21T08:27:55Z</time>
      </trkpt>
      <trkpt lat="48.68408" lon="1.96354">
        <ele>133.76</ele>
        <time>2011-05-21T08:27:56Z</time>
      </trkpt>
      <trkpt lat="48.68409" lon="1.96361">
        <ele>133.28</ele>
        <time>2011-05-21T08:27:57Z</time>
      </trkpt>
      <trkpt lat="48.68409" lon="1.96366">
        <ele>133.28</ele>
        <time>2011-05-21T08:27:58Z</time>
      </trkpt>
      <trkpt lat="48.68411" lon="1.96371">
        <ele>133.28</ele>
        <time>2011-05-21T08:27:59Z</time>
      </trkpt>
      <trkpt lat="48.68411" lon="1.96375">
        <ele>132.8</ele>
        <time>2011-05-21T08:28:00Z</time>
      </trkpt>
      <trkpt lat="48.6841" lon="1.96379">
        <ele>132.8</ele>
        <time>2011-05-21T08:28:01Z</time>
      </trkpt>
      <trkpt lat="48.68409" lon="1.96384">
        <ele>132.8</ele>
        <time>2011-05-21T08:28:02Z</time>
      </trkpt>
      <trkpt lat="48.68408" lon="1.96388">
        <ele>132.32</ele>
        <time>2011-05-21T08:28:03Z</time>
      </trkpt>
      <trkpt lat="48.68408" lon="1.96391">
        <ele>132.32</ele>
        <time>2011-05-21T08:28:04Z</time>
      </trkpt>
      <trkpt lat="48.68408" lon="1.96394">
        <ele>132.32</ele>
        <time>2011-05-21T08:28:12Z</time>
      </trkpt>
      <trkpt lat="48.68404" lon="1.96405">
        <ele>131.84</ele>
        <time>2011-05-21T08:28:14Z</time>
      </trkpt>
      <trkpt lat="48.68401" lon="1.96409">
        <ele>130.88</ele>
        <time>2011-05-21T08:28:15Z</time>
      </trkpt>
      <trkpt lat="48.68398" lon="1.96414">
        <ele>130.88</ele>
        <time>2011-05-21T08:28:16Z</time>
      </trkpt>
      <trkpt lat="48.68396" lon="1.96419">
        <ele>130.4</ele>
        <time>2011-05-21T08:28:17Z</time>
      </trkpt>
      <trkpt lat="48.68394" lon="1.96423">
        <ele>131.36</ele>
        <time>2011-05-21T08:28:18Z</time>
      </trkpt>
      <trkpt lat="48.68391" lon="1.96425">
        <ele>130.4</ele>
        <time>2011-05-21T08:28:19Z</time>
      </trkpt>
      <trkpt lat="48.68388" lon="1.96431">
        <ele>129.92</ele>
        <time>2011-05-21T08:28:23Z</time>
      </trkpt>
      <trkpt lat="48.68386" lon="1.96445">
        <ele>128.95</ele>
        <time>2011-05-21T08:28:27Z</time>
      </trkpt>
      <trkpt lat="48.68375" lon="1.96462">
        <ele>124.63</ele>
        <time>2011-05-21T08:28:31Z</time>
      </trkpt>
      <trkpt lat="48.68372" lon="1.96469">
        <ele>122.22</ele>
        <time>2011-05-21T08:28:32Z</time>
      </trkpt>
      <trkpt lat="48.68365" lon="1.96486">
        <ele>120.3</ele>
        <time>2011-05-21T08:28:34Z</time>
      </trkpt>
      <trkpt lat="48.68356" lon="1.96506">
        <ele>117.42</ele>
        <time>2011-05-21T08:28:36Z</time>
      </trkpt>
      <trkpt lat="48.68349" lon="1.96527">
        <ele>117.42</ele>
        <time>2011-05-21T08:28:38Z</time>
      </trkpt>
      <trkpt lat="48.68332" lon="1.96555">
        <ele>117.42</ele>
        <time>2011-05-21T08:28:46Z</time>
      </trkpt>
      <trkpt lat="48.68332" lon="1.96555">
        <ele>117.42</ele>
        <time>2011-05-21T08:28:53Z</time>
      </trkpt>
      <trkpt lat="48.68332" lon="1.96548">
        <ele>116.94</ele>
        <time>2011-05-21T08:28:57Z</time>
      </trkpt>
      <trkpt lat="48.68325" lon="1.96543">
        <ele>113.57</ele>
        <time>2011-05-21T08:29:01Z</time>
      </trkpt>
      <trkpt lat="48.68316" lon="1.96544">
        <ele>110.21</ele>
        <time>2011-05-21T08:29:04Z</time>
      </trkpt>
      <trkpt lat="48.68312" lon="1.96544">
        <ele>108.77</ele>
        <time>2011-05-21T08:29:05Z</time>
      </trkpt>
      <trkpt lat="48.68308" lon="1.96544">
        <ele>107.32</ele>
        <time>2011-05-21T08:29:06Z</time>
      </trkpt>
      <trkpt lat="48.68303" lon="1.96542">
        <ele>105.88</ele>
        <time>2011-05-21T08:29:07Z</time>
      </trkpt>
      <trkpt lat="48.68288" lon="1.96542">
        <ele>102.52</ele>
        <time>2011-05-21T08:29:11Z</time>
      </trkpt>
      <trkpt lat="48.68285" lon="1.96544">
        <ele>102.52</ele>
        <time>2011-05-21T08:29:12Z</time>
      </trkpt>
      <trkpt lat="48.6828" lon="1.96552">
        <ele>102.04</ele>
        <time>2011-05-21T08:29:14Z</time>
      </trkpt>
      <trkpt lat="48.6828" lon="1.96557">
        <ele>101.56</ele>
        <time>2011-05-21T08:29:15Z</time>
      </trkpt>
      <trkpt lat="48.68279" lon="1.96562">
        <ele>101.56</ele>
        <time>2011-05-21T08:29:16Z</time>
      </trkpt>
      <trkpt lat="48.68277" lon="1.96567">
        <ele>101.56</ele>
        <time>2011-05-21T08:29:17Z</time>
      </trkpt>
      <trkpt lat="48.68274" lon="1.96569">
        <ele>101.56</ele>
        <time>2011-05-21T08:29:18Z</time>
      </trkpt>
      <trkpt lat="48.68271" lon="1.9657">
        <ele>101.56</ele>
        <time>2011-05-21T08:29:19Z</time>
      </trkpt>
      <trkpt lat="48.68269" lon="1.9657">
        <ele>101.56</ele>
        <time>2011-05-21T08:29:20Z</time>
      </trkpt>
      <trkpt lat="48.68267" lon="1.96568">
        <ele>101.56</ele>
        <time>2011-05-21T08:29:21Z</time>
      </trkpt>
      <trkpt lat="48.6823" lon="1.96552">
        <ele>101.08</ele>
        <time>2011-05-21T08:29:31Z</time>
      </trkpt>
      <trkpt lat="48.68226" lon="1.96551">
        <ele>101.08</ele>
        <time>2011-05-21T08:29:32Z</time>
      </trkpt>
      <trkpt lat="48.68222" lon="1.96549">
        <ele>101.08</ele>
        <time>2011-05-21T08:29:33Z</time>
      </trkpt>
      <trkpt lat="48.6821" lon="1.96541">
        <ele>100.6</ele>
        <time>2011-05-21T08:29:36Z</time>
      </trkpt>
      <trkpt lat="48.68205" lon="1.96536">
        <ele>100.6</ele>
        <time>2011-05-21T08:29:37Z</time>
      </trkpt>
      <trkpt lat="48.68191" lon="1.96524">
        <ele>100.11</ele>
        <time>2011-05-21T08:29:40Z</time>
      </trkpt>
      <trkpt lat="48.68185" lon="1.9652">
        <ele>100.11</ele>
        <time>2011-05-21T08:29:41Z</time>
      </trkpt>
      <trkpt lat="48.68179" lon="1.96517">
        <ele>99.63</ele>
        <time>2011-05-21T08:29:42Z</time>
      </trkpt>
      <trkpt lat="48.68173" lon="1.96515">
        <ele>99.63</ele>
        <time>2011-05-21T08:29:43Z</time>
      </trkpt>
      <trkpt lat="48.68166" lon="1.96514">
        <ele>99.63</ele>
        <time>2011-05-21T08:29:44Z</time>
      </trkpt>
      <trkpt lat="48.68154" lon="1.96513">
        <ele>99.15</ele>
        <time>2011-05-21T08:29:46Z</time>
      </trkpt>
      <trkpt lat="48.68148" lon="1.96513">
        <ele>99.15</ele>
        <time>2011-05-21T08:29:47Z</time>
      </trkpt>
      <trkpt lat="48.68141" lon="1.96513">
        <ele>98.67</ele>
        <time>2011-05-21T08:29:48Z</time>
      </trkpt>
      <trkpt lat="48.68079" lon="1.96503">
        <ele>96.75</ele>
        <time>2011-05-21T08:29:57Z</time>
      </trkpt>
      <trkpt lat="48.68072" lon="1.96504">
        <ele>96.75</ele>
        <time>2011-05-21T08:29:58Z</time>
      </trkpt>
      <trkpt lat="48.68066" lon="1.96507">
        <ele>96.75</ele>
        <time>2011-05-21T08:29:59Z</time>
      </trkpt>
      <trkpt lat="48.6806" lon="1.96511">
        <ele>96.75</ele>
        <time>2011-05-21T08:30:00Z</time>
      </trkpt>
      <trkpt lat="48.68055" lon="1.96516">
        <ele>96.75</ele>
        <time>2011-05-21T08:30:01Z</time>
      </trkpt>
      <trkpt lat="48.68051" lon="1.96523">
        <ele>97.23</ele>
        <time>2011-05-21T08:30:02Z</time>
      </trkpt>
      <trkpt lat="48.68048" lon="1.96531">
        <ele>97.23</ele>
        <time>2011-05-21T08:30:03Z</time>
      </trkpt>
      <trkpt lat="48.68045" lon="1.96539">
        <ele>97.23</ele>
        <time>2011-05-21T08:30:04Z</time>
      </trkpt>
      <trkpt lat="48.68044" lon="1.96547">
        <ele>97.23</ele>
        <time>2011-05-21T08:30:05Z</time>
      </trkpt>
      <trkpt lat="48.68034" lon="1.96582">
        <ele>97.23</ele>
        <time>2011-05-21T08:30:09Z</time>
      </trkpt>
      <trkpt lat="48.68031" lon="1.9659">
        <ele>97.23</ele>
        <time>2011-05-21T08:30:10Z</time>
      </trkpt>
      <trkpt lat="48.68027" lon="1.96597">
        <ele>97.23</ele>
        <time>2011-05-21T08:30:11Z</time>
      </trkpt>
      <trkpt lat="48.68023" lon="1.96603">
        <ele>98.19</ele>
        <time>2011-05-21T08:30:12Z</time>
      </trkpt>
      <trkpt lat="48.68018" lon="1.96609">
        <ele>98.19</ele>
        <time>2011-05-21T08:30:13Z</time>
      </trkpt>
      <trkpt lat="48.68013" lon="1.96612">
        <ele>98.67</ele>
        <time>2011-05-21T08:30:14Z</time>
      </trkpt>
      <trkpt lat="48.68008" lon="1.96615">
        <ele>99.15</ele>
        <time>2011-05-21T08:30:15Z</time>
      </trkpt>
      <trkpt lat="48.68004" lon="1.96617">
        <ele>99.63</ele>
        <time>2011-05-21T08:30:16Z</time>
      </trkpt>
      <trkpt lat="48.67999" lon="1.96617">
        <ele>100.11</ele>
        <time>2011-05-21T08:30:17Z</time>
      </trkpt>
      <trkpt lat="48.67994" lon="1.96616">
        <ele>100.11</ele>
        <time>2011-05-21T08:30:18Z</time>
      </trkpt>
      <trkpt lat="48.67989" lon="1.96615">
        <ele>100.6</ele>
        <time>2011-05-21T08:30:19Z</time>
      </trkpt>
      <trkpt lat="48.67932" lon="1.96607">
        <ele>103.96</ele>
        <time>2011-05-21T08:30:31Z</time>
      </trkpt>
      <trkpt lat="48.67917" lon="1.96613">
        <ele>104.92</ele>
        <time>2011-05-21T08:30:37Z</time>
      </trkpt>
      <trkpt lat="48.67914" lon="1.9662">
        <ele>104.92</ele>
        <time>2011-05-21T08:30:39Z</time>
      </trkpt>
      <trkpt lat="48.67912" lon="1.96622">
        <ele>104.92</ele>
        <time>2011-05-21T08:30:40Z</time>
      </trkpt>
      <trkpt lat="48.67909" lon="1.96623">
        <ele>105.4</ele>
        <time>2011-05-21T08:30:41Z</time>
      </trkpt>
      <trkpt lat="48.67905" lon="1.96623">
        <ele>105.4</ele>
        <time>2011-05-21T08:30:42Z</time>
      </trkpt>
      <trkpt lat="48.67903" lon="1.96623">
        <ele>105.4</ele>
        <time>2011-05-21T08:30:43Z</time>
      </trkpt>
      <trkpt lat="48.679" lon="1.96623">
        <ele>105.4</ele>
        <time>2011-05-21T08:30:44Z</time>
      </trkpt>
      <trkpt lat="48.67897" lon="1.96623">
        <ele>105.88</ele>
        <time>2011-05-21T08:30:45Z</time>
      </trkpt>
      <trkpt lat="48.67894" lon="1.96622">
        <ele>105.88</ele>
        <time>2011-05-21T08:30:46Z</time>
      </trkpt>
      <trkpt lat="48.67892" lon="1.96624">
        <ele>106.36</ele>
        <time>2011-05-21T08:30:47Z</time>
      </trkpt>
      <trkpt lat="48.6789" lon="1.96626">
        <ele>106.36</ele>
        <time>2011-05-21T08:30:48Z</time>
      </trkpt>
      <trkpt lat="48.67889" lon="1.96628">
        <ele>106.36</ele>
        <time>2011-05-21T08:30:49Z</time>
      </trkpt>
      <trkpt lat="48.67888" lon="1.96631">
        <ele>106.36</ele>
        <time>2011-05-21T08:30:50Z</time>
      </trkpt>
      <trkpt lat="48.67888" lon="1.96634">
        <ele>106.84</ele>
        <time>2011-05-21T08:30:51Z</time>
      </trkpt>
      <trkpt lat="48.67887" lon="1.96636">
        <ele>106.84</ele>
        <time>2011-05-21T08:30:52Z</time>
      </trkpt>
      <trkpt lat="48.67887" lon="1.96638">
        <ele>106.36</ele>
        <time>2011-05-21T08:30:53Z</time>
      </trkpt>
      <trkpt lat="48.67886" lon="1.96641">
        <ele>106.84</ele>
        <time>2011-05-21T08:30:54Z</time>
      </trkpt>
      <trkpt lat="48.67887" lon="1.96643">
        <ele>105.88</ele>
        <time>2011-05-21T08:30:55Z</time>
      </trkpt>
      <trkpt lat="48.67888" lon="1.96646">
        <ele>105.88</ele>
        <time>2011-05-21T08:30:56Z</time>
      </trkpt>
      <trkpt lat="48.67889" lon="1.96651">
        <ele>105.88</ele>
        <time>2011-05-21T08:30:57Z</time>
      </trkpt>
      <trkpt lat="48.67891" lon="1.96656">
        <ele>105.4</ele>
        <time>2011-05-21T08:30:58Z</time>
      </trkpt>
      <trkpt lat="48.67894" lon="1.96679">
        <ele>104.92</ele>
        <time>2011-05-21T08:31:02Z</time>
      </trkpt>
      <trkpt lat="48.67894" lon="1.96686">
        <ele>104.92</ele>
        <time>2011-05-21T08:31:03Z</time>
      </trkpt>
      <trkpt lat="48.67893" lon="1.96744">
        <ele>104.44</ele>
        <time>2011-05-21T08:31:12Z</time>
      </trkpt>
      <trkpt lat="48.67892" lon="1.96752">
        <ele>104.44</ele>
        <time>2011-05-21T08:31:13Z</time>
      </trkpt>
      <trkpt lat="48.67892" lon="1.96759">
        <ele>104.44</ele>
        <time>2011-05-21T08:31:14Z</time>
      </trkpt>
      <trkpt lat="48.67894" lon="1.96766">
        <ele>104.44</ele>
        <time>2011-05-21T08:31:15Z</time>
      </trkpt>
      <trkpt lat="48.67896" lon="1.96772">
        <ele>104.44</ele>
        <time>2011-05-21T08:31:16Z</time>
      </trkpt>
      <trkpt lat="48.67898" lon="1.96777">
        <ele>104.92</ele>
        <time>2011-05-21T08:31:17Z</time>
      </trkpt>
      <trkpt lat="48.67902" lon="1.9678">
        <ele>104.92</ele>
        <time>2011-05-21T08:31:18Z</time>
      </trkpt>
      <trkpt lat="48.67905" lon="1.96784">
        <ele>104.92</ele>
        <time>2011-05-21T08:31:19Z</time>
      </trkpt>
      <trkpt lat="48.67909" lon="1.96788">
        <ele>104.92</ele>
        <time>2011-05-21T08:31:20Z</time>
      </trkpt>
      <trkpt lat="48.67912" lon="1.96791">
        <ele>105.4</ele>
        <time>2011-05-21T08:31:21Z</time>
      </trkpt>
      <trkpt lat="48.67916" lon="1.96794">
        <ele>104.92</ele>
        <time>2011-05-21T08:31:22Z</time>
      </trkpt>
      <trkpt lat="48.6792" lon="1.96797">
        <ele>105.4</ele>
        <time>2011-05-21T08:31:23Z</time>
      </trkpt>
      <trkpt lat="48.67924" lon="1.96801">
        <ele>105.88</ele>
        <time>2011-05-21T08:31:24Z</time>
      </trkpt>
      <trkpt lat="48.67926" lon="1.96806">
        <ele>106.36</ele>
        <time>2011-05-21T08:31:25Z</time>
      </trkpt>
      <trkpt lat="48.67933" lon="1.96814">
        <ele>106.84</ele>
        <time>2011-05-21T08:31:27Z</time>
      </trkpt>
      <trkpt lat="48.67965" lon="1.96885">
        <ele>110.21</ele>
        <time>2011-05-21T08:31:42Z</time>
      </trkpt>
      <trkpt lat="48.67978" lon="1.96963">
        <ele>112.61</ele>
        <time>2011-05-21T08:31:55Z</time>
      </trkpt>
      <trkpt lat="48.67997" lon="1.97031">
        <ele>115.01</ele>
        <time>2011-05-21T08:32:08Z</time>
      </trkpt>
      <trkpt lat="48.68024" lon="1.97096">
        <ele>116.46</ele>
        <time>2011-05-21T08:32:22Z</time>
      </trkpt>
      <trkpt lat="48.68033" lon="1.9716">
        <ele>118.86</ele>
        <time>2011-05-21T08:32:37Z</time>
      </trkpt>
      <trkpt lat="48.68012" lon="1.97217">
        <ele>119.34</ele>
        <time>2011-05-21T08:32:50Z</time>
      </trkpt>
      <trkpt lat="48.68001" lon="1.97296">
        <ele>120.3</ele>
        <time>2011-05-21T08:33:04Z</time>
      </trkpt>
      <trkpt lat="48.68008" lon="1.97391">
        <ele>122.22</ele>
        <time>2011-05-21T08:33:18Z</time>
      </trkpt>
      <trkpt lat="48.67997" lon="1.9745">
        <ele>122.22</ele>
        <time>2011-05-21T08:33:27Z</time>
      </trkpt>
      <trkpt lat="48.67996" lon="1.97551">
        <ele>123.19</ele>
        <time>2011-05-21T08:33:40Z</time>
      </trkpt>
      <trkpt lat="48.67994" lon="1.97574">
        <ele>122.22</ele>
        <time>2011-05-21T08:33:43Z</time>
      </trkpt>
      <trkpt lat="48.67992" lon="1.97582">
        <ele>121.74</ele>
        <time>2011-05-21T08:33:44Z</time>
      </trkpt>
      <trkpt lat="48.6799" lon="1.97589">
        <ele>121.74</ele>
        <time>2011-05-21T08:33:45Z</time>
      </trkpt>
      <trkpt lat="48.67987" lon="1.97596">
        <ele>121.26</ele>
        <time>2011-05-21T08:33:46Z</time>
      </trkpt>
      <trkpt lat="48.67986" lon="1.97603">
        <ele>121.26</ele>
        <time>2011-05-21T08:33:47Z</time>
      </trkpt>
      <trkpt lat="48.67985" lon="1.97612">
        <ele>121.26</ele>
        <time>2011-05-21T08:33:48Z</time>
      </trkpt>
      <trkpt lat="48.67985" lon="1.97621">
        <ele>120.78</ele>
        <time>2011-05-21T08:33:49Z</time>
      </trkpt>
      <trkpt lat="48.67995" lon="1.97652">
        <ele>121.74</ele>
        <time>2011-05-21T08:33:56Z</time>
      </trkpt>
      <trkpt lat="48.68005" lon="1.97662">
        <ele>122.22</ele>
        <time>2011-05-21T08:33:58Z</time>
      </trkpt>
      <trkpt lat="48.68008" lon="1.97668">
        <ele>122.71</ele>
        <time>2011-05-21T08:33:59Z</time>
      </trkpt>
      <trkpt lat="48.68015" lon="1.97703">
        <ele>122.71</ele>
        <time>2011-05-21T08:34:04Z</time>
      </trkpt>
      <trkpt lat="48.68016" lon="1.97711">
        <ele>123.19</ele>
        <time>2011-05-21T08:34:05Z</time>
      </trkpt>
      <trkpt lat="48.68016" lon="1.97717">
        <ele>123.19</ele>
        <time>2011-05-21T08:34:06Z</time>
      </trkpt>
      <trkpt lat="48.68015" lon="1.97724">
        <ele>122.71</ele>
        <time>2011-05-21T08:34:07Z</time>
      </trkpt>
      <trkpt lat="48.68015" lon="1.97731">
        <ele>123.19</ele>
        <time>2011-05-21T08:34:08Z</time>
      </trkpt>
      <trkpt lat="48.68014" lon="1.97738">
        <ele>123.67</ele>
        <time>2011-05-21T08:34:09Z</time>
      </trkpt>
      <trkpt lat="48.68012" lon="1.97764">
        <ele>124.15</ele>
        <time>2011-05-21T08:34:13Z</time>
      </trkpt>
      <trkpt lat="48.68011" lon="1.97771">
        <ele>124.15</ele>
        <time>2011-05-21T08:34:14Z</time>
      </trkpt>
      <trkpt lat="48.68008" lon="1.97797">
        <ele>124.63</ele>
        <time>2011-05-21T08:34:18Z</time>
      </trkpt>
      <trkpt lat="48.68006" lon="1.97804">
        <ele>125.11</ele>
        <time>2011-05-21T08:34:19Z</time>
      </trkpt>
      <trkpt lat="48.67999" lon="1.97836">
        <ele>125.11</ele>
        <time>2011-05-21T08:34:24Z</time>
      </trkpt>
      <trkpt lat="48.67995" lon="1.97856">
        <ele>125.59</ele>
        <time>2011-05-21T08:34:27Z</time>
      </trkpt>
      <trkpt lat="48.67994" lon="1.97862">
        <ele>125.59</ele>
        <time>2011-05-21T08:34:28Z</time>
      </trkpt>
      <trkpt lat="48.67992" lon="1.97868">
        <ele>125.59</ele>
        <time>2011-05-21T08:34:29Z</time>
      </trkpt>
      <trkpt lat="48.67992" lon="1.97874">
        <ele>125.59</ele>
        <time>2011-05-21T08:34:30Z</time>
      </trkpt>
      <trkpt lat="48.67992" lon="1.9788">
        <ele>125.59</ele>
        <time>2011-05-21T08:34:31Z</time>
      </trkpt>
      <trkpt lat="48.67992" lon="1.97887">
        <ele>125.59</ele>
        <time>2011-05-21T08:34:32Z</time>
      </trkpt>
      <trkpt lat="48.67991" lon="1.97893">
        <ele>125.59</ele>
        <time>2011-05-21T08:34:33Z</time>
      </trkpt>
      <trkpt lat="48.67991" lon="1.97901">
        <ele>126.07</ele>
        <time>2011-05-21T08:34:34Z</time>
      </trkpt>
      <trkpt lat="48.67989" lon="1.97908">
        <ele>126.07</ele>
        <time>2011-05-21T08:34:35Z</time>
      </trkpt>
      <trkpt lat="48.67986" lon="1.97923">
        <ele>126.07</ele>
        <time>2011-05-21T08:34:37Z</time>
      </trkpt>
      <trkpt lat="48.67984" lon="1.9793">
        <ele>126.07</ele>
        <time>2011-05-21T08:34:38Z</time>
      </trkpt>
      <trkpt lat="48.67983" lon="1.97937">
        <ele>126.07</ele>
        <time>2011-05-21T08:34:39Z</time>
      </trkpt>
      <trkpt lat="48.67981" lon="1.97944">
        <ele>126.07</ele>
        <time>2011-05-21T08:34:40Z</time>
      </trkpt>
      <trkpt lat="48.67978" lon="1.97951">
        <ele>126.07</ele>
        <time>2011-05-21T08:34:41Z</time>
      </trkpt>
      <trkpt lat="48.67975" lon="1.97957">
        <ele>126.07</ele>
        <time>2011-05-21T08:34:42Z</time>
      </trkpt>
      <trkpt lat="48.6796" lon="1.97986">
        <ele>126.55</ele>
        <time>2011-05-21T08:34:47Z</time>
      </trkpt>
      <trkpt lat="48.67949" lon="1.98005">
        <ele>125.11</ele>
        <time>2011-05-21T08:34:50Z</time>
      </trkpt>
      <trkpt lat="48.67946" lon="1.98012">
        <ele>125.11</ele>
        <time>2011-05-21T08:34:51Z</time>
      </trkpt>
      <trkpt lat="48.67944" lon="1.9802">
        <ele>124.63</ele>
        <time>2011-05-21T08:34:52Z</time>
      </trkpt>
      <trkpt lat="48.67939" lon="1.9804">
        <ele>124.63</ele>
        <time>2011-05-21T08:34:54Z</time>
      </trkpt>
      <trkpt lat="48.67935" lon="1.98058">
        <ele>123.67</ele>
        <time>2011-05-21T08:34:56Z</time>
      </trkpt>
      <trkpt lat="48.67918" lon="1.98139">
        <ele>122.22</ele>
        <time>2011-05-21T08:35:04Z</time>
      </trkpt>
      <trkpt lat="48.67911" lon="1.98169">
        <ele>121.74</ele>
        <time>2011-05-21T08:35:07Z</time>
      </trkpt>
      <trkpt lat="48.67908" lon="1.98177">
        <ele>121.26</ele>
        <time>2011-05-21T08:35:08Z</time>
      </trkpt>
      <trkpt lat="48.67906" lon="1.98187">
        <ele>121.26</ele>
        <time>2011-05-21T08:35:09Z</time>
      </trkpt>
      <trkpt lat="48.67901" lon="1.98207">
        <ele>120.78</ele>
        <time>2011-05-21T08:35:11Z</time>
      </trkpt>
      <trkpt lat="48.67893" lon="1.98229">
        <ele>119.34</ele>
        <time>2011-05-21T08:35:13Z</time>
      </trkpt>
      <trkpt lat="48.67882" lon="1.98263">
        <ele>117.9</ele>
        <time>2011-05-21T08:35:18Z</time>
      </trkpt>
      <trkpt lat="48.6788" lon="1.98263">
        <ele>117.42</ele>
        <time>2011-05-21T08:35:19Z</time>
      </trkpt>
      <trkpt lat="48.6788" lon="1.98245">
        <ele>115.98</ele>
        <time>2011-05-21T08:35:22Z</time>
      </trkpt>
      <trkpt lat="48.67881" lon="1.98238">
        <ele>115.01</ele>
        <time>2011-05-21T08:35:23Z</time>
      </trkpt>
      <trkpt lat="48.67883" lon="1.98231">
        <ele>114.05</ele>
        <time>2011-05-21T08:35:24Z</time>
      </trkpt>
      <trkpt lat="48.67884" lon="1.98225">
        <ele>114.05</ele>
        <time>2011-05-21T08:35:25Z</time>
      </trkpt>
      <trkpt lat="48.68049" lon="1.98166">
        <ele>111.17</ele>
        <time>2011-05-21T08:35:30Z</time>
      </trkpt>
      <trkpt lat="48.68081" lon="1.98144">
        <ele>109.73</ele>
        <time>2011-05-21T08:35:34Z</time>
      </trkpt>
      <trkpt lat="48.68089" lon="1.9814">
        <ele>109.25</ele>
        <time>2011-05-21T08:35:35Z</time>
      </trkpt>
      <trkpt lat="48.68097" lon="1.98138">
        <ele>109.25</ele>
        <time>2011-05-21T08:35:36Z</time>
      </trkpt>
      <trkpt lat="48.68107" lon="1.98137">
        <ele>109.25</ele>
        <time>2011-05-21T08:35:37Z</time>
      </trkpt>
      <trkpt lat="48.68116" lon="1.98138">
        <ele>109.73</ele>
        <time>2011-05-21T08:35:38Z</time>
      </trkpt>
      <trkpt lat="48.68124" lon="1.98142">
        <ele>109.73</ele>
        <time>2011-05-21T08:35:39Z</time>
      </trkpt>
      <trkpt lat="48.68132" lon="1.98148">
        <ele>110.21</ele>
        <time>2011-05-21T08:35:40Z</time>
      </trkpt>
      <trkpt lat="48.68139" lon="1.98155">
        <ele>110.21</ele>
        <time>2011-05-21T08:35:41Z</time>
      </trkpt>
      <trkpt lat="48.68146" lon="1.98163">
        <ele>110.69</ele>
        <time>2011-05-21T08:35:42Z</time>
      </trkpt>
      <trkpt lat="48.68151" lon="1.98172">
        <ele>111.17</ele>
        <time>2011-05-21T08:35:43Z</time>
      </trkpt>
      <trkpt lat="48.68155" lon="1.98181">
        <ele>111.65</ele>
        <time>2011-05-21T08:35:44Z</time>
      </trkpt>
      <trkpt lat="48.68176" lon="1.98215">
        <ele>113.09</ele>
        <time>2011-05-21T08:35:52Z</time>
      </trkpt>
      <trkpt lat="48.68178" lon="1.98214">
        <ele>114.05</ele>
        <time>2011-05-21T08:35:53Z</time>
      </trkpt>
      <trkpt lat="48.68181" lon="1.98212">
        <ele>113.57</ele>
        <time>2011-05-21T08:35:54Z</time>
      </trkpt>
      <trkpt lat="48.68189" lon="1.98203">
        <ele>115.01</ele>
        <time>2011-05-21T08:35:57Z</time>
      </trkpt>
      <trkpt lat="48.682" lon="1.98197">
        <ele>115.5</ele>
        <time>2011-05-21T08:35:59Z</time>
      </trkpt>
      <trkpt lat="48.68223" lon="1.98192">
        <ele>115.98</ele>
        <time>2011-05-21T08:36:02Z</time>
      </trkpt>
      <trkpt lat="48.6823" lon="1.98192">
        <ele>116.94</ele>
        <time>2011-05-21T08:36:03Z</time>
      </trkpt>
      <trkpt lat="48.68237" lon="1.98192">
        <ele>116.46</ele>
        <time>2011-05-21T08:36:04Z</time>
      </trkpt>
      <trkpt lat="48.68284" lon="1.9821">
        <ele>118.86</ele>
        <time>2011-05-21T08:36:17Z</time>
      </trkpt>
      <trkpt lat="48.68292" lon="1.98222">
        <ele>118.86</ele>
        <time>2011-05-21T08:36:23Z</time>
      </trkpt>
      <trkpt lat="48.68295" lon="1.98222">
        <ele>118.38</ele>
        <time>2011-05-21T08:36:24Z</time>
      </trkpt>
      <trkpt lat="48.68298" lon="1.98222">
        <ele>118.38</ele>
        <time>2011-05-21T08:36:25Z</time>
      </trkpt>
      <trkpt lat="48.683" lon="1.98222">
        <ele>118.38</ele>
        <time>2011-05-21T08:36:26Z</time>
      </trkpt>
      <trkpt lat="48.68303" lon="1.98224">
        <ele>117.9</ele>
        <time>2011-05-21T08:36:27Z</time>
      </trkpt>
      <trkpt lat="48.68305" lon="1.98225">
        <ele>118.38</ele>
        <time>2011-05-21T08:36:28Z</time>
      </trkpt>
      <trkpt lat="48.68308" lon="1.98226">
        <ele>118.38</ele>
        <time>2011-05-21T08:36:29Z</time>
      </trkpt>
      <trkpt lat="48.68311" lon="1.98228">
        <ele>118.38</ele>
        <time>2011-05-21T08:36:30Z</time>
      </trkpt>
      <trkpt lat="48.68313" lon="1.98231">
        <ele>118.38</ele>
        <time>2011-05-21T08:36:31Z</time>
      </trkpt>
      <trkpt lat="48.68314" lon="1.98233">
        <ele>118.86</ele>
        <time>2011-05-21T08:36:32Z</time>
      </trkpt>
      <trkpt lat="48.68314" lon="1.98235">
        <ele>118.86</ele>
        <time>2011-05-21T08:36:33Z</time>
      </trkpt>
      <trkpt lat="48.68315" lon="1.98237">
        <ele>119.34</ele>
        <time>2011-05-21T08:36:34Z</time>
      </trkpt>
      <trkpt lat="48.68308" lon="1.9827">
        <ele>120.78</ele>
        <time>2011-05-21T08:36:44Z</time>
      </trkpt>
      <trkpt lat="48.68301" lon="1.98327">
        <ele>123.19</ele>
        <time>2011-05-21T08:36:59Z</time>
      </trkpt>
      <trkpt lat="48.68294" lon="1.98346">
        <ele>125.11</ele>
        <time>2011-05-21T08:37:09Z</time>
      </trkpt>
      <trkpt lat="48.68286" lon="1.98338">
        <ele>127.03</ele>
        <time>2011-05-21T08:37:16Z</time>
      </trkpt>
      <trkpt lat="48.68322" lon="1.98328">
        <ele>127.99</ele>
        <time>2011-05-21T08:37:19Z</time>
      </trkpt>
      <trkpt lat="48.68391" lon="1.98297">
        <ele>130.88</ele>
        <time>2011-05-21T08:37:33Z</time>
      </trkpt>
      <trkpt lat="48.68421" lon="1.9829">
        <ele>133.76</ele>
        <time>2011-05-21T08:37:45Z</time>
      </trkpt>
      <trkpt lat="48.68436" lon="1.98292">
        <ele>133.76</ele>
        <time>2011-05-21T08:37:52Z</time>
      </trkpt>
      <trkpt lat="48.68445" lon="1.98296">
        <ele>133.28</ele>
        <time>2011-05-21T08:37:56Z</time>
      </trkpt>
      <trkpt lat="48.68474" lon="1.98333">
        <ele>133.76</ele>
        <time>2011-05-21T08:38:09Z</time>
      </trkpt>
      <trkpt lat="48.68486" lon="1.98392">
        <ele>135.2</ele>
        <time>2011-05-21T08:38:23Z</time>
      </trkpt>
      <trkpt lat="48.68512" lon="1.98429">
        <ele>136.16</ele>
        <time>2011-05-21T08:38:37Z</time>
      </trkpt>
      <trkpt lat="48.68556" lon="1.98455">
        <ele>138.09</ele>
        <time>2011-05-21T08:38:48Z</time>
      </trkpt>
      <trkpt lat="48.68587" lon="1.98487">
        <ele>139.53</ele>
        <time>2011-05-21T08:39:02Z</time>
      </trkpt>
      <trkpt lat="48.68605" lon="1.9853">
        <ele>141.45</ele>
        <time>2011-05-21T08:39:14Z</time>
      </trkpt>
      <trkpt lat="48.68623" lon="1.98586">
        <ele>139.53</ele>
        <time>2011-05-21T08:39:25Z</time>
      </trkpt>
      <trkpt lat="48.68637" lon="1.98654">
        <ele>136.64</ele>
        <time>2011-05-21T08:39:36Z</time>
      </trkpt>
      <trkpt lat="48.6863" lon="1.98742">
        <ele>136.64</ele>
        <time>2011-05-21T08:39:50Z</time>
      </trkpt>
      <trkpt lat="48.6867" lon="1.98689">
        <ele>138.09</ele>
        <time>2011-05-21T08:39:59Z</time>
      </trkpt>
      <trkpt lat="48.68699" lon="1.9868">
        <ele>138.57</ele>
        <time>2011-05-21T08:40:00Z</time>
      </trkpt>
      <trkpt lat="48.68729" lon="1.98676">
        <ele>139.05</ele>
        <time>2011-05-21T08:40:01Z</time>
      </trkpt>
      <trkpt lat="48.6878" lon="1.98616">
        <ele>142.41</ele>
        <time>2011-05-21T08:40:12Z</time>
      </trkpt>
      <trkpt lat="48.68823" lon="1.98586">
        <ele>144.82</ele>
        <time>2011-05-21T08:40:26Z</time>
      </trkpt>
      <trkpt lat="48.68859" lon="1.986">
        <ele>147.7</ele>
        <time>2011-05-21T08:40:38Z</time>
      </trkpt>
      <trkpt lat="48.68885" lon="1.98627">
        <ele>150.1</ele>
        <time>2011-05-21T08:40:51Z</time>
      </trkpt>
      <trkpt lat="48.68903" lon="1.98656">
        <ele>152.51</ele>
        <time>2011-05-21T08:41:04Z</time>
      </trkpt>
      <trkpt lat="48.6892" lon="1.98691">
        <ele>155.39</ele>
        <time>2011-05-21T08:41:18Z</time>
      </trkpt>
      <trkpt lat="48.68928" lon="1.98735">
        <ele>158.75</ele>
        <time>2011-05-21T08:41:33Z</time>
      </trkpt>
      <trkpt lat="48.68935" lon="1.98778">
        <ele>160.68</ele>
        <time>2011-05-21T08:41:47Z</time>
      </trkpt>
      <trkpt lat="48.68926" lon="1.98822">
        <ele>162.12</ele>
        <time>2011-05-21T08:42:00Z</time>
      </trkpt>
      <trkpt lat="48.68919" lon="1.98846">
        <ele>162.12</ele>
        <time>2011-05-21T08:42:08Z</time>
      </trkpt>
      <trkpt lat="48.68919" lon="1.98849">
        <ele>162.12</ele>
        <time>2011-05-21T08:42:09Z</time>
      </trkpt>
      <trkpt lat="48.68988" lon="1.98845">
        <ele>162.12</ele>
        <time>2011-05-21T08:42:13Z</time>
      </trkpt>
      <trkpt lat="48.68999" lon="1.98861">
        <ele>161.16</ele>
        <time>2011-05-21T08:42:18Z</time>
      </trkpt>
      <trkpt lat="48.69005" lon="1.98861">
        <ele>160.68</ele>
        <time>2011-05-21T08:42:19Z</time>
      </trkpt>
      <trkpt lat="48.69008" lon="1.98861">
        <ele>160.68</ele>
        <time>2011-05-21T08:42:20Z</time>
      </trkpt>
      <trkpt lat="48.69012" lon="1.98862">
        <ele>160.68</ele>
        <time>2011-05-21T08:42:21Z</time>
      </trkpt>
      <trkpt lat="48.69015" lon="1.98862">
        <ele>161.16</ele>
        <time>2011-05-21T08:42:22Z</time>
      </trkpt>
      <trkpt lat="48.69017" lon="1.98861">
        <ele>160.2</ele>
        <time>2011-05-21T08:42:23Z</time>
      </trkpt>
      <trkpt lat="48.69021" lon="1.98859">
        <ele>160.2</ele>
        <time>2011-05-21T08:42:24Z</time>
      </trkpt>
      <trkpt lat="48.69025" lon="1.98857">
        <ele>160.2</ele>
        <time>2011-05-21T08:42:25Z</time>
      </trkpt>
      <trkpt lat="48.69028" lon="1.98856">
        <ele>160.2</ele>
        <time>2011-05-21T08:42:26Z</time>
      </trkpt>
      <trkpt lat="48.69032" lon="1.98855">
        <ele>160.2</ele>
        <time>2011-05-21T08:42:42Z</time>
      </trkpt>
      <trkpt lat="48.69032" lon="1.98855">
        <ele>160.68</ele>
        <time>2011-05-21T08:43:11Z</time>
      </trkpt>
      <trkpt lat="48.6903" lon="1.98854">
        <ele>161.16</ele>
        <time>2011-05-21T08:43:22Z</time>
      </trkpt>
      <trkpt lat="48.69032" lon="1.98856">
        <ele>161.16</ele>
        <time>2011-05-21T08:43:35Z</time>
      </trkpt>
      <trkpt lat="48.69035" lon="1.98871">
        <ele>162.6</ele>
        <time>2011-05-21T08:43:44Z</time>
      </trkpt>
      <trkpt lat="48.69034" lon="1.98874">
        <ele>162.6</ele>
        <time>2011-05-21T08:43:46Z</time>
      </trkpt>
      <trkpt lat="48.69034" lon="1.98876">
        <ele>163.08</ele>
        <time>2011-05-21T08:43:47Z</time>
      </trkpt>
      <trkpt lat="48.69034" lon="1.98878">
        <ele>164.04</ele>
        <time>2011-05-21T08:43:48Z</time>
      </trkpt>
      <trkpt lat="48.69035" lon="1.98881">
        <ele>163.56</ele>
        <time>2011-05-21T08:43:49Z</time>
      </trkpt>
      <trkpt lat="48.69035" lon="1.98884">
        <ele>164.04</ele>
        <time>2011-05-21T08:43:50Z</time>
      </trkpt>
      <trkpt lat="48.69037" lon="1.9889">
        <ele>165</ele>
        <time>2011-05-21T08:43:52Z</time>
      </trkpt>
      <trkpt lat="48.69037" lon="1.98893">
        <ele>165</ele>
        <time>2011-05-21T08:43:53Z</time>
      </trkpt>
      <trkpt lat="48.69035" lon="1.98927">
        <ele>166.93</ele>
        <time>2011-05-21T08:44:04Z</time>
      </trkpt>
      <trkpt lat="48.6903" lon="1.98946">
        <ele>166.93</ele>
        <time>2011-05-21T08:44:09Z</time>
      </trkpt>
      <trkpt lat="48.6903" lon="1.9895">
        <ele>166.45</ele>
        <time>2011-05-21T08:44:10Z</time>
      </trkpt>
      <trkpt lat="48.6903" lon="1.98954">
        <ele>166.45</ele>
        <time>2011-05-21T08:44:11Z</time>
      </trkpt>
      <trkpt lat="48.69029" lon="1.98957">
        <ele>166.45</ele>
        <time>2011-05-21T08:44:12Z</time>
      </trkpt>
      <trkpt lat="48.69028" lon="1.98962">
        <ele>166.45</ele>
        <time>2011-05-21T08:44:13Z</time>
      </trkpt>
      <trkpt lat="48.69027" lon="1.98966">
        <ele>166.93</ele>
        <time>2011-05-21T08:44:14Z</time>
      </trkpt>
      <trkpt lat="48.69027" lon="1.9897">
        <ele>166.45</ele>
        <time>2011-05-21T08:44:15Z</time>
      </trkpt>
      <trkpt lat="48.69026" lon="1.98974">
        <ele>166.45</ele>
        <time>2011-05-21T08:44:16Z</time>
      </trkpt>
      <trkpt lat="48.69025" lon="1.98978">
        <ele>166.93</ele>
        <time>2011-05-21T08:44:17Z</time>
      </trkpt>
      <trkpt lat="48.69024" lon="1.98984">
        <ele>166.93</ele>
        <time>2011-05-21T08:44:18Z</time>
      </trkpt>
      <trkpt lat="48.69017" lon="1.99051">
        <ele>166.93</ele>
        <time>2011-05-21T08:44:30Z</time>
      </trkpt>
      <trkpt lat="48.68985" lon="1.99124">
        <ele>167.41</ele>
        <time>2011-05-21T08:44:43Z</time>
      </trkpt>
      <trkpt lat="48.68948" lon="1.9918">
        <ele>167.89</ele>
        <time>2011-05-21T08:44:56Z</time>
      </trkpt>
      <trkpt lat="48.68931" lon="1.99214">
        <ele>167.89</ele>
        <time>2011-05-21T08:45:05Z</time>
      </trkpt>
      <trkpt lat="48.68931" lon="1.9921">
        <ele>167.89</ele>
        <time>2011-05-21T08:45:18Z</time>
      </trkpt>
      <trkpt lat="48.68932" lon="1.99206">
        <ele>167.89</ele>
        <time>2011-05-21T08:45:19Z</time>
      </trkpt>
      <trkpt lat="48.68933" lon="1.99203">
        <ele>167.89</ele>
        <time>2011-05-21T08:45:20Z</time>
      </trkpt>
      <trkpt lat="48.68935" lon="1.992">
        <ele>167.89</ele>
        <time>2011-05-21T08:45:21Z</time>
      </trkpt>
      <trkpt lat="48.68937" lon="1.99195">
        <ele>167.89</ele>
        <time>2011-05-21T08:45:22Z</time>
      </trkpt>
      <trkpt lat="48.6894" lon="1.99191">
        <ele>168.37</ele>
        <time>2011-05-21T08:45:23Z</time>
      </trkpt>
      <trkpt lat="48.68943" lon="1.99186">
        <ele>167.89</ele>
        <time>2011-05-21T08:45:24Z</time>
      </trkpt>
      <trkpt lat="48.6897" lon="1.99124">
        <ele>166.93</ele>
        <time>2011-05-21T08:45:36Z</time>
      </trkpt>
      <trkpt lat="48.69008" lon="1.99066">
        <ele>166.93</ele>
        <time>2011-05-21T08:45:45Z</time>
      </trkpt>
      <trkpt lat="48.69012" lon="1.99053">
        <ele>166.93</ele>
        <time>2011-05-21T08:45:47Z</time>
      </trkpt>
      <trkpt lat="48.69013" lon="1.99048">
        <ele>166.45</ele>
        <time>2011-05-21T08:45:48Z</time>
      </trkpt>
      <trkpt lat="48.69014" lon="1.99043">
        <ele>166.45</ele>
        <time>2011-05-21T08:45:49Z</time>
      </trkpt>
      <trkpt lat="48.69015" lon="1.99034">
        <ele>166.45</ele>
        <time>2011-05-21T08:45:55Z</time>
      </trkpt>
      <trkpt lat="48.69015" lon="1.9905">
        <ele>166.93</ele>
        <time>2011-05-21T08:46:02Z</time>
      </trkpt>
      <trkpt lat="48.6899" lon="1.99115">
        <ele>167.41</ele>
        <time>2011-05-21T08:46:14Z</time>
      </trkpt>
      <trkpt lat="48.68954" lon="1.99174">
        <ele>167.89</ele>
        <time>2011-05-21T08:46:27Z</time>
      </trkpt>
      <trkpt lat="48.68925" lon="1.9923">
        <ele>168.37</ele>
        <time>2011-05-21T08:46:41Z</time>
      </trkpt>
      <trkpt lat="48.68907" lon="1.99267">
        <ele>168.37</ele>
        <time>2011-05-21T08:46:52Z</time>
      </trkpt>
      <trkpt lat="48.6889" lon="1.99321">
        <ele>169.33</ele>
        <time>2011-05-21T08:47:03Z</time>
      </trkpt>
      <trkpt lat="48.68886" lon="1.99339">
        <ele>169.33</ele>
        <time>2011-05-21T08:47:06Z</time>
      </trkpt>
      <trkpt lat="48.68871" lon="1.99431">
        <ele>169.81</ele>
        <time>2011-05-21T08:47:21Z</time>
      </trkpt>
      <trkpt lat="48.68851" lon="1.99549">
        <ele>170.29</ele>
        <time>2011-05-21T08:47:38Z</time>
      </trkpt>
      <trkpt lat="48.68835" lon="1.99676">
        <ele>170.29</ele>
        <time>2011-05-21T08:47:56Z</time>
      </trkpt>
      <trkpt lat="48.68826" lon="1.9978">
        <ele>170.29</ele>
        <time>2011-05-21T08:48:10Z</time>
      </trkpt>
      <trkpt lat="48.68824" lon="1.9988">
        <ele>169.33</ele>
        <time>2011-05-21T08:48:24Z</time>
      </trkpt>
      <trkpt lat="48.68824" lon="1.99881">
        <ele>169.81</ele>
        <time>2011-05-21T08:48:40Z</time>
      </trkpt>
      <trkpt lat="48.68824" lon="1.99881">
        <ele>169.81</ele>
        <time>2011-05-21T08:48:58Z</time>
      </trkpt>
      <trkpt lat="48.68824" lon="1.99884">
        <ele>169.81</ele>
        <time>2011-05-21T08:48:59Z</time>
      </trkpt>
      <trkpt lat="48.68824" lon="1.99887">
        <ele>169.81</ele>
        <time>2011-05-21T08:49:00Z</time>
      </trkpt>
      <trkpt lat="48.68824" lon="1.99892">
        <ele>169.81</ele>
        <time>2011-05-21T08:49:01Z</time>
      </trkpt>
      <trkpt lat="48.68824" lon="1.99898">
        <ele>169.33</ele>
        <time>2011-05-21T08:49:02Z</time>
      </trkpt>
      <trkpt lat="48.68826" lon="2.00003">
        <ele>167.89</ele>
        <time>2011-05-21T08:49:15Z</time>
      </trkpt>
      <trkpt lat="48.68829" lon="2.00041">
        <ele>167.89</ele>
        <time>2011-05-21T08:49:21Z</time>
      </trkpt>
      <trkpt lat="48.68829" lon="2.00048">
        <ele>167.41</ele>
        <time>2011-05-21T08:49:22Z</time>
      </trkpt>
      <trkpt lat="48.68833" lon="2.00141">
        <ele>165.48</ele>
        <time>2011-05-21T08:49:34Z</time>
      </trkpt>
      <trkpt lat="48.68833" lon="2.00148">
        <ele>165.48</ele>
        <time>2011-05-21T08:49:35Z</time>
      </trkpt>
      <trkpt lat="48.68837" lon="2.0025">
        <ele>164.04</ele>
        <time>2011-05-21T08:49:46Z</time>
      </trkpt>
      <trkpt lat="48.68837" lon="2.0029">
        <ele>164.52</ele>
        <time>2011-05-21T08:49:51Z</time>
      </trkpt>
      <trkpt lat="48.68837" lon="2.00296">
        <ele>164.04</ele>
        <time>2011-05-21T08:49:52Z</time>
      </trkpt>
      <trkpt lat="48.68842" lon="2.00306">
        <ele>163.56</ele>
        <time>2011-05-21T08:49:59Z</time>
      </trkpt>
      <trkpt lat="48.68844" lon="2.00307">
        <ele>164.04</ele>
        <time>2011-05-21T08:50:00Z</time>
      </trkpt>
      <trkpt lat="48.68845" lon="2.00309">
        <ele>163.08</ele>
        <time>2011-05-21T08:50:01Z</time>
      </trkpt>
      <trkpt lat="48.68846" lon="2.00311">
        <ele>162.6</ele>
        <time>2011-05-21T08:50:02Z</time>
      </trkpt>
      <trkpt lat="48.68847" lon="2.00313">
        <ele>162.12</ele>
        <time>2011-05-21T08:50:03Z</time>
      </trkpt>
      <trkpt lat="48.68848" lon="2.00315">
        <ele>161.64</ele>
        <time>2011-05-21T08:50:04Z</time>
      </trkpt>
      <trkpt lat="48.68848" lon="2.00319">
        <ele>161.16</ele>
        <time>2011-05-21T08:50:05Z</time>
      </trkpt>
      <trkpt lat="48.68849" lon="2.00324">
        <ele>160.68</ele>
        <time>2011-05-21T08:50:06Z</time>
      </trkpt>
      <trkpt lat="48.68851" lon="2.00329">
        <ele>159.72</ele>
        <time>2011-05-21T08:50:07Z</time>
      </trkpt>
      <trkpt lat="48.68853" lon="2.00335">
        <ele>159.24</ele>
        <time>2011-05-21T08:50:08Z</time>
      </trkpt>
      <trkpt lat="48.68853" lon="2.00342">
        <ele>159.24</ele>
        <time>2011-05-21T08:50:09Z</time>
      </trkpt>
      <trkpt lat="48.68851" lon="2.0036">
        <ele>158.75</ele>
        <time>2011-05-21T08:50:11Z</time>
      </trkpt>
      <trkpt lat="48.68851" lon="2.00368">
        <ele>158.75</ele>
        <time>2011-05-21T08:50:12Z</time>
      </trkpt>
      <trkpt lat="48.68851" lon="2.00377">
        <ele>158.75</ele>
        <time>2011-05-21T08:50:13Z</time>
      </trkpt>
      <trkpt lat="48.68849" lon="2.00403">
        <ele>157.79</ele>
        <time>2011-05-21T08:50:16Z</time>
      </trkpt>
      <trkpt lat="48.68847" lon="2.0042">
        <ele>157.31</ele>
        <time>2011-05-21T08:50:18Z</time>
      </trkpt>
      <trkpt lat="48.68842" lon="2.00448">
        <ele>156.35</ele>
        <time>2011-05-21T08:50:21Z</time>
      </trkpt>
      <trkpt lat="48.68839" lon="2.00457">
        <ele>156.35</ele>
        <time>2011-05-21T08:50:22Z</time>
      </trkpt>
      <trkpt lat="48.68834" lon="2.00471">
        <ele>155.87</ele>
        <time>2011-05-21T08:50:24Z</time>
      </trkpt>
      <trkpt lat="48.68832" lon="2.00478">
        <ele>155.87</ele>
        <time>2011-05-21T08:50:25Z</time>
      </trkpt>
      <trkpt lat="48.6883" lon="2.00484">
        <ele>155.87</ele>
        <time>2011-05-21T08:50:26Z</time>
      </trkpt>
      <trkpt lat="48.68829" lon="2.0049">
        <ele>155.39</ele>
        <time>2011-05-21T08:50:27Z</time>
      </trkpt>
      <trkpt lat="48.68827" lon="2.00496">
        <ele>154.91</ele>
        <time>2011-05-21T08:50:28Z</time>
      </trkpt>
      <trkpt lat="48.68825" lon="2.00503">
        <ele>154.91</ele>
        <time>2011-05-21T08:50:29Z</time>
      </trkpt>
      <trkpt lat="48.68824" lon="2.00511">
        <ele>154.43</ele>
        <time>2011-05-21T08:50:30Z</time>
      </trkpt>
      <trkpt lat="48.68823" lon="2.00519">
        <ele>153.95</ele>
        <time>2011-05-21T08:50:31Z</time>
      </trkpt>
      <trkpt lat="48.6882" lon="2.00526">
        <ele>154.43</ele>
        <time>2011-05-21T08:50:32Z</time>
      </trkpt>
      <trkpt lat="48.68818" lon="2.00533">
        <ele>153.95</ele>
        <time>2011-05-21T08:50:33Z</time>
      </trkpt>
      <trkpt lat="48.68814" lon="2.0054">
        <ele>153.95</ele>
        <time>2011-05-21T08:50:34Z</time>
      </trkpt>
      <trkpt lat="48.68811" lon="2.00548">
        <ele>154.43</ele>
        <time>2011-05-21T08:50:35Z</time>
      </trkpt>
      <trkpt lat="48.68809" lon="2.00555">
        <ele>153.95</ele>
        <time>2011-05-21T08:50:36Z</time>
      </trkpt>
      <trkpt lat="48.68807" lon="2.00563">
        <ele>153.95</ele>
        <time>2011-05-21T08:50:37Z</time>
      </trkpt>
      <trkpt lat="48.68804" lon="2.00572">
        <ele>153.95</ele>
        <time>2011-05-21T08:50:38Z</time>
      </trkpt>
      <trkpt lat="48.68802" lon="2.00581">
        <ele>153.47</ele>
        <time>2011-05-21T08:50:39Z</time>
      </trkpt>
      <trkpt lat="48.68796" lon="2.00606">
        <ele>152.99</ele>
        <time>2011-05-21T08:50:42Z</time>
      </trkpt>
      <trkpt lat="48.68765" lon="2.00706">
        <ele>152.99</ele>
        <time>2011-05-21T08:50:52Z</time>
      </trkpt>
      <trkpt lat="48.68754" lon="2.00739">
        <ele>150.58</ele>
        <time>2011-05-21T08:50:56Z</time>
      </trkpt>
      <trkpt lat="48.68751" lon="2.00746">
        <ele>150.1</ele>
        <time>2011-05-21T08:50:57Z</time>
      </trkpt>
      <trkpt lat="48.68741" lon="2.00788">
        <ele>147.22</ele>
        <time>2011-05-21T08:51:03Z</time>
      </trkpt>
      <trkpt lat="48.68741" lon="2.00796">
        <ele>146.26</ele>
        <time>2011-05-21T08:51:04Z</time>
      </trkpt>
      <trkpt lat="48.68745" lon="2.00824">
        <ele>143.85</ele>
        <time>2011-05-21T08:51:09Z</time>
      </trkpt>
      <trkpt lat="48.68747" lon="2.00836">
        <ele>142.89</ele>
        <time>2011-05-21T08:51:10Z</time>
      </trkpt>
      <trkpt lat="48.68758" lon="2.00866">
        <ele>139.53</ele>
        <time>2011-05-21T08:51:13Z</time>
      </trkpt>
      <trkpt lat="48.68772" lon="2.00905">
        <ele>136.16</ele>
        <time>2011-05-21T08:51:17Z</time>
      </trkpt>
      <trkpt lat="48.68783" lon="2.00937">
        <ele>133.28</ele>
        <time>2011-05-21T08:51:20Z</time>
      </trkpt>
      <trkpt lat="48.68786" lon="2.00948">
        <ele>132.32</ele>
        <time>2011-05-21T08:51:21Z</time>
      </trkpt>
      <trkpt lat="48.68797" lon="2.00979">
        <ele>129.43</ele>
        <time>2011-05-21T08:51:26Z</time>
      </trkpt>
      <trkpt lat="48.68807" lon="2.00993">
        <ele>127.51</ele>
        <time>2011-05-21T08:51:30Z</time>
      </trkpt>
      <trkpt lat="48.68816" lon="2.01015">
        <ele>125.59</ele>
        <time>2011-05-21T08:51:34Z</time>
      </trkpt>
      <trkpt lat="48.68818" lon="2.01025">
        <ele>124.63</ele>
        <time>2011-05-21T08:51:35Z</time>
      </trkpt>
      <trkpt lat="48.68829" lon="2.01067">
        <ele>122.71</ele>
        <time>2011-05-21T08:51:40Z</time>
      </trkpt>
      <trkpt lat="48.68832" lon="2.01074">
        <ele>122.22</ele>
        <time>2011-05-21T08:51:41Z</time>
      </trkpt>
      <trkpt lat="48.68835" lon="2.01081">
        <ele>121.74</ele>
        <time>2011-05-21T08:51:42Z</time>
      </trkpt>
      <trkpt lat="48.68839" lon="2.01088">
        <ele>121.26</ele>
        <time>2011-05-21T08:51:43Z</time>
      </trkpt>
      <trkpt lat="48.68842" lon="2.01095">
        <ele>120.3</ele>
        <time>2011-05-21T08:51:44Z</time>
      </trkpt>
      <trkpt lat="48.68845" lon="2.01104">
        <ele>119.82</ele>
        <time>2011-05-21T08:51:45Z</time>
      </trkpt>
      <trkpt lat="48.68851" lon="2.01113">
        <ele>118.86</ele>
        <time>2011-05-21T08:51:46Z</time>
      </trkpt>
      <trkpt lat="48.68856" lon="2.01123">
        <ele>119.34</ele>
        <time>2011-05-21T08:51:47Z</time>
      </trkpt>
      <trkpt lat="48.68883" lon="2.0119">
        <ele>115.5</ele>
        <time>2011-05-21T08:51:54Z</time>
      </trkpt>
      <trkpt lat="48.68929" lon="2.01303">
        <ele>113.57</ele>
        <time>2011-05-21T08:52:06Z</time>
      </trkpt>
      <trkpt lat="48.68949" lon="2.01353">
        <ele>110.69</ele>
        <time>2011-05-21T08:52:11Z</time>
      </trkpt>
      <trkpt lat="48.68994" lon="2.01461">
        <ele>108.77</ele>
        <time>2011-05-21T08:52:23Z</time>
      </trkpt>
      <trkpt lat="48.69011" lon="2.01468">
        <ele>110.21</ele>
        <time>2011-05-21T08:52:29Z</time>
      </trkpt>
      <trkpt lat="48.69017" lon="2.01464">
        <ele>110.69</ele>
        <time>2011-05-21T08:52:40Z</time>
      </trkpt>
      <trkpt lat="48.69017" lon="2.01464">
        <ele>110.21</ele>
        <time>2011-05-21T08:53:05Z</time>
      </trkpt>
      <trkpt lat="48.69017" lon="2.01464">
        <ele>110.21</ele>
        <time>2011-05-21T08:53:32Z</time>
      </trkpt>
      <trkpt lat="48.69017" lon="2.01464">
        <ele>110.21</ele>
        <time>2011-05-21T08:54:00Z</time>
      </trkpt>
      <trkpt lat="48.69017" lon="2.01464">
        <ele>109.73</ele>
        <time>2011-05-21T08:54:29Z</time>
      </trkpt>
      <trkpt lat="48.69017" lon="2.01464">
        <ele>110.21</ele>
        <time>2011-05-21T08:54:57Z</time>
      </trkpt>
      <trkpt lat="48.69017" lon="2.01464">
        <ele>110.69</ele>
        <time>2011-05-21T08:55:29Z</time>
      </trkpt>
      <trkpt lat="48.69017" lon="2.01463">
        <ele>110.69</ele>
        <time>2011-05-21T08:56:01Z</time>
      </trkpt>
      <trkpt lat="48.69017" lon="2.01463">
        <ele>110.69</ele>
        <time>2011-05-21T08:56:30Z</time>
      </trkpt>
      <trkpt lat="48.69017" lon="2.01464">
        <ele>110.69</ele>
        <time>2011-05-21T08:56:56Z</time>
      </trkpt>
      <trkpt lat="48.69017" lon="2.01464">
        <ele>110.69</ele>
        <time>2011-05-21T08:57:26Z</time>
      </trkpt>
      <trkpt lat="48.69017" lon="2.01464">
        <ele>110.69</ele>
        <time>2011-05-21T08:57:53Z</time>
      </trkpt>
      <trkpt lat="48.69017" lon="2.01464">
        <ele>110.69</ele>
        <time>2011-05-21T08:58:23Z</time>
      </trkpt>
      <trkpt lat="48.69017" lon="2.01464">
        <ele>110.21</ele>
        <time>2011-05-21T08:58:52Z</time>
      </trkpt>
      <trkpt lat="48.69017" lon="2.01464">
        <ele>110.21</ele>
        <time>2011-05-21T08:59:20Z</time>
      </trkpt>
      <trkpt lat="48.69017" lon="2.01464">
        <ele>110.21</ele>
        <time>2011-05-21T08:59:50Z</time>
      </trkpt>
      <trkpt lat="48.69017" lon="2.01463">
        <ele>110.69</ele>
        <time>2011-05-21T09:00:20Z</time>
      </trkpt>
      <trkpt lat="48.69017" lon="2.01463">
        <ele>110.21</ele>
        <time>2011-05-21T09:00:49Z</time>
      </trkpt>
      <trkpt lat="48.69017" lon="2.01463">
        <ele>110.69</ele>
        <time>2011-05-21T09:01:14Z</time>
      </trkpt>
      <trkpt lat="48.69017" lon="2.01464">
        <ele>110.21</ele>
        <time>2011-05-21T09:01:41Z</time>
      </trkpt>
      <trkpt lat="48.69017" lon="2.01463">
        <ele>110.69</ele>
        <time>2011-05-21T09:02:10Z</time>
      </trkpt>
      <trkpt lat="48.69016" lon="2.01462">
        <ele>110.21</ele>
        <time>2011-05-21T09:02:43Z</time>
      </trkpt>
      <trkpt lat="48.69016" lon="2.01462">
        <ele>110.69</ele>
        <time>2011-05-21T09:03:17Z</time>
      </trkpt>
      <trkpt lat="48.69016" lon="2.01462">
        <ele>110.21</ele>
        <time>2011-05-21T09:03:52Z</time>
      </trkpt>
      <trkpt lat="48.69017" lon="2.01462">
        <ele>110.69</ele>
        <time>2011-05-21T09:04:20Z</time>
      </trkpt>
      <trkpt lat="48.69016" lon="2.01462">
        <ele>110.21</ele>
        <time>2011-05-21T09:04:52Z</time>
      </trkpt>
      <trkpt lat="48.69016" lon="2.01462">
        <ele>110.21</ele>
        <time>2011-05-21T09:05:19Z</time>
      </trkpt>
      <trkpt lat="48.69016" lon="2.01462">
        <ele>110.21</ele>
        <time>2011-05-21T09:05:50Z</time>
      </trkpt>
      <trkpt lat="48.69017" lon="2.01463">
        <ele>110.21</ele>
        <time>2011-05-21T09:06:23Z</time>
      </trkpt>
      <trkpt lat="48.69016" lon="2.01463">
        <ele>110.21</ele>
        <time>2011-05-21T09:06:56Z</time>
      </trkpt>
      <trkpt lat="48.69016" lon="2.01465">
        <ele>110.21</ele>
        <time>2011-05-21T09:07:09Z</time>
      </trkpt>
      <trkpt lat="48.69016" lon="2.01465">
        <ele>110.21</ele>
        <time>2011-05-21T09:07:14Z</time>
      </trkpt>
      <trkpt lat="48.69016" lon="2.01468">
        <ele>110.21</ele>
        <time>2011-05-21T09:07:15Z</time>
      </trkpt>
      <trkpt lat="48.69017" lon="2.0147">
        <ele>110.21</ele>
        <time>2011-05-21T09:07:16Z</time>
      </trkpt>
      <trkpt lat="48.69017" lon="2.01472">
        <ele>110.21</ele>
        <time>2011-05-21T09:07:17Z</time>
      </trkpt>
      <trkpt lat="48.69019" lon="2.01476">
        <ele>109.73</ele>
        <time>2011-05-21T09:07:18Z</time>
      </trkpt>
      <trkpt lat="48.69021" lon="2.01479">
        <ele>109.73</ele>
        <time>2011-05-21T09:07:19Z</time>
      </trkpt>
      <trkpt lat="48.69024" lon="2.01482">
        <ele>109.25</ele>
        <time>2011-05-21T09:07:20Z</time>
      </trkpt>
      <trkpt lat="48.69064" lon="2.01523">
        <ele>109.25</ele>
        <time>2011-05-21T09:07:34Z</time>
      </trkpt>
      <trkpt lat="48.69067" lon="2.01534">
        <ele>108.77</ele>
        <time>2011-05-21T09:07:36Z</time>
      </trkpt>
      <trkpt lat="48.69066" lon="2.0154">
        <ele>108.29</ele>
        <time>2011-05-21T09:07:37Z</time>
      </trkpt>
      <trkpt lat="48.69064" lon="2.01547">
        <ele>107.81</ele>
        <time>2011-05-21T09:07:38Z</time>
      </trkpt>
      <trkpt lat="48.69061" lon="2.01554">
        <ele>107.32</ele>
        <time>2011-05-21T09:07:39Z</time>
      </trkpt>
      <trkpt lat="48.69056" lon="2.01561">
        <ele>107.32</ele>
        <time>2011-05-21T09:07:40Z</time>
      </trkpt>
      <trkpt lat="48.69051" lon="2.01566">
        <ele>106.36</ele>
        <time>2011-05-21T09:07:41Z</time>
      </trkpt>
      <trkpt lat="48.69046" lon="2.01571">
        <ele>106.84</ele>
        <time>2011-05-21T09:07:42Z</time>
      </trkpt>
      <trkpt lat="48.68999" lon="2.01607">
        <ele>104.44</ele>
        <time>2011-05-21T09:07:50Z</time>
      </trkpt>
      <trkpt lat="48.68988" lon="2.01618">
        <ele>104.44</ele>
        <time>2011-05-21T09:07:52Z</time>
      </trkpt>
      <trkpt lat="48.68961" lon="2.0164">
        <ele>104.44</ele>
        <time>2011-05-21T09:07:57Z</time>
      </trkpt>
      <trkpt lat="48.68891" lon="2.01676">
        <ele>104.44</ele>
        <time>2011-05-21T09:08:11Z</time>
      </trkpt>
      <trkpt lat="48.68856" lon="2.01696">
        <ele>105.88</ele>
        <time>2011-05-21T09:08:19Z</time>
      </trkpt>
      <trkpt lat="48.68852" lon="2.017">
        <ele>106.36</ele>
        <time>2011-05-21T09:08:20Z</time>
      </trkpt>
      <trkpt lat="48.68842" lon="2.01711">
        <ele>106.36</ele>
        <time>2011-05-21T09:08:23Z</time>
      </trkpt>
      <trkpt lat="48.68803" lon="2.01766">
        <ele>109.25</ele>
        <time>2011-05-21T09:08:37Z</time>
      </trkpt>
      <trkpt lat="48.68765" lon="2.01816">
        <ele>111.65</ele>
        <time>2011-05-21T09:08:51Z</time>
      </trkpt>
      <trkpt lat="48.68744" lon="2.01836">
        <ele>110.69</ele>
        <time>2011-05-21T09:08:57Z</time>
      </trkpt>
      <trkpt lat="48.6872" lon="2.01856">
        <ele>111.65</ele>
        <time>2011-05-21T09:09:04Z</time>
      </trkpt>
      <trkpt lat="48.68719" lon="2.01861">
        <ele>111.17</ele>
        <time>2011-05-21T09:09:05Z</time>
      </trkpt>
      <trkpt lat="48.6872" lon="2.01866">
        <ele>111.17</ele>
        <time>2011-05-21T09:09:06Z</time>
      </trkpt>
      <trkpt lat="48.68723" lon="2.01871">
        <ele>111.65</ele>
        <time>2011-05-21T09:09:07Z</time>
      </trkpt>
      <trkpt lat="48.68726" lon="2.01872">
        <ele>111.17</ele>
        <time>2011-05-21T09:09:08Z</time>
      </trkpt>
      <trkpt lat="48.68729" lon="2.01871">
        <ele>111.17</ele>
        <time>2011-05-21T09:09:09Z</time>
      </trkpt>
      <trkpt lat="48.68733" lon="2.01868">
        <ele>111.17</ele>
        <time>2011-05-21T09:09:10Z</time>
      </trkpt>
      <trkpt lat="48.68736" lon="2.01864">
        <ele>110.69</ele>
        <time>2011-05-21T09:09:11Z</time>
      </trkpt>
      <trkpt lat="48.68758" lon="2.01867">
        <ele>108.29</ele>
        <time>2011-05-21T09:09:16Z</time>
      </trkpt>
      <trkpt lat="48.68763" lon="2.01871">
        <ele>106.84</ele>
        <time>2011-05-21T09:09:17Z</time>
      </trkpt>
      <trkpt lat="48.68769" lon="2.01877">
        <ele>105.88</ele>
        <time>2011-05-21T09:09:18Z</time>
      </trkpt>
      <trkpt lat="48.68774" lon="2.01884">
        <ele>105.4</ele>
        <time>2011-05-21T09:09:19Z</time>
      </trkpt>
      <trkpt lat="48.68779" lon="2.01893">
        <ele>104.44</ele>
        <time>2011-05-21T09:09:20Z</time>
      </trkpt>
      <trkpt lat="48.68782" lon="2.01915">
        <ele>103.96</ele>
        <time>2011-05-21T09:09:21Z</time>
      </trkpt>
      <trkpt lat="48.68786" lon="2.01932">
        <ele>103.48</ele>
        <time>2011-05-21T09:09:22Z</time>
      </trkpt>
      <trkpt lat="48.68789" lon="2.01948">
        <ele>103</ele>
        <time>2011-05-21T09:09:23Z</time>
      </trkpt>
      <trkpt lat="48.68792" lon="2.01961">
        <ele>103</ele>
        <time>2011-05-21T09:09:24Z</time>
      </trkpt>
      <trkpt lat="48.68796" lon="2.01974">
        <ele>102.52</ele>
        <time>2011-05-21T09:09:25Z</time>
      </trkpt>
      <trkpt lat="48.68799" lon="2.01986">
        <ele>103</ele>
        <time>2011-05-21T09:09:26Z</time>
      </trkpt>
      <trkpt lat="48.68802" lon="2.01998">
        <ele>102.52</ele>
        <time>2011-05-21T09:09:27Z</time>
      </trkpt>
      <trkpt lat="48.68804" lon="2.0201">
        <ele>103</ele>
        <time>2011-05-21T09:09:28Z</time>
      </trkpt>
      <trkpt lat="48.68815" lon="2.0205">
        <ele>103.96</ele>
        <time>2011-05-21T09:09:32Z</time>
      </trkpt>
      <trkpt lat="48.68838" lon="2.02099">
        <ele>106.36</ele>
        <time>2011-05-21T09:09:41Z</time>
      </trkpt>
      <trkpt lat="48.68841" lon="2.02099">
        <ele>106.84</ele>
        <time>2011-05-21T09:09:42Z</time>
      </trkpt>
      <trkpt lat="48.68843" lon="2.02098">
        <ele>107.32</ele>
        <time>2011-05-21T09:09:43Z</time>
      </trkpt>
      <trkpt lat="48.68847" lon="2.02099">
        <ele>108.29</ele>
        <time>2011-05-21T09:09:45Z</time>
      </trkpt>
      <trkpt lat="48.68849" lon="2.021">
        <ele>108.77</ele>
        <time>2011-05-21T09:09:46Z</time>
      </trkpt>
      <trkpt lat="48.6885" lon="2.021">
        <ele>108.77</ele>
        <time>2011-05-21T09:09:47Z</time>
      </trkpt>
      <trkpt lat="48.68852" lon="2.021">
        <ele>109.25</ele>
        <time>2011-05-21T09:09:48Z</time>
      </trkpt>
      <trkpt lat="48.68853" lon="2.02101">
        <ele>109.73</ele>
        <time>2011-05-21T09:09:49Z</time>
      </trkpt>
      <trkpt lat="48.68855" lon="2.02101">
        <ele>110.69</ele>
        <time>2011-05-21T09:09:50Z</time>
      </trkpt>
      <trkpt lat="48.68856" lon="2.02103">
        <ele>110.69</ele>
        <time>2011-05-21T09:09:51Z</time>
      </trkpt>
      <trkpt lat="48.68866" lon="2.02106">
        <ele>114.05</ele>
        <time>2011-05-21T09:10:00Z</time>
      </trkpt>
      <trkpt lat="48.68868" lon="2.02106">
        <ele>114.05</ele>
        <time>2011-05-21T09:10:01Z</time>
      </trkpt>
      <trkpt lat="48.68881" lon="2.02107">
        <ele>115.01</ele>
        <time>2011-05-21T09:10:09Z</time>
      </trkpt>
      <trkpt lat="48.6889" lon="2.02114">
        <ele>116.46</ele>
        <time>2011-05-21T09:10:16Z</time>
      </trkpt>
      <trkpt lat="48.68892" lon="2.02119">
        <ele>118.38</ele>
        <time>2011-05-21T09:10:19Z</time>
      </trkpt>
      <trkpt lat="48.68898" lon="2.02127">
        <ele>119.82</ele>
        <time>2011-05-21T09:10:24Z</time>
      </trkpt>
      <trkpt lat="48.68911" lon="2.02134">
        <ele>120.78</ele>
        <time>2011-05-21T09:10:36Z</time>
      </trkpt>
      <trkpt lat="48.68921" lon="2.02145">
        <ele>121.74</ele>
        <time>2011-05-21T09:10:41Z</time>
      </trkpt>
      <trkpt lat="48.6894" lon="2.02165">
        <ele>124.63</ele>
        <time>2011-05-21T09:10:53Z</time>
      </trkpt>
      <trkpt lat="48.68942" lon="2.0217">
        <ele>125.11</ele>
        <time>2011-05-21T09:10:56Z</time>
      </trkpt>
      <trkpt lat="48.6896" lon="2.02186">
        <ele>128.47</ele>
        <time>2011-05-21T09:11:08Z</time>
      </trkpt>
      <trkpt lat="48.68962" lon="2.0219">
        <ele>128.95</ele>
        <time>2011-05-21T09:11:11Z</time>
      </trkpt>
      <trkpt lat="48.68961" lon="2.02194">
        <ele>129.92</ele>
        <time>2011-05-21T09:11:14Z</time>
      </trkpt>
      <trkpt lat="48.68961" lon="2.02198">
        <ele>129.92</ele>
        <time>2011-05-21T09:11:16Z</time>
      </trkpt>
      <trkpt lat="48.68959" lon="2.02215">
        <ele>131.36</ele>
        <time>2011-05-21T09:11:23Z</time>
      </trkpt>
      <trkpt lat="48.68967" lon="2.02229">
        <ele>132.32</ele>
        <time>2011-05-21T09:11:30Z</time>
      </trkpt>
      <trkpt lat="48.68969" lon="2.02234">
        <ele>132.32</ele>
        <time>2011-05-21T09:11:33Z</time>
      </trkpt>
      <trkpt lat="48.68984" lon="2.02254">
        <ele>133.76</ele>
        <time>2011-05-21T09:11:46Z</time>
      </trkpt>
      <trkpt lat="48.68997" lon="2.02283">
        <ele>135.68</ele>
        <time>2011-05-21T09:11:59Z</time>
      </trkpt>
      <trkpt lat="48.69001" lon="2.02292">
        <ele>138.09</ele>
        <time>2011-05-21T09:12:03Z</time>
      </trkpt>
      <trkpt lat="48.69004" lon="2.02303">
        <ele>139.05</ele>
        <time>2011-05-21T09:12:09Z</time>
      </trkpt>
      <trkpt lat="48.68999" lon="2.02316">
        <ele>141.45</ele>
        <time>2011-05-21T09:12:18Z</time>
      </trkpt>
      <trkpt lat="48.68995" lon="2.0232">
        <ele>142.89</ele>
        <time>2011-05-21T09:12:22Z</time>
      </trkpt>
      <trkpt lat="48.68993" lon="2.02321">
        <ele>147.7</ele>
        <time>2011-05-21T09:12:25Z</time>
      </trkpt>
      <trkpt lat="48.68993" lon="2.02321">
        <ele>143.37</ele>
        <time>2011-05-21T09:12:26Z</time>
      </trkpt>
      <trkpt lat="48.68989" lon="2.02325">
        <ele>144.82</ele>
        <time>2011-05-21T09:12:44Z</time>
      </trkpt>
      <trkpt lat="48.68983" lon="2.02331">
        <ele>147.7</ele>
        <time>2011-05-21T09:12:57Z</time>
      </trkpt>
      <trkpt lat="48.68974" lon="2.02337">
        <ele>150.1</ele>
        <time>2011-05-21T09:13:11Z</time>
      </trkpt>
      <trkpt lat="48.68968" lon="2.02348">
        <ele>150.58</ele>
        <time>2011-05-21T09:13:24Z</time>
      </trkpt>
      <trkpt lat="48.68966" lon="2.02353">
        <ele>151.06</ele>
        <time>2011-05-21T09:13:28Z</time>
      </trkpt>
      <trkpt lat="48.68965" lon="2.02364">
        <ele>152.03</ele>
        <time>2011-05-21T09:13:42Z</time>
      </trkpt>
      <trkpt lat="48.68965" lon="2.02364">
        <ele>152.03</ele>
        <time>2011-05-21T09:14:02Z</time>
      </trkpt>
      <trkpt lat="48.68968" lon="2.0237">
        <ele>151.06</ele>
        <time>2011-05-21T09:14:06Z</time>
      </trkpt>
      <trkpt lat="48.68992" lon="2.02403">
        <ele>151.06</ele>
        <time>2011-05-21T09:14:21Z</time>
      </trkpt>
      <trkpt lat="48.69013" lon="2.02451">
        <ele>151.06</ele>
        <time>2011-05-21T09:14:34Z</time>
      </trkpt>
      <trkpt lat="48.69053" lon="2.02517">
        <ele>148.18</ele>
        <time>2011-05-21T09:14:48Z</time>
      </trkpt>
      <trkpt lat="48.69072" lon="2.02541">
        <ele>145.3</ele>
        <time>2011-05-21T09:14:53Z</time>
      </trkpt>
      <trkpt lat="48.69135" lon="2.02627">
        <ele>143.85</ele>
        <time>2011-05-21T09:15:07Z</time>
      </trkpt>
      <trkpt lat="48.69159" lon="2.02686">
        <ele>141.93</ele>
        <time>2011-05-21T09:15:19Z</time>
      </trkpt>
      <trkpt lat="48.69193" lon="2.02763">
        <ele>140.97</ele>
        <time>2011-05-21T09:15:32Z</time>
      </trkpt>
      <trkpt lat="48.69215" lon="2.02826">
        <ele>140.49</ele>
        <time>2011-05-21T09:15:43Z</time>
      </trkpt>
      <trkpt lat="48.69209" lon="2.0289">
        <ele>141.45</ele>
        <time>2011-05-21T09:15:56Z</time>
      </trkpt>
      <trkpt lat="48.69218" lon="2.02985">
        <ele>142.41</ele>
        <time>2011-05-21T09:16:07Z</time>
      </trkpt>
      <trkpt lat="48.69217" lon="2.03072">
        <ele>145.3</ele>
        <time>2011-05-21T09:16:21Z</time>
      </trkpt>
      <trkpt lat="48.69213" lon="2.03072">
        <ele>145.3</ele>
        <time>2011-05-21T09:16:23Z</time>
      </trkpt>
      <trkpt lat="48.69195" lon="2.03082">
        <ele>146.74</ele>
        <time>2011-05-21T09:16:37Z</time>
      </trkpt>
      <trkpt lat="48.69194" lon="2.03083">
        <ele>146.74</ele>
        <time>2011-05-21T09:16:38Z</time>
      </trkpt>
      <trkpt lat="48.69189" lon="2.03087">
        <ele>147.22</ele>
        <time>2011-05-21T09:16:44Z</time>
      </trkpt>
      <trkpt lat="48.69186" lon="2.03088">
        <ele>148.18</ele>
        <time>2011-05-21T09:16:45Z</time>
      </trkpt>
      <trkpt lat="48.69184" lon="2.03089">
        <ele>148.18</ele>
        <time>2011-05-21T09:16:46Z</time>
      </trkpt>
      <trkpt lat="48.69181" lon="2.03089">
        <ele>148.18</ele>
        <time>2011-05-21T09:16:47Z</time>
      </trkpt>
      <trkpt lat="48.69178" lon="2.0309">
        <ele>148.66</ele>
        <time>2011-05-21T09:16:48Z</time>
      </trkpt>
      <trkpt lat="48.69175" lon="2.03092">
        <ele>148.66</ele>
        <time>2011-05-21T09:16:49Z</time>
      </trkpt>
      <trkpt lat="48.6914" lon="2.03111">
        <ele>150.58</ele>
        <time>2011-05-21T09:17:03Z</time>
      </trkpt>
      <trkpt lat="48.6914" lon="2.03121">
        <ele>150.58</ele>
        <time>2011-05-21T09:17:14Z</time>
      </trkpt>
      <trkpt lat="48.6914" lon="2.03124">
        <ele>151.06</ele>
        <time>2011-05-21T09:17:15Z</time>
      </trkpt>
      <trkpt lat="48.69145" lon="2.03188">
        <ele>151.06</ele>
        <time>2011-05-21T09:17:30Z</time>
      </trkpt>
      <trkpt lat="48.69144" lon="2.03252">
        <ele>152.03</ele>
        <time>2011-05-21T09:17:43Z</time>
      </trkpt>
      <trkpt lat="48.69134" lon="2.03326">
        <ele>153.47</ele>
        <time>2011-05-21T09:17:57Z</time>
      </trkpt>
      <trkpt lat="48.6912" lon="2.03395">
        <ele>152.99</ele>
        <time>2011-05-21T09:18:11Z</time>
      </trkpt>
      <trkpt lat="48.6913" lon="2.03452">
        <ele>152.99</ele>
        <time>2011-05-21T09:18:21Z</time>
      </trkpt>
      <trkpt lat="48.69133" lon="2.03457">
        <ele>152.51</ele>
        <time>2011-05-21T09:18:22Z</time>
      </trkpt>
      <trkpt lat="48.69164" lon="2.03497">
        <ele>151.06</ele>
        <time>2011-05-21T09:18:30Z</time>
      </trkpt>
      <trkpt lat="48.69169" lon="2.035">
        <ele>151.54</ele>
        <time>2011-05-21T09:18:31Z</time>
      </trkpt>
      <trkpt lat="48.69183" lon="2.03507">
        <ele>151.06</ele>
        <time>2011-05-21T09:18:34Z</time>
      </trkpt>
      <trkpt lat="48.69198" lon="2.03517">
        <ele>151.06</ele>
        <time>2011-05-21T09:18:37Z</time>
      </trkpt>
      <trkpt lat="48.69203" lon="2.03521">
        <ele>150.58</ele>
        <time>2011-05-21T09:18:38Z</time>
      </trkpt>
      <trkpt lat="48.69272" lon="2.03568">
        <ele>147.22</ele>
        <time>2011-05-21T09:18:50Z</time>
      </trkpt>
      <trkpt lat="48.69341" lon="2.03616">
        <ele>145.78</ele>
        <time>2011-05-21T09:19:00Z</time>
      </trkpt>
      <trkpt lat="48.69392" lon="2.03652">
        <ele>149.14</ele>
        <time>2011-05-21T09:19:07Z</time>
      </trkpt>
      <trkpt lat="48.69416" lon="2.03672">
        <ele>152.51</ele>
        <time>2011-05-21T09:19:13Z</time>
      </trkpt>
      <trkpt lat="48.69434" lon="2.03684">
        <ele>153.47</ele>
        <time>2011-05-21T09:19:21Z</time>
      </trkpt>
      <trkpt lat="48.69448" lon="2.0369">
        <ele>154.43</ele>
        <time>2011-05-21T09:19:30Z</time>
      </trkpt>
      <trkpt lat="48.6945" lon="2.03689">
        <ele>154.43</ele>
        <time>2011-05-21T09:19:31Z</time>
      </trkpt>
      <trkpt lat="48.69452" lon="2.03686">
        <ele>154.43</ele>
        <time>2011-05-21T09:19:32Z</time>
      </trkpt>
      <trkpt lat="48.69455" lon="2.03684">
        <ele>154.43</ele>
        <time>2011-05-21T09:19:33Z</time>
      </trkpt>
      <trkpt lat="48.69457" lon="2.03682">
        <ele>154.91</ele>
        <time>2011-05-21T09:19:34Z</time>
      </trkpt>
      <trkpt lat="48.6946" lon="2.0368">
        <ele>154.91</ele>
        <time>2011-05-21T09:19:35Z</time>
      </trkpt>
      <trkpt lat="48.69464" lon="2.03678">
        <ele>154.91</ele>
        <time>2011-05-21T09:19:36Z</time>
      </trkpt>
      <trkpt lat="48.69486" lon="2.03676">
        <ele>155.39</ele>
        <time>2011-05-21T09:19:44Z</time>
      </trkpt>
      <trkpt lat="48.69508" lon="2.03671">
        <ele>156.83</ele>
        <time>2011-05-21T09:19:52Z</time>
      </trkpt>
      <trkpt lat="48.69519" lon="2.03668">
        <ele>156.83</ele>
        <time>2011-05-21T09:19:55Z</time>
      </trkpt>
      <trkpt lat="48.69523" lon="2.03669">
        <ele>156.83</ele>
        <time>2011-05-21T09:19:56Z</time>
      </trkpt>
      <trkpt lat="48.69525" lon="2.03669">
        <ele>156.83</ele>
        <time>2011-05-21T09:19:57Z</time>
      </trkpt>
      <trkpt lat="48.6953" lon="2.03667">
        <ele>157.31</ele>
        <time>2011-05-21T09:19:59Z</time>
      </trkpt>
      <trkpt lat="48.69566" lon="2.03638">
        <ele>157.79</ele>
        <time>2011-05-21T09:20:10Z</time>
      </trkpt>
      <trkpt lat="48.69623" lon="2.03602">
        <ele>157.79</ele>
        <time>2011-05-21T09:20:23Z</time>
      </trkpt>
      <trkpt lat="48.69667" lon="2.03578">
        <ele>157.31</ele>
        <time>2011-05-21T09:20:37Z</time>
      </trkpt>
      <trkpt lat="48.69667" lon="2.03595">
        <ele>157.31</ele>
        <time>2011-05-21T09:20:42Z</time>
      </trkpt>
      <trkpt lat="48.69667" lon="2.03597">
        <ele>157.79</ele>
        <time>2011-05-21T09:20:43Z</time>
      </trkpt>
      <trkpt lat="48.69667" lon="2.03602">
        <ele>157.79</ele>
        <time>2011-05-21T09:20:44Z</time>
      </trkpt>
      <trkpt lat="48.69667" lon="2.03607">
        <ele>158.27</ele>
        <time>2011-05-21T09:20:45Z</time>
      </trkpt>
      <trkpt lat="48.69665" lon="2.03615">
        <ele>158.27</ele>
        <time>2011-05-21T09:20:46Z</time>
      </trkpt>
      <trkpt lat="48.69664" lon="2.03623">
        <ele>158.27</ele>
        <time>2011-05-21T09:20:47Z</time>
      </trkpt>
      <trkpt lat="48.69659" lon="2.03702">
        <ele>159.24</ele>
        <time>2011-05-21T09:21:00Z</time>
      </trkpt>
      <trkpt lat="48.69654" lon="2.03796">
        <ele>160.2</ele>
        <time>2011-05-21T09:21:14Z</time>
      </trkpt>
      <trkpt lat="48.69666" lon="2.03862">
        <ele>160.68</ele>
        <time>2011-05-21T09:21:28Z</time>
      </trkpt>
      <trkpt lat="48.69709" lon="2.03882">
        <ele>160.2</ele>
        <time>2011-05-21T09:21:39Z</time>
      </trkpt>
      <trkpt lat="48.69725" lon="2.0389">
        <ele>160.2</ele>
        <time>2011-05-21T09:21:42Z</time>
      </trkpt>
      <trkpt lat="48.69788" lon="2.0393">
        <ele>157.79</ele>
        <time>2011-05-21T09:21:56Z</time>
      </trkpt>
      <trkpt lat="48.69803" lon="2.03942">
        <ele>154.43</ele>
        <time>2011-05-21T09:21:59Z</time>
      </trkpt>
      <trkpt lat="48.69818" lon="2.03954">
        <ele>151.54</ele>
        <time>2011-05-21T09:22:02Z</time>
      </trkpt>
      <trkpt lat="48.69843" lon="2.03972">
        <ele>147.22</ele>
        <time>2011-05-21T09:22:05Z</time>
      </trkpt>
      <trkpt lat="48.69868" lon="2.03986">
        <ele>143.37</ele>
        <time>2011-05-21T09:22:08Z</time>
      </trkpt>
      <trkpt lat="48.69885" lon="2.03996">
        <ele>138.09</ele>
        <time>2011-05-21T09:22:10Z</time>
      </trkpt>
      <trkpt lat="48.69903" lon="2.04006">
        <ele>134.72</ele>
        <time>2011-05-21T09:22:12Z</time>
      </trkpt>
      <trkpt lat="48.69932" lon="2.04023">
        <ele>131.84</ele>
        <time>2011-05-21T09:22:15Z</time>
      </trkpt>
      <trkpt lat="48.69941" lon="2.04028">
        <ele>131.36</ele>
        <time>2011-05-21T09:22:16Z</time>
      </trkpt>
      <trkpt lat="48.69947" lon="2.0403">
        <ele>130.4</ele>
        <time>2011-05-21T09:22:17Z</time>
      </trkpt>
      <trkpt lat="48.69952" lon="2.04032">
        <ele>128.95</ele>
        <time>2011-05-21T09:22:18Z</time>
      </trkpt>
      <trkpt lat="48.69958" lon="2.04034">
        <ele>128.47</ele>
        <time>2011-05-21T09:22:19Z</time>
      </trkpt>
      <trkpt lat="48.69964" lon="2.04038">
        <ele>127.03</ele>
        <time>2011-05-21T09:22:20Z</time>
      </trkpt>
      <trkpt lat="48.69982" lon="2.0405">
        <ele>123.19</ele>
        <time>2011-05-21T09:22:23Z</time>
      </trkpt>
      <trkpt lat="48.69994" lon="2.0406">
        <ele>121.26</ele>
        <time>2011-05-21T09:22:26Z</time>
      </trkpt>
      <trkpt lat="48.70002" lon="2.04065">
        <ele>119.82</ele>
        <time>2011-05-21T09:22:29Z</time>
      </trkpt>
      <trkpt lat="48.7001" lon="2.04065">
        <ele>117.9</ele>
        <time>2011-05-21T09:22:31Z</time>
      </trkpt>
      <trkpt lat="48.70017" lon="2.04066">
        <ele>117.42</ele>
        <time>2011-05-21T09:22:32Z</time>
      </trkpt>
      <trkpt lat="48.70023" lon="2.04067">
        <ele>116.46</ele>
        <time>2011-05-21T09:22:33Z</time>
      </trkpt>
      <trkpt lat="48.70028" lon="2.04069">
        <ele>115.98</ele>
        <time>2011-05-21T09:22:34Z</time>
      </trkpt>
      <trkpt lat="48.70032" lon="2.0407">
        <ele>115.01</ele>
        <time>2011-05-21T09:22:35Z</time>
      </trkpt>
      <trkpt lat="48.70048" lon="2.04075">
        <ele>110.69</ele>
        <time>2011-05-21T09:22:38Z</time>
      </trkpt>
      <trkpt lat="48.70079" lon="2.04076">
        <ele>107.32</ele>
        <time>2011-05-21T09:22:41Z</time>
      </trkpt>
      <trkpt lat="48.70131" lon="2.04068">
        <ele>103.96</ele>
        <time>2011-05-21T09:22:45Z</time>
      </trkpt>
      <trkpt lat="48.70155" lon="2.04064">
        <ele>101.08</ele>
        <time>2011-05-21T09:22:47Z</time>
      </trkpt>
      <trkpt lat="48.70167" lon="2.04063">
        <ele>100.11</ele>
        <time>2011-05-21T09:22:48Z</time>
      </trkpt>
      <trkpt lat="48.70215" lon="2.0405">
        <ele>96.27</ele>
        <time>2011-05-21T09:22:52Z</time>
      </trkpt>
      <trkpt lat="48.70272" lon="2.04033">
        <ele>92.9</ele>
        <time>2011-05-21T09:22:59Z</time>
      </trkpt>
      <trkpt lat="48.70279" lon="2.0403">
        <ele>92.42</ele>
        <time>2011-05-21T09:23:07Z</time>
      </trkpt>
      <trkpt lat="48.7028" lon="2.04029">
        <ele>92.42</ele>
        <time>2011-05-21T09:23:33Z</time>
      </trkpt>
      <trkpt lat="48.70282" lon="2.04028">
        <ele>91.94</ele>
        <time>2011-05-21T09:23:34Z</time>
      </trkpt>
      <trkpt lat="48.70283" lon="2.04028">
        <ele>92.42</ele>
        <time>2011-05-21T09:23:35Z</time>
      </trkpt>
      <trkpt lat="48.70284" lon="2.04027">
        <ele>91.94</ele>
        <time>2011-05-21T09:23:36Z</time>
      </trkpt>
      <trkpt lat="48.70285" lon="2.04026">
        <ele>91.94</ele>
        <time>2011-05-21T09:23:37Z</time>
      </trkpt>
      <trkpt lat="48.70287" lon="2.04025">
        <ele>91.46</ele>
        <time>2011-05-21T09:23:38Z</time>
      </trkpt>
      <trkpt lat="48.70318" lon="2.04">
        <ele>89.54</ele>
        <time>2011-05-21T09:23:49Z</time>
      </trkpt>
      <trkpt lat="48.70329" lon="2.03993">
        <ele>88.1</ele>
        <time>2011-05-21T09:23:52Z</time>
      </trkpt>
      <trkpt lat="48.70334" lon="2.03989">
        <ele>88.1</ele>
        <time>2011-05-21T09:23:53Z</time>
      </trkpt>
      <trkpt lat="48.70338" lon="2.03984">
        <ele>86.66</ele>
        <time>2011-05-21T09:23:54Z</time>
      </trkpt>
      <trkpt lat="48.70342" lon="2.03978">
        <ele>86.18</ele>
        <time>2011-05-21T09:23:55Z</time>
      </trkpt>
      <trkpt lat="48.70345" lon="2.03972">
        <ele>85.69</ele>
        <time>2011-05-21T09:23:56Z</time>
      </trkpt>
      <trkpt lat="48.70348" lon="2.03967">
        <ele>85.69</ele>
        <time>2011-05-21T09:23:57Z</time>
      </trkpt>
      <trkpt lat="48.70352" lon="2.03962">
        <ele>84.25</ele>
        <time>2011-05-21T09:23:58Z</time>
      </trkpt>
      <trkpt lat="48.70358" lon="2.03957">
        <ele>84.25</ele>
        <time>2011-05-21T09:23:59Z</time>
      </trkpt>
      <trkpt lat="48.70363" lon="2.03954">
        <ele>83.77</ele>
        <time>2011-05-21T09:24:00Z</time>
      </trkpt>
      <trkpt lat="48.7037" lon="2.03951">
        <ele>83.29</ele>
        <time>2011-05-21T09:24:01Z</time>
      </trkpt>
      <trkpt lat="48.70391" lon="2.03944">
        <ele>81.85</ele>
        <time>2011-05-21T09:24:04Z</time>
      </trkpt>
      <trkpt lat="48.70399" lon="2.03943">
        <ele>80.89</ele>
        <time>2011-05-21T09:24:05Z</time>
      </trkpt>
      <trkpt lat="48.70434" lon="2.03935">
        <ele>79.93</ele>
        <time>2011-05-21T09:24:12Z</time>
      </trkpt>
      <trkpt lat="48.70435" lon="2.03934">
        <ele>79.45</ele>
        <time>2011-05-21T09:24:13Z</time>
      </trkpt>
      <trkpt lat="48.70435" lon="2.03933">
        <ele>79.93</ele>
        <time>2011-05-21T09:24:27Z</time>
      </trkpt>
      <trkpt lat="48.70437" lon="2.03932">
        <ele>79.93</ele>
        <time>2011-05-21T09:24:37Z</time>
      </trkpt>
      <trkpt lat="48.70438" lon="2.0393">
        <ele>79.45</ele>
        <time>2011-05-21T09:24:38Z</time>
      </trkpt>
      <trkpt lat="48.70441" lon="2.03927">
        <ele>78.97</ele>
        <time>2011-05-21T09:24:39Z</time>
      </trkpt>
      <trkpt lat="48.70443" lon="2.03923">
        <ele>78.97</ele>
        <time>2011-05-21T09:24:40Z</time>
      </trkpt>
      <trkpt lat="48.70444" lon="2.03918">
        <ele>79.45</ele>
        <time>2011-05-21T09:24:41Z</time>
      </trkpt>
      <trkpt lat="48.70445" lon="2.03913">
        <ele>79.45</ele>
        <time>2011-05-21T09:24:42Z</time>
      </trkpt>
      <trkpt lat="48.70451" lon="2.03881">
        <ele>78.48</ele>
        <time>2011-05-21T09:24:48Z</time>
      </trkpt>
      <trkpt lat="48.70453" lon="2.03863">
        <ele>78.48</ele>
        <time>2011-05-21T09:24:51Z</time>
      </trkpt>
      <trkpt lat="48.70453" lon="2.0385">
        <ele>78.48</ele>
        <time>2011-05-21T09:24:53Z</time>
      </trkpt>
      <trkpt lat="48.70454" lon="2.03843">
        <ele>78</ele>
        <time>2011-05-21T09:24:54Z</time>
      </trkpt>
      <trkpt lat="48.70454" lon="2.03837">
        <ele>78</ele>
        <time>2011-05-21T09:24:55Z</time>
      </trkpt>
      <trkpt lat="48.70458" lon="2.03786">
        <ele>77.52</ele>
        <time>2011-05-21T09:25:03Z</time>
      </trkpt>
      <trkpt lat="48.7046" lon="2.0378">
        <ele>77.52</ele>
        <time>2011-05-21T09:25:04Z</time>
      </trkpt>
      <trkpt lat="48.70463" lon="2.03776">
        <ele>77.52</ele>
        <time>2011-05-21T09:25:05Z</time>
      </trkpt>
      <trkpt lat="48.70467" lon="2.03774">
        <ele>77.04</ele>
        <time>2011-05-21T09:25:06Z</time>
      </trkpt>
      <trkpt lat="48.70472" lon="2.03772">
        <ele>77.04</ele>
        <time>2011-05-21T09:25:07Z</time>
      </trkpt>
      <trkpt lat="48.70477" lon="2.0377">
        <ele>77.04</ele>
        <time>2011-05-21T09:25:08Z</time>
      </trkpt>
      <trkpt lat="48.70514" lon="2.0377">
        <ele>76.08</ele>
        <time>2011-05-21T09:25:16Z</time>
      </trkpt>
      <trkpt lat="48.70586" lon="2.03773">
        <ele>75.12</ele>
        <time>2011-05-21T09:25:30Z</time>
      </trkpt>
      <trkpt lat="48.70613" lon="2.03786">
        <ele>75.12</ele>
        <time>2011-05-21T09:25:36Z</time>
      </trkpt>
      <trkpt lat="48.70617" lon="2.03789">
        <ele>75.6</ele>
        <time>2011-05-21T09:25:37Z</time>
      </trkpt>
      <trkpt lat="48.70622" lon="2.03793">
        <ele>75.6</ele>
        <time>2011-05-21T09:25:38Z</time>
      </trkpt>
      <trkpt lat="48.70625" lon="2.03797">
        <ele>75.6</ele>
        <time>2011-05-21T09:25:39Z</time>
      </trkpt>
      <trkpt lat="48.70629" lon="2.03802">
        <ele>75.6</ele>
        <time>2011-05-21T09:25:40Z</time>
      </trkpt>
      <trkpt lat="48.70632" lon="2.03807">
        <ele>76.08</ele>
        <time>2011-05-21T09:25:41Z</time>
      </trkpt>
      <trkpt lat="48.70635" lon="2.03813">
        <ele>76.08</ele>
        <time>2011-05-21T09:25:42Z</time>
      </trkpt>
      <trkpt lat="48.70638" lon="2.03818">
        <ele>76.08</ele>
        <time>2011-05-21T09:25:43Z</time>
      </trkpt>
      <trkpt lat="48.70642" lon="2.03823">
        <ele>76.56</ele>
        <time>2011-05-21T09:25:44Z</time>
      </trkpt>
      <trkpt lat="48.70667" lon="2.03863">
        <ele>76.56</ele>
        <time>2011-05-21T09:25:51Z</time>
      </trkpt>
      <trkpt lat="48.70671" lon="2.03868">
        <ele>76.56</ele>
        <time>2011-05-21T09:25:52Z</time>
      </trkpt>
      <trkpt lat="48.70692" lon="2.03888">
        <ele>77.04</ele>
        <time>2011-05-21T09:25:57Z</time>
      </trkpt>
      <trkpt lat="48.70696" lon="2.03891">
        <ele>77.04</ele>
        <time>2011-05-21T09:25:58Z</time>
      </trkpt>
      <trkpt lat="48.70734" lon="2.03916">
        <ele>78.48</ele>
        <time>2011-05-21T09:26:07Z</time>
      </trkpt>
      <trkpt lat="48.70737" lon="2.0392">
        <ele>78.48</ele>
        <time>2011-05-21T09:26:08Z</time>
      </trkpt>
      <trkpt lat="48.70739" lon="2.03925">
        <ele>78.97</ele>
        <time>2011-05-21T09:26:09Z</time>
      </trkpt>
      <trkpt lat="48.70741" lon="2.0393">
        <ele>78.97</ele>
        <time>2011-05-21T09:26:10Z</time>
      </trkpt>
      <trkpt lat="48.70743" lon="2.03936">
        <ele>79.45</ele>
        <time>2011-05-21T09:26:11Z</time>
      </trkpt>
      <trkpt lat="48.70762" lon="2.03986">
        <ele>81.37</ele>
        <time>2011-05-21T09:26:23Z</time>
      </trkpt>
      <trkpt lat="48.70763" lon="2.03987">
        <ele>81.85</ele>
        <time>2011-05-21T09:26:35Z</time>
      </trkpt>
      <trkpt lat="48.70763" lon="2.03987">
        <ele>81.37</ele>
        <time>2011-05-21T09:27:00Z</time>
      </trkpt>
      <trkpt lat="48.70763" lon="2.03987">
        <ele>82.33</ele>
        <time>2011-05-21T09:27:36Z</time>
      </trkpt>
      <trkpt lat="48.70764" lon="2.03986">
        <ele>81.37</ele>
        <time>2011-05-21T09:28:06Z</time>
      </trkpt>
      <trkpt lat="48.70764" lon="2.03987">
        <ele>82.33</ele>
        <time>2011-05-21T09:28:39Z</time>
      </trkpt>
      <trkpt lat="48.70764" lon="2.03986">
        <ele>82.33</ele>
        <time>2011-05-21T09:29:15Z</time>
      </trkpt>
      <trkpt lat="48.70764" lon="2.03986">
        <ele>81.85</ele>
        <time>2011-05-21T09:29:50Z</time>
      </trkpt>
      <trkpt lat="48.70764" lon="2.03986">
        <ele>80.89</ele>
        <time>2011-05-21T09:30:29Z</time>
      </trkpt>
      <trkpt lat="48.70763" lon="2.03985">
        <ele>81.37</ele>
        <time>2011-05-21T09:31:11Z</time>
      </trkpt>
      <trkpt lat="48.70763" lon="2.03985">
        <ele>81.85</ele>
        <time>2011-05-21T09:31:56Z</time>
      </trkpt>
      <trkpt lat="48.70763" lon="2.03985">
        <ele>81.37</ele>
        <time>2011-05-21T09:32:33Z</time>
      </trkpt>
      <trkpt lat="48.70763" lon="2.03985">
        <ele>81.37</ele>
        <time>2011-05-21T09:33:13Z</time>
      </trkpt>
      <trkpt lat="48.70763" lon="2.03985">
        <ele>81.85</ele>
        <time>2011-05-21T09:33:50Z</time>
      </trkpt>
      <trkpt lat="48.70763" lon="2.03985">
        <ele>81.37</ele>
        <time>2011-05-21T09:34:25Z</time>
      </trkpt>
      <trkpt lat="48.70763" lon="2.03985">
        <ele>81.37</ele>
        <time>2011-05-21T09:35:00Z</time>
      </trkpt>
      <trkpt lat="48.70763" lon="2.03986">
        <ele>81.85</ele>
        <time>2011-05-21T09:35:36Z</time>
      </trkpt>
      <trkpt lat="48.70763" lon="2.03985">
        <ele>81.85</ele>
        <time>2011-05-21T09:36:16Z</time>
      </trkpt>
      <trkpt lat="48.70764" lon="2.03986">
        <ele>81.37</ele>
        <time>2011-05-21T09:36:48Z</time>
      </trkpt>
      <trkpt lat="48.70763" lon="2.03987">
        <ele>81.37</ele>
        <time>2011-05-21T09:37:10Z</time>
      </trkpt>
      <trkpt lat="48.70763" lon="2.03987">
        <ele>81.37</ele>
        <time>2011-05-21T09:37:45Z</time>
      </trkpt>
      <trkpt lat="48.70763" lon="2.03988">
        <ele>81.37</ele>
        <time>2011-05-21T09:38:19Z</time>
      </trkpt>
      <trkpt lat="48.70763" lon="2.03987">
        <ele>81.37</ele>
        <time>2011-05-21T09:38:54Z</time>
      </trkpt>
      <trkpt lat="48.70763" lon="2.03987">
        <ele>81.37</ele>
        <time>2011-05-21T09:39:26Z</time>
      </trkpt>
      <trkpt lat="48.70762" lon="2.03986">
        <ele>81.37</ele>
        <time>2011-05-21T09:39:58Z</time>
      </trkpt>
      <trkpt lat="48.70762" lon="2.03986">
        <ele>81.37</ele>
        <time>2011-05-21T09:40:28Z</time>
      </trkpt>
      <trkpt lat="48.70762" lon="2.03986">
        <ele>80.89</ele>
        <time>2011-05-21T09:41:02Z</time>
      </trkpt>
      <trkpt lat="48.70763" lon="2.03984">
        <ele>81.37</ele>
        <time>2011-05-21T09:41:30Z</time>
      </trkpt>
      <trkpt lat="48.70766" lon="2.03985">
        <ele>81.37</ele>
        <time>2011-05-21T09:41:34Z</time>
      </trkpt>
      <trkpt lat="48.70766" lon="2.03986">
        <ele>81.37</ele>
        <time>2011-05-21T09:41:35Z</time>
      </trkpt>
      <trkpt lat="48.70768" lon="2.03988">
        <ele>81.37</ele>
        <time>2011-05-21T09:41:49Z</time>
      </trkpt>
      <trkpt lat="48.70768" lon="2.0399">
        <ele>81.37</ele>
        <time>2011-05-21T09:41:50Z</time>
      </trkpt>
      <trkpt lat="48.70769" lon="2.03993">
        <ele>81.37</ele>
        <time>2011-05-21T09:41:51Z</time>
      </trkpt>
      <trkpt lat="48.70779" lon="2.04017">
        <ele>81.85</ele>
        <time>2011-05-21T09:42:04Z</time>
      </trkpt>
      <trkpt lat="48.708" lon="2.04034">
        <ele>83.77</ele>
        <time>2011-05-21T09:42:16Z</time>
      </trkpt>
      <trkpt lat="48.70818" lon="2.04058">
        <ele>85.21</ele>
        <time>2011-05-21T09:42:27Z</time>
      </trkpt>
      <trkpt lat="48.70832" lon="2.04068">
        <ele>87.14</ele>
        <time>2011-05-21T09:42:38Z</time>
      </trkpt>
      <trkpt lat="48.70834" lon="2.04068">
        <ele>87.14</ele>
        <time>2011-05-21T09:42:40Z</time>
      </trkpt>
      <trkpt lat="48.70836" lon="2.04066">
        <ele>87.14</ele>
        <time>2011-05-21T09:42:46Z</time>
      </trkpt>
      <trkpt lat="48.70836" lon="2.04069">
        <ele>87.14</ele>
        <time>2011-05-21T09:42:47Z</time>
      </trkpt>
      <trkpt lat="48.70835" lon="2.04071">
        <ele>87.14</ele>
        <time>2011-05-21T09:42:48Z</time>
      </trkpt>
      <trkpt lat="48.70834" lon="2.04075">
        <ele>87.14</ele>
        <time>2011-05-21T09:42:49Z</time>
      </trkpt>
      <trkpt lat="48.70833" lon="2.04079">
        <ele>86.66</ele>
        <time>2011-05-21T09:42:50Z</time>
      </trkpt>
      <trkpt lat="48.70834" lon="2.04093">
        <ele>86.66</ele>
        <time>2011-05-21T09:43:01Z</time>
      </trkpt>
      <trkpt lat="48.70836" lon="2.04087">
        <ele>87.14</ele>
        <time>2011-05-21T09:43:02Z</time>
      </trkpt>
      <trkpt lat="48.70838" lon="2.04081">
        <ele>87.14</ele>
        <time>2011-05-21T09:43:03Z</time>
      </trkpt>
      <trkpt lat="48.7084" lon="2.04075">
        <ele>87.62</ele>
        <time>2011-05-21T09:43:04Z</time>
      </trkpt>
      <trkpt lat="48.70842" lon="2.04071">
        <ele>87.14</ele>
        <time>2011-05-21T09:43:05Z</time>
      </trkpt>
      <trkpt lat="48.70844" lon="2.04068">
        <ele>87.14</ele>
        <time>2011-05-21T09:43:06Z</time>
      </trkpt>
      <trkpt lat="48.70846" lon="2.04065">
        <ele>87.14</ele>
        <time>2011-05-21T09:43:07Z</time>
      </trkpt>
      <trkpt lat="48.70865" lon="2.04019">
        <ele>89.54</ele>
        <time>2011-05-21T09:43:21Z</time>
      </trkpt>
      <trkpt lat="48.70873" lon="2.04009">
        <ele>91.46</ele>
        <time>2011-05-21T09:43:28Z</time>
      </trkpt>
      <trkpt lat="48.70874" lon="2.04011">
        <ele>91.46</ele>
        <time>2011-05-21T09:43:29Z</time>
      </trkpt>
      <trkpt lat="48.70876" lon="2.04015">
        <ele>91.94</ele>
        <time>2011-05-21T09:43:30Z</time>
      </trkpt>
      <trkpt lat="48.7088" lon="2.04017">
        <ele>91.94</ele>
        <time>2011-05-21T09:43:31Z</time>
      </trkpt>
      <trkpt lat="48.70883" lon="2.04018">
        <ele>91.94</ele>
        <time>2011-05-21T09:43:32Z</time>
      </trkpt>
      <trkpt lat="48.70885" lon="2.04018">
        <ele>92.42</ele>
        <time>2011-05-21T09:43:33Z</time>
      </trkpt>
      <trkpt lat="48.70888" lon="2.04018">
        <ele>92.9</ele>
        <time>2011-05-21T09:43:34Z</time>
      </trkpt>
      <trkpt lat="48.7089" lon="2.04018">
        <ele>93.39</ele>
        <time>2011-05-21T09:43:35Z</time>
      </trkpt>
      <trkpt lat="48.70907" lon="2.04036">
        <ele>96.75</ele>
        <time>2011-05-21T09:43:46Z</time>
      </trkpt>
      <trkpt lat="48.70897" lon="2.04066">
        <ele>99.63</ele>
        <time>2011-05-21T09:43:57Z</time>
      </trkpt>
      <trkpt lat="48.70897" lon="2.04081">
        <ele>101.56</ele>
        <time>2011-05-21T09:44:04Z</time>
      </trkpt>
      <trkpt lat="48.70898" lon="2.04082">
        <ele>101.56</ele>
        <time>2011-05-21T09:44:05Z</time>
      </trkpt>
      <trkpt lat="48.709" lon="2.04084">
        <ele>102.04</ele>
        <time>2011-05-21T09:44:06Z</time>
      </trkpt>
      <trkpt lat="48.70901" lon="2.04085">
        <ele>102.04</ele>
        <time>2011-05-21T09:44:07Z</time>
      </trkpt>
      <trkpt lat="48.70902" lon="2.04087">
        <ele>102.52</ele>
        <time>2011-05-21T09:44:08Z</time>
      </trkpt>
      <trkpt lat="48.70903" lon="2.04089">
        <ele>102.04</ele>
        <time>2011-05-21T09:44:09Z</time>
      </trkpt>
      <trkpt lat="48.70905" lon="2.04119">
        <ele>105.4</ele>
        <time>2011-05-21T09:44:22Z</time>
      </trkpt>
      <trkpt lat="48.70905" lon="2.04127">
        <ele>106.36</ele>
        <time>2011-05-21T09:44:26Z</time>
      </trkpt>
      <trkpt lat="48.70905" lon="2.04129">
        <ele>106.36</ele>
        <time>2011-05-21T09:44:27Z</time>
      </trkpt>
      <trkpt lat="48.70905" lon="2.04132">
        <ele>106.36</ele>
        <time>2011-05-21T09:44:28Z</time>
      </trkpt>
      <trkpt lat="48.70905" lon="2.04134">
        <ele>106.84</ele>
        <time>2011-05-21T09:44:29Z</time>
      </trkpt>
      <trkpt lat="48.70905" lon="2.04136">
        <ele>107.32</ele>
        <time>2011-05-21T09:44:30Z</time>
      </trkpt>
      <trkpt lat="48.70905" lon="2.04139">
        <ele>107.32</ele>
        <time>2011-05-21T09:44:31Z</time>
      </trkpt>
      <trkpt lat="48.70905" lon="2.04142">
        <ele>107.81</ele>
        <time>2011-05-21T09:44:32Z</time>
      </trkpt>
      <trkpt lat="48.70907" lon="2.04176">
        <ele>110.69</ele>
        <time>2011-05-21T09:44:46Z</time>
      </trkpt>
      <trkpt lat="48.7091" lon="2.04208">
        <ele>114.05</ele>
        <time>2011-05-21T09:44:58Z</time>
      </trkpt>
      <trkpt lat="48.7092" lon="2.04233">
        <ele>117.42</ele>
        <time>2011-05-21T09:45:11Z</time>
      </trkpt>
      <trkpt lat="48.70921" lon="2.04235">
        <ele>118.38</ele>
        <time>2011-05-21T09:45:13Z</time>
      </trkpt>
      <trkpt lat="48.70925" lon="2.04234">
        <ele>119.82</ele>
        <time>2011-05-21T09:45:17Z</time>
      </trkpt>
      <trkpt lat="48.70926" lon="2.04226">
        <ele>120.3</ele>
        <time>2011-05-21T09:45:20Z</time>
      </trkpt>
      <trkpt lat="48.70926" lon="2.04223">
        <ele>120.3</ele>
        <time>2011-05-21T09:45:21Z</time>
      </trkpt>
      <trkpt lat="48.70938" lon="2.04183">
        <ele>123.19</ele>
        <time>2011-05-21T09:45:36Z</time>
      </trkpt>
      <trkpt lat="48.70947" lon="2.04162">
        <ele>124.63</ele>
        <time>2011-05-21T09:45:45Z</time>
      </trkpt>
      <trkpt lat="48.70948" lon="2.04162">
        <ele>125.11</ele>
        <time>2011-05-21T09:45:46Z</time>
      </trkpt>
      <trkpt lat="48.70949" lon="2.04163">
        <ele>125.59</ele>
        <time>2011-05-21T09:45:47Z</time>
      </trkpt>
      <trkpt lat="48.7095" lon="2.04164">
        <ele>126.07</ele>
        <time>2011-05-21T09:45:48Z</time>
      </trkpt>
      <trkpt lat="48.70951" lon="2.04166">
        <ele>126.07</ele>
        <time>2011-05-21T09:45:49Z</time>
      </trkpt>
      <trkpt lat="48.70952" lon="2.04173">
        <ele>127.51</ele>
        <time>2011-05-21T09:45:53Z</time>
      </trkpt>
      <trkpt lat="48.70952" lon="2.04176">
        <ele>127.03</ele>
        <time>2011-05-21T09:45:54Z</time>
      </trkpt>
      <trkpt lat="48.70951" lon="2.04179">
        <ele>127.51</ele>
        <time>2011-05-21T09:45:55Z</time>
      </trkpt>
      <trkpt lat="48.70951" lon="2.04181">
        <ele>127.99</ele>
        <time>2011-05-21T09:45:56Z</time>
      </trkpt>
      <trkpt lat="48.7095" lon="2.04184">
        <ele>128.47</ele>
        <time>2011-05-21T09:45:57Z</time>
      </trkpt>
      <trkpt lat="48.7095" lon="2.04186">
        <ele>128.47</ele>
        <time>2011-05-21T09:45:58Z</time>
      </trkpt>
      <trkpt lat="48.7095" lon="2.04188">
        <ele>128.95</ele>
        <time>2011-05-21T09:45:59Z</time>
      </trkpt>
      <trkpt lat="48.7095" lon="2.04191">
        <ele>128.95</ele>
        <time>2011-05-21T09:46:00Z</time>
      </trkpt>
      <trkpt lat="48.70948" lon="2.04212">
        <ele>130.88</ele>
        <time>2011-05-21T09:46:11Z</time>
      </trkpt>
      <trkpt lat="48.70949" lon="2.04214">
        <ele>131.84</ele>
        <time>2011-05-21T09:46:12Z</time>
      </trkpt>
      <trkpt lat="48.7095" lon="2.04222">
        <ele>133.28</ele>
        <time>2011-05-21T09:46:17Z</time>
      </trkpt>
      <trkpt lat="48.70952" lon="2.04223">
        <ele>133.76</ele>
        <time>2011-05-21T09:46:19Z</time>
      </trkpt>
      <trkpt lat="48.70954" lon="2.04222">
        <ele>134.24</ele>
        <time>2011-05-21T09:46:20Z</time>
      </trkpt>
      <trkpt lat="48.70955" lon="2.04221">
        <ele>134.24</ele>
        <time>2011-05-21T09:46:21Z</time>
      </trkpt>
      <trkpt lat="48.70956" lon="2.04219">
        <ele>134.72</ele>
        <time>2011-05-21T09:46:22Z</time>
      </trkpt>
      <trkpt lat="48.70956" lon="2.04217">
        <ele>134.72</ele>
        <time>2011-05-21T09:46:23Z</time>
      </trkpt>
      <trkpt lat="48.70956" lon="2.04215">
        <ele>134.72</ele>
        <time>2011-05-21T09:46:24Z</time>
      </trkpt>
      <trkpt lat="48.70963" lon="2.04187">
        <ele>138.09</ele>
        <time>2011-05-21T09:46:38Z</time>
      </trkpt>
      <trkpt lat="48.70975" lon="2.04165">
        <ele>140.97</ele>
        <time>2011-05-21T09:46:52Z</time>
      </trkpt>
      <trkpt lat="48.70976" lon="2.04164">
        <ele>140.97</ele>
        <time>2011-05-21T09:46:53Z</time>
      </trkpt>
      <trkpt lat="48.70977" lon="2.04162">
        <ele>141.45</ele>
        <time>2011-05-21T09:46:54Z</time>
      </trkpt>
      <trkpt lat="48.70977" lon="2.04162">
        <ele>140.97</ele>
        <time>2011-05-21T09:46:55Z</time>
      </trkpt>
      <trkpt lat="48.70979" lon="2.04162">
        <ele>141.45</ele>
        <time>2011-05-21T09:46:56Z</time>
      </trkpt>
      <trkpt lat="48.70981" lon="2.04162">
        <ele>141.93</ele>
        <time>2011-05-21T09:46:57Z</time>
      </trkpt>
      <trkpt lat="48.70982" lon="2.04162">
        <ele>141.93</ele>
        <time>2011-05-21T09:46:58Z</time>
      </trkpt>
      <trkpt lat="48.70984" lon="2.04162">
        <ele>141.93</ele>
        <time>2011-05-21T09:46:59Z</time>
      </trkpt>
      <trkpt lat="48.70985" lon="2.04161">
        <ele>142.89</ele>
        <time>2011-05-21T09:47:00Z</time>
      </trkpt>
      <trkpt lat="48.71004" lon="2.04159">
        <ele>146.26</ele>
        <time>2011-05-21T09:47:10Z</time>
      </trkpt>
      <trkpt lat="48.71011" lon="2.0415">
        <ele>148.18</ele>
        <time>2011-05-21T09:47:16Z</time>
      </trkpt>
      <trkpt lat="48.71011" lon="2.04148">
        <ele>148.18</ele>
        <time>2011-05-21T09:47:17Z</time>
      </trkpt>
      <trkpt lat="48.71011" lon="2.04146">
        <ele>148.18</ele>
        <time>2011-05-21T09:47:18Z</time>
      </trkpt>
      <trkpt lat="48.71011" lon="2.04144">
        <ele>148.18</ele>
        <time>2011-05-21T09:47:19Z</time>
      </trkpt>
      <trkpt lat="48.71011" lon="2.04142">
        <ele>148.18</ele>
        <time>2011-05-21T09:47:20Z</time>
      </trkpt>
      <trkpt lat="48.71011" lon="2.04141">
        <ele>148.18</ele>
        <time>2011-05-21T09:47:21Z</time>
      </trkpt>
      <trkpt lat="48.71012" lon="2.04139">
        <ele>148.18</ele>
        <time>2011-05-21T09:47:22Z</time>
      </trkpt>
      <trkpt lat="48.71013" lon="2.04138">
        <ele>148.18</ele>
        <time>2011-05-21T09:47:23Z</time>
      </trkpt>
      <trkpt lat="48.71016" lon="2.04142">
        <ele>148.18</ele>
        <time>2011-05-21T09:47:37Z</time>
      </trkpt>
      <trkpt lat="48.71013" lon="2.04144">
        <ele>148.18</ele>
        <time>2011-05-21T09:47:41Z</time>
      </trkpt>
      <trkpt lat="48.71012" lon="2.04144">
        <ele>148.18</ele>
        <time>2011-05-21T09:47:42Z</time>
      </trkpt>
      <trkpt lat="48.71012" lon="2.04143">
        <ele>148.18</ele>
        <time>2011-05-21T09:47:43Z</time>
      </trkpt>
      <trkpt lat="48.71012" lon="2.04142">
        <ele>148.18</ele>
        <time>2011-05-21T09:47:44Z</time>
      </trkpt>
      <trkpt lat="48.71013" lon="2.0414">
        <ele>148.18</ele>
        <time>2011-05-21T09:47:45Z</time>
      </trkpt>
      <trkpt lat="48.71013" lon="2.04139">
        <ele>148.18</ele>
        <time>2011-05-21T09:47:46Z</time>
      </trkpt>
      <trkpt lat="48.7102" lon="2.04137">
        <ele>148.66</ele>
        <time>2011-05-21T09:47:51Z</time>
      </trkpt>
      <trkpt lat="48.71018" lon="2.04143">
        <ele>148.18</ele>
        <time>2011-05-21T09:47:56Z</time>
      </trkpt>
      <trkpt lat="48.71015" lon="2.04144">
        <ele>148.66</ele>
        <time>2011-05-21T09:47:57Z</time>
      </trkpt>
      <trkpt lat="48.71013" lon="2.04145">
        <ele>148.18</ele>
        <time>2011-05-21T09:47:58Z</time>
      </trkpt>
      <trkpt lat="48.71011" lon="2.04144">
        <ele>148.18</ele>
        <time>2011-05-21T09:47:59Z</time>
      </trkpt>
      <trkpt lat="48.7101" lon="2.04143">
        <ele>148.18</ele>
        <time>2011-05-21T09:48:00Z</time>
      </trkpt>
      <trkpt lat="48.71013" lon="2.04146">
        <ele>148.18</ele>
        <time>2011-05-21T09:48:08Z</time>
      </trkpt>
      <trkpt lat="48.71011" lon="2.04146">
        <ele>148.18</ele>
        <time>2011-05-21T09:48:09Z</time>
      </trkpt>
      <trkpt lat="48.7101" lon="2.04137">
        <ele>148.66</ele>
        <time>2011-05-21T09:48:21Z</time>
      </trkpt>
      <trkpt lat="48.7101" lon="2.04137">
        <ele>148.66</ele>
        <time>2011-05-21T09:48:51Z</time>
      </trkpt>
      <trkpt lat="48.7101" lon="2.04137">
        <ele>148.18</ele>
        <time>2011-05-21T09:49:25Z</time>
      </trkpt>
      <trkpt lat="48.7101" lon="2.04137">
        <ele>148.66</ele>
        <time>2011-05-21T09:49:59Z</time>
      </trkpt>
      <trkpt lat="48.7101" lon="2.04137">
        <ele>148.66</ele>
        <time>2011-05-21T09:50:27Z</time>
      </trkpt>
      <trkpt lat="48.7101" lon="2.04137">
        <ele>148.66</ele>
        <time>2011-05-21T09:51:00Z</time>
      </trkpt>
      <trkpt lat="48.7101" lon="2.04137">
        <ele>148.66</ele>
        <time>2011-05-21T09:51:36Z</time>
      </trkpt>
      <trkpt lat="48.7101" lon="2.04137">
        <ele>148.66</ele>
        <time>2011-05-21T09:52:16Z</time>
      </trkpt>
      <trkpt lat="48.7101" lon="2.04137">
        <ele>148.18</ele>
        <time>2011-05-21T09:53:00Z</time>
      </trkpt>
      <trkpt lat="48.7101" lon="2.04137">
        <ele>148.18</ele>
        <time>2011-05-21T09:53:38Z</time>
      </trkpt>
      <trkpt lat="48.7101" lon="2.04137">
        <ele>149.14</ele>
        <time>2011-05-21T09:54:15Z</time>
      </trkpt>
      <trkpt lat="48.7101" lon="2.04136">
        <ele>148.66</ele>
        <time>2011-05-21T09:54:56Z</time>
      </trkpt>
      <trkpt lat="48.7101" lon="2.04136">
        <ele>148.66</ele>
        <time>2011-05-21T09:55:32Z</time>
      </trkpt>
      <trkpt lat="48.7101" lon="2.04136">
        <ele>148.66</ele>
        <time>2011-05-21T09:56:07Z</time>
      </trkpt>
      <trkpt lat="48.71011" lon="2.04136">
        <ele>148.18</ele>
        <time>2011-05-21T09:56:37Z</time>
      </trkpt>
      <trkpt lat="48.71011" lon="2.04136">
        <ele>148.66</ele>
        <time>2011-05-21T09:57:10Z</time>
      </trkpt>
      <trkpt lat="48.71011" lon="2.04136">
        <ele>148.18</ele>
        <time>2011-05-21T09:57:44Z</time>
      </trkpt>
      <trkpt lat="48.71011" lon="2.04135">
        <ele>148.66</ele>
        <time>2011-05-21T09:58:25Z</time>
      </trkpt>
      <trkpt lat="48.7101" lon="2.04135">
        <ele>148.66</ele>
        <time>2011-05-21T09:59:07Z</time>
      </trkpt>
      <trkpt lat="48.7101" lon="2.04135">
        <ele>148.66</ele>
        <time>2011-05-21T09:59:48Z</time>
      </trkpt>
      <trkpt lat="48.71011" lon="2.04134">
        <ele>148.18</ele>
        <time>2011-05-21T10:00:27Z</time>
      </trkpt>
      <trkpt lat="48.71011" lon="2.04134">
        <ele>148.66</ele>
        <time>2011-05-21T10:01:00Z</time>
      </trkpt>
      <trkpt lat="48.71011" lon="2.04133">
        <ele>148.66</ele>
        <time>2011-05-21T10:01:44Z</time>
      </trkpt>
      <trkpt lat="48.7101" lon="2.04133">
        <ele>148.18</ele>
        <time>2011-05-21T10:02:23Z</time>
      </trkpt>
      <trkpt lat="48.7101" lon="2.04133">
        <ele>148.66</ele>
        <time>2011-05-21T10:03:01Z</time>
      </trkpt>
      <trkpt lat="48.7101" lon="2.04133">
        <ele>148.18</ele>
        <time>2011-05-21T10:03:38Z</time>
      </trkpt>
      <trkpt lat="48.7101" lon="2.04132">
        <ele>148.66</ele>
        <time>2011-05-21T10:04:16Z</time>
      </trkpt>
      <trkpt lat="48.71011" lon="2.04132">
        <ele>148.18</ele>
        <time>2011-05-21T10:04:53Z</time>
      </trkpt>
      <trkpt lat="48.71011" lon="2.04132">
        <ele>148.66</ele>
        <time>2011-05-21T10:05:00Z</time>
      </trkpt>
      <trkpt lat="48.71011" lon="2.0413">
        <ele>148.18</ele>
        <time>2011-05-21T10:05:41Z</time>
      </trkpt>
      <trkpt lat="48.71009" lon="2.04134">
        <ele>148.66</ele>
        <time>2011-05-21T10:06:04Z</time>
      </trkpt>
      <trkpt lat="48.71009" lon="2.04134">
        <ele>148.66</ele>
        <time>2011-05-21T10:06:32Z</time>
      </trkpt>
      <trkpt lat="48.71009" lon="2.04134">
        <ele>148.66</ele>
        <time>2011-05-21T10:07:01Z</time>
      </trkpt>
      <trkpt lat="48.71009" lon="2.04135">
        <ele>149.14</ele>
        <time>2011-05-21T10:07:30Z</time>
      </trkpt>
      <trkpt lat="48.71011" lon="2.04131">
        <ele>149.14</ele>
        <time>2011-05-21T10:07:46Z</time>
      </trkpt>
      <trkpt lat="48.71011" lon="2.0413">
        <ele>148.66</ele>
        <time>2011-05-21T10:08:22Z</time>
      </trkpt>
      <trkpt lat="48.71011" lon="2.0413">
        <ele>148.66</ele>
        <time>2011-05-21T10:08:49Z</time>
      </trkpt>
      <trkpt lat="48.71011" lon="2.0413">
        <ele>149.14</ele>
        <time>2011-05-21T10:09:22Z</time>
      </trkpt>
      <trkpt lat="48.71011" lon="2.04132">
        <ele>149.62</ele>
        <time>2011-05-21T10:09:45Z</time>
      </trkpt>
      <trkpt lat="48.71011" lon="2.04132">
        <ele>145.78</ele>
        <time>2011-05-21T10:09:55Z</time>
      </trkpt>
      <trkpt lat="48.71011" lon="2.04132">
        <ele>149.62</ele>
        <time>2011-05-21T10:09:56Z</time>
      </trkpt>
      <trkpt lat="48.71011" lon="2.04132">
        <ele>146.74</ele>
        <time>2011-05-21T10:09:57Z</time>
      </trkpt>
      <trkpt lat="48.71011" lon="2.04132">
        <ele>149.62</ele>
        <time>2011-05-21T10:09:59Z</time>
      </trkpt>
      <trkpt lat="48.71011" lon="2.04131">
        <ele>149.14</ele>
        <time>2011-05-21T10:10:26Z</time>
      </trkpt>
      <trkpt lat="48.71011" lon="2.04131">
        <ele>148.66</ele>
        <time>2011-05-21T10:11:03Z</time>
      </trkpt>
      <trkpt lat="48.71011" lon="2.0413">
        <ele>149.14</ele>
        <time>2011-05-21T10:11:40Z</time>
      </trkpt>
      <trkpt lat="48.71011" lon="2.0413">
        <ele>148.66</ele>
        <time>2011-05-21T10:12:13Z</time>
      </trkpt>
      <trkpt lat="48.71012" lon="2.04134">
        <ele>148.66</ele>
        <time>2011-05-21T10:12:31Z</time>
      </trkpt>
      <trkpt lat="48.71017" lon="2.04138">
        <ele>149.14</ele>
        <time>2011-05-21T10:12:35Z</time>
      </trkpt>
      <trkpt lat="48.71021" lon="2.04135">
        <ele>148.66</ele>
        <time>2011-05-21T10:12:52Z</time>
      </trkpt>
      <trkpt lat="48.71025" lon="2.04134">
        <ele>148.66</ele>
        <time>2011-05-21T10:13:07Z</time>
      </trkpt>
      <trkpt lat="48.71046" lon="2.04118">
        <ele>149.14</ele>
        <time>2011-05-21T10:13:19Z</time>
      </trkpt>
      <trkpt lat="48.71074" lon="2.04128">
        <ele>149.62</ele>
        <time>2011-05-21T10:13:31Z</time>
      </trkpt>
      <trkpt lat="48.71086" lon="2.0414">
        <ele>150.58</ele>
        <time>2011-05-21T10:13:38Z</time>
      </trkpt>
      <trkpt lat="48.71098" lon="2.04144">
        <ele>152.03</ele>
        <time>2011-05-21T10:13:46Z</time>
      </trkpt>
      <trkpt lat="48.711" lon="2.04148">
        <ele>152.51</ele>
        <time>2011-05-21T10:13:59Z</time>
      </trkpt>
      <trkpt lat="48.711" lon="2.04148">
        <ele>152.51</ele>
        <time>2011-05-21T10:14:18Z</time>
      </trkpt>
      <trkpt lat="48.711" lon="2.04148">
        <ele>152.03</ele>
        <time>2011-05-21T10:14:52Z</time>
      </trkpt>
      <trkpt lat="48.711" lon="2.04148">
        <ele>152.03</ele>
        <time>2011-05-21T10:15:22Z</time>
      </trkpt>
      <trkpt lat="48.711" lon="2.04148">
        <ele>152.03</ele>
        <time>2011-05-21T10:15:47Z</time>
      </trkpt>
      <trkpt lat="48.71117" lon="2.04143">
        <ele>152.03</ele>
        <time>2011-05-21T10:15:56Z</time>
      </trkpt>
      <trkpt lat="48.71155" lon="2.04137">
        <ele>152.51</ele>
        <time>2011-05-21T10:16:09Z</time>
      </trkpt>
      <trkpt lat="48.7119" lon="2.0411">
        <ele>153.95</ele>
        <time>2011-05-21T10:16:23Z</time>
      </trkpt>
      <trkpt lat="48.71238" lon="2.0405">
        <ele>153.95</ele>
        <time>2011-05-21T10:16:40Z</time>
      </trkpt>
      <trkpt lat="48.7127" lon="2.03974">
        <ele>154.91</ele>
        <time>2011-05-21T10:16:56Z</time>
      </trkpt>
      <trkpt lat="48.71274" lon="2.03958">
        <ele>154.91</ele>
        <time>2011-05-21T10:16:59Z</time>
      </trkpt>
      <trkpt lat="48.71305" lon="2.03886">
        <ele>155.87</ele>
        <time>2011-05-21T10:17:13Z</time>
      </trkpt>
      <trkpt lat="48.71341" lon="2.03812">
        <ele>156.35</ele>
        <time>2011-05-21T10:17:28Z</time>
      </trkpt>
      <trkpt lat="48.7137" lon="2.03761">
        <ele>156.83</ele>
        <time>2011-05-21T10:17:39Z</time>
      </trkpt>
      <trkpt lat="48.71372" lon="2.03757">
        <ele>156.83</ele>
        <time>2011-05-21T10:17:40Z</time>
      </trkpt>
      <trkpt lat="48.71412" lon="2.03692">
        <ele>157.79</ele>
        <time>2011-05-21T10:17:55Z</time>
      </trkpt>
      <trkpt lat="48.71429" lon="2.03665">
        <ele>158.27</ele>
        <time>2011-05-21T10:18:01Z</time>
      </trkpt>
      <trkpt lat="48.71459" lon="2.03595">
        <ele>159.72</ele>
        <time>2011-05-21T10:18:15Z</time>
      </trkpt>
      <trkpt lat="48.71484" lon="2.03526">
        <ele>160.2</ele>
        <time>2011-05-21T10:18:28Z</time>
      </trkpt>
      <trkpt lat="48.71519" lon="2.0345">
        <ele>161.64</ele>
        <time>2011-05-21T10:18:43Z</time>
      </trkpt>
      <trkpt lat="48.71524" lon="2.03433">
        <ele>162.12</ele>
        <time>2011-05-21T10:18:46Z</time>
      </trkpt>
      <trkpt lat="48.71525" lon="2.03427">
        <ele>162.12</ele>
        <time>2011-05-21T10:18:47Z</time>
      </trkpt>
      <trkpt lat="48.71536" lon="2.03387">
        <ele>162.6</ele>
        <time>2011-05-21T10:18:54Z</time>
      </trkpt>
      <trkpt lat="48.71573" lon="2.03308">
        <ele>163.08</ele>
        <time>2011-05-21T10:19:09Z</time>
      </trkpt>
      <trkpt lat="48.71608" lon="2.03286">
        <ele>164.04</ele>
        <time>2011-05-21T10:19:21Z</time>
      </trkpt>
      <trkpt lat="48.71616" lon="2.033">
        <ele>164.04</ele>
        <time>2011-05-21T10:19:33Z</time>
      </trkpt>
      <trkpt lat="48.71611" lon="2.03302">
        <ele>164.04</ele>
        <time>2011-05-21T10:19:34Z</time>
      </trkpt>
      <trkpt lat="48.71609" lon="2.03301">
        <ele>163.56</ele>
        <time>2011-05-21T10:19:35Z</time>
      </trkpt>
      <trkpt lat="48.71598" lon="2.03271">
        <ele>163.56</ele>
        <time>2011-05-21T10:19:48Z</time>
      </trkpt>
      <trkpt lat="48.7163" lon="2.03226">
        <ele>164.52</ele>
        <time>2011-05-21T10:19:59Z</time>
      </trkpt>
      <trkpt lat="48.71661" lon="2.03185">
        <ele>170.29</ele>
        <time>2011-05-21T10:20:10Z</time>
      </trkpt>
      <trkpt lat="48.71664" lon="2.03181">
        <ele>165.48</ele>
        <time>2011-05-21T10:20:11Z</time>
      </trkpt>
      <trkpt lat="48.71701" lon="2.03127">
        <ele>165.96</ele>
        <time>2011-05-21T10:20:26Z</time>
      </trkpt>
      <trkpt lat="48.7174" lon="2.03078">
        <ele>166.45</ele>
        <time>2011-05-21T10:20:39Z</time>
      </trkpt>
      <trkpt lat="48.71784" lon="2.03024">
        <ele>166.93</ele>
        <time>2011-05-21T10:20:53Z</time>
      </trkpt>
      <trkpt lat="48.71824" lon="2.03001">
        <ele>165.96</ele>
        <time>2011-05-21T10:21:08Z</time>
      </trkpt>
      <trkpt lat="48.71879" lon="2.02998">
        <ele>165.96</ele>
        <time>2011-05-21T10:21:21Z</time>
      </trkpt>
      <trkpt lat="48.71926" lon="2.02991">
        <ele>166.45</ele>
        <time>2011-05-21T10:21:32Z</time>
      </trkpt>
      <trkpt lat="48.71935" lon="2.0299">
        <ele>166.45</ele>
        <time>2011-05-21T10:21:34Z</time>
      </trkpt>
      <trkpt lat="48.71986" lon="2.02985">
        <ele>165.48</ele>
        <time>2011-05-21T10:21:46Z</time>
      </trkpt>
      <trkpt lat="48.72029" lon="2.02977">
        <ele>164.52</ele>
        <time>2011-05-21T10:21:55Z</time>
      </trkpt>
      <trkpt lat="48.72098" lon="2.02957">
        <ele>163.08</ele>
        <time>2011-05-21T10:22:08Z</time>
      </trkpt>
      <trkpt lat="48.72176" lon="2.02927">
        <ele>161.16</ele>
        <time>2011-05-21T10:22:21Z</time>
      </trkpt>
      <trkpt lat="48.72183" lon="2.02926">
        <ele>160.68</ele>
        <time>2011-05-21T10:22:22Z</time>
      </trkpt>
      <trkpt lat="48.72188" lon="2.02926">
        <ele>161.16</ele>
        <time>2011-05-21T10:22:23Z</time>
      </trkpt>
      <trkpt lat="48.72193" lon="2.02927">
        <ele>160.68</ele>
        <time>2011-05-21T10:22:24Z</time>
      </trkpt>
      <trkpt lat="48.72198" lon="2.02929">
        <ele>160.68</ele>
        <time>2011-05-21T10:22:25Z</time>
      </trkpt>
      <trkpt lat="48.72202" lon="2.02931">
        <ele>160.68</ele>
        <time>2011-05-21T10:22:26Z</time>
      </trkpt>
      <trkpt lat="48.72206" lon="2.02932">
        <ele>160.2</ele>
        <time>2011-05-21T10:22:27Z</time>
      </trkpt>
      <trkpt lat="48.72226" lon="2.02943">
        <ele>158.27</ele>
        <time>2011-05-21T10:22:33Z</time>
      </trkpt>
      <trkpt lat="48.72227" lon="2.02948">
        <ele>158.27</ele>
        <time>2011-05-21T10:22:34Z</time>
      </trkpt>
      <trkpt lat="48.72228" lon="2.02952">
        <ele>158.75</ele>
        <time>2011-05-21T10:22:35Z</time>
      </trkpt>
      <trkpt lat="48.72228" lon="2.02957">
        <ele>158.75</ele>
        <time>2011-05-21T10:22:36Z</time>
      </trkpt>
      <trkpt lat="48.72229" lon="2.02962">
        <ele>158.75</ele>
        <time>2011-05-21T10:22:37Z</time>
      </trkpt>
      <trkpt lat="48.72231" lon="2.02966">
        <ele>158.27</ele>
        <time>2011-05-21T10:22:38Z</time>
      </trkpt>
      <trkpt lat="48.72233" lon="2.02971">
        <ele>158.75</ele>
        <time>2011-05-21T10:22:39Z</time>
      </trkpt>
      <trkpt lat="48.72235" lon="2.02976">
        <ele>158.27</ele>
        <time>2011-05-21T10:22:40Z</time>
      </trkpt>
      <trkpt lat="48.72237" lon="2.02982">
        <ele>157.79</ele>
        <time>2011-05-21T10:22:41Z</time>
      </trkpt>
      <trkpt lat="48.72257" lon="2.03037">
        <ele>158.27</ele>
        <time>2011-05-21T10:22:51Z</time>
      </trkpt>
      <trkpt lat="48.72269" lon="2.03068">
        <ele>157.79</ele>
        <time>2011-05-21T10:22:56Z</time>
      </trkpt>
      <trkpt lat="48.72273" lon="2.03075">
        <ele>157.31</ele>
        <time>2011-05-21T10:22:57Z</time>
      </trkpt>
      <trkpt lat="48.72277" lon="2.03081">
        <ele>157.31</ele>
        <time>2011-05-21T10:22:58Z</time>
      </trkpt>
      <trkpt lat="48.72281" lon="2.03088">
        <ele>157.31</ele>
        <time>2011-05-21T10:22:59Z</time>
      </trkpt>
      <trkpt lat="48.72284" lon="2.03095">
        <ele>157.79</ele>
        <time>2011-05-21T10:23:00Z</time>
      </trkpt>
      <trkpt lat="48.72296" lon="2.03121">
        <ele>157.79</ele>
        <time>2011-05-21T10:23:04Z</time>
      </trkpt>
      <trkpt lat="48.72326" lon="2.03183">
        <ele>156.83</ele>
        <time>2011-05-21T10:23:17Z</time>
      </trkpt>
      <trkpt lat="48.72331" lon="2.03193">
        <ele>156.83</ele>
        <time>2011-05-21T10:23:19Z</time>
      </trkpt>
      <trkpt lat="48.72334" lon="2.032">
        <ele>156.83</ele>
        <time>2011-05-21T10:23:20Z</time>
      </trkpt>
      <trkpt lat="48.7234" lon="2.03212">
        <ele>156.35</ele>
        <time>2011-05-21T10:23:22Z</time>
      </trkpt>
      <trkpt lat="48.72342" lon="2.03218">
        <ele>156.35</ele>
        <time>2011-05-21T10:23:23Z</time>
      </trkpt>
      <trkpt lat="48.72355" lon="2.03253">
        <ele>154.91</ele>
        <time>2011-05-21T10:23:28Z</time>
      </trkpt>
      <trkpt lat="48.72374" lon="2.03294">
        <ele>152.51</ele>
        <time>2011-05-21T10:23:34Z</time>
      </trkpt>
      <trkpt lat="48.72384" lon="2.03312">
        <ele>150.58</ele>
        <time>2011-05-21T10:23:37Z</time>
      </trkpt>
      <trkpt lat="48.72398" lon="2.03341">
        <ele>147.22</ele>
        <time>2011-05-21T10:23:43Z</time>
      </trkpt>
      <trkpt lat="48.72405" lon="2.03356">
        <ele>143.37</ele>
        <time>2011-05-21T10:23:47Z</time>
      </trkpt>
      <trkpt lat="48.72408" lon="2.03361">
        <ele>141.93</ele>
        <time>2011-05-21T10:23:48Z</time>
      </trkpt>
      <trkpt lat="48.72414" lon="2.0337">
        <ele>139.05</ele>
        <time>2011-05-21T10:23:50Z</time>
      </trkpt>
      <trkpt lat="48.72417" lon="2.03377">
        <ele>137.13</ele>
        <time>2011-05-21T10:23:51Z</time>
      </trkpt>
      <trkpt lat="48.72424" lon="2.03396">
        <ele>135.68</ele>
        <time>2011-05-21T10:23:53Z</time>
      </trkpt>
      <trkpt lat="48.72437" lon="2.03428">
        <ele>135.68</ele>
        <time>2011-05-21T10:23:58Z</time>
      </trkpt>
      <trkpt lat="48.72442" lon="2.03442">
        <ele>134.72</ele>
        <time>2011-05-21T10:24:00Z</time>
      </trkpt>
      <trkpt lat="48.72446" lon="2.03457">
        <ele>134.72</ele>
        <time>2011-05-21T10:24:01Z</time>
      </trkpt>
      <trkpt lat="48.72449" lon="2.03462">
        <ele>132.8</ele>
        <time>2011-05-21T10:24:02Z</time>
      </trkpt>
      <trkpt lat="48.72453" lon="2.03473">
        <ele>128.95</ele>
        <time>2011-05-21T10:24:03Z</time>
      </trkpt>
      <trkpt lat="48.72469" lon="2.03511">
        <ele>126.07</ele>
        <time>2011-05-21T10:24:06Z</time>
      </trkpt>
      <trkpt lat="48.72479" lon="2.03533">
        <ele>125.11</ele>
        <time>2011-05-21T10:24:08Z</time>
      </trkpt>
      <trkpt lat="48.72482" lon="2.0354">
        <ele>124.63</ele>
        <time>2011-05-21T10:24:09Z</time>
      </trkpt>
      <trkpt lat="48.72486" lon="2.03545">
        <ele>123.19</ele>
        <time>2011-05-21T10:24:10Z</time>
      </trkpt>
      <trkpt lat="48.72489" lon="2.03548">
        <ele>123.19</ele>
        <time>2011-05-21T10:24:11Z</time>
      </trkpt>
      <trkpt lat="48.72492" lon="2.03552">
        <ele>123.19</ele>
        <time>2011-05-21T10:24:12Z</time>
      </trkpt>
      <trkpt lat="48.72493" lon="2.03557">
        <ele>122.71</ele>
        <time>2011-05-21T10:24:13Z</time>
      </trkpt>
      <trkpt lat="48.72495" lon="2.03563">
        <ele>122.22</ele>
        <time>2011-05-21T10:24:14Z</time>
      </trkpt>
      <trkpt lat="48.72497" lon="2.03568">
        <ele>120.78</ele>
        <time>2011-05-21T10:24:15Z</time>
      </trkpt>
      <trkpt lat="48.72499" lon="2.03573">
        <ele>120.3</ele>
        <time>2011-05-21T10:24:16Z</time>
      </trkpt>
      <trkpt lat="48.72501" lon="2.03579">
        <ele>119.82</ele>
        <time>2011-05-21T10:24:17Z</time>
      </trkpt>
      <trkpt lat="48.72505" lon="2.03584">
        <ele>120.3</ele>
        <time>2011-05-21T10:24:18Z</time>
      </trkpt>
      <trkpt lat="48.72508" lon="2.0359">
        <ele>119.82</ele>
        <time>2011-05-21T10:24:19Z</time>
      </trkpt>
      <trkpt lat="48.72511" lon="2.03596">
        <ele>119.34</ele>
        <time>2011-05-21T10:24:20Z</time>
      </trkpt>
      <trkpt lat="48.72514" lon="2.03601">
        <ele>119.82</ele>
        <time>2011-05-21T10:24:21Z</time>
      </trkpt>
      <trkpt lat="48.72517" lon="2.03607">
        <ele>119.34</ele>
        <time>2011-05-21T10:24:22Z</time>
      </trkpt>
      <trkpt lat="48.72519" lon="2.03613">
        <ele>119.82</ele>
        <time>2011-05-21T10:24:23Z</time>
      </trkpt>
      <trkpt lat="48.72521" lon="2.03617">
        <ele>119.82</ele>
        <time>2011-05-21T10:24:24Z</time>
      </trkpt>
      <trkpt lat="48.72524" lon="2.03625">
        <ele>120.3</ele>
        <time>2011-05-21T10:24:26Z</time>
      </trkpt>
      <trkpt lat="48.72526" lon="2.03628">
        <ele>120.78</ele>
        <time>2011-05-21T10:24:27Z</time>
      </trkpt>
      <trkpt lat="48.72529" lon="2.0363">
        <ele>120.78</ele>
        <time>2011-05-21T10:24:28Z</time>
      </trkpt>
      <trkpt lat="48.72532" lon="2.03632">
        <ele>120.78</ele>
        <time>2011-05-21T10:24:29Z</time>
      </trkpt>
      <trkpt lat="48.72534" lon="2.03634">
        <ele>121.26</ele>
        <time>2011-05-21T10:24:30Z</time>
      </trkpt>
      <trkpt lat="48.72543" lon="2.03643">
        <ele>121.26</ele>
        <time>2011-05-21T10:24:34Z</time>
      </trkpt>
      <trkpt lat="48.72545" lon="2.03647">
        <ele>121.74</ele>
        <time>2011-05-21T10:24:35Z</time>
      </trkpt>
      <trkpt lat="48.72545" lon="2.03652">
        <ele>121.74</ele>
        <time>2011-05-21T10:24:36Z</time>
      </trkpt>
      <trkpt lat="48.72546" lon="2.03655">
        <ele>121.74</ele>
        <time>2011-05-21T10:24:37Z</time>
      </trkpt>
      <trkpt lat="48.72548" lon="2.03658">
        <ele>122.22</ele>
        <time>2011-05-21T10:24:38Z</time>
      </trkpt>
      <trkpt lat="48.72552" lon="2.03672">
        <ele>122.22</ele>
        <time>2011-05-21T10:24:46Z</time>
      </trkpt>
      <trkpt lat="48.72553" lon="2.03676">
        <ele>121.74</ele>
        <time>2011-05-21T10:24:48Z</time>
      </trkpt>
      <trkpt lat="48.72555" lon="2.03679">
        <ele>121.74</ele>
        <time>2011-05-21T10:24:50Z</time>
      </trkpt>
      <trkpt lat="48.72556" lon="2.03681">
        <ele>121.26</ele>
        <time>2011-05-21T10:24:51Z</time>
      </trkpt>
      <trkpt lat="48.72558" lon="2.03683">
        <ele>120.78</ele>
        <time>2011-05-21T10:24:52Z</time>
      </trkpt>
      <trkpt lat="48.7256" lon="2.03685">
        <ele>119.34</ele>
        <time>2011-05-21T10:24:53Z</time>
      </trkpt>
      <trkpt lat="48.72564" lon="2.03696">
        <ele>116.46</ele>
        <time>2011-05-21T10:24:55Z</time>
      </trkpt>
      <trkpt lat="48.72567" lon="2.03705">
        <ele>115.01</ele>
        <time>2011-05-21T10:24:56Z</time>
      </trkpt>
      <trkpt lat="48.7257" lon="2.03715">
        <ele>115.01</ele>
        <time>2011-05-21T10:24:57Z</time>
      </trkpt>
      <trkpt lat="48.72583" lon="2.03744">
        <ele>116.94</ele>
        <time>2011-05-21T10:25:01Z</time>
      </trkpt>
      <trkpt lat="48.72588" lon="2.03756">
        <ele>116.94</ele>
        <time>2011-05-21T10:25:03Z</time>
      </trkpt>
      <trkpt lat="48.7259" lon="2.03762">
        <ele>116.46</ele>
        <time>2011-05-21T10:25:04Z</time>
      </trkpt>
      <trkpt lat="48.7259" lon="2.0377">
        <ele>116.46</ele>
        <time>2011-05-21T10:25:05Z</time>
      </trkpt>
      <trkpt lat="48.72591" lon="2.03795">
        <ele>116.94</ele>
        <time>2011-05-21T10:25:09Z</time>
      </trkpt>
      <trkpt lat="48.72592" lon="2.03814">
        <ele>115.01</ele>
        <time>2011-05-21T10:25:16Z</time>
      </trkpt>
      <trkpt lat="48.72594" lon="2.03817">
        <ele>114.53</ele>
        <time>2011-05-21T10:25:17Z</time>
      </trkpt>
      <trkpt lat="48.72596" lon="2.03819">
        <ele>114.05</ele>
        <time>2011-05-21T10:25:18Z</time>
      </trkpt>
      <trkpt lat="48.72598" lon="2.03821">
        <ele>114.05</ele>
        <time>2011-05-21T10:25:19Z</time>
      </trkpt>
      <trkpt lat="48.72601" lon="2.03822">
        <ele>113.09</ele>
        <time>2011-05-21T10:25:20Z</time>
      </trkpt>
      <trkpt lat="48.72613" lon="2.03821">
        <ele>110.21</ele>
        <time>2011-05-21T10:25:24Z</time>
      </trkpt>
      <trkpt lat="48.72619" lon="2.03823">
        <ele>108.29</ele>
        <time>2011-05-21T10:25:25Z</time>
      </trkpt>
      <trkpt lat="48.72634" lon="2.03821">
        <ele>105.88</ele>
        <time>2011-05-21T10:25:28Z</time>
      </trkpt>
      <trkpt lat="48.72638" lon="2.03834">
        <ele>104.44</ele>
        <time>2011-05-21T10:25:31Z</time>
      </trkpt>
      <trkpt lat="48.72637" lon="2.03842">
        <ele>103.96</ele>
        <time>2011-05-21T10:25:32Z</time>
      </trkpt>
      <trkpt lat="48.72609" lon="2.03925">
        <ele>107.32</ele>
        <time>2011-05-21T10:25:42Z</time>
      </trkpt>
      <trkpt lat="48.72598" lon="2.03954">
        <ele>106.84</ele>
        <time>2011-05-21T10:25:46Z</time>
      </trkpt>
      <trkpt lat="48.72588" lon="2.03984">
        <ele>104.92</ele>
        <time>2011-05-21T10:25:49Z</time>
      </trkpt>
      <trkpt lat="48.72564" lon="2.04022">
        <ele>106.36</ele>
        <time>2011-05-21T10:25:54Z</time>
      </trkpt>
      <trkpt lat="48.72536" lon="2.04064">
        <ele>109.25</ele>
        <time>2011-05-21T10:26:02Z</time>
      </trkpt>
      <trkpt lat="48.72533" lon="2.0409">
        <ele>111.65</ele>
        <time>2011-05-21T10:26:07Z</time>
      </trkpt>
      <trkpt lat="48.72533" lon="2.04102">
        <ele>112.61</ele>
        <time>2011-05-21T10:26:11Z</time>
      </trkpt>
      <trkpt lat="48.72532" lon="2.0411">
        <ele>114.05</ele>
        <time>2011-05-21T10:26:14Z</time>
      </trkpt>
      <trkpt lat="48.72524" lon="2.04125">
        <ele>115.01</ele>
        <time>2011-05-21T10:26:29Z</time>
      </trkpt>
      <trkpt lat="48.72524" lon="2.04125">
        <ele>115.01</ele>
        <time>2011-05-21T10:26:56Z</time>
      </trkpt>
      <trkpt lat="48.72523" lon="2.04126">
        <ele>115.5</ele>
        <time>2011-05-21T10:27:15Z</time>
      </trkpt>
      <trkpt lat="48.72513" lon="2.0413">
        <ele>116.46</ele>
        <time>2011-05-21T10:27:23Z</time>
      </trkpt>
      <trkpt lat="48.72506" lon="2.0414">
        <ele>115.5</ele>
        <time>2011-05-21T10:27:28Z</time>
      </trkpt>
      <trkpt lat="48.725" lon="2.04148">
        <ele>114.53</ele>
        <time>2011-05-21T10:27:30Z</time>
      </trkpt>
      <trkpt lat="48.72487" lon="2.04158">
        <ele>113.09</ele>
        <time>2011-05-21T10:27:33Z</time>
      </trkpt>
      <trkpt lat="48.72482" lon="2.04162">
        <ele>113.09</ele>
        <time>2011-05-21T10:27:34Z</time>
      </trkpt>
      <trkpt lat="48.72471" lon="2.04189">
        <ele>109.25</ele>
        <time>2011-05-21T10:27:39Z</time>
      </trkpt>
      <trkpt lat="48.72477" lon="2.0421">
        <ele>106.84</ele>
        <time>2011-05-21T10:27:42Z</time>
      </trkpt>
      <trkpt lat="48.7248" lon="2.04218">
        <ele>105.4</ele>
        <time>2011-05-21T10:27:43Z</time>
      </trkpt>
      <trkpt lat="48.72472" lon="2.04242">
        <ele>106.36</ele>
        <time>2011-05-21T10:27:50Z</time>
      </trkpt>
      <trkpt lat="48.7245" lon="2.04245">
        <ele>109.25</ele>
        <time>2011-05-21T10:27:59Z</time>
      </trkpt>
      <trkpt lat="48.72424" lon="2.0424">
        <ele>112.13</ele>
        <time>2011-05-21T10:28:08Z</time>
      </trkpt>
      <trkpt lat="48.72399" lon="2.04247">
        <ele>113.57</ele>
        <time>2011-05-21T10:28:20Z</time>
      </trkpt>
      <trkpt lat="48.7238" lon="2.04283">
        <ele>114.05</ele>
        <time>2011-05-21T10:28:32Z</time>
      </trkpt>
      <trkpt lat="48.72368" lon="2.04341">
        <ele>115.01</ele>
        <time>2011-05-21T10:28:45Z</time>
      </trkpt>
      <trkpt lat="48.72365" lon="2.04358">
        <ele>116.46</ele>
        <time>2011-05-21T10:28:50Z</time>
      </trkpt>
      <trkpt lat="48.72363" lon="2.04367">
        <ele>117.9</ele>
        <time>2011-05-21T10:28:54Z</time>
      </trkpt>
      <trkpt lat="48.72356" lon="2.04388">
        <ele>121.26</ele>
        <time>2011-05-21T10:29:05Z</time>
      </trkpt>
      <trkpt lat="48.72351" lon="2.04397">
        <ele>122.22</ele>
        <time>2011-05-21T10:29:10Z</time>
      </trkpt>
      <trkpt lat="48.7233" lon="2.04411">
        <ele>121.74</ele>
        <time>2011-05-21T10:29:25Z</time>
      </trkpt>
      <trkpt lat="48.72287" lon="2.04413">
        <ele>121.74</ele>
        <time>2011-05-21T10:29:37Z</time>
      </trkpt>
      <trkpt lat="48.72257" lon="2.04436">
        <ele>121.74</ele>
        <time>2011-05-21T10:29:48Z</time>
      </trkpt>
      <trkpt lat="48.72255" lon="2.04438">
        <ele>120.3</ele>
        <time>2011-05-21T10:29:49Z</time>
      </trkpt>
      <trkpt lat="48.72236" lon="2.04449">
        <ele>122.22</ele>
        <time>2011-05-21T10:29:54Z</time>
      </trkpt>
      <trkpt lat="48.72211" lon="2.04444">
        <ele>125.59</ele>
        <time>2011-05-21T10:30:05Z</time>
      </trkpt>
      <trkpt lat="48.72196" lon="2.04435">
        <ele>127.99</ele>
        <time>2011-05-21T10:30:14Z</time>
      </trkpt>
      <trkpt lat="48.72181" lon="2.04486">
        <ele>124.63</ele>
        <time>2011-05-21T10:30:26Z</time>
      </trkpt>
      <trkpt lat="48.72184" lon="2.04514">
        <ele>126.07</ele>
        <time>2011-05-21T10:30:30Z</time>
      </trkpt>
      <trkpt lat="48.72192" lon="2.04532">
        <ele>128.47</ele>
        <time>2011-05-21T10:30:34Z</time>
      </trkpt>
      <trkpt lat="48.72208" lon="2.04564">
        <ele>129.92</ele>
        <time>2011-05-21T10:30:47Z</time>
      </trkpt>
      <trkpt lat="48.72208" lon="2.04564">
        <ele>130.4</ele>
        <time>2011-05-21T10:31:14Z</time>
      </trkpt>
      <trkpt lat="48.72208" lon="2.04563">
        <ele>129.92</ele>
        <time>2011-05-21T10:31:38Z</time>
      </trkpt>
      <trkpt lat="48.72209" lon="2.04566">
        <ele>129.92</ele>
        <time>2011-05-21T10:32:07Z</time>
      </trkpt>
      <trkpt lat="48.72212" lon="2.04587">
        <ele>128.95</ele>
        <time>2011-05-21T10:32:12Z</time>
      </trkpt>
      <trkpt lat="48.72208" lon="2.04598">
        <ele>130.4</ele>
        <time>2011-05-21T10:32:15Z</time>
      </trkpt>
      <trkpt lat="48.72184" lon="2.04631">
        <ele>131.36</ele>
        <time>2011-05-21T10:32:26Z</time>
      </trkpt>
      <trkpt lat="48.72145" lon="2.04657">
        <ele>131.84</ele>
        <time>2011-05-21T10:32:38Z</time>
      </trkpt>
      <trkpt lat="48.72139" lon="2.04694">
        <ele>134.24</ele>
        <time>2011-05-21T10:32:49Z</time>
      </trkpt>
      <trkpt lat="48.72135" lon="2.04717">
        <ele>137.61</ele>
        <time>2011-05-21T10:32:58Z</time>
      </trkpt>
      <trkpt lat="48.72135" lon="2.04718">
        <ele>137.61</ele>
        <time>2011-05-21T10:32:59Z</time>
      </trkpt>
      <trkpt lat="48.72136" lon="2.0473">
        <ele>140.01</ele>
        <time>2011-05-21T10:33:05Z</time>
      </trkpt>
      <trkpt lat="48.72135" lon="2.04743">
        <ele>142.41</ele>
        <time>2011-05-21T10:33:11Z</time>
      </trkpt>
      <trkpt lat="48.72133" lon="2.04751">
        <ele>143.37</ele>
        <time>2011-05-21T10:33:15Z</time>
      </trkpt>
      <trkpt lat="48.72124" lon="2.04785">
        <ele>145.3</ele>
        <time>2011-05-21T10:33:31Z</time>
      </trkpt>
      <trkpt lat="48.72122" lon="2.04796">
        <ele>145.78</ele>
        <time>2011-05-21T10:33:36Z</time>
      </trkpt>
      <trkpt lat="48.72122" lon="2.04807">
        <ele>146.74</ele>
        <time>2011-05-21T10:33:40Z</time>
      </trkpt>
      <trkpt lat="48.72116" lon="2.04836">
        <ele>149.62</ele>
        <time>2011-05-21T10:33:54Z</time>
      </trkpt>
      <trkpt lat="48.72111" lon="2.04868">
        <ele>152.03</ele>
        <time>2011-05-21T10:34:09Z</time>
      </trkpt>
      <trkpt lat="48.72107" lon="2.04892">
        <ele>153.95</ele>
        <time>2011-05-21T10:34:22Z</time>
      </trkpt>
      <trkpt lat="48.72107" lon="2.04897">
        <ele>153.95</ele>
        <time>2011-05-21T10:34:34Z</time>
      </trkpt>
      <trkpt lat="48.72105" lon="2.04887">
        <ele>153.95</ele>
        <time>2011-05-21T10:34:46Z</time>
      </trkpt>
      <trkpt lat="48.72107" lon="2.0489">
        <ele>153.95</ele>
        <time>2011-05-21T10:34:48Z</time>
      </trkpt>
      <trkpt lat="48.72108" lon="2.04891">
        <ele>146.74</ele>
        <time>2011-05-21T10:35:00Z</time>
      </trkpt>
      <trkpt lat="48.72108" lon="2.04891">
        <ele>155.39</ele>
        <time>2011-05-21T10:35:01Z</time>
      </trkpt>
      <trkpt lat="48.72108" lon="2.04891">
        <ele>154.43</ele>
        <time>2011-05-21T10:35:30Z</time>
      </trkpt>
      <trkpt lat="48.72108" lon="2.04891">
        <ele>151.06</ele>
        <time>2011-05-21T10:35:33Z</time>
      </trkpt>
      <trkpt lat="48.72108" lon="2.04891">
        <ele>156.83</ele>
        <time>2011-05-21T10:35:34Z</time>
      </trkpt>
      <trkpt lat="48.72108" lon="2.04891">
        <ele>150.1</ele>
        <time>2011-05-21T10:35:35Z</time>
      </trkpt>
      <trkpt lat="48.72108" lon="2.04891">
        <ele>153.95</ele>
        <time>2011-05-21T10:35:36Z</time>
      </trkpt>
      <trkpt lat="48.72108" lon="2.04892">
        <ele>153.47</ele>
        <time>2011-05-21T10:35:45Z</time>
      </trkpt>
      <trkpt lat="48.7211" lon="2.04925">
        <ele>154.43</ele>
        <time>2011-05-21T10:35:54Z</time>
      </trkpt>
      <trkpt lat="48.72116" lon="2.04972">
        <ele>154.91</ele>
        <time>2011-05-21T10:36:08Z</time>
      </trkpt>
      <trkpt lat="48.72119" lon="2.04987">
        <ele>154.91</ele>
        <time>2011-05-21T10:36:16Z</time>
      </trkpt>
      <trkpt lat="48.72125" lon="2.05051">
        <ele>155.87</ele>
        <time>2011-05-21T10:36:28Z</time>
      </trkpt>
      <trkpt lat="48.72129" lon="2.05109">
        <ele>155.39</ele>
        <time>2011-05-21T10:36:41Z</time>
      </trkpt>
      <trkpt lat="48.72141" lon="2.05194">
        <ele>154.91</ele>
        <time>2011-05-21T10:36:55Z</time>
      </trkpt>
      <trkpt lat="48.7215" lon="2.0528">
        <ele>153.95</ele>
        <time>2011-05-21T10:37:09Z</time>
      </trkpt>
      <trkpt lat="48.72157" lon="2.05329">
        <ele>151.06</ele>
        <time>2011-05-21T10:37:16Z</time>
      </trkpt>
      <trkpt lat="48.72158" lon="2.05336">
        <ele>150.58</ele>
        <time>2011-05-21T10:37:17Z</time>
      </trkpt>
      <trkpt lat="48.72161" lon="2.05357">
        <ele>147.22</ele>
        <time>2011-05-21T10:37:20Z</time>
      </trkpt>
      <trkpt lat="48.72162" lon="2.05372">
        <ele>144.82</ele>
        <time>2011-05-21T10:37:22Z</time>
      </trkpt>
      <trkpt lat="48.72163" lon="2.05384">
        <ele>141.45</ele>
        <time>2011-05-21T10:37:24Z</time>
      </trkpt>
      <trkpt lat="48.72165" lon="2.05401">
        <ele>137.13</ele>
        <time>2011-05-21T10:37:27Z</time>
      </trkpt>
      <trkpt lat="48.72167" lon="2.05422">
        <ele>133.76</ele>
        <time>2011-05-21T10:37:30Z</time>
      </trkpt>
      <trkpt lat="48.72168" lon="2.05432">
        <ele>132.32</ele>
        <time>2011-05-21T10:37:31Z</time>
      </trkpt>
      <trkpt lat="48.72169" lon="2.05442">
        <ele>130.4</ele>
        <time>2011-05-21T10:37:32Z</time>
      </trkpt>
      <trkpt lat="48.7217" lon="2.05469">
        <ele>127.03</ele>
        <time>2011-05-21T10:37:35Z</time>
      </trkpt>
      <trkpt lat="48.72171" lon="2.05485">
        <ele>123.67</ele>
        <time>2011-05-21T10:37:38Z</time>
      </trkpt>
      <trkpt lat="48.72176" lon="2.05494">
        <ele>122.22</ele>
        <time>2011-05-21T10:37:43Z</time>
      </trkpt>
      <trkpt lat="48.72173" lon="2.05497">
        <ele>122.71</ele>
        <time>2011-05-21T10:37:49Z</time>
      </trkpt>
      <trkpt lat="48.72172" lon="2.05501">
        <ele>121.74</ele>
        <time>2011-05-21T10:37:56Z</time>
      </trkpt>
      <trkpt lat="48.72172" lon="2.05504">
        <ele>120.78</ele>
        <time>2011-05-21T10:37:57Z</time>
      </trkpt>
      <trkpt lat="48.72173" lon="2.0551">
        <ele>119.82</ele>
        <time>2011-05-21T10:37:59Z</time>
      </trkpt>
      <trkpt lat="48.72186" lon="2.05542">
        <ele>117.9</ele>
        <time>2011-05-21T10:38:10Z</time>
      </trkpt>
      <trkpt lat="48.72198" lon="2.05557">
        <ele>114.05</ele>
        <time>2011-05-21T10:38:15Z</time>
      </trkpt>
      <trkpt lat="48.72219" lon="2.05568">
        <ele>110.69</ele>
        <time>2011-05-21T10:38:20Z</time>
      </trkpt>
      <trkpt lat="48.72224" lon="2.05571">
        <ele>109.25</ele>
        <time>2011-05-21T10:38:21Z</time>
      </trkpt>
      <trkpt lat="48.72228" lon="2.05573">
        <ele>108.77</ele>
        <time>2011-05-21T10:38:22Z</time>
      </trkpt>
      <trkpt lat="48.72232" lon="2.05575">
        <ele>108.29</ele>
        <time>2011-05-21T10:38:23Z</time>
      </trkpt>
      <trkpt lat="48.72237" lon="2.05577">
        <ele>107.81</ele>
        <time>2011-05-21T10:38:24Z</time>
      </trkpt>
      <trkpt lat="48.72242" lon="2.05577">
        <ele>107.81</ele>
        <time>2011-05-21T10:38:25Z</time>
      </trkpt>
      <trkpt lat="48.72249" lon="2.05574">
        <ele>107.81</ele>
        <time>2011-05-21T10:38:27Z</time>
      </trkpt>
      <trkpt lat="48.72253" lon="2.05572">
        <ele>108.29</ele>
        <time>2011-05-21T10:38:28Z</time>
      </trkpt>
      <trkpt lat="48.72257" lon="2.05571">
        <ele>108.29</ele>
        <time>2011-05-21T10:38:29Z</time>
      </trkpt>
      <trkpt lat="48.7226" lon="2.05571">
        <ele>107.81</ele>
        <time>2011-05-21T10:38:30Z</time>
      </trkpt>
      <trkpt lat="48.72262" lon="2.0557">
        <ele>107.32</ele>
        <time>2011-05-21T10:38:31Z</time>
      </trkpt>
      <trkpt lat="48.72265" lon="2.05571">
        <ele>106.84</ele>
        <time>2011-05-21T10:38:32Z</time>
      </trkpt>
      <trkpt lat="48.72267" lon="2.05573">
        <ele>106.36</ele>
        <time>2011-05-21T10:38:33Z</time>
      </trkpt>
      <trkpt lat="48.72269" lon="2.05575">
        <ele>105.88</ele>
        <time>2011-05-21T10:38:34Z</time>
      </trkpt>
      <trkpt lat="48.72272" lon="2.05575">
        <ele>104.92</ele>
        <time>2011-05-21T10:38:35Z</time>
      </trkpt>
      <trkpt lat="48.72277" lon="2.05576">
        <ele>104.44</ele>
        <time>2011-05-21T10:38:36Z</time>
      </trkpt>
      <trkpt lat="48.72282" lon="2.05578">
        <ele>103.48</ele>
        <time>2011-05-21T10:38:37Z</time>
      </trkpt>
      <trkpt lat="48.72298" lon="2.05581">
        <ele>101.56</ele>
        <time>2011-05-21T10:38:39Z</time>
      </trkpt>
      <trkpt lat="48.72315" lon="2.05581">
        <ele>100.6</ele>
        <time>2011-05-21T10:38:41Z</time>
      </trkpt>
      <trkpt lat="48.72323" lon="2.0558">
        <ele>100.11</ele>
        <time>2011-05-21T10:38:42Z</time>
      </trkpt>
      <trkpt lat="48.72337" lon="2.0558">
        <ele>99.15</ele>
        <time>2011-05-21T10:38:44Z</time>
      </trkpt>
      <trkpt lat="48.72348" lon="2.05579">
        <ele>98.19</ele>
        <time>2011-05-21T10:38:46Z</time>
      </trkpt>
      <trkpt lat="48.72351" lon="2.05578">
        <ele>98.19</ele>
        <time>2011-05-21T10:38:47Z</time>
      </trkpt>
      <trkpt lat="48.72354" lon="2.05578">
        <ele>98.19</ele>
        <time>2011-05-21T10:38:58Z</time>
      </trkpt>
      <trkpt lat="48.72354" lon="2.05578">
        <ele>103</ele>
        <time>2011-05-21T10:39:26Z</time>
      </trkpt>
      <trkpt lat="48.72354" lon="2.05578">
        <ele>97.23</ele>
        <time>2011-05-21T10:39:27Z</time>
      </trkpt>
      <trkpt lat="48.72354" lon="2.05578">
        <ele>98.19</ele>
        <time>2011-05-21T10:40:01Z</time>
      </trkpt>
      <trkpt lat="48.72371" lon="2.05586">
        <ele>96.75</ele>
        <time>2011-05-21T10:40:16Z</time>
      </trkpt>
      <trkpt lat="48.72374" lon="2.0559">
        <ele>96.27</ele>
        <time>2011-05-21T10:40:17Z</time>
      </trkpt>
      <trkpt lat="48.72377" lon="2.05596">
        <ele>95.31</ele>
        <time>2011-05-21T10:40:18Z</time>
      </trkpt>
      <trkpt lat="48.72381" lon="2.05602">
        <ele>94.35</ele>
        <time>2011-05-21T10:40:19Z</time>
      </trkpt>
      <trkpt lat="48.72404" lon="2.05634">
        <ele>90.98</ele>
        <time>2011-05-21T10:40:23Z</time>
      </trkpt>
      <trkpt lat="48.72438" lon="2.05684">
        <ele>87.62</ele>
        <time>2011-05-21T10:40:28Z</time>
      </trkpt>
      <trkpt lat="48.72445" lon="2.05693">
        <ele>87.62</ele>
        <time>2011-05-21T10:40:29Z</time>
      </trkpt>
      <trkpt lat="48.7245" lon="2.05702">
        <ele>87.14</ele>
        <time>2011-05-21T10:40:30Z</time>
      </trkpt>
      <trkpt lat="48.72455" lon="2.05711">
        <ele>86.66</ele>
        <time>2011-05-21T10:40:31Z</time>
      </trkpt>
      <trkpt lat="48.72458" lon="2.0572">
        <ele>86.18</ele>
        <time>2011-05-21T10:40:32Z</time>
      </trkpt>
      <trkpt lat="48.72461" lon="2.05731">
        <ele>86.18</ele>
        <time>2011-05-21T10:40:33Z</time>
      </trkpt>
      <trkpt lat="48.72462" lon="2.05741">
        <ele>86.18</ele>
        <time>2011-05-21T10:40:34Z</time>
      </trkpt>
      <trkpt lat="48.72463" lon="2.05751">
        <ele>86.18</ele>
        <time>2011-05-21T10:40:35Z</time>
      </trkpt>
      <trkpt lat="48.72467" lon="2.0578">
        <ele>86.18</ele>
        <time>2011-05-21T10:40:38Z</time>
      </trkpt>
      <trkpt lat="48.72467" lon="2.05789">
        <ele>85.69</ele>
        <time>2011-05-21T10:40:39Z</time>
      </trkpt>
      <trkpt lat="48.72475" lon="2.05848">
        <ele>85.21</ele>
        <time>2011-05-21T10:40:47Z</time>
      </trkpt>
      <trkpt lat="48.72476" lon="2.05855">
        <ele>85.21</ele>
        <time>2011-05-21T10:40:48Z</time>
      </trkpt>
      <trkpt lat="48.7248" lon="2.05895">
        <ele>85.21</ele>
        <time>2011-05-21T10:40:54Z</time>
      </trkpt>
      <trkpt lat="48.72482" lon="2.05901">
        <ele>85.21</ele>
        <time>2011-05-21T10:40:55Z</time>
      </trkpt>
      <trkpt lat="48.72485" lon="2.05907">
        <ele>85.21</ele>
        <time>2011-05-21T10:40:56Z</time>
      </trkpt>
      <trkpt lat="48.72487" lon="2.05911">
        <ele>85.69</ele>
        <time>2011-05-21T10:40:57Z</time>
      </trkpt>
      <trkpt lat="48.72489" lon="2.05914">
        <ele>85.21</ele>
        <time>2011-05-21T10:40:58Z</time>
      </trkpt>
      <trkpt lat="48.72504" lon="2.05937">
        <ele>86.66</ele>
        <time>2011-05-21T10:41:05Z</time>
      </trkpt>
      <trkpt lat="48.72505" lon="2.05941">
        <ele>87.62</ele>
        <time>2011-05-21T10:41:06Z</time>
      </trkpt>
      <trkpt lat="48.72506" lon="2.05943">
        <ele>87.62</ele>
        <time>2011-05-21T10:41:07Z</time>
      </trkpt>
      <trkpt lat="48.72508" lon="2.0595">
        <ele>88.1</ele>
        <time>2011-05-21T10:41:10Z</time>
      </trkpt>
      <trkpt lat="48.72509" lon="2.05952">
        <ele>88.58</ele>
        <time>2011-05-21T10:41:11Z</time>
      </trkpt>
      <trkpt lat="48.72517" lon="2.05965">
        <ele>89.54</ele>
        <time>2011-05-21T10:41:17Z</time>
      </trkpt>
      <trkpt lat="48.72519" lon="2.05968">
        <ele>90.02</ele>
        <time>2011-05-21T10:41:18Z</time>
      </trkpt>
      <trkpt lat="48.7252" lon="2.0597">
        <ele>90.02</ele>
        <time>2011-05-21T10:41:19Z</time>
      </trkpt>
      <trkpt lat="48.72524" lon="2.05982">
        <ele>91.46</ele>
        <time>2011-05-21T10:41:24Z</time>
      </trkpt>
      <trkpt lat="48.72523" lon="2.05984">
        <ele>91.94</ele>
        <time>2011-05-21T10:41:25Z</time>
      </trkpt>
      <trkpt lat="48.72523" lon="2.05986">
        <ele>91.94</ele>
        <time>2011-05-21T10:41:26Z</time>
      </trkpt>
      <trkpt lat="48.72522" lon="2.05988">
        <ele>92.42</ele>
        <time>2011-05-21T10:41:27Z</time>
      </trkpt>
      <trkpt lat="48.72523" lon="2.0599">
        <ele>92.42</ele>
        <time>2011-05-21T10:41:28Z</time>
      </trkpt>
      <trkpt lat="48.72524" lon="2.05992">
        <ele>92.42</ele>
        <time>2011-05-21T10:41:29Z</time>
      </trkpt>
      <trkpt lat="48.72524" lon="2.06">
        <ele>92.9</ele>
        <time>2011-05-21T10:41:32Z</time>
      </trkpt>
      <trkpt lat="48.72528" lon="2.06007">
        <ele>93.87</ele>
        <time>2011-05-21T10:41:35Z</time>
      </trkpt>
      <trkpt lat="48.72529" lon="2.06008">
        <ele>93.87</ele>
        <time>2011-05-21T10:41:36Z</time>
      </trkpt>
      <trkpt lat="48.7253" lon="2.06009">
        <ele>94.35</ele>
        <time>2011-05-21T10:41:37Z</time>
      </trkpt>
      <trkpt lat="48.72547" lon="2.0603">
        <ele>96.27</ele>
        <time>2011-05-21T10:41:49Z</time>
      </trkpt>
      <trkpt lat="48.72563" lon="2.06054">
        <ele>98.67</ele>
        <time>2011-05-21T10:42:03Z</time>
      </trkpt>
      <trkpt lat="48.72575" lon="2.06068">
        <ele>101.56</ele>
        <time>2011-05-21T10:42:13Z</time>
      </trkpt>
      <trkpt lat="48.72583" lon="2.06084">
        <ele>103</ele>
        <time>2011-05-21T10:42:23Z</time>
      </trkpt>
      <trkpt lat="48.72584" lon="2.06085">
        <ele>103.48</ele>
        <time>2011-05-21T10:42:24Z</time>
      </trkpt>
      <trkpt lat="48.72585" lon="2.06087">
        <ele>103.48</ele>
        <time>2011-05-21T10:42:25Z</time>
      </trkpt>
      <trkpt lat="48.72585" lon="2.06088">
        <ele>103.48</ele>
        <time>2011-05-21T10:42:26Z</time>
      </trkpt>
      <trkpt lat="48.72586" lon="2.06089">
        <ele>103.48</ele>
        <time>2011-05-21T10:42:27Z</time>
      </trkpt>
      <trkpt lat="48.72588" lon="2.0609">
        <ele>103.48</ele>
        <time>2011-05-21T10:42:28Z</time>
      </trkpt>
      <trkpt lat="48.72597" lon="2.06101">
        <ele>104.44</ele>
        <time>2011-05-21T10:42:36Z</time>
      </trkpt>
      <trkpt lat="48.72599" lon="2.06102">
        <ele>104.92</ele>
        <time>2011-05-21T10:42:37Z</time>
      </trkpt>
      <trkpt lat="48.726" lon="2.06102">
        <ele>104.92</ele>
        <time>2011-05-21T10:42:38Z</time>
      </trkpt>
      <trkpt lat="48.72601" lon="2.06104">
        <ele>104.92</ele>
        <time>2011-05-21T10:42:39Z</time>
      </trkpt>
      <trkpt lat="48.72603" lon="2.06105">
        <ele>104.92</ele>
        <time>2011-05-21T10:42:40Z</time>
      </trkpt>
      <trkpt lat="48.72604" lon="2.06106">
        <ele>104.92</ele>
        <time>2011-05-21T10:42:41Z</time>
      </trkpt>
      <trkpt lat="48.72606" lon="2.06106">
        <ele>105.88</ele>
        <time>2011-05-21T10:42:43Z</time>
      </trkpt>
      <trkpt lat="48.72615" lon="2.06102">
        <ele>106.84</ele>
        <time>2011-05-21T10:42:57Z</time>
      </trkpt>
      <trkpt lat="48.72619" lon="2.0611">
        <ele>107.81</ele>
        <time>2011-05-21T10:43:11Z</time>
      </trkpt>
      <trkpt lat="48.72623" lon="2.0611">
        <ele>108.29</ele>
        <time>2011-05-21T10:43:18Z</time>
      </trkpt>
      <trkpt lat="48.72624" lon="2.0611">
        <ele>108.77</ele>
        <time>2011-05-21T10:43:19Z</time>
      </trkpt>
      <trkpt lat="48.72633" lon="2.06109">
        <ele>109.73</ele>
        <time>2011-05-21T10:43:30Z</time>
      </trkpt>
      <trkpt lat="48.7264" lon="2.06108">
        <ele>110.69</ele>
        <time>2011-05-21T10:43:44Z</time>
      </trkpt>
      <trkpt lat="48.72643" lon="2.06113">
        <ele>110.69</ele>
        <time>2011-05-21T10:43:46Z</time>
      </trkpt>
      <trkpt lat="48.72644" lon="2.06115">
        <ele>110.69</ele>
        <time>2011-05-21T10:43:47Z</time>
      </trkpt>
      <trkpt lat="48.72644" lon="2.06118">
        <ele>111.17</ele>
        <time>2011-05-21T10:43:48Z</time>
      </trkpt>
      <trkpt lat="48.72651" lon="2.06151">
        <ele>112.13</ele>
        <time>2011-05-21T10:44:01Z</time>
      </trkpt>
      <trkpt lat="48.72665" lon="2.06181">
        <ele>114.53</ele>
        <time>2011-05-21T10:44:17Z</time>
      </trkpt>
      <trkpt lat="48.72673" lon="2.06196">
        <ele>116.46</ele>
        <time>2011-05-21T10:44:29Z</time>
      </trkpt>
      <trkpt lat="48.72676" lon="2.06203">
        <ele>117.42</ele>
        <time>2011-05-21T10:44:37Z</time>
      </trkpt>
      <trkpt lat="48.72678" lon="2.06207">
        <ele>118.38</ele>
        <time>2011-05-21T10:44:46Z</time>
      </trkpt>
      <trkpt lat="48.72679" lon="2.06209">
        <ele>118.38</ele>
        <time>2011-05-21T10:44:48Z</time>
      </trkpt>
      <trkpt lat="48.7268" lon="2.06211">
        <ele>118.38</ele>
        <time>2011-05-21T10:44:49Z</time>
      </trkpt>
      <trkpt lat="48.7268" lon="2.06213">
        <ele>118.38</ele>
        <time>2011-05-21T10:44:50Z</time>
      </trkpt>
      <trkpt lat="48.7268" lon="2.06216">
        <ele>118.38</ele>
        <time>2011-05-21T10:44:51Z</time>
      </trkpt>
      <trkpt lat="48.7268" lon="2.06218">
        <ele>118.86</ele>
        <time>2011-05-21T10:44:52Z</time>
      </trkpt>
      <trkpt lat="48.72687" lon="2.06246">
        <ele>120.78</ele>
        <time>2011-05-21T10:45:05Z</time>
      </trkpt>
      <trkpt lat="48.72688" lon="2.0626">
        <ele>121.74</ele>
        <time>2011-05-21T10:45:16Z</time>
      </trkpt>
      <trkpt lat="48.72689" lon="2.06279">
        <ele>122.71</ele>
        <time>2011-05-21T10:45:31Z</time>
      </trkpt>
      <trkpt lat="48.72691" lon="2.06299">
        <ele>124.63</ele>
        <time>2011-05-21T10:45:38Z</time>
      </trkpt>
      <trkpt lat="48.72705" lon="2.06309">
        <ele>127.51</ele>
        <time>2011-05-21T10:45:52Z</time>
      </trkpt>
      <trkpt lat="48.72726" lon="2.06317">
        <ele>129.43</ele>
        <time>2011-05-21T10:46:07Z</time>
      </trkpt>
      <trkpt lat="48.7274" lon="2.06327">
        <ele>132.32</ele>
        <time>2011-05-21T10:46:20Z</time>
      </trkpt>
      <trkpt lat="48.72758" lon="2.06339">
        <ele>135.2</ele>
        <time>2011-05-21T10:46:33Z</time>
      </trkpt>
      <trkpt lat="48.7277" lon="2.06354">
        <ele>138.57</ele>
        <time>2011-05-21T10:46:46Z</time>
      </trkpt>
      <trkpt lat="48.72773" lon="2.06362">
        <ele>139.53</ele>
        <time>2011-05-21T10:46:51Z</time>
      </trkpt>
      <trkpt lat="48.72774" lon="2.06363">
        <ele>139.53</ele>
        <time>2011-05-21T10:46:52Z</time>
      </trkpt>
      <trkpt lat="48.72775" lon="2.06364">
        <ele>139.53</ele>
        <time>2011-05-21T10:46:53Z</time>
      </trkpt>
      <trkpt lat="48.7278" lon="2.06369">
        <ele>140.49</ele>
        <time>2011-05-21T10:46:58Z</time>
      </trkpt>
      <trkpt lat="48.72784" lon="2.06373">
        <ele>140.97</ele>
        <time>2011-05-21T10:47:12Z</time>
      </trkpt>
      <trkpt lat="48.72785" lon="2.06374">
        <ele>141.45</ele>
        <time>2011-05-21T10:47:14Z</time>
      </trkpt>
      <trkpt lat="48.72791" lon="2.06386">
        <ele>143.37</ele>
        <time>2011-05-21T10:47:27Z</time>
      </trkpt>
      <trkpt lat="48.72798" lon="2.06395">
        <ele>144.82</ele>
        <time>2011-05-21T10:47:40Z</time>
      </trkpt>
      <trkpt lat="48.72807" lon="2.06411">
        <ele>147.22</ele>
        <time>2011-05-21T10:47:55Z</time>
      </trkpt>
      <trkpt lat="48.72812" lon="2.06422">
        <ele>150.1</ele>
        <time>2011-05-21T10:48:07Z</time>
      </trkpt>
      <trkpt lat="48.7282" lon="2.06436">
        <ele>151.54</ele>
        <time>2011-05-21T10:48:20Z</time>
      </trkpt>
      <trkpt lat="48.72825" lon="2.0645">
        <ele>152.99</ele>
        <time>2011-05-21T10:48:32Z</time>
      </trkpt>
      <trkpt lat="48.72831" lon="2.06461">
        <ele>153.95</ele>
        <time>2011-05-21T10:48:46Z</time>
      </trkpt>
      <trkpt lat="48.72833" lon="2.06462">
        <ele>153.95</ele>
        <time>2011-05-21T10:48:49Z</time>
      </trkpt>
      <trkpt lat="48.72834" lon="2.06463">
        <ele>153.95</ele>
        <time>2011-05-21T10:48:50Z</time>
      </trkpt>
      <trkpt lat="48.72836" lon="2.06467">
        <ele>154.43</ele>
        <time>2011-05-21T10:48:52Z</time>
      </trkpt>
      <trkpt lat="48.72837" lon="2.06469">
        <ele>154.91</ele>
        <time>2011-05-21T10:48:53Z</time>
      </trkpt>
      <trkpt lat="48.72854" lon="2.06493">
        <ele>157.31</ele>
        <time>2011-05-21T10:49:07Z</time>
      </trkpt>
      <trkpt lat="48.72863" lon="2.06504">
        <ele>159.24</ele>
        <time>2011-05-21T10:49:15Z</time>
      </trkpt>
      <trkpt lat="48.72865" lon="2.06506">
        <ele>158.75</ele>
        <time>2011-05-21T10:49:16Z</time>
      </trkpt>
      <trkpt lat="48.72866" lon="2.06507">
        <ele>158.75</ele>
        <time>2011-05-21T10:49:17Z</time>
      </trkpt>
      <trkpt lat="48.72866" lon="2.06506">
        <ele>158.75</ele>
        <time>2011-05-21T10:49:18Z</time>
      </trkpt>
      <trkpt lat="48.72867" lon="2.06505">
        <ele>159.24</ele>
        <time>2011-05-21T10:49:19Z</time>
      </trkpt>
      <trkpt lat="48.72863" lon="2.06508">
        <ele>158.75</ele>
        <time>2011-05-21T10:49:26Z</time>
      </trkpt>
      <trkpt lat="48.72863" lon="2.06503">
        <ele>158.75</ele>
        <time>2011-05-21T10:49:29Z</time>
      </trkpt>
      <trkpt lat="48.72862" lon="2.065">
        <ele>158.75</ele>
        <time>2011-05-21T10:49:42Z</time>
      </trkpt>
      <trkpt lat="48.72862" lon="2.065">
        <ele>159.24</ele>
        <time>2011-05-21T10:50:11Z</time>
      </trkpt>
      <trkpt lat="48.72858" lon="2.0651">
        <ele>159.24</ele>
        <time>2011-05-21T10:50:21Z</time>
      </trkpt>
      <trkpt lat="48.72827" lon="2.06547">
        <ele>157.31</ele>
        <time>2011-05-21T10:50:34Z</time>
      </trkpt>
      <trkpt lat="48.72791" lon="2.06603">
        <ele>157.31</ele>
        <time>2011-05-21T10:50:48Z</time>
      </trkpt>
      <trkpt lat="48.72761" lon="2.06657">
        <ele>158.27</ele>
        <time>2011-05-21T10:51:01Z</time>
      </trkpt>
      <trkpt lat="48.72733" lon="2.06723">
        <ele>158.27</ele>
        <time>2011-05-21T10:51:16Z</time>
      </trkpt>
      <trkpt lat="48.72717" lon="2.06763">
        <ele>158.75</ele>
        <time>2011-05-21T10:51:24Z</time>
      </trkpt>
      <trkpt lat="48.72703" lon="2.06797">
        <ele>158.27</ele>
        <time>2011-05-21T10:51:30Z</time>
      </trkpt>
      <trkpt lat="48.727" lon="2.06803">
        <ele>158.27</ele>
        <time>2011-05-21T10:51:31Z</time>
      </trkpt>
      <trkpt lat="48.72657" lon="2.06884">
        <ele>157.79</ele>
        <time>2011-05-21T10:51:45Z</time>
      </trkpt>
      <trkpt lat="48.726" lon="2.06976">
        <ele>155.39</ele>
        <time>2011-05-21T10:51:58Z</time>
      </trkpt>
      <trkpt lat="48.72571" lon="2.07017">
        <ele>154.43</ele>
        <time>2011-05-21T10:52:04Z</time>
      </trkpt>
      <trkpt lat="48.72566" lon="2.07024">
        <ele>153.95</ele>
        <time>2011-05-21T10:52:05Z</time>
      </trkpt>
      <trkpt lat="48.72556" lon="2.07037">
        <ele>153.47</ele>
        <time>2011-05-21T10:52:07Z</time>
      </trkpt>
      <trkpt lat="48.72551" lon="2.07043">
        <ele>152.99</ele>
        <time>2011-05-21T10:52:08Z</time>
      </trkpt>
      <trkpt lat="48.72547" lon="2.0705">
        <ele>152.51</ele>
        <time>2011-05-21T10:52:09Z</time>
      </trkpt>
      <trkpt lat="48.72543" lon="2.07055">
        <ele>152.03</ele>
        <time>2011-05-21T10:52:10Z</time>
      </trkpt>
      <trkpt lat="48.72539" lon="2.07059">
        <ele>152.03</ele>
        <time>2011-05-21T10:52:11Z</time>
      </trkpt>
      <trkpt lat="48.72535" lon="2.07058">
        <ele>152.03</ele>
        <time>2011-05-21T10:52:12Z</time>
      </trkpt>
      <trkpt lat="48.7253" lon="2.07057">
        <ele>152.03</ele>
        <time>2011-05-21T10:52:13Z</time>
      </trkpt>
      <trkpt lat="48.72525" lon="2.07056">
        <ele>152.51</ele>
        <time>2011-05-21T10:52:14Z</time>
      </trkpt>
      <trkpt lat="48.7252" lon="2.07057">
        <ele>152.51</ele>
        <time>2011-05-21T10:52:15Z</time>
      </trkpt>
      <trkpt lat="48.72517" lon="2.07059">
        <ele>152.51</ele>
        <time>2011-05-21T10:52:16Z</time>
      </trkpt>
      <trkpt lat="48.725" lon="2.07086">
        <ele>151.06</ele>
        <time>2011-05-21T10:52:24Z</time>
      </trkpt>
      <trkpt lat="48.72479" lon="2.07144">
        <ele>151.54</ele>
        <time>2011-05-21T10:52:34Z</time>
      </trkpt>
      <trkpt lat="48.72455" lon="2.07194">
        <ele>151.06</ele>
        <time>2011-05-21T10:52:44Z</time>
      </trkpt>
      <trkpt lat="48.72452" lon="2.07199">
        <ele>150.58</ele>
        <time>2011-05-21T10:52:45Z</time>
      </trkpt>
      <trkpt lat="48.72449" lon="2.07203">
        <ele>151.06</ele>
        <time>2011-05-21T10:52:46Z</time>
      </trkpt>
      <trkpt lat="48.72446" lon="2.07209">
        <ele>151.06</ele>
        <time>2011-05-21T10:52:47Z</time>
      </trkpt>
      <trkpt lat="48.72443" lon="2.07213">
        <ele>151.06</ele>
        <time>2011-05-21T10:52:48Z</time>
      </trkpt>
      <trkpt lat="48.72425" lon="2.07246">
        <ele>150.58</ele>
        <time>2011-05-21T10:52:54Z</time>
      </trkpt>
      <trkpt lat="48.72415" lon="2.07267">
        <ele>151.06</ele>
        <time>2011-05-21T10:52:57Z</time>
      </trkpt>
      <trkpt lat="48.72401" lon="2.0732">
        <ele>152.51</ele>
        <time>2011-05-21T10:53:06Z</time>
      </trkpt>
      <trkpt lat="48.72417" lon="2.07388">
        <ele>152.51</ele>
        <time>2011-05-21T10:53:18Z</time>
      </trkpt>
      <trkpt lat="48.72459" lon="2.07433">
        <ele>153.95</ele>
        <time>2011-05-21T10:53:32Z</time>
      </trkpt>
      <trkpt lat="48.72498" lon="2.07469">
        <ele>155.87</ele>
        <time>2011-05-21T10:53:45Z</time>
      </trkpt>
      <trkpt lat="48.72543" lon="2.07505">
        <ele>158.27</ele>
        <time>2011-05-21T10:54:00Z</time>
      </trkpt>
      <trkpt lat="48.72588" lon="2.07543">
        <ele>160.2</ele>
        <time>2011-05-21T10:54:15Z</time>
      </trkpt>
      <trkpt lat="48.72636" lon="2.07589">
        <ele>161.64</ele>
        <time>2011-05-21T10:54:31Z</time>
      </trkpt>
      <trkpt lat="48.7268" lon="2.07628">
        <ele>163.08</ele>
        <time>2011-05-21T10:54:45Z</time>
      </trkpt>
      <trkpt lat="48.72723" lon="2.07666">
        <ele>163.08</ele>
        <time>2011-05-21T10:54:59Z</time>
      </trkpt>
      <trkpt lat="48.72759" lon="2.07703">
        <ele>163.56</ele>
        <time>2011-05-21T10:55:11Z</time>
      </trkpt>
      <trkpt lat="48.72763" lon="2.07707">
        <ele>164.04</ele>
        <time>2011-05-21T10:55:13Z</time>
      </trkpt>
      <trkpt lat="48.72767" lon="2.07709">
        <ele>164.04</ele>
        <time>2011-05-21T10:55:14Z</time>
      </trkpt>
      <trkpt lat="48.72779" lon="2.07715">
        <ele>164.04</ele>
        <time>2011-05-21T10:55:25Z</time>
      </trkpt>
      <trkpt lat="48.72782" lon="2.07716">
        <ele>164.04</ele>
        <time>2011-05-21T10:55:27Z</time>
      </trkpt>
      <trkpt lat="48.72784" lon="2.07718">
        <ele>164.04</ele>
        <time>2011-05-21T10:55:28Z</time>
      </trkpt>
      <trkpt lat="48.72818" lon="2.0775">
        <ele>163.56</ele>
        <time>2011-05-21T10:55:40Z</time>
      </trkpt>
      <trkpt lat="48.72859" lon="2.07786">
        <ele>163.08</ele>
        <time>2011-05-21T10:55:52Z</time>
      </trkpt>
      <trkpt lat="48.72878" lon="2.07796">
        <ele>162.12</ele>
        <time>2011-05-21T10:55:57Z</time>
      </trkpt>
      <trkpt lat="48.72882" lon="2.07799">
        <ele>162.12</ele>
        <time>2011-05-21T10:55:58Z</time>
      </trkpt>
      <trkpt lat="48.72894" lon="2.07806">
        <ele>162.12</ele>
        <time>2011-05-21T10:56:01Z</time>
      </trkpt>
      <trkpt lat="48.72897" lon="2.07808">
        <ele>162.12</ele>
        <time>2011-05-21T10:56:02Z</time>
      </trkpt>
      <trkpt lat="48.72901" lon="2.0781">
        <ele>162.12</ele>
        <time>2011-05-21T10:56:03Z</time>
      </trkpt>
      <trkpt lat="48.72904" lon="2.07813">
        <ele>162.12</ele>
        <time>2011-05-21T10:56:04Z</time>
      </trkpt>
      <trkpt lat="48.72907" lon="2.07817">
        <ele>162.12</ele>
        <time>2011-05-21T10:56:05Z</time>
      </trkpt>
      <trkpt lat="48.7291" lon="2.07821">
        <ele>162.12</ele>
        <time>2011-05-21T10:56:06Z</time>
      </trkpt>
      <trkpt lat="48.72912" lon="2.07826">
        <ele>162.6</ele>
        <time>2011-05-21T10:56:07Z</time>
      </trkpt>
      <trkpt lat="48.72914" lon="2.07831">
        <ele>162.6</ele>
        <time>2011-05-21T10:56:08Z</time>
      </trkpt>
      <trkpt lat="48.72916" lon="2.07837">
        <ele>162.12</ele>
        <time>2011-05-21T10:56:09Z</time>
      </trkpt>
      <trkpt lat="48.72917" lon="2.07844">
        <ele>162.6</ele>
        <time>2011-05-21T10:56:10Z</time>
      </trkpt>
      <trkpt lat="48.72918" lon="2.0785">
        <ele>162.12</ele>
        <time>2011-05-21T10:56:11Z</time>
      </trkpt>
      <trkpt lat="48.72921" lon="2.07911">
        <ele>161.64</ele>
        <time>2011-05-21T10:56:20Z</time>
      </trkpt>
      <trkpt lat="48.7292" lon="2.07918">
        <ele>162.12</ele>
        <time>2011-05-21T10:56:21Z</time>
      </trkpt>
      <trkpt lat="48.7292" lon="2.07924">
        <ele>162.12</ele>
        <time>2011-05-21T10:56:22Z</time>
      </trkpt>
      <trkpt lat="48.72919" lon="2.07931">
        <ele>161.64</ele>
        <time>2011-05-21T10:56:23Z</time>
      </trkpt>
      <trkpt lat="48.72918" lon="2.07938">
        <ele>162.12</ele>
        <time>2011-05-21T10:56:24Z</time>
      </trkpt>
      <trkpt lat="48.72915" lon="2.07951">
        <ele>162.12</ele>
        <time>2011-05-21T10:56:26Z</time>
      </trkpt>
      <trkpt lat="48.72908" lon="2.07975">
        <ele>162.12</ele>
        <time>2011-05-21T10:56:30Z</time>
      </trkpt>
      <trkpt lat="48.72889" lon="2.0802">
        <ele>162.6</ele>
        <time>2011-05-21T10:56:38Z</time>
      </trkpt>
      <trkpt lat="48.72882" lon="2.08037">
        <ele>162.6</ele>
        <time>2011-05-21T10:56:41Z</time>
      </trkpt>
      <trkpt lat="48.72873" lon="2.08059">
        <ele>162.6</ele>
        <time>2011-05-21T10:56:45Z</time>
      </trkpt>
      <trkpt lat="48.72871" lon="2.08064">
        <ele>162.6</ele>
        <time>2011-05-21T10:56:46Z</time>
      </trkpt>
      <trkpt lat="48.72864" lon="2.08114">
        <ele>163.08</ele>
        <time>2011-05-21T10:56:57Z</time>
      </trkpt>
      <trkpt lat="48.7287" lon="2.08158">
        <ele>163.08</ele>
        <time>2011-05-21T10:57:06Z</time>
      </trkpt>
      <trkpt lat="48.72912" lon="2.08139">
        <ele>163.08</ele>
        <time>2011-05-21T10:57:18Z</time>
      </trkpt>
      <trkpt lat="48.72932" lon="2.08131">
        <ele>162.12</ele>
        <time>2011-05-21T10:57:22Z</time>
      </trkpt>
      <trkpt lat="48.72965" lon="2.08118">
        <ele>161.64</ele>
        <time>2011-05-21T10:57:28Z</time>
      </trkpt>
      <trkpt lat="48.72978" lon="2.08113">
        <ele>161.16</ele>
        <time>2011-05-21T10:57:31Z</time>
      </trkpt>
      <trkpt lat="48.72982" lon="2.08116">
        <ele>160.68</ele>
        <time>2011-05-21T10:57:32Z</time>
      </trkpt>
      <trkpt lat="48.72985" lon="2.0812">
        <ele>160.68</ele>
        <time>2011-05-21T10:57:33Z</time>
      </trkpt>
      <trkpt lat="48.72987" lon="2.08126">
        <ele>160.68</ele>
        <time>2011-05-21T10:57:34Z</time>
      </trkpt>
      <trkpt lat="48.7299" lon="2.08131">
        <ele>160.68</ele>
        <time>2011-05-21T10:57:35Z</time>
      </trkpt>
      <trkpt lat="48.72992" lon="2.08135">
        <ele>160.68</ele>
        <time>2011-05-21T10:57:36Z</time>
      </trkpt>
      <trkpt lat="48.72996" lon="2.08138">
        <ele>161.16</ele>
        <time>2011-05-21T10:57:37Z</time>
      </trkpt>
      <trkpt lat="48.73004" lon="2.0814">
        <ele>160.68</ele>
        <time>2011-05-21T10:57:39Z</time>
      </trkpt>
      <trkpt lat="48.73008" lon="2.08138">
        <ele>160.2</ele>
        <time>2011-05-21T10:57:40Z</time>
      </trkpt>
      <trkpt lat="48.73013" lon="2.08134">
        <ele>160.2</ele>
        <time>2011-05-21T10:57:41Z</time>
      </trkpt>
      <trkpt lat="48.73016" lon="2.08129">
        <ele>160.2</ele>
        <time>2011-05-21T10:57:42Z</time>
      </trkpt>
      <trkpt lat="48.73021" lon="2.08128">
        <ele>159.72</ele>
        <time>2011-05-21T10:57:43Z</time>
      </trkpt>
      <trkpt lat="48.73025" lon="2.08129">
        <ele>159.72</ele>
        <time>2011-05-21T10:57:44Z</time>
      </trkpt>
      <trkpt lat="48.73029" lon="2.08133">
        <ele>159.72</ele>
        <time>2011-05-21T10:57:45Z</time>
      </trkpt>
      <trkpt lat="48.73032" lon="2.08137">
        <ele>159.72</ele>
        <time>2011-05-21T10:57:46Z</time>
      </trkpt>
      <trkpt lat="48.73055" lon="2.08152">
        <ele>158.75</ele>
        <time>2011-05-21T10:57:51Z</time>
      </trkpt>
      <trkpt lat="48.73061" lon="2.08156">
        <ele>158.27</ele>
        <time>2011-05-21T10:57:52Z</time>
      </trkpt>
      <trkpt lat="48.73066" lon="2.08162">
        <ele>158.27</ele>
        <time>2011-05-21T10:57:53Z</time>
      </trkpt>
      <trkpt lat="48.73079" lon="2.08179">
        <ele>159.24</ele>
        <time>2011-05-21T10:57:56Z</time>
      </trkpt>
      <trkpt lat="48.73083" lon="2.08183">
        <ele>159.24</ele>
        <time>2011-05-21T10:57:57Z</time>
      </trkpt>
      <trkpt lat="48.73091" lon="2.08191">
        <ele>159.72</ele>
        <time>2011-05-21T10:57:59Z</time>
      </trkpt>
      <trkpt lat="48.73103" lon="2.08199">
        <ele>159.24</ele>
        <time>2011-05-21T10:58:02Z</time>
      </trkpt>
      <trkpt lat="48.73108" lon="2.08199">
        <ele>159.24</ele>
        <time>2011-05-21T10:58:03Z</time>
      </trkpt>
      <trkpt lat="48.73113" lon="2.08197">
        <ele>159.72</ele>
        <time>2011-05-21T10:58:04Z</time>
      </trkpt>
      <trkpt lat="48.73117" lon="2.08194">
        <ele>159.72</ele>
        <time>2011-05-21T10:58:05Z</time>
      </trkpt>
      <trkpt lat="48.73121" lon="2.08189">
        <ele>159.72</ele>
        <time>2011-05-21T10:58:06Z</time>
      </trkpt>
      <trkpt lat="48.73125" lon="2.08182">
        <ele>159.72</ele>
        <time>2011-05-21T10:58:07Z</time>
      </trkpt>
      <trkpt lat="48.73132" lon="2.08168">
        <ele>159.24</ele>
        <time>2011-05-21T10:58:09Z</time>
      </trkpt>
      <trkpt lat="48.73137" lon="2.08163">
        <ele>157.79</ele>
        <time>2011-05-21T10:58:10Z</time>
      </trkpt>
      <trkpt lat="48.73144" lon="2.0816">
        <ele>157.31</ele>
        <time>2011-05-21T10:58:11Z</time>
      </trkpt>
      <trkpt lat="48.7315" lon="2.08161">
        <ele>156.83</ele>
        <time>2011-05-21T10:58:12Z</time>
      </trkpt>
      <trkpt lat="48.73156" lon="2.08165">
        <ele>156.35</ele>
        <time>2011-05-21T10:58:13Z</time>
      </trkpt>
      <trkpt lat="48.73161" lon="2.0817">
        <ele>156.35</ele>
        <time>2011-05-21T10:58:14Z</time>
      </trkpt>
      <trkpt lat="48.73166" lon="2.08176">
        <ele>155.87</ele>
        <time>2011-05-21T10:58:15Z</time>
      </trkpt>
      <trkpt lat="48.73172" lon="2.08181">
        <ele>155.39</ele>
        <time>2011-05-21T10:58:16Z</time>
      </trkpt>
      <trkpt lat="48.732" lon="2.08205">
        <ele>153.47</ele>
        <time>2011-05-21T10:58:21Z</time>
      </trkpt>
      <trkpt lat="48.7321" lon="2.08214">
        <ele>152.03</ele>
        <time>2011-05-21T10:58:23Z</time>
      </trkpt>
      <trkpt lat="48.73236" lon="2.08234">
        <ele>148.66</ele>
        <time>2011-05-21T10:58:27Z</time>
      </trkpt>
      <trkpt lat="48.73249" lon="2.08249">
        <ele>145.3</ele>
        <time>2011-05-21T10:58:29Z</time>
      </trkpt>
      <trkpt lat="48.73261" lon="2.08262">
        <ele>142.89</ele>
        <time>2011-05-21T10:58:31Z</time>
      </trkpt>
      <trkpt lat="48.73267" lon="2.08268">
        <ele>141.45</ele>
        <time>2011-05-21T10:58:32Z</time>
      </trkpt>
      <trkpt lat="48.73274" lon="2.08274">
        <ele>140.01</ele>
        <time>2011-05-21T10:58:33Z</time>
      </trkpt>
      <trkpt lat="48.73281" lon="2.08282">
        <ele>138.57</ele>
        <time>2011-05-21T10:58:34Z</time>
      </trkpt>
      <trkpt lat="48.73288" lon="2.08289">
        <ele>136.64</ele>
        <time>2011-05-21T10:58:35Z</time>
      </trkpt>
      <trkpt lat="48.73296" lon="2.08298">
        <ele>134.72</ele>
        <time>2011-05-21T10:58:36Z</time>
      </trkpt>
      <trkpt lat="48.73308" lon="2.08314">
        <ele>131.36</ele>
        <time>2011-05-21T10:58:38Z</time>
      </trkpt>
      <trkpt lat="48.7332" lon="2.0833">
        <ele>129.43</ele>
        <time>2011-05-21T10:58:39Z</time>
      </trkpt>
      <trkpt lat="48.73329" lon="2.08343">
        <ele>126.55</ele>
        <time>2011-05-21T10:58:40Z</time>
      </trkpt>
      <trkpt lat="48.73338" lon="2.08358">
        <ele>123.67</ele>
        <time>2011-05-21T10:58:41Z</time>
      </trkpt>
      <trkpt lat="48.73356" lon="2.08384">
        <ele>120.3</ele>
        <time>2011-05-21T10:58:43Z</time>
      </trkpt>
      <trkpt lat="48.7338" lon="2.08435">
        <ele>116.94</ele>
        <time>2011-05-21T10:58:46Z</time>
      </trkpt>
      <trkpt lat="48.73383" lon="2.08441">
        <ele>116.94</ele>
        <time>2011-05-21T10:58:47Z</time>
      </trkpt>
      <trkpt lat="48.73394" lon="2.08464">
        <ele>116.46</ele>
        <time>2011-05-21T10:58:50Z</time>
      </trkpt>
      <trkpt lat="48.73396" lon="2.08463">
        <ele>115.5</ele>
        <time>2011-05-21T10:58:51Z</time>
      </trkpt>
      <trkpt lat="48.73397" lon="2.08461">
        <ele>115.98</ele>
        <time>2011-05-21T10:58:52Z</time>
      </trkpt>
      <trkpt lat="48.73398" lon="2.08459">
        <ele>116.46</ele>
        <time>2011-05-21T10:58:53Z</time>
      </trkpt>
      <trkpt lat="48.73399" lon="2.08457">
        <ele>115.98</ele>
        <time>2011-05-21T10:58:54Z</time>
      </trkpt>
      <trkpt lat="48.73408" lon="2.08445">
        <ele>116.46</ele>
        <time>2011-05-21T10:59:08Z</time>
      </trkpt>
      <trkpt lat="48.73445" lon="2.0841">
        <ele>115.98</ele>
        <time>2011-05-21T10:59:21Z</time>
      </trkpt>
      <trkpt lat="48.73448" lon="2.08404">
        <ele>115.01</ele>
        <time>2011-05-21T10:59:22Z</time>
      </trkpt>
      <trkpt lat="48.73468" lon="2.08365">
        <ele>113.09</ele>
        <time>2011-05-21T10:59:27Z</time>
      </trkpt>
      <trkpt lat="48.73472" lon="2.08359">
        <ele>113.09</ele>
        <time>2011-05-21T10:59:28Z</time>
      </trkpt>
      <trkpt lat="48.73478" lon="2.08357">
        <ele>112.61</ele>
        <time>2011-05-21T10:59:29Z</time>
      </trkpt>
      <trkpt lat="48.73485" lon="2.08357">
        <ele>113.09</ele>
        <time>2011-05-21T10:59:30Z</time>
      </trkpt>
      <trkpt lat="48.73491" lon="2.08357">
        <ele>112.61</ele>
        <time>2011-05-21T10:59:31Z</time>
      </trkpt>
      <trkpt lat="48.73497" lon="2.08357">
        <ele>112.61</ele>
        <time>2011-05-21T10:59:32Z</time>
      </trkpt>
      <trkpt lat="48.73513" lon="2.08353">
        <ele>112.61</ele>
        <time>2011-05-21T10:59:35Z</time>
      </trkpt>
      <trkpt lat="48.73519" lon="2.0835">
        <ele>112.13</ele>
        <time>2011-05-21T10:59:36Z</time>
      </trkpt>
      <trkpt lat="48.73578" lon="2.08311">
        <ele>110.21</ele>
        <time>2011-05-21T10:59:46Z</time>
      </trkpt>
      <trkpt lat="48.73584" lon="2.08308">
        <ele>110.21</ele>
        <time>2011-05-21T10:59:47Z</time>
      </trkpt>
      <trkpt lat="48.7359" lon="2.08305">
        <ele>110.21</ele>
        <time>2011-05-21T10:59:48Z</time>
      </trkpt>
      <trkpt lat="48.73646" lon="2.08293">
        <ele>110.21</ele>
        <time>2011-05-21T10:59:57Z</time>
      </trkpt>
      <trkpt lat="48.73652" lon="2.08293">
        <ele>110.21</ele>
        <time>2011-05-21T10:59:58Z</time>
      </trkpt>
      <trkpt lat="48.73695" lon="2.08291">
        <ele>111.65</ele>
        <time>2011-05-21T11:00:06Z</time>
      </trkpt>
      <trkpt lat="48.737" lon="2.08289">
        <ele>112.61</ele>
        <time>2011-05-21T11:00:07Z</time>
      </trkpt>
      <trkpt lat="48.73705" lon="2.08287">
        <ele>112.61</ele>
        <time>2011-05-21T11:00:08Z</time>
      </trkpt>
      <trkpt lat="48.73723" lon="2.0828">
        <ele>113.09</ele>
        <time>2011-05-21T11:00:12Z</time>
      </trkpt>
      <trkpt lat="48.73766" lon="2.08245">
        <ele>112.61</ele>
        <time>2011-05-21T11:00:23Z</time>
      </trkpt>
      <trkpt lat="48.73795" lon="2.08202">
        <ele>112.13</ele>
        <time>2011-05-21T11:00:31Z</time>
      </trkpt>
      <trkpt lat="48.73798" lon="2.08197">
        <ele>112.13</ele>
        <time>2011-05-21T11:00:32Z</time>
      </trkpt>
      <trkpt lat="48.73801" lon="2.08191">
        <ele>112.13</ele>
        <time>2011-05-21T11:00:33Z</time>
      </trkpt>
      <trkpt lat="48.73804" lon="2.08186">
        <ele>112.13</ele>
        <time>2011-05-21T11:00:34Z</time>
      </trkpt>
      <trkpt lat="48.73808" lon="2.08181">
        <ele>112.13</ele>
        <time>2011-05-21T11:00:35Z</time>
      </trkpt>
      <trkpt lat="48.73811" lon="2.08176">
        <ele>112.13</ele>
        <time>2011-05-21T11:00:36Z</time>
      </trkpt>
      <trkpt lat="48.73815" lon="2.08172">
        <ele>111.65</ele>
        <time>2011-05-21T11:00:37Z</time>
      </trkpt>
      <trkpt lat="48.73818" lon="2.08166">
        <ele>111.65</ele>
        <time>2011-05-21T11:00:38Z</time>
      </trkpt>
      <trkpt lat="48.73822" lon="2.0816">
        <ele>112.13</ele>
        <time>2011-05-21T11:00:39Z</time>
      </trkpt>
      <trkpt lat="48.73825" lon="2.08155">
        <ele>112.13</ele>
        <time>2011-05-21T11:00:40Z</time>
      </trkpt>
      <trkpt lat="48.73838" lon="2.08135">
        <ele>112.13</ele>
        <time>2011-05-21T11:00:44Z</time>
      </trkpt>
      <trkpt lat="48.73842" lon="2.0813">
        <ele>112.13</ele>
        <time>2011-05-21T11:00:45Z</time>
      </trkpt>
      <trkpt lat="48.73845" lon="2.08126">
        <ele>111.65</ele>
        <time>2011-05-21T11:00:46Z</time>
      </trkpt>
      <trkpt lat="48.73878" lon="2.08099">
        <ele>115.98</ele>
        <time>2011-05-21T11:00:53Z</time>
      </trkpt>
      <trkpt lat="48.73882" lon="2.08097">
        <ele>111.65</ele>
        <time>2011-05-21T11:00:54Z</time>
      </trkpt>
      <trkpt lat="48.73886" lon="2.08097">
        <ele>111.17</ele>
        <time>2011-05-21T11:00:55Z</time>
      </trkpt>
      <trkpt lat="48.7389" lon="2.081">
        <ele>111.17</ele>
        <time>2011-05-21T11:00:56Z</time>
      </trkpt>
      <trkpt lat="48.73893" lon="2.08103">
        <ele>110.69</ele>
        <time>2011-05-21T11:00:57Z</time>
      </trkpt>
      <trkpt lat="48.73896" lon="2.08105">
        <ele>110.69</ele>
        <time>2011-05-21T11:00:58Z</time>
      </trkpt>
      <trkpt lat="48.73898" lon="2.08108">
        <ele>116.46</ele>
        <time>2011-05-21T11:00:59Z</time>
      </trkpt>
      <trkpt lat="48.739" lon="2.0811">
        <ele>111.17</ele>
        <time>2011-05-21T11:01:00Z</time>
      </trkpt>
      <trkpt lat="48.73927" lon="2.08133">
        <ele>111.17</ele>
        <time>2011-05-21T11:01:11Z</time>
      </trkpt>
      <trkpt lat="48.73955" lon="2.0814">
        <ele>110.69</ele>
        <time>2011-05-21T11:01:18Z</time>
      </trkpt>
      <trkpt lat="48.73964" lon="2.08137">
        <ele>111.17</ele>
        <time>2011-05-21T11:01:20Z</time>
      </trkpt>
      <trkpt lat="48.73977" lon="2.08128">
        <ele>106.36</ele>
        <time>2011-05-21T11:01:23Z</time>
      </trkpt>
      <trkpt lat="48.7398" lon="2.08126">
        <ele>111.17</ele>
        <time>2011-05-21T11:01:24Z</time>
      </trkpt>
      <trkpt lat="48.74" lon="2.08094">
        <ele>108.77</ele>
        <time>2011-05-21T11:01:32Z</time>
      </trkpt>
      <trkpt lat="48.74001" lon="2.0809">
        <ele>112.13</ele>
        <time>2011-05-21T11:01:33Z</time>
      </trkpt>
      <trkpt lat="48.74001" lon="2.08085">
        <ele>111.17</ele>
        <time>2011-05-21T11:01:34Z</time>
      </trkpt>
      <trkpt lat="48.74" lon="2.08054">
        <ele>115.01</ele>
        <time>2011-05-21T11:01:39Z</time>
      </trkpt>
      <trkpt lat="48.74001" lon="2.08041">
        <ele>111.17</ele>
        <time>2011-05-21T11:01:41Z</time>
      </trkpt>
      <trkpt lat="48.74002" lon="2.08035">
        <ele>111.17</ele>
        <time>2011-05-21T11:01:42Z</time>
      </trkpt>
      <trkpt lat="48.74004" lon="2.08022">
        <ele>111.17</ele>
        <time>2011-05-21T11:01:44Z</time>
      </trkpt>
      <trkpt lat="48.74004" lon="2.08015">
        <ele>111.17</ele>
        <time>2011-05-21T11:01:45Z</time>
      </trkpt>
      <trkpt lat="48.74002" lon="2.08008">
        <ele>111.17</ele>
        <time>2011-05-21T11:01:46Z</time>
      </trkpt>
      <trkpt lat="48.74001" lon="2.08002">
        <ele>111.17</ele>
        <time>2011-05-21T11:01:47Z</time>
      </trkpt>
      <trkpt lat="48.74002" lon="2.07994">
        <ele>111.17</ele>
        <time>2011-05-21T11:01:48Z</time>
      </trkpt>
      <trkpt lat="48.74003" lon="2.07986">
        <ele>111.17</ele>
        <time>2011-05-21T11:01:49Z</time>
      </trkpt>
      <trkpt lat="48.74004" lon="2.07979">
        <ele>111.17</ele>
        <time>2011-05-21T11:01:50Z</time>
      </trkpt>
      <trkpt lat="48.7402" lon="2.07901">
        <ele>110.69</ele>
        <time>2011-05-21T11:02:02Z</time>
      </trkpt>
      <trkpt lat="48.74094" lon="2.07905">
        <ele>109.25</ele>
        <time>2011-05-21T11:02:16Z</time>
      </trkpt>
      <trkpt lat="48.7412" lon="2.0794">
        <ele>109.73</ele>
        <time>2011-05-21T11:02:22Z</time>
      </trkpt>
      <trkpt lat="48.74126" lon="2.07943">
        <ele>109.73</ele>
        <time>2011-05-21T11:02:23Z</time>
      </trkpt>
      <trkpt lat="48.74174" lon="2.07953">
        <ele>111.17</ele>
        <time>2011-05-21T11:02:34Z</time>
      </trkpt>
      <trkpt lat="48.74194" lon="2.07947">
        <ele>111.65</ele>
        <time>2011-05-21T11:02:39Z</time>
      </trkpt>
      <trkpt lat="48.74199" lon="2.07946">
        <ele>111.65</ele>
        <time>2011-05-21T11:02:40Z</time>
      </trkpt>
      <trkpt lat="48.74202" lon="2.07943">
        <ele>112.13</ele>
        <time>2011-05-21T11:02:41Z</time>
      </trkpt>
      <trkpt lat="48.74231" lon="2.07885">
        <ele>112.13</ele>
        <time>2011-05-21T11:02:52Z</time>
      </trkpt>
      <trkpt lat="48.74233" lon="2.07879">
        <ele>112.61</ele>
        <time>2011-05-21T11:02:53Z</time>
      </trkpt>
      <trkpt lat="48.74233" lon="2.07872">
        <ele>112.13</ele>
        <time>2011-05-21T11:02:54Z</time>
      </trkpt>
      <trkpt lat="48.74232" lon="2.07865">
        <ele>112.13</ele>
        <time>2011-05-21T11:02:55Z</time>
      </trkpt>
      <trkpt lat="48.7423" lon="2.07858">
        <ele>112.13</ele>
        <time>2011-05-21T11:02:56Z</time>
      </trkpt>
      <trkpt lat="48.74229" lon="2.07851">
        <ele>112.61</ele>
        <time>2011-05-21T11:02:57Z</time>
      </trkpt>
      <trkpt lat="48.74232" lon="2.07778">
        <ele>114.05</ele>
        <time>2011-05-21T11:03:10Z</time>
      </trkpt>
      <trkpt lat="48.74253" lon="2.07757">
        <ele>117.42</ele>
        <time>2011-05-21T11:03:23Z</time>
      </trkpt>
      <trkpt lat="48.74254" lon="2.07756">
        <ele>117.42</ele>
        <time>2011-05-21T11:03:24Z</time>
      </trkpt>
      <trkpt lat="48.74255" lon="2.07754">
        <ele>117.9</ele>
        <time>2011-05-21T11:03:25Z</time>
      </trkpt>
      <trkpt lat="48.74256" lon="2.07753">
        <ele>117.9</ele>
        <time>2011-05-21T11:03:26Z</time>
      </trkpt>
      <trkpt lat="48.74263" lon="2.07746">
        <ele>118.86</ele>
        <time>2011-05-21T11:03:30Z</time>
      </trkpt>
      <trkpt lat="48.74265" lon="2.07744">
        <ele>119.34</ele>
        <time>2011-05-21T11:03:31Z</time>
      </trkpt>
      <trkpt lat="48.74266" lon="2.07742">
        <ele>118.86</ele>
        <time>2011-05-21T11:03:32Z</time>
      </trkpt>
      <trkpt lat="48.74276" lon="2.07738">
        <ele>120.3</ele>
        <time>2011-05-21T11:03:37Z</time>
      </trkpt>
      <trkpt lat="48.74283" lon="2.07739">
        <ele>121.26</ele>
        <time>2011-05-21T11:03:41Z</time>
      </trkpt>
      <trkpt lat="48.74284" lon="2.0774">
        <ele>121.74</ele>
        <time>2011-05-21T11:03:42Z</time>
      </trkpt>
      <trkpt lat="48.74284" lon="2.07741">
        <ele>122.22</ele>
        <time>2011-05-21T11:03:43Z</time>
      </trkpt>
      <trkpt lat="48.74286" lon="2.07743">
        <ele>122.22</ele>
        <time>2011-05-21T11:03:44Z</time>
      </trkpt>
      <trkpt lat="48.74286" lon="2.07745">
        <ele>122.22</ele>
        <time>2011-05-21T11:03:45Z</time>
      </trkpt>
      <trkpt lat="48.74287" lon="2.07748">
        <ele>122.22</ele>
        <time>2011-05-21T11:03:46Z</time>
      </trkpt>
      <trkpt lat="48.74288" lon="2.0775">
        <ele>122.22</ele>
        <time>2011-05-21T11:03:47Z</time>
      </trkpt>
      <trkpt lat="48.74288" lon="2.07753">
        <ele>122.71</ele>
        <time>2011-05-21T11:03:48Z</time>
      </trkpt>
      <trkpt lat="48.74284" lon="2.07783">
        <ele>124.63</ele>
        <time>2011-05-21T11:04:01Z</time>
      </trkpt>
      <trkpt lat="48.7428" lon="2.07816">
        <ele>127.03</ele>
        <time>2011-05-21T11:04:14Z</time>
      </trkpt>
      <trkpt lat="48.7429" lon="2.07852">
        <ele>128.95</ele>
        <time>2011-05-21T11:04:29Z</time>
      </trkpt>
      <trkpt lat="48.74308" lon="2.07872">
        <ele>131.84</ele>
        <time>2011-05-21T11:04:42Z</time>
      </trkpt>
      <trkpt lat="48.74327" lon="2.0789">
        <ele>133.76</ele>
        <time>2011-05-21T11:04:55Z</time>
      </trkpt>
      <trkpt lat="48.7435" lon="2.07908">
        <ele>136.16</ele>
        <time>2011-05-21T11:05:09Z</time>
      </trkpt>
      <trkpt lat="48.74371" lon="2.07923">
        <ele>138.09</ele>
        <time>2011-05-21T11:05:23Z</time>
      </trkpt>
      <trkpt lat="48.74395" lon="2.07936">
        <ele>140.49</ele>
        <time>2011-05-21T11:05:37Z</time>
      </trkpt>
      <trkpt lat="48.74417" lon="2.07947">
        <ele>142.41</ele>
        <time>2011-05-21T11:05:50Z</time>
      </trkpt>
      <trkpt lat="48.74439" lon="2.07953">
        <ele>144.34</ele>
        <time>2011-05-21T11:06:03Z</time>
      </trkpt>
      <trkpt lat="48.74468" lon="2.0796">
        <ele>146.74</ele>
        <time>2011-05-21T11:06:20Z</time>
      </trkpt>
      <trkpt lat="48.74477" lon="2.0796">
        <ele>147.22</ele>
        <time>2011-05-21T11:06:25Z</time>
      </trkpt>
      <trkpt lat="48.74478" lon="2.0796">
        <ele>148.18</ele>
        <time>2011-05-21T11:06:26Z</time>
      </trkpt>
      <trkpt lat="48.7448" lon="2.07961">
        <ele>147.7</ele>
        <time>2011-05-21T11:06:27Z</time>
      </trkpt>
      <trkpt lat="48.74482" lon="2.07961">
        <ele>148.18</ele>
        <time>2011-05-21T11:06:28Z</time>
      </trkpt>
      <trkpt lat="48.74485" lon="2.07962">
        <ele>148.18</ele>
        <time>2011-05-21T11:06:29Z</time>
      </trkpt>
      <trkpt lat="48.74487" lon="2.07962">
        <ele>148.18</ele>
        <time>2011-05-21T11:06:30Z</time>
      </trkpt>
      <trkpt lat="48.74489" lon="2.07964">
        <ele>148.18</ele>
        <time>2011-05-21T11:06:31Z</time>
      </trkpt>
      <trkpt lat="48.74491" lon="2.07965">
        <ele>148.18</ele>
        <time>2011-05-21T11:06:32Z</time>
      </trkpt>
      <trkpt lat="48.74522" lon="2.07999">
        <ele>148.66</ele>
        <time>2011-05-21T11:06:45Z</time>
      </trkpt>
      <trkpt lat="48.74545" lon="2.08049">
        <ele>146.26</ele>
        <time>2011-05-21T11:06:58Z</time>
      </trkpt>
      <trkpt lat="48.74551" lon="2.08083">
        <ele>149.14</ele>
        <time>2011-05-21T11:07:05Z</time>
      </trkpt>
      <trkpt lat="48.74553" lon="2.08082">
        <ele>149.14</ele>
        <time>2011-05-21T11:07:06Z</time>
      </trkpt>
      <trkpt lat="48.74566" lon="2.08077">
        <ele>151.06</ele>
        <time>2011-05-21T11:07:11Z</time>
      </trkpt>
      <trkpt lat="48.74579" lon="2.0808">
        <ele>153.47</ele>
        <time>2011-05-21T11:07:23Z</time>
      </trkpt>
      <trkpt lat="48.74579" lon="2.0808">
        <ele>152.99</ele>
        <time>2011-05-21T11:07:45Z</time>
      </trkpt>
      <trkpt lat="48.7458" lon="2.08081">
        <ele>152.99</ele>
        <time>2011-05-21T11:08:06Z</time>
      </trkpt>
      <trkpt lat="48.74581" lon="2.08089">
        <ele>153.47</ele>
        <time>2011-05-21T11:08:17Z</time>
      </trkpt>
      <trkpt lat="48.7458" lon="2.08092">
        <ele>153.47</ele>
        <time>2011-05-21T11:08:19Z</time>
      </trkpt>
      <trkpt lat="48.74573" lon="2.08113">
        <ele>153.95</ele>
        <time>2011-05-21T11:08:29Z</time>
      </trkpt>
      <trkpt lat="48.74554" lon="2.0817">
        <ele>154.43</ele>
        <time>2011-05-21T11:08:45Z</time>
      </trkpt>
      <trkpt lat="48.74522" lon="2.08211">
        <ele>155.87</ele>
        <time>2011-05-21T11:08:59Z</time>
      </trkpt>
      <trkpt lat="48.74507" lon="2.08248">
        <ele>156.35</ele>
        <time>2011-05-21T11:09:09Z</time>
      </trkpt>
      <trkpt lat="48.74513" lon="2.08301">
        <ele>157.79</ele>
        <time>2011-05-21T11:09:20Z</time>
      </trkpt>
      <trkpt lat="48.74503" lon="2.08349">
        <ele>157.31</ele>
        <time>2011-05-21T11:09:32Z</time>
      </trkpt>
      <trkpt lat="48.74486" lon="2.08413">
        <ele>158.27</ele>
        <time>2011-05-21T11:09:45Z</time>
      </trkpt>
      <trkpt lat="48.74463" lon="2.08495">
        <ele>158.75</ele>
        <time>2011-05-21T11:10:00Z</time>
      </trkpt>
      <trkpt lat="48.7443" lon="2.08608">
        <ele>159.24</ele>
        <time>2011-05-21T11:10:20Z</time>
      </trkpt>
      <trkpt lat="48.74415" lon="2.08655">
        <ele>159.72</ele>
        <time>2011-05-21T11:10:33Z</time>
      </trkpt>
      <trkpt lat="48.74419" lon="2.08659">
        <ele>160.2</ele>
        <time>2011-05-21T11:10:40Z</time>
      </trkpt>
      <trkpt lat="48.7442" lon="2.0866">
        <ele>159.24</ele>
        <time>2011-05-21T11:10:41Z</time>
      </trkpt>
      <trkpt lat="48.74421" lon="2.08661">
        <ele>159.24</ele>
        <time>2011-05-21T11:10:42Z</time>
      </trkpt>
      <trkpt lat="48.74428" lon="2.08662">
        <ele>159.24</ele>
        <time>2011-05-21T11:10:48Z</time>
      </trkpt>
      <trkpt lat="48.74429" lon="2.08662">
        <ele>159.72</ele>
        <time>2011-05-21T11:10:49Z</time>
      </trkpt>
      <trkpt lat="48.74438" lon="2.08667">
        <ele>160.68</ele>
        <time>2011-05-21T11:11:04Z</time>
      </trkpt>
      <trkpt lat="48.74445" lon="2.08677">
        <ele>159.72</ele>
        <time>2011-05-21T11:11:16Z</time>
      </trkpt>
      <trkpt lat="48.7445" lon="2.08685">
        <ele>160.2</ele>
        <time>2011-05-21T11:11:18Z</time>
      </trkpt>
      <trkpt lat="48.74453" lon="2.0869">
        <ele>160.2</ele>
        <time>2011-05-21T11:11:19Z</time>
      </trkpt>
      <trkpt lat="48.74513" lon="2.08758">
        <ele>158.75</ele>
        <time>2011-05-21T11:11:34Z</time>
      </trkpt>
      <trkpt lat="48.74516" lon="2.08763">
        <ele>158.75</ele>
        <time>2011-05-21T11:11:35Z</time>
      </trkpt>
      <trkpt lat="48.74537" lon="2.08788">
        <ele>158.75</ele>
        <time>2011-05-21T11:11:41Z</time>
      </trkpt>
      <trkpt lat="48.74541" lon="2.0879">
        <ele>158.75</ele>
        <time>2011-05-21T11:11:42Z</time>
      </trkpt>
      <trkpt lat="48.74545" lon="2.08789">
        <ele>158.75</ele>
        <time>2011-05-21T11:11:43Z</time>
      </trkpt>
      <trkpt lat="48.74549" lon="2.08787">
        <ele>159.24</ele>
        <time>2011-05-21T11:11:44Z</time>
      </trkpt>
      <trkpt lat="48.74551" lon="2.08783">
        <ele>159.24</ele>
        <time>2011-05-21T11:11:45Z</time>
      </trkpt>
      <trkpt lat="48.74553" lon="2.08777">
        <ele>158.75</ele>
        <time>2011-05-21T11:11:46Z</time>
      </trkpt>
      <trkpt lat="48.74556" lon="2.08771">
        <ele>158.75</ele>
        <time>2011-05-21T11:11:47Z</time>
      </trkpt>
      <trkpt lat="48.74559" lon="2.08765">
        <ele>158.75</ele>
        <time>2011-05-21T11:11:48Z</time>
      </trkpt>
      <trkpt lat="48.74562" lon="2.08758">
        <ele>158.75</ele>
        <time>2011-05-21T11:11:49Z</time>
      </trkpt>
      <trkpt lat="48.74604" lon="2.08659">
        <ele>158.27</ele>
        <time>2011-05-21T11:12:03Z</time>
      </trkpt>
      <trkpt lat="48.74622" lon="2.08615">
        <ele>157.79</ele>
        <time>2011-05-21T11:12:09Z</time>
      </trkpt>
      <trkpt lat="48.74648" lon="2.08552">
        <ele>157.31</ele>
        <time>2011-05-21T11:12:18Z</time>
      </trkpt>
      <trkpt lat="48.74652" lon="2.08547">
        <ele>157.79</ele>
        <time>2011-05-21T11:12:19Z</time>
      </trkpt>
      <trkpt lat="48.74656" lon="2.08545">
        <ele>157.79</ele>
        <time>2011-05-21T11:12:20Z</time>
      </trkpt>
      <trkpt lat="48.74661" lon="2.08547">
        <ele>157.31</ele>
        <time>2011-05-21T11:12:21Z</time>
      </trkpt>
      <trkpt lat="48.74666" lon="2.08551">
        <ele>157.79</ele>
        <time>2011-05-21T11:12:22Z</time>
      </trkpt>
      <trkpt lat="48.74678" lon="2.08561">
        <ele>157.79</ele>
        <time>2011-05-21T11:12:25Z</time>
      </trkpt>
      <trkpt lat="48.74682" lon="2.08565">
        <ele>157.79</ele>
        <time>2011-05-21T11:12:26Z</time>
      </trkpt>
      <trkpt lat="48.74686" lon="2.08569">
        <ele>157.31</ele>
        <time>2011-05-21T11:12:27Z</time>
      </trkpt>
      <trkpt lat="48.7473" lon="2.08614">
        <ele>158.27</ele>
        <time>2011-05-21T11:12:38Z</time>
      </trkpt>
      <trkpt lat="48.74744" lon="2.08634">
        <ele>158.75</ele>
        <time>2011-05-21T11:12:42Z</time>
      </trkpt>
      <trkpt lat="48.74748" lon="2.08637">
        <ele>158.75</ele>
        <time>2011-05-21T11:12:43Z</time>
      </trkpt>
      <trkpt lat="48.74752" lon="2.08639">
        <ele>158.75</ele>
        <time>2011-05-21T11:12:44Z</time>
      </trkpt>
      <trkpt lat="48.74756" lon="2.08638">
        <ele>158.75</ele>
        <time>2011-05-21T11:12:45Z</time>
      </trkpt>
      <trkpt lat="48.7476" lon="2.08634">
        <ele>158.75</ele>
        <time>2011-05-21T11:12:46Z</time>
      </trkpt>
      <trkpt lat="48.74764" lon="2.0863">
        <ele>158.75</ele>
        <time>2011-05-21T11:12:47Z</time>
      </trkpt>
      <trkpt lat="48.74822" lon="2.08554">
        <ele>157.79</ele>
        <time>2011-05-21T11:13:02Z</time>
      </trkpt>
      <trkpt lat="48.74881" lon="2.08479">
        <ele>158.27</ele>
        <time>2011-05-21T11:13:17Z</time>
      </trkpt>
      <trkpt lat="48.74931" lon="2.08389">
        <ele>159.24</ele>
        <time>2011-05-21T11:13:32Z</time>
      </trkpt>
      <trkpt lat="48.74973" lon="2.08311">
        <ele>159.24</ele>
        <time>2011-05-21T11:13:46Z</time>
      </trkpt>
      <trkpt lat="48.74987" lon="2.0829">
        <ele>159.24</ele>
        <time>2011-05-21T11:13:50Z</time>
      </trkpt>
      <trkpt lat="48.74992" lon="2.08289">
        <ele>159.24</ele>
        <time>2011-05-21T11:13:51Z</time>
      </trkpt>
      <trkpt lat="48.74997" lon="2.0829">
        <ele>159.24</ele>
        <time>2011-05-21T11:13:52Z</time>
      </trkpt>
      <trkpt lat="48.75001" lon="2.08294">
        <ele>159.24</ele>
        <time>2011-05-21T11:13:53Z</time>
      </trkpt>
      <trkpt lat="48.75008" lon="2.08304">
        <ele>159.24</ele>
        <time>2011-05-21T11:13:55Z</time>
      </trkpt>
      <trkpt lat="48.75011" lon="2.0831">
        <ele>159.24</ele>
        <time>2011-05-21T11:13:56Z</time>
      </trkpt>
      <trkpt lat="48.7506" lon="2.0839">
        <ele>160.68</ele>
        <time>2011-05-21T11:14:12Z</time>
      </trkpt>
      <trkpt lat="48.75096" lon="2.08448">
        <ele>161.64</ele>
        <time>2011-05-21T11:14:24Z</time>
      </trkpt>
      <trkpt lat="48.75151" lon="2.08542">
        <ele>162.6</ele>
        <time>2011-05-21T11:14:43Z</time>
      </trkpt>
      <trkpt lat="48.75156" lon="2.08554">
        <ele>162.12</ele>
        <time>2011-05-21T11:14:45Z</time>
      </trkpt>
      <trkpt lat="48.75177" lon="2.08626">
        <ele>161.64</ele>
        <time>2011-05-21T11:14:56Z</time>
      </trkpt>
      <trkpt lat="48.7519" lon="2.08673">
        <ele>162.12</ele>
        <time>2011-05-21T11:15:03Z</time>
      </trkpt>
      <trkpt lat="48.75195" lon="2.08693">
        <ele>162.12</ele>
        <time>2011-05-21T11:15:06Z</time>
      </trkpt>
      <trkpt lat="48.75197" lon="2.087">
        <ele>162.12</ele>
        <time>2011-05-21T11:15:07Z</time>
      </trkpt>
      <trkpt lat="48.75198" lon="2.08706">
        <ele>162.12</ele>
        <time>2011-05-21T11:15:08Z</time>
      </trkpt>
      <trkpt lat="48.75201" lon="2.0872">
        <ele>161.64</ele>
        <time>2011-05-21T11:15:10Z</time>
      </trkpt>
      <trkpt lat="48.75239" lon="2.08851">
        <ele>161.64</ele>
        <time>2011-05-21T11:15:28Z</time>
      </trkpt>
      <trkpt lat="48.75243" lon="2.08867">
        <ele>161.64</ele>
        <time>2011-05-21T11:15:30Z</time>
      </trkpt>
      <trkpt lat="48.75245" lon="2.08875">
        <ele>161.16</ele>
        <time>2011-05-21T11:15:31Z</time>
      </trkpt>
      <trkpt lat="48.75245" lon="2.08884">
        <ele>161.16</ele>
        <time>2011-05-21T11:15:32Z</time>
      </trkpt>
      <trkpt lat="48.75243" lon="2.08892">
        <ele>161.16</ele>
        <time>2011-05-21T11:15:33Z</time>
      </trkpt>
      <trkpt lat="48.75241" lon="2.08899">
        <ele>161.16</ele>
        <time>2011-05-21T11:15:34Z</time>
      </trkpt>
      <trkpt lat="48.75222" lon="2.08973">
        <ele>161.64</ele>
        <time>2011-05-21T11:15:44Z</time>
      </trkpt>
      <trkpt lat="48.75221" lon="2.0898">
        <ele>161.64</ele>
        <time>2011-05-21T11:15:45Z</time>
      </trkpt>
      <trkpt lat="48.7522" lon="2.08987">
        <ele>161.64</ele>
        <time>2011-05-21T11:15:46Z</time>
      </trkpt>
      <trkpt lat="48.75221" lon="2.08993">
        <ele>162.12</ele>
        <time>2011-05-21T11:15:47Z</time>
      </trkpt>
      <trkpt lat="48.75221" lon="2.08999">
        <ele>161.64</ele>
        <time>2011-05-21T11:15:48Z</time>
      </trkpt>
      <trkpt lat="48.75223" lon="2.09004">
        <ele>162.12</ele>
        <time>2011-05-21T11:15:49Z</time>
      </trkpt>
      <trkpt lat="48.75225" lon="2.09009">
        <ele>162.12</ele>
        <time>2011-05-21T11:15:50Z</time>
      </trkpt>
      <trkpt lat="48.75228" lon="2.09015">
        <ele>162.12</ele>
        <time>2011-05-21T11:15:51Z</time>
      </trkpt>
      <trkpt lat="48.75232" lon="2.09019">
        <ele>162.12</ele>
        <time>2011-05-21T11:15:52Z</time>
      </trkpt>
      <trkpt lat="48.75236" lon="2.09023">
        <ele>161.64</ele>
        <time>2011-05-21T11:15:53Z</time>
      </trkpt>
      <trkpt lat="48.7524" lon="2.09027">
        <ele>161.64</ele>
        <time>2011-05-21T11:15:54Z</time>
      </trkpt>
      <trkpt lat="48.75245" lon="2.0903">
        <ele>161.64</ele>
        <time>2011-05-21T11:15:55Z</time>
      </trkpt>
      <trkpt lat="48.75299" lon="2.0908">
        <ele>161.16</ele>
        <time>2011-05-21T11:16:08Z</time>
      </trkpt>
      <trkpt lat="48.75328" lon="2.09112">
        <ele>160.68</ele>
        <time>2011-05-21T11:16:15Z</time>
      </trkpt>
      <trkpt lat="48.75389" lon="2.09169">
        <ele>159.72</ele>
        <time>2011-05-21T11:16:29Z</time>
      </trkpt>
      <trkpt lat="48.75408" lon="2.09181">
        <ele>158.75</ele>
        <time>2011-05-21T11:16:33Z</time>
      </trkpt>
      <trkpt lat="48.75413" lon="2.09182">
        <ele>158.75</ele>
        <time>2011-05-21T11:16:34Z</time>
      </trkpt>
      <trkpt lat="48.75419" lon="2.09182">
        <ele>158.75</ele>
        <time>2011-05-21T11:16:35Z</time>
      </trkpt>
      <trkpt lat="48.75424" lon="2.0918">
        <ele>158.75</ele>
        <time>2011-05-21T11:16:36Z</time>
      </trkpt>
      <trkpt lat="48.75429" lon="2.09177">
        <ele>158.27</ele>
        <time>2011-05-21T11:16:37Z</time>
      </trkpt>
      <trkpt lat="48.75434" lon="2.09171">
        <ele>158.27</ele>
        <time>2011-05-21T11:16:38Z</time>
      </trkpt>
      <trkpt lat="48.75438" lon="2.09164">
        <ele>157.79</ele>
        <time>2011-05-21T11:16:39Z</time>
      </trkpt>
      <trkpt lat="48.75441" lon="2.09156">
        <ele>157.79</ele>
        <time>2011-05-21T11:16:40Z</time>
      </trkpt>
      <trkpt lat="48.75443" lon="2.09147">
        <ele>157.79</ele>
        <time>2011-05-21T11:16:41Z</time>
      </trkpt>
      <trkpt lat="48.75446" lon="2.09139">
        <ele>157.31</ele>
        <time>2011-05-21T11:16:42Z</time>
      </trkpt>
      <trkpt lat="48.75451" lon="2.09131">
        <ele>157.31</ele>
        <time>2011-05-21T11:16:43Z</time>
      </trkpt>
      <trkpt lat="48.75456" lon="2.09124">
        <ele>157.31</ele>
        <time>2011-05-21T11:16:44Z</time>
      </trkpt>
      <trkpt lat="48.75461" lon="2.09118">
        <ele>157.31</ele>
        <time>2011-05-21T11:16:45Z</time>
      </trkpt>
      <trkpt lat="48.75467" lon="2.09113">
        <ele>156.83</ele>
        <time>2011-05-21T11:16:46Z</time>
      </trkpt>
      <trkpt lat="48.75473" lon="2.09108">
        <ele>156.83</ele>
        <time>2011-05-21T11:16:47Z</time>
      </trkpt>
      <trkpt lat="48.75479" lon="2.09105">
        <ele>156.83</ele>
        <time>2011-05-21T11:16:48Z</time>
      </trkpt>
      <trkpt lat="48.75485" lon="2.09103">
        <ele>156.35</ele>
        <time>2011-05-21T11:16:49Z</time>
      </trkpt>
      <trkpt lat="48.75527" lon="2.09094">
        <ele>156.35</ele>
        <time>2011-05-21T11:16:56Z</time>
      </trkpt>
      <trkpt lat="48.75532" lon="2.09092">
        <ele>156.35</ele>
        <time>2011-05-21T11:16:57Z</time>
      </trkpt>
      <trkpt lat="48.75542" lon="2.09084">
        <ele>156.35</ele>
        <time>2011-05-21T11:16:59Z</time>
      </trkpt>
      <trkpt lat="48.75552" lon="2.09075">
        <ele>156.35</ele>
        <time>2011-05-21T11:17:01Z</time>
      </trkpt>
      <trkpt lat="48.75557" lon="2.09072">
        <ele>156.83</ele>
        <time>2011-05-21T11:17:02Z</time>
      </trkpt>
      <trkpt lat="48.75577" lon="2.09048">
        <ele>156.35</ele>
        <time>2011-05-21T11:17:07Z</time>
      </trkpt>
      <trkpt lat="48.75581" lon="2.09046">
        <ele>156.35</ele>
        <time>2011-05-21T11:17:08Z</time>
      </trkpt>
      <trkpt lat="48.75586" lon="2.09043">
        <ele>156.35</ele>
        <time>2011-05-21T11:17:09Z</time>
      </trkpt>
      <trkpt lat="48.75589" lon="2.0904">
        <ele>156.35</ele>
        <time>2011-05-21T11:17:10Z</time>
      </trkpt>
      <trkpt lat="48.75592" lon="2.09036">
        <ele>156.35</ele>
        <time>2011-05-21T11:17:11Z</time>
      </trkpt>
      <trkpt lat="48.75596" lon="2.09032">
        <ele>155.87</ele>
        <time>2011-05-21T11:17:12Z</time>
      </trkpt>
      <trkpt lat="48.75599" lon="2.09028">
        <ele>156.35</ele>
        <time>2011-05-21T11:17:13Z</time>
      </trkpt>
      <trkpt lat="48.75603" lon="2.09024">
        <ele>156.35</ele>
        <time>2011-05-21T11:17:14Z</time>
      </trkpt>
      <trkpt lat="48.75668" lon="2.08959">
        <ele>155.87</ele>
        <time>2011-05-21T11:17:29Z</time>
      </trkpt>
      <trkpt lat="48.75712" lon="2.08893">
        <ele>155.39</ele>
        <time>2011-05-21T11:17:40Z</time>
      </trkpt>
      <trkpt lat="48.75728" lon="2.08874">
        <ele>156.83</ele>
        <time>2011-05-21T11:17:45Z</time>
      </trkpt>
      <trkpt lat="48.75755" lon="2.08907">
        <ele>154.43</ele>
        <time>2011-05-21T11:17:52Z</time>
      </trkpt>
      <trkpt lat="48.7579" lon="2.08951">
        <ele>154.91</ele>
        <time>2011-05-21T11:18:00Z</time>
      </trkpt>
      <trkpt lat="48.75795" lon="2.08955">
        <ele>154.91</ele>
        <time>2011-05-21T11:18:01Z</time>
      </trkpt>
      <trkpt lat="48.758" lon="2.08957">
        <ele>155.39</ele>
        <time>2011-05-21T11:18:02Z</time>
      </trkpt>
      <trkpt lat="48.75806" lon="2.08959">
        <ele>155.39</ele>
        <time>2011-05-21T11:18:03Z</time>
      </trkpt>
      <trkpt lat="48.75811" lon="2.08959">
        <ele>154.91</ele>
        <time>2011-05-21T11:18:04Z</time>
      </trkpt>
      <trkpt lat="48.75817" lon="2.08959">
        <ele>155.39</ele>
        <time>2011-05-21T11:18:05Z</time>
      </trkpt>
      <trkpt lat="48.75908" lon="2.08967">
        <ele>155.39</ele>
        <time>2011-05-21T11:18:21Z</time>
      </trkpt>
      <trkpt lat="48.75913" lon="2.08971">
        <ele>155.39</ele>
        <time>2011-05-21T11:18:22Z</time>
      </trkpt>
      <trkpt lat="48.75974" lon="2.09042">
        <ele>154.91</ele>
        <time>2011-05-21T11:18:35Z</time>
      </trkpt>
      <trkpt lat="48.7599" lon="2.09054">
        <ele>155.87</ele>
        <time>2011-05-21T11:18:38Z</time>
      </trkpt>
      <trkpt lat="48.75994" lon="2.0906">
        <ele>155.39</ele>
        <time>2011-05-21T11:18:39Z</time>
      </trkpt>
      <trkpt lat="48.75997" lon="2.09067">
        <ele>155.87</ele>
        <time>2011-05-21T11:18:40Z</time>
      </trkpt>
      <trkpt lat="48.76046" lon="2.0919">
        <ele>155.87</ele>
        <time>2011-05-21T11:18:57Z</time>
      </trkpt>
      <trkpt lat="48.76054" lon="2.09206">
        <ele>155.87</ele>
        <time>2011-05-21T11:19:00Z</time>
      </trkpt>
      <trkpt lat="48.76058" lon="2.09207">
        <ele>155.87</ele>
        <time>2011-05-21T11:19:01Z</time>
      </trkpt>
      <trkpt lat="48.76061" lon="2.09209">
        <ele>155.87</ele>
        <time>2011-05-21T11:19:02Z</time>
      </trkpt>
      <trkpt lat="48.76065" lon="2.09214">
        <ele>155.87</ele>
        <time>2011-05-21T11:19:03Z</time>
      </trkpt>
      <trkpt lat="48.76067" lon="2.0922">
        <ele>155.87</ele>
        <time>2011-05-21T11:19:04Z</time>
      </trkpt>
      <trkpt lat="48.76071" lon="2.09225">
        <ele>155.87</ele>
        <time>2011-05-21T11:19:05Z</time>
      </trkpt>
      <trkpt lat="48.76075" lon="2.0923">
        <ele>155.87</ele>
        <time>2011-05-21T11:19:06Z</time>
      </trkpt>
      <trkpt lat="48.76145" lon="2.09282">
        <ele>155.87</ele>
        <time>2011-05-21T11:19:19Z</time>
      </trkpt>
      <trkpt lat="48.76155" lon="2.09289">
        <ele>155.87</ele>
        <time>2011-05-21T11:19:21Z</time>
      </trkpt>
      <trkpt lat="48.76165" lon="2.09297">
        <ele>156.35</ele>
        <time>2011-05-21T11:19:23Z</time>
      </trkpt>
      <trkpt lat="48.7622" lon="2.09318">
        <ele>155.87</ele>
        <time>2011-05-21T11:19:33Z</time>
      </trkpt>
      <trkpt lat="48.76232" lon="2.09322">
        <ele>155.39</ele>
        <time>2011-05-21T11:19:35Z</time>
      </trkpt>
      <trkpt lat="48.76238" lon="2.09323">
        <ele>155.39</ele>
        <time>2011-05-21T11:19:36Z</time>
      </trkpt>
      <trkpt lat="48.76251" lon="2.09327">
        <ele>155.87</ele>
        <time>2011-05-21T11:19:38Z</time>
      </trkpt>
      <trkpt lat="48.76268" lon="2.09333">
        <ele>155.87</ele>
        <time>2011-05-21T11:19:41Z</time>
      </trkpt>
      <trkpt lat="48.76273" lon="2.09335">
        <ele>155.39</ele>
        <time>2011-05-21T11:19:42Z</time>
      </trkpt>
      <trkpt lat="48.7634" lon="2.09368">
        <ele>155.87</ele>
        <time>2011-05-21T11:19:54Z</time>
      </trkpt>
      <trkpt lat="48.76391" lon="2.0941">
        <ele>155.39</ele>
        <time>2011-05-21T11:20:04Z</time>
      </trkpt>
      <trkpt lat="48.76396" lon="2.09412">
        <ele>155.87</ele>
        <time>2011-05-21T11:20:05Z</time>
      </trkpt>
      <trkpt lat="48.76401" lon="2.0941">
        <ele>155.87</ele>
        <time>2011-05-21T11:20:06Z</time>
      </trkpt>
      <trkpt lat="48.76405" lon="2.09405">
        <ele>155.39</ele>
        <time>2011-05-21T11:20:07Z</time>
      </trkpt>
      <trkpt lat="48.76408" lon="2.09398">
        <ele>155.87</ele>
        <time>2011-05-21T11:20:08Z</time>
      </trkpt>
      <trkpt lat="48.76411" lon="2.0939">
        <ele>155.87</ele>
        <time>2011-05-21T11:20:09Z</time>
      </trkpt>
      <trkpt lat="48.76468" lon="2.09285">
        <ele>156.83</ele>
        <time>2011-05-21T11:20:23Z</time>
      </trkpt>
      <trkpt lat="48.76522" lon="2.09189">
        <ele>157.31</ele>
        <time>2011-05-21T11:20:37Z</time>
      </trkpt>
      <trkpt lat="48.76524" lon="2.09184">
        <ele>157.31</ele>
        <time>2011-05-21T11:20:38Z</time>
      </trkpt>
      <trkpt lat="48.76531" lon="2.09163">
        <ele>157.31</ele>
        <time>2011-05-21T11:20:42Z</time>
      </trkpt>
      <trkpt lat="48.76529" lon="2.09158">
        <ele>156.83</ele>
        <time>2011-05-21T11:20:43Z</time>
      </trkpt>
      <trkpt lat="48.76527" lon="2.09152">
        <ele>157.79</ele>
        <time>2011-05-21T11:20:44Z</time>
      </trkpt>
      <trkpt lat="48.76523" lon="2.09147">
        <ele>156.83</ele>
        <time>2011-05-21T11:20:45Z</time>
      </trkpt>
      <trkpt lat="48.76519" lon="2.09141">
        <ele>156.83</ele>
        <time>2011-05-21T11:20:46Z</time>
      </trkpt>
      <trkpt lat="48.76516" lon="2.09136">
        <ele>156.83</ele>
        <time>2011-05-21T11:20:47Z</time>
      </trkpt>
      <trkpt lat="48.76513" lon="2.09128">
        <ele>157.31</ele>
        <time>2011-05-21T11:20:48Z</time>
      </trkpt>
      <trkpt lat="48.76512" lon="2.09121">
        <ele>156.83</ele>
        <time>2011-05-21T11:20:49Z</time>
      </trkpt>
      <trkpt lat="48.76512" lon="2.09112">
        <ele>156.83</ele>
        <time>2011-05-21T11:20:50Z</time>
      </trkpt>
      <trkpt lat="48.76512" lon="2.09103">
        <ele>156.83</ele>
        <time>2011-05-21T11:20:51Z</time>
      </trkpt>
      <trkpt lat="48.76513" lon="2.09095">
        <ele>156.83</ele>
        <time>2011-05-21T11:20:52Z</time>
      </trkpt>
      <trkpt lat="48.76519" lon="2.09059">
        <ele>156.83</ele>
        <time>2011-05-21T11:20:56Z</time>
      </trkpt>
      <trkpt lat="48.76521" lon="2.09049">
        <ele>156.83</ele>
        <time>2011-05-21T11:20:57Z</time>
      </trkpt>
      <trkpt lat="48.76522" lon="2.09039">
        <ele>156.83</ele>
        <time>2011-05-21T11:20:58Z</time>
      </trkpt>
      <trkpt lat="48.76524" lon="2.09029">
        <ele>157.31</ele>
        <time>2011-05-21T11:20:59Z</time>
      </trkpt>
      <trkpt lat="48.76526" lon="2.09019">
        <ele>156.83</ele>
        <time>2011-05-21T11:21:00Z</time>
      </trkpt>
      <trkpt lat="48.76527" lon="2.09009">
        <ele>156.83</ele>
        <time>2011-05-21T11:21:01Z</time>
      </trkpt>
      <trkpt lat="48.76529" lon="2.09001">
        <ele>156.83</ele>
        <time>2011-05-21T11:21:02Z</time>
      </trkpt>
      <trkpt lat="48.76536" lon="2.08969">
        <ele>157.31</ele>
        <time>2011-05-21T11:21:06Z</time>
      </trkpt>
      <trkpt lat="48.76538" lon="2.08955">
        <ele>157.79</ele>
        <time>2011-05-21T11:21:08Z</time>
      </trkpt>
      <trkpt lat="48.7654" lon="2.0895">
        <ele>157.79</ele>
        <time>2011-05-21T11:21:09Z</time>
      </trkpt>
      <trkpt lat="48.76543" lon="2.08947">
        <ele>157.31</ele>
        <time>2011-05-21T11:21:10Z</time>
      </trkpt>
      <trkpt lat="48.76547" lon="2.08947">
        <ele>157.31</ele>
        <time>2011-05-21T11:21:11Z</time>
      </trkpt>
      <trkpt lat="48.76551" lon="2.08947">
        <ele>157.79</ele>
        <time>2011-05-21T11:21:12Z</time>
      </trkpt>
      <trkpt lat="48.76555" lon="2.08947">
        <ele>157.31</ele>
        <time>2011-05-21T11:21:13Z</time>
      </trkpt>
      <trkpt lat="48.76559" lon="2.08947">
        <ele>156.83</ele>
        <time>2011-05-21T11:21:14Z</time>
      </trkpt>
      <trkpt lat="48.76564" lon="2.08946">
        <ele>156.35</ele>
        <time>2011-05-21T11:21:15Z</time>
      </trkpt>
      <trkpt lat="48.76569" lon="2.08944">
        <ele>156.35</ele>
        <time>2011-05-21T11:21:16Z</time>
      </trkpt>
      <trkpt lat="48.76575" lon="2.08943">
        <ele>155.87</ele>
        <time>2011-05-21T11:21:17Z</time>
      </trkpt>
      <trkpt lat="48.76597" lon="2.08938">
        <ele>156.35</ele>
        <time>2011-05-21T11:21:21Z</time>
      </trkpt>
      <trkpt lat="48.76603" lon="2.08937">
        <ele>155.87</ele>
        <time>2011-05-21T11:21:22Z</time>
      </trkpt>
      <trkpt lat="48.76646" lon="2.08928">
        <ele>156.35</ele>
        <time>2011-05-21T11:21:29Z</time>
      </trkpt>
      <trkpt lat="48.76653" lon="2.08928">
        <ele>156.35</ele>
        <time>2011-05-21T11:21:30Z</time>
      </trkpt>
      <trkpt lat="48.76659" lon="2.08927">
        <ele>155.87</ele>
        <time>2011-05-21T11:21:31Z</time>
      </trkpt>
      <trkpt lat="48.7675" lon="2.08933">
        <ele>155.39</ele>
        <time>2011-05-21T11:21:44Z</time>
      </trkpt>
      <trkpt lat="48.76862" lon="2.08986">
        <ele>156.83</ele>
        <time>2011-05-21T11:22:02Z</time>
      </trkpt>
      <trkpt lat="48.76935" lon="2.0903">
        <ele>158.75</ele>
        <time>2011-05-21T11:22:15Z</time>
      </trkpt>
      <trkpt lat="48.77033" lon="2.09088">
        <ele>161.64</ele>
        <time>2011-05-21T11:22:35Z</time>
      </trkpt>
      <trkpt lat="48.77102" lon="2.09129">
        <ele>162.12</ele>
        <time>2011-05-21T11:22:50Z</time>
      </trkpt>
      <trkpt lat="48.77115" lon="2.09135">
        <ele>162.12</ele>
        <time>2011-05-21T11:22:53Z</time>
      </trkpt>
      <trkpt lat="48.7712" lon="2.09137">
        <ele>162.6</ele>
        <time>2011-05-21T11:22:54Z</time>
      </trkpt>
      <trkpt lat="48.77196" lon="2.09169">
        <ele>163.56</ele>
        <time>2011-05-21T11:23:10Z</time>
      </trkpt>
      <trkpt lat="48.77237" lon="2.09185">
        <ele>163.56</ele>
        <time>2011-05-21T11:23:18Z</time>
      </trkpt>
      <trkpt lat="48.77242" lon="2.09186">
        <ele>164.04</ele>
        <time>2011-05-21T11:23:19Z</time>
      </trkpt>
      <trkpt lat="48.77251" lon="2.09187">
        <ele>163.56</ele>
        <time>2011-05-21T11:23:21Z</time>
      </trkpt>
      <trkpt lat="48.77256" lon="2.09188">
        <ele>163.08</ele>
        <time>2011-05-21T11:23:22Z</time>
      </trkpt>
      <trkpt lat="48.77265" lon="2.09192">
        <ele>163.56</ele>
        <time>2011-05-21T11:23:24Z</time>
      </trkpt>
      <trkpt lat="48.7727" lon="2.09193">
        <ele>164.04</ele>
        <time>2011-05-21T11:23:25Z</time>
      </trkpt>
      <trkpt lat="48.77274" lon="2.09194">
        <ele>163.56</ele>
        <time>2011-05-21T11:23:26Z</time>
      </trkpt>
      <trkpt lat="48.77337" lon="2.09208">
        <ele>162.12</ele>
        <time>2011-05-21T11:23:40Z</time>
      </trkpt>
      <trkpt lat="48.77352" lon="2.0921">
        <ele>161.64</ele>
        <time>2011-05-21T11:23:43Z</time>
      </trkpt>
      <trkpt lat="48.77357" lon="2.0921">
        <ele>161.64</ele>
        <time>2011-05-21T11:23:44Z</time>
      </trkpt>
      <trkpt lat="48.77399" lon="2.09215">
        <ele>160.2</ele>
        <time>2011-05-21T11:23:52Z</time>
      </trkpt>
      <trkpt lat="48.77404" lon="2.09216">
        <ele>159.72</ele>
        <time>2011-05-21T11:23:53Z</time>
      </trkpt>
      <trkpt lat="48.7741" lon="2.09217">
        <ele>159.72</ele>
        <time>2011-05-21T11:23:54Z</time>
      </trkpt>
      <trkpt lat="48.7743" lon="2.09216">
        <ele>160.2</ele>
        <time>2011-05-21T11:24:02Z</time>
      </trkpt>
      <trkpt lat="48.7743" lon="2.09216">
        <ele>160.2</ele>
        <time>2011-05-21T11:24:16Z</time>
      </trkpt>
      <trkpt lat="48.7743" lon="2.09216">
        <ele>160.2</ele>
        <time>2011-05-21T11:24:37Z</time>
      </trkpt>
      <trkpt lat="48.77433" lon="2.09212">
        <ele>159.72</ele>
        <time>2011-05-21T11:24:50Z</time>
      </trkpt>
      <trkpt lat="48.77434" lon="2.0921">
        <ele>160.2</ele>
        <time>2011-05-21T11:24:51Z</time>
      </trkpt>
      <trkpt lat="48.77435" lon="2.09208">
        <ele>160.2</ele>
        <time>2011-05-21T11:24:52Z</time>
      </trkpt>
      <trkpt lat="48.77435" lon="2.09205">
        <ele>159.72</ele>
        <time>2011-05-21T11:24:53Z</time>
      </trkpt>
      <trkpt lat="48.77436" lon="2.09202">
        <ele>160.2</ele>
        <time>2011-05-21T11:24:54Z</time>
      </trkpt>
      <trkpt lat="48.77437" lon="2.09199">
        <ele>160.2</ele>
        <time>2011-05-21T11:24:55Z</time>
      </trkpt>
      <trkpt lat="48.77445" lon="2.09165">
        <ele>160.2</ele>
        <time>2011-05-21T11:25:04Z</time>
      </trkpt>
      <trkpt lat="48.77447" lon="2.09162">
        <ele>160.2</ele>
        <time>2011-05-21T11:25:05Z</time>
      </trkpt>
      <trkpt lat="48.77449" lon="2.09159">
        <ele>160.68</ele>
        <time>2011-05-21T11:25:06Z</time>
      </trkpt>
      <trkpt lat="48.77451" lon="2.09157">
        <ele>160.68</ele>
        <time>2011-05-21T11:25:07Z</time>
      </trkpt>
      <trkpt lat="48.77453" lon="2.09154">
        <ele>160.2</ele>
        <time>2011-05-21T11:25:08Z</time>
      </trkpt>
      <trkpt lat="48.77454" lon="2.0915">
        <ele>160.68</ele>
        <time>2011-05-21T11:25:09Z</time>
      </trkpt>
      <trkpt lat="48.77455" lon="2.09146">
        <ele>160.68</ele>
        <time>2011-05-21T11:25:10Z</time>
      </trkpt>
      <trkpt lat="48.77456" lon="2.09141">
        <ele>160.68</ele>
        <time>2011-05-21T11:25:11Z</time>
      </trkpt>
      <trkpt lat="48.77456" lon="2.09136">
        <ele>160.2</ele>
        <time>2011-05-21T11:25:12Z</time>
      </trkpt>
      <trkpt lat="48.77465" lon="2.09076">
        <ele>160.68</ele>
        <time>2011-05-21T11:25:24Z</time>
      </trkpt>
      <trkpt lat="48.77472" lon="2.09062">
        <ele>161.16</ele>
        <time>2011-05-21T11:25:34Z</time>
      </trkpt>
      <trkpt lat="48.7748" lon="2.09055">
        <ele>160.68</ele>
        <time>2011-05-21T11:25:39Z</time>
      </trkpt>
      <trkpt lat="48.77482" lon="2.0905">
        <ele>160.68</ele>
        <time>2011-05-21T11:25:40Z</time>
      </trkpt>
      <trkpt lat="48.77485" lon="2.09029">
        <ele>160.68</ele>
        <time>2011-05-21T11:25:44Z</time>
      </trkpt>
      <trkpt lat="48.77488" lon="2.09027">
        <ele>161.16</ele>
        <time>2011-05-21T11:25:45Z</time>
      </trkpt>
      <trkpt lat="48.77491" lon="2.09026">
        <ele>160.68</ele>
        <time>2011-05-21T11:25:46Z</time>
      </trkpt>
      <trkpt lat="48.77494" lon="2.09026">
        <ele>160.68</ele>
        <time>2011-05-21T11:25:47Z</time>
      </trkpt>
      <trkpt lat="48.77497" lon="2.09026">
        <ele>160.68</ele>
        <time>2011-05-21T11:25:48Z</time>
      </trkpt>
      <trkpt lat="48.77546" lon="2.09037">
        <ele>160.2</ele>
        <time>2011-05-21T11:26:02Z</time>
      </trkpt>
      <trkpt lat="48.7758" lon="2.09053">
        <ele>158.27</ele>
        <time>2011-05-21T11:26:09Z</time>
      </trkpt>
      <trkpt lat="48.77617" lon="2.09059">
        <ele>157.79</ele>
        <time>2011-05-21T11:26:16Z</time>
      </trkpt>
      <trkpt lat="48.77638" lon="2.09062">
        <ele>157.31</ele>
        <time>2011-05-21T11:26:20Z</time>
      </trkpt>
      <trkpt lat="48.77643" lon="2.09064">
        <ele>157.31</ele>
        <time>2011-05-21T11:26:21Z</time>
      </trkpt>
      <trkpt lat="48.77648" lon="2.09067">
        <ele>157.31</ele>
        <time>2011-05-21T11:26:22Z</time>
      </trkpt>
      <trkpt lat="48.77657" lon="2.09074">
        <ele>157.31</ele>
        <time>2011-05-21T11:26:24Z</time>
      </trkpt>
      <trkpt lat="48.77662" lon="2.09077">
        <ele>157.31</ele>
        <time>2011-05-21T11:26:25Z</time>
      </trkpt>
      <trkpt lat="48.7767" lon="2.09084">
        <ele>157.31</ele>
        <time>2011-05-21T11:26:27Z</time>
      </trkpt>
      <trkpt lat="48.77675" lon="2.09088">
        <ele>157.31</ele>
        <time>2011-05-21T11:26:28Z</time>
      </trkpt>
      <trkpt lat="48.77688" lon="2.09098">
        <ele>156.83</ele>
        <time>2011-05-21T11:26:31Z</time>
      </trkpt>
      <trkpt lat="48.77705" lon="2.09111">
        <ele>156.35</ele>
        <time>2011-05-21T11:26:35Z</time>
      </trkpt>
      <trkpt lat="48.77709" lon="2.09113">
        <ele>156.35</ele>
        <time>2011-05-21T11:26:36Z</time>
      </trkpt>
      <trkpt lat="48.77712" lon="2.09113">
        <ele>156.35</ele>
        <time>2011-05-21T11:26:37Z</time>
      </trkpt>
      <trkpt lat="48.77717" lon="2.09109">
        <ele>156.83</ele>
        <time>2011-05-21T11:26:39Z</time>
      </trkpt>
      <trkpt lat="48.77718" lon="2.09107">
        <ele>156.35</ele>
        <time>2011-05-21T11:26:40Z</time>
      </trkpt>
      <trkpt lat="48.77718" lon="2.09105">
        <ele>156.35</ele>
        <time>2011-05-21T11:26:53Z</time>
      </trkpt>
      <trkpt lat="48.77719" lon="2.09105">
        <ele>156.35</ele>
        <time>2011-05-21T11:27:21Z</time>
      </trkpt>
      <trkpt lat="48.77719" lon="2.09105">
        <ele>156.35</ele>
        <time>2011-05-21T11:27:59Z</time>
      </trkpt>
      <trkpt lat="48.77719" lon="2.09104">
        <ele>156.83</ele>
        <time>2011-05-21T11:28:35Z</time>
      </trkpt>
      <trkpt lat="48.77719" lon="2.09104">
        <ele>156.83</ele>
        <time>2011-05-21T11:29:11Z</time>
      </trkpt>
      <trkpt lat="48.77719" lon="2.09103">
        <ele>156.83</ele>
        <time>2011-05-21T11:29:49Z</time>
      </trkpt>
      <trkpt lat="48.7772" lon="2.09103">
        <ele>156.83</ele>
        <time>2011-05-21T11:30:25Z</time>
      </trkpt>
      <trkpt lat="48.7772" lon="2.09102">
        <ele>156.83</ele>
        <time>2011-05-21T11:30:59Z</time>
      </trkpt>
      <trkpt lat="48.7772" lon="2.09103">
        <ele>156.35</ele>
        <time>2011-05-21T11:31:36Z</time>
      </trkpt>
      <trkpt lat="48.7772" lon="2.09103">
        <ele>156.83</ele>
        <time>2011-05-21T11:32:18Z</time>
      </trkpt>
      <trkpt lat="48.7772" lon="2.09103">
        <ele>156.83</ele>
        <time>2011-05-21T11:32:54Z</time>
      </trkpt>
      <trkpt lat="48.7772" lon="2.09102">
        <ele>156.83</ele>
        <time>2011-05-21T11:33:28Z</time>
      </trkpt>
      <trkpt lat="48.7772" lon="2.09102">
        <ele>156.83</ele>
        <time>2011-05-21T11:34:09Z</time>
      </trkpt>
      <trkpt lat="48.7772" lon="2.09103">
        <ele>156.83</ele>
        <time>2011-05-21T11:34:47Z</time>
      </trkpt>
      <trkpt lat="48.7772" lon="2.09103">
        <ele>156.83</ele>
        <time>2011-05-21T11:35:20Z</time>
      </trkpt>
      <trkpt lat="48.7772" lon="2.09105">
        <ele>157.31</ele>
        <time>2011-05-21T11:35:34Z</time>
      </trkpt>
      <trkpt lat="48.7772" lon="2.09105">
        <ele>157.31</ele>
        <time>2011-05-21T11:36:00Z</time>
      </trkpt>
      <trkpt lat="48.7772" lon="2.09106">
        <ele>157.31</ele>
        <time>2011-05-21T11:36:21Z</time>
      </trkpt>
      <trkpt lat="48.7772" lon="2.09106">
        <ele>157.31</ele>
        <time>2011-05-21T11:36:43Z</time>
      </trkpt>
      <trkpt lat="48.77721" lon="2.09112">
        <ele>157.31</ele>
        <time>2011-05-21T11:36:55Z</time>
      </trkpt>
      <trkpt lat="48.77723" lon="2.09114">
        <ele>157.31</ele>
        <time>2011-05-21T11:36:56Z</time>
      </trkpt>
      <trkpt lat="48.77725" lon="2.09114">
        <ele>157.31</ele>
        <time>2011-05-21T11:36:57Z</time>
      </trkpt>
      <trkpt lat="48.77726" lon="2.09117">
        <ele>157.31</ele>
        <time>2011-05-21T11:36:58Z</time>
      </trkpt>
      <trkpt lat="48.77728" lon="2.09121">
        <ele>156.83</ele>
        <time>2011-05-21T11:36:59Z</time>
      </trkpt>
      <trkpt lat="48.77731" lon="2.09126">
        <ele>156.35</ele>
        <time>2011-05-21T11:37:00Z</time>
      </trkpt>
      <trkpt lat="48.77733" lon="2.09133">
        <ele>155.87</ele>
        <time>2011-05-21T11:37:01Z</time>
      </trkpt>
      <trkpt lat="48.77736" lon="2.09139">
        <ele>155.39</ele>
        <time>2011-05-21T11:37:02Z</time>
      </trkpt>
      <trkpt lat="48.77742" lon="2.09158">
        <ele>155.39</ele>
        <time>2011-05-21T11:37:05Z</time>
      </trkpt>
      <trkpt lat="48.77744" lon="2.09165">
        <ele>154.91</ele>
        <time>2011-05-21T11:37:06Z</time>
      </trkpt>
      <trkpt lat="48.77746" lon="2.09172">
        <ele>154.43</ele>
        <time>2011-05-21T11:37:07Z</time>
      </trkpt>
      <trkpt lat="48.77752" lon="2.09203">
        <ele>153.47</ele>
        <time>2011-05-21T11:37:11Z</time>
      </trkpt>
      <trkpt lat="48.77754" lon="2.09212">
        <ele>153.47</ele>
        <time>2011-05-21T11:37:12Z</time>
      </trkpt>
      <trkpt lat="48.77756" lon="2.09221">
        <ele>153.47</ele>
        <time>2011-05-21T11:37:13Z</time>
      </trkpt>
      <trkpt lat="48.7776" lon="2.09239">
        <ele>152.51</ele>
        <time>2011-05-21T11:37:15Z</time>
      </trkpt>
      <trkpt lat="48.77762" lon="2.09247">
        <ele>152.99</ele>
        <time>2011-05-21T11:37:16Z</time>
      </trkpt>
      <trkpt lat="48.77778" lon="2.0928">
        <ele>151.06</ele>
        <time>2011-05-21T11:37:20Z</time>
      </trkpt>
      <trkpt lat="48.77809" lon="2.09328">
        <ele>147.7</ele>
        <time>2011-05-21T11:37:26Z</time>
      </trkpt>
      <trkpt lat="48.77815" lon="2.09336">
        <ele>147.7</ele>
        <time>2011-05-21T11:37:27Z</time>
      </trkpt>
      <trkpt lat="48.77838" lon="2.09372">
        <ele>143.85</ele>
        <time>2011-05-21T11:37:31Z</time>
      </trkpt>
      <trkpt lat="48.77841" lon="2.0938">
        <ele>143.37</ele>
        <time>2011-05-21T11:37:32Z</time>
      </trkpt>
      <trkpt lat="48.77843" lon="2.09387">
        <ele>142.89</ele>
        <time>2011-05-21T11:37:33Z</time>
      </trkpt>
      <trkpt lat="48.77845" lon="2.09391">
        <ele>142.41</ele>
        <time>2011-05-21T11:37:34Z</time>
      </trkpt>
      <trkpt lat="48.77847" lon="2.09393">
        <ele>141.45</ele>
        <time>2011-05-21T11:37:35Z</time>
      </trkpt>
      <trkpt lat="48.7785" lon="2.09395">
        <ele>140.49</ele>
        <time>2011-05-21T11:37:36Z</time>
      </trkpt>
      <trkpt lat="48.77862" lon="2.09411">
        <ele>137.13</ele>
        <time>2011-05-21T11:37:40Z</time>
      </trkpt>
      <trkpt lat="48.77866" lon="2.09417">
        <ele>136.64</ele>
        <time>2011-05-21T11:37:41Z</time>
      </trkpt>
      <trkpt lat="48.77877" lon="2.09443">
        <ele>132.8</ele>
        <time>2011-05-21T11:37:44Z</time>
      </trkpt>
      <trkpt lat="48.77888" lon="2.09476">
        <ele>129.92</ele>
        <time>2011-05-21T11:37:47Z</time>
      </trkpt>
      <trkpt lat="48.77891" lon="2.09488">
        <ele>128.95</ele>
        <time>2011-05-21T11:37:48Z</time>
      </trkpt>
      <trkpt lat="48.77893" lon="2.09499">
        <ele>127.99</ele>
        <time>2011-05-21T11:37:49Z</time>
      </trkpt>
      <trkpt lat="48.77894" lon="2.09511">
        <ele>127.99</ele>
        <time>2011-05-21T11:37:50Z</time>
      </trkpt>
      <trkpt lat="48.77897" lon="2.09533">
        <ele>127.03</ele>
        <time>2011-05-21T11:37:52Z</time>
      </trkpt>
      <trkpt lat="48.779" lon="2.09538">
        <ele>127.51</ele>
        <time>2011-05-21T11:37:53Z</time>
      </trkpt>
      <trkpt lat="48.77903" lon="2.09541">
        <ele>127.03</ele>
        <time>2011-05-21T11:37:54Z</time>
      </trkpt>
      <trkpt lat="48.77906" lon="2.09544">
        <ele>127.03</ele>
        <time>2011-05-21T11:37:55Z</time>
      </trkpt>
      <trkpt lat="48.77908" lon="2.09547">
        <ele>126.55</ele>
        <time>2011-05-21T11:37:56Z</time>
      </trkpt>
      <trkpt lat="48.7791" lon="2.09549">
        <ele>126.55</ele>
        <time>2011-05-21T11:37:57Z</time>
      </trkpt>
      <trkpt lat="48.7791" lon="2.09552">
        <ele>126.55</ele>
        <time>2011-05-21T11:37:58Z</time>
      </trkpt>
      <trkpt lat="48.77911" lon="2.09554">
        <ele>126.55</ele>
        <time>2011-05-21T11:37:59Z</time>
      </trkpt>
      <trkpt lat="48.77913" lon="2.09557">
        <ele>126.55</ele>
        <time>2011-05-21T11:38:00Z</time>
      </trkpt>
      <trkpt lat="48.77916" lon="2.09565">
        <ele>126.07</ele>
        <time>2011-05-21T11:38:03Z</time>
      </trkpt>
      <trkpt lat="48.77918" lon="2.09565">
        <ele>125.59</ele>
        <time>2011-05-21T11:38:04Z</time>
      </trkpt>
      <trkpt lat="48.7792" lon="2.09563">
        <ele>125.59</ele>
        <time>2011-05-21T11:38:05Z</time>
      </trkpt>
      <trkpt lat="48.77922" lon="2.0956">
        <ele>126.07</ele>
        <time>2011-05-21T11:38:06Z</time>
      </trkpt>
      <trkpt lat="48.77923" lon="2.09557">
        <ele>126.07</ele>
        <time>2011-05-21T11:38:07Z</time>
      </trkpt>
      <trkpt lat="48.77923" lon="2.09555">
        <ele>126.07</ele>
        <time>2011-05-21T11:38:08Z</time>
      </trkpt>
      <trkpt lat="48.77922" lon="2.09553">
        <ele>126.55</ele>
        <time>2011-05-21T11:38:09Z</time>
      </trkpt>
      <trkpt lat="48.77922" lon="2.09553">
        <ele>126.07</ele>
        <time>2011-05-21T11:38:10Z</time>
      </trkpt>
      <trkpt lat="48.77921" lon="2.09553">
        <ele>126.55</ele>
        <time>2011-05-21T11:38:11Z</time>
      </trkpt>
      <trkpt lat="48.7792" lon="2.09555">
        <ele>126.07</ele>
        <time>2011-05-21T11:38:12Z</time>
      </trkpt>
      <trkpt lat="48.77921" lon="2.09557">
        <ele>126.07</ele>
        <time>2011-05-21T11:38:13Z</time>
      </trkpt>
      <trkpt lat="48.77922" lon="2.09558">
        <ele>126.07</ele>
        <time>2011-05-21T11:38:14Z</time>
      </trkpt>
      <trkpt lat="48.77923" lon="2.09558">
        <ele>126.07</ele>
        <time>2011-05-21T11:38:15Z</time>
      </trkpt>
      <trkpt lat="48.77924" lon="2.09556">
        <ele>126.07</ele>
        <time>2011-05-21T11:38:16Z</time>
      </trkpt>
      <trkpt lat="48.77925" lon="2.09555">
        <ele>126.55</ele>
        <time>2011-05-21T11:38:17Z</time>
      </trkpt>
      <trkpt lat="48.77926" lon="2.09553">
        <ele>126.07</ele>
        <time>2011-05-21T11:38:18Z</time>
      </trkpt>
      <trkpt lat="48.77926" lon="2.09552">
        <ele>126.55</ele>
        <time>2011-05-21T11:38:19Z</time>
      </trkpt>
      <trkpt lat="48.77924" lon="2.09552">
        <ele>126.07</ele>
        <time>2011-05-21T11:38:20Z</time>
      </trkpt>
      <trkpt lat="48.77924" lon="2.09553">
        <ele>126.55</ele>
        <time>2011-05-21T11:38:21Z</time>
      </trkpt>
      <trkpt lat="48.77923" lon="2.09555">
        <ele>126.07</ele>
        <time>2011-05-21T11:38:22Z</time>
      </trkpt>
      <trkpt lat="48.77924" lon="2.09558">
        <ele>126.07</ele>
        <time>2011-05-21T11:38:23Z</time>
      </trkpt>
      <trkpt lat="48.77924" lon="2.0956">
        <ele>126.07</ele>
        <time>2011-05-21T11:38:24Z</time>
      </trkpt>
      <trkpt lat="48.77926" lon="2.09561">
        <ele>126.07</ele>
        <time>2011-05-21T11:38:25Z</time>
      </trkpt>
      <trkpt lat="48.77928" lon="2.09561">
        <ele>126.55</ele>
        <time>2011-05-21T11:38:26Z</time>
      </trkpt>
      <trkpt lat="48.77929" lon="2.09561">
        <ele>126.07</ele>
        <time>2011-05-21T11:38:27Z</time>
      </trkpt>
      <trkpt lat="48.77948" lon="2.0958">
        <ele>125.59</ele>
        <time>2011-05-21T11:38:39Z</time>
      </trkpt>
      <trkpt lat="48.77994" lon="2.09583">
        <ele>126.55</ele>
        <time>2011-05-21T11:38:50Z</time>
      </trkpt>
      <trkpt lat="48.78027" lon="2.09571">
        <ele>127.51</ele>
        <time>2011-05-21T11:39:01Z</time>
      </trkpt>
      <trkpt lat="48.78036" lon="2.09584">
        <ele>123.67</ele>
        <time>2011-05-21T11:39:08Z</time>
      </trkpt>
      <trkpt lat="48.78037" lon="2.09588">
        <ele>123.67</ele>
        <time>2011-05-21T11:39:09Z</time>
      </trkpt>
      <trkpt lat="48.78062" lon="2.09731">
        <ele>123.19</ele>
        <time>2011-05-21T11:39:19Z</time>
      </trkpt>
      <trkpt lat="48.78063" lon="2.09741">
        <ele>122.71</ele>
        <time>2011-05-21T11:39:20Z</time>
      </trkpt>
      <trkpt lat="48.78065" lon="2.09817">
        <ele>123.19</ele>
        <time>2011-05-21T11:39:28Z</time>
      </trkpt>
      <trkpt lat="48.78062" lon="2.09832">
        <ele>123.19</ele>
        <time>2011-05-21T11:39:30Z</time>
      </trkpt>
      <trkpt lat="48.7806" lon="2.09839">
        <ele>123.19</ele>
        <time>2011-05-21T11:39:31Z</time>
      </trkpt>
      <trkpt lat="48.78058" lon="2.09846">
        <ele>123.19</ele>
        <time>2011-05-21T11:39:32Z</time>
      </trkpt>
      <trkpt lat="48.78056" lon="2.09852">
        <ele>123.19</ele>
        <time>2011-05-21T11:39:33Z</time>
      </trkpt>
      <trkpt lat="48.78054" lon="2.09857">
        <ele>123.67</ele>
        <time>2011-05-21T11:39:34Z</time>
      </trkpt>
      <trkpt lat="48.78051" lon="2.09862">
        <ele>123.19</ele>
        <time>2011-05-21T11:39:35Z</time>
      </trkpt>
      <trkpt lat="48.78049" lon="2.09867">
        <ele>123.19</ele>
        <time>2011-05-21T11:39:36Z</time>
      </trkpt>
      <trkpt lat="48.78046" lon="2.09873">
        <ele>123.19</ele>
        <time>2011-05-21T11:39:37Z</time>
      </trkpt>
      <trkpt lat="48.78043" lon="2.09879">
        <ele>122.22</ele>
        <time>2011-05-21T11:39:38Z</time>
      </trkpt>
      <trkpt lat="48.78034" lon="2.09893">
        <ele>120.78</ele>
        <time>2011-05-21T11:39:40Z</time>
      </trkpt>
      <trkpt lat="48.78028" lon="2.09897">
        <ele>119.82</ele>
        <time>2011-05-21T11:39:41Z</time>
      </trkpt>
      <trkpt lat="48.78014" lon="2.09905">
        <ele>119.34</ele>
        <time>2011-05-21T11:39:43Z</time>
      </trkpt>
      <trkpt lat="48.78001" lon="2.09909">
        <ele>118.38</ele>
        <time>2011-05-21T11:39:45Z</time>
      </trkpt>
      <trkpt lat="48.77995" lon="2.09911">
        <ele>117.9</ele>
        <time>2011-05-21T11:39:46Z</time>
      </trkpt>
      <trkpt lat="48.77964" lon="2.09919">
        <ele>116.94</ele>
        <time>2011-05-21T11:39:50Z</time>
      </trkpt>
      <trkpt lat="48.77949" lon="2.09919">
        <ele>116.46</ele>
        <time>2011-05-21T11:39:52Z</time>
      </trkpt>
      <trkpt lat="48.77934" lon="2.09914">
        <ele>116.46</ele>
        <time>2011-05-21T11:39:54Z</time>
      </trkpt>
      <trkpt lat="48.77919" lon="2.09903">
        <ele>115.98</ele>
        <time>2011-05-21T11:39:56Z</time>
      </trkpt>
      <trkpt lat="48.7787" lon="2.09872">
        <ele>116.46</ele>
        <time>2011-05-21T11:40:03Z</time>
      </trkpt>
      <trkpt lat="48.77865" lon="2.09872">
        <ele>115.98</ele>
        <time>2011-05-21T11:40:04Z</time>
      </trkpt>
      <trkpt lat="48.7786" lon="2.09874">
        <ele>115.98</ele>
        <time>2011-05-21T11:40:05Z</time>
      </trkpt>
      <trkpt lat="48.77854" lon="2.09877">
        <ele>115.98</ele>
        <time>2011-05-21T11:40:06Z</time>
      </trkpt>
      <trkpt lat="48.77848" lon="2.09882">
        <ele>115.98</ele>
        <time>2011-05-21T11:40:07Z</time>
      </trkpt>
      <trkpt lat="48.77842" lon="2.09888">
        <ele>115.98</ele>
        <time>2011-05-21T11:40:08Z</time>
      </trkpt>
      <trkpt lat="48.77838" lon="2.09895">
        <ele>115.98</ele>
        <time>2011-05-21T11:40:09Z</time>
      </trkpt>
      <trkpt lat="48.77834" lon="2.09902">
        <ele>115.98</ele>
        <time>2011-05-21T11:40:10Z</time>
      </trkpt>
      <trkpt lat="48.77831" lon="2.09909">
        <ele>115.98</ele>
        <time>2011-05-21T11:40:11Z</time>
      </trkpt>
      <trkpt lat="48.77829" lon="2.09916">
        <ele>116.46</ele>
        <time>2011-05-21T11:40:12Z</time>
      </trkpt>
      <trkpt lat="48.77826" lon="2.09923">
        <ele>116.94</ele>
        <time>2011-05-21T11:40:13Z</time>
      </trkpt>
      <trkpt lat="48.77824" lon="2.0993">
        <ele>116.94</ele>
        <time>2011-05-21T11:40:14Z</time>
      </trkpt>
      <trkpt lat="48.77818" lon="2.09968">
        <ele>116.94</ele>
        <time>2011-05-21T11:40:19Z</time>
      </trkpt>
      <trkpt lat="48.77816" lon="2.09977">
        <ele>116.46</ele>
        <time>2011-05-21T11:40:20Z</time>
      </trkpt>
      <trkpt lat="48.77815" lon="2.09985">
        <ele>116.46</ele>
        <time>2011-05-21T11:40:21Z</time>
      </trkpt>
      <trkpt lat="48.77813" lon="2.09992">
        <ele>115.98</ele>
        <time>2011-05-21T11:40:22Z</time>
      </trkpt>
      <trkpt lat="48.7781" lon="2.09998">
        <ele>115.98</ele>
        <time>2011-05-21T11:40:23Z</time>
      </trkpt>
      <trkpt lat="48.77806" lon="2.10003">
        <ele>115.5</ele>
        <time>2011-05-21T11:40:24Z</time>
      </trkpt>
      <trkpt lat="48.77801" lon="2.10008">
        <ele>115.98</ele>
        <time>2011-05-21T11:40:25Z</time>
      </trkpt>
      <trkpt lat="48.77795" lon="2.10012">
        <ele>115.5</ele>
        <time>2011-05-21T11:40:26Z</time>
      </trkpt>
      <trkpt lat="48.77789" lon="2.10015">
        <ele>115.5</ele>
        <time>2011-05-21T11:40:27Z</time>
      </trkpt>
      <trkpt lat="48.77783" lon="2.10016">
        <ele>115.01</ele>
        <time>2011-05-21T11:40:28Z</time>
      </trkpt>
      <trkpt lat="48.77776" lon="2.10017">
        <ele>115.5</ele>
        <time>2011-05-21T11:40:29Z</time>
      </trkpt>
      <trkpt lat="48.7777" lon="2.10017">
        <ele>115.5</ele>
        <time>2011-05-21T11:40:30Z</time>
      </trkpt>
      <trkpt lat="48.77763" lon="2.10016">
        <ele>115.5</ele>
        <time>2011-05-21T11:40:31Z</time>
      </trkpt>
      <trkpt lat="48.77681" lon="2.10016">
        <ele>114.53</ele>
        <time>2011-05-21T11:40:43Z</time>
      </trkpt>
      <trkpt lat="48.77675" lon="2.10016">
        <ele>114.53</ele>
        <time>2011-05-21T11:40:44Z</time>
      </trkpt>
      <trkpt lat="48.77663" lon="2.10019">
        <ele>114.53</ele>
        <time>2011-05-21T11:40:46Z</time>
      </trkpt>
      <trkpt lat="48.77657" lon="2.10022">
        <ele>114.53</ele>
        <time>2011-05-21T11:40:47Z</time>
      </trkpt>
      <trkpt lat="48.77652" lon="2.10026">
        <ele>114.05</ele>
        <time>2011-05-21T11:40:48Z</time>
      </trkpt>
      <trkpt lat="48.77647" lon="2.1003">
        <ele>114.53</ele>
        <time>2011-05-21T11:40:49Z</time>
      </trkpt>
      <trkpt lat="48.77643" lon="2.10034">
        <ele>115.01</ele>
        <time>2011-05-21T11:40:50Z</time>
      </trkpt>
      <trkpt lat="48.77639" lon="2.10038">
        <ele>115.01</ele>
        <time>2011-05-21T11:40:51Z</time>
      </trkpt>
      <trkpt lat="48.77636" lon="2.10042">
        <ele>115.5</ele>
        <time>2011-05-21T11:40:52Z</time>
      </trkpt>
      <trkpt lat="48.77619" lon="2.10057">
        <ele>115.5</ele>
        <time>2011-05-21T11:40:59Z</time>
      </trkpt>
      <trkpt lat="48.77618" lon="2.1006">
        <ele>115.5</ele>
        <time>2011-05-21T11:41:00Z</time>
      </trkpt>
      <trkpt lat="48.77618" lon="2.10063">
        <ele>115.5</ele>
        <time>2011-05-21T11:41:01Z</time>
      </trkpt>
      <trkpt lat="48.7762" lon="2.10064">
        <ele>115.5</ele>
        <time>2011-05-21T11:41:02Z</time>
      </trkpt>
      <trkpt lat="48.77621" lon="2.10064">
        <ele>115.5</ele>
        <time>2011-05-21T11:41:03Z</time>
      </trkpt>
      <trkpt lat="48.77622" lon="2.10064">
        <ele>115.5</ele>
        <time>2011-05-21T11:41:04Z</time>
      </trkpt>
      <trkpt lat="48.77623" lon="2.10063">
        <ele>115.5</ele>
        <time>2011-05-21T11:41:05Z</time>
      </trkpt>
      <trkpt lat="48.77623" lon="2.10062">
        <ele>115.98</ele>
        <time>2011-05-21T11:41:18Z</time>
      </trkpt>
      <trkpt lat="48.77623" lon="2.10062">
        <ele>115.5</ele>
        <time>2011-05-21T11:41:47Z</time>
      </trkpt>
      <trkpt lat="48.77623" lon="2.10062">
        <ele>115.98</ele>
        <time>2011-05-21T11:41:54Z</time>
      </trkpt>
      <trkpt lat="48.77624" lon="2.10065">
        <ele>115.01</ele>
        <time>2011-05-21T11:41:55Z</time>
      </trkpt>
      <trkpt lat="48.77623" lon="2.10068">
        <ele>115.5</ele>
        <time>2011-05-21T11:41:56Z</time>
      </trkpt>
      <trkpt lat="48.77621" lon="2.1007">
        <ele>115.5</ele>
        <time>2011-05-21T11:41:57Z</time>
      </trkpt>
      <trkpt lat="48.77619" lon="2.10069">
        <ele>115.5</ele>
        <time>2011-05-21T11:41:58Z</time>
      </trkpt>
      <trkpt lat="48.77618" lon="2.10066">
        <ele>115.5</ele>
        <time>2011-05-21T11:41:59Z</time>
      </trkpt>
      <trkpt lat="48.77618" lon="2.10063">
        <ele>115.5</ele>
        <time>2011-05-21T11:42:00Z</time>
      </trkpt>
      <trkpt lat="48.77621" lon="2.10062">
        <ele>115.5</ele>
        <time>2011-05-21T11:42:01Z</time>
      </trkpt>
      <trkpt lat="48.77623" lon="2.10063">
        <ele>115.98</ele>
        <time>2011-05-21T11:42:02Z</time>
      </trkpt>
      <trkpt lat="48.77626" lon="2.10065">
        <ele>115.98</ele>
        <time>2011-05-21T11:42:03Z</time>
      </trkpt>
      <trkpt lat="48.77629" lon="2.10068">
        <ele>115.98</ele>
        <time>2011-05-21T11:42:04Z</time>
      </trkpt>
      <trkpt lat="48.77631" lon="2.10072">
        <ele>115.98</ele>
        <time>2011-05-21T11:42:05Z</time>
      </trkpt>
      <trkpt lat="48.77642" lon="2.10098">
        <ele>119.34</ele>
        <time>2011-05-21T11:42:15Z</time>
      </trkpt>
      <trkpt lat="48.77646" lon="2.10112">
        <ele>120.3</ele>
        <time>2011-05-21T11:42:20Z</time>
      </trkpt>
      <trkpt lat="48.77647" lon="2.10114">
        <ele>120.78</ele>
        <time>2011-05-21T11:42:21Z</time>
      </trkpt>
      <trkpt lat="48.77648" lon="2.10117">
        <ele>120.78</ele>
        <time>2011-05-21T11:42:22Z</time>
      </trkpt>
      <trkpt lat="48.77649" lon="2.10152">
        <ele>121.26</ele>
        <time>2011-05-21T11:42:32Z</time>
      </trkpt>
      <trkpt lat="48.77649" lon="2.10155">
        <ele>121.74</ele>
        <time>2011-05-21T11:42:33Z</time>
      </trkpt>
      <trkpt lat="48.7765" lon="2.10157">
        <ele>121.74</ele>
        <time>2011-05-21T11:42:34Z</time>
      </trkpt>
      <trkpt lat="48.77651" lon="2.1016">
        <ele>121.74</ele>
        <time>2011-05-21T11:42:35Z</time>
      </trkpt>
      <trkpt lat="48.77651" lon="2.10163">
        <ele>122.22</ele>
        <time>2011-05-21T11:42:36Z</time>
      </trkpt>
      <trkpt lat="48.77652" lon="2.10165">
        <ele>122.22</ele>
        <time>2011-05-21T11:42:37Z</time>
      </trkpt>
      <trkpt lat="48.77654" lon="2.10168">
        <ele>122.71</ele>
        <time>2011-05-21T11:42:38Z</time>
      </trkpt>
      <trkpt lat="48.77667" lon="2.10196">
        <ele>125.59</ele>
        <time>2011-05-21T11:42:51Z</time>
      </trkpt>
      <trkpt lat="48.77667" lon="2.10237">
        <ele>128.47</ele>
        <time>2011-05-21T11:43:07Z</time>
      </trkpt>
      <trkpt lat="48.77669" lon="2.1025">
        <ele>129.43</ele>
        <time>2011-05-21T11:43:13Z</time>
      </trkpt>
      <trkpt lat="48.7767" lon="2.10252">
        <ele>129.92</ele>
        <time>2011-05-21T11:43:14Z</time>
      </trkpt>
      <trkpt lat="48.77671" lon="2.10254">
        <ele>129.92</ele>
        <time>2011-05-21T11:43:15Z</time>
      </trkpt>
      <trkpt lat="48.77673" lon="2.10255">
        <ele>130.4</ele>
        <time>2011-05-21T11:43:16Z</time>
      </trkpt>
      <trkpt lat="48.77674" lon="2.10257">
        <ele>130.88</ele>
        <time>2011-05-21T11:43:17Z</time>
      </trkpt>
      <trkpt lat="48.77679" lon="2.10259">
        <ele>131.36</ele>
        <time>2011-05-21T11:43:20Z</time>
      </trkpt>
      <trkpt lat="48.7768" lon="2.10259">
        <ele>131.84</ele>
        <time>2011-05-21T11:43:21Z</time>
      </trkpt>
      <trkpt lat="48.77687" lon="2.10251">
        <ele>133.28</ele>
        <time>2011-05-21T11:43:28Z</time>
      </trkpt>
      <trkpt lat="48.77691" lon="2.10221">
        <ele>136.16</ele>
        <time>2011-05-21T11:43:41Z</time>
      </trkpt>
      <trkpt lat="48.77692" lon="2.10213">
        <ele>137.13</ele>
        <time>2011-05-21T11:43:44Z</time>
      </trkpt>
      <trkpt lat="48.77702" lon="2.10173">
        <ele>139.05</ele>
        <time>2011-05-21T11:44:00Z</time>
      </trkpt>
      <trkpt lat="48.77717" lon="2.10161">
        <ele>142.89</ele>
        <time>2011-05-21T11:44:12Z</time>
      </trkpt>
      <trkpt lat="48.77719" lon="2.1016">
        <ele>143.85</ele>
        <time>2011-05-21T11:44:13Z</time>
      </trkpt>
      <trkpt lat="48.77723" lon="2.10168">
        <ele>144.34</ele>
        <time>2011-05-21T11:44:18Z</time>
      </trkpt>
      <trkpt lat="48.77725" lon="2.10194">
        <ele>147.7</ele>
        <time>2011-05-21T11:44:30Z</time>
      </trkpt>
      <trkpt lat="48.77725" lon="2.10203">
        <ele>148.66</ele>
        <time>2011-05-21T11:44:34Z</time>
      </trkpt>
      <trkpt lat="48.77723" lon="2.10246">
        <ele>150.1</ele>
        <time>2011-05-21T11:44:50Z</time>
      </trkpt>
      <trkpt lat="48.77737" lon="2.10272">
        <ele>152.03</ele>
        <time>2011-05-21T11:45:03Z</time>
      </trkpt>
      <trkpt lat="48.77755" lon="2.10295">
        <ele>154.91</ele>
        <time>2011-05-21T11:45:17Z</time>
      </trkpt>
      <trkpt lat="48.77776" lon="2.10325">
        <ele>155.87</ele>
        <time>2011-05-21T11:45:31Z</time>
      </trkpt>
      <trkpt lat="48.77805" lon="2.10354">
        <ele>155.87</ele>
        <time>2011-05-21T11:45:44Z</time>
      </trkpt>
      <trkpt lat="48.77853" lon="2.10355">
        <ele>157.31</ele>
        <time>2011-05-21T11:45:56Z</time>
      </trkpt>
      <trkpt lat="48.77895" lon="2.10384">
        <ele>157.31</ele>
        <time>2011-05-21T11:46:07Z</time>
      </trkpt>
      <trkpt lat="48.77938" lon="2.10435">
        <ele>158.27</ele>
        <time>2011-05-21T11:46:21Z</time>
      </trkpt>
      <trkpt lat="48.77961" lon="2.10467">
        <ele>154.91</ele>
        <time>2011-05-21T11:46:29Z</time>
      </trkpt>
      <trkpt lat="48.77962" lon="2.10516">
        <ele>151.54</ele>
        <time>2011-05-21T11:46:33Z</time>
      </trkpt>
      <trkpt lat="48.77956" lon="2.10588">
        <ele>152.99</ele>
        <time>2011-05-21T11:46:37Z</time>
      </trkpt>
      <trkpt lat="48.77955" lon="2.10603">
        <ele>154.43</ele>
        <time>2011-05-21T11:46:38Z</time>
      </trkpt>
      <trkpt lat="48.77953" lon="2.10628">
        <ele>155.87</ele>
        <time>2011-05-21T11:46:40Z</time>
      </trkpt>
      <trkpt lat="48.77951" lon="2.10638">
        <ele>156.35</ele>
        <time>2011-05-21T11:46:41Z</time>
      </trkpt>
      <trkpt lat="48.77947" lon="2.10656">
        <ele>157.31</ele>
        <time>2011-05-21T11:46:43Z</time>
      </trkpt>
      <trkpt lat="48.77946" lon="2.10665">
        <ele>157.79</ele>
        <time>2011-05-21T11:46:44Z</time>
      </trkpt>
      <trkpt lat="48.77946" lon="2.10673">
        <ele>157.79</ele>
        <time>2011-05-21T11:46:45Z</time>
      </trkpt>
      <trkpt lat="48.77948" lon="2.10681">
        <ele>157.79</ele>
        <time>2011-05-21T11:46:46Z</time>
      </trkpt>
      <trkpt lat="48.77949" lon="2.10688">
        <ele>158.27</ele>
        <time>2011-05-21T11:46:47Z</time>
      </trkpt>
      <trkpt lat="48.77951" lon="2.10694">
        <ele>158.27</ele>
        <time>2011-05-21T11:46:48Z</time>
      </trkpt>
      <trkpt lat="48.77952" lon="2.10699">
        <ele>158.75</ele>
        <time>2011-05-21T11:46:49Z</time>
      </trkpt>
      <trkpt lat="48.77953" lon="2.10705">
        <ele>158.75</ele>
        <time>2011-05-21T11:46:50Z</time>
      </trkpt>
      <trkpt lat="48.77964" lon="2.10759">
        <ele>160.68</ele>
        <time>2011-05-21T11:47:01Z</time>
      </trkpt>
      <trkpt lat="48.7797" lon="2.10795">
        <ele>161.16</ele>
        <time>2011-05-21T11:47:09Z</time>
      </trkpt>
      <trkpt lat="48.77971" lon="2.108">
        <ele>161.16</ele>
        <time>2011-05-21T11:47:10Z</time>
      </trkpt>
      <trkpt lat="48.77982" lon="2.10858">
        <ele>162.12</ele>
        <time>2011-05-21T11:47:20Z</time>
      </trkpt>
      <trkpt lat="48.77987" lon="2.10877">
        <ele>162.12</ele>
        <time>2011-05-21T11:47:23Z</time>
      </trkpt>
      <trkpt lat="48.77989" lon="2.10883">
        <ele>161.64</ele>
        <time>2011-05-21T11:47:24Z</time>
      </trkpt>
      <trkpt lat="48.77995" lon="2.10901">
        <ele>162.12</ele>
        <time>2011-05-21T11:47:27Z</time>
      </trkpt>
      <trkpt lat="48.78014" lon="2.10974">
        <ele>163.08</ele>
        <time>2011-05-21T11:47:38Z</time>
      </trkpt>
      <trkpt lat="48.78016" lon="2.10981">
        <ele>162.6</ele>
        <time>2011-05-21T11:47:39Z</time>
      </trkpt>
      <trkpt lat="48.78021" lon="2.11007">
        <ele>163.08</ele>
        <time>2011-05-21T11:47:43Z</time>
      </trkpt>
      <trkpt lat="48.78028" lon="2.1105">
        <ele>162.6</ele>
        <time>2011-05-21T11:47:49Z</time>
      </trkpt>
      <trkpt lat="48.7803" lon="2.11057">
        <ele>163.08</ele>
        <time>2011-05-21T11:47:50Z</time>
      </trkpt>
      <trkpt lat="48.78032" lon="2.11064">
        <ele>162.6</ele>
        <time>2011-05-21T11:47:51Z</time>
      </trkpt>
      <trkpt lat="48.78033" lon="2.11071">
        <ele>162.6</ele>
        <time>2011-05-21T11:47:52Z</time>
      </trkpt>
      <trkpt lat="48.78035" lon="2.11078">
        <ele>162.6</ele>
        <time>2011-05-21T11:47:53Z</time>
      </trkpt>
      <trkpt lat="48.78039" lon="2.111">
        <ele>162.6</ele>
        <time>2011-05-21T11:47:56Z</time>
      </trkpt>
      <trkpt lat="48.78043" lon="2.11115">
        <ele>162.12</ele>
        <time>2011-05-21T11:47:58Z</time>
      </trkpt>
      <trkpt lat="48.78045" lon="2.11131">
        <ele>162.12</ele>
        <time>2011-05-21T11:48:00Z</time>
      </trkpt>
      <trkpt lat="48.78048" lon="2.11201">
        <ele>161.16</ele>
        <time>2011-05-21T11:48:08Z</time>
      </trkpt>
      <trkpt lat="48.78048" lon="2.1123">
        <ele>161.16</ele>
        <time>2011-05-21T11:48:11Z</time>
      </trkpt>
      <trkpt lat="48.78046" lon="2.11239">
        <ele>161.16</ele>
        <time>2011-05-21T11:48:12Z</time>
      </trkpt>
      <trkpt lat="48.78044" lon="2.11248">
        <ele>161.16</ele>
        <time>2011-05-21T11:48:13Z</time>
      </trkpt>
      <trkpt lat="48.78041" lon="2.11256">
        <ele>161.16</ele>
        <time>2011-05-21T11:48:14Z</time>
      </trkpt>
      <trkpt lat="48.78038" lon="2.11264">
        <ele>161.16</ele>
        <time>2011-05-21T11:48:15Z</time>
      </trkpt>
      <trkpt lat="48.78021" lon="2.11301">
        <ele>162.12</ele>
        <time>2011-05-21T11:48:20Z</time>
      </trkpt>
      <trkpt lat="48.77985" lon="2.1139">
        <ele>162.12</ele>
        <time>2011-05-21T11:48:32Z</time>
      </trkpt>
      <trkpt lat="48.77975" lon="2.11413">
        <ele>161.64</ele>
        <time>2011-05-21T11:48:35Z</time>
      </trkpt>
      <trkpt lat="48.77972" lon="2.1142">
        <ele>161.16</ele>
        <time>2011-05-21T11:48:36Z</time>
      </trkpt>
      <trkpt lat="48.77954" lon="2.1146">
        <ele>161.16</ele>
        <time>2011-05-21T11:48:41Z</time>
      </trkpt>
      <trkpt lat="48.77918" lon="2.1154">
        <ele>161.64</ele>
        <time>2011-05-21T11:48:51Z</time>
      </trkpt>
      <trkpt lat="48.77916" lon="2.11548">
        <ele>161.64</ele>
        <time>2011-05-21T11:48:52Z</time>
      </trkpt>
      <trkpt lat="48.77915" lon="2.11556">
        <ele>161.64</ele>
        <time>2011-05-21T11:48:53Z</time>
      </trkpt>
      <trkpt lat="48.77916" lon="2.11566">
        <ele>161.16</ele>
        <time>2011-05-21T11:48:54Z</time>
      </trkpt>
      <trkpt lat="48.77917" lon="2.11574">
        <ele>161.64</ele>
        <time>2011-05-21T11:48:55Z</time>
      </trkpt>
      <trkpt lat="48.77919" lon="2.11582">
        <ele>161.64</ele>
        <time>2011-05-21T11:48:56Z</time>
      </trkpt>
      <trkpt lat="48.77922" lon="2.11589">
        <ele>162.12</ele>
        <time>2011-05-21T11:48:57Z</time>
      </trkpt>
      <trkpt lat="48.77926" lon="2.11595">
        <ele>162.6</ele>
        <time>2011-05-21T11:48:58Z</time>
      </trkpt>
      <trkpt lat="48.7793" lon="2.116">
        <ele>162.6</ele>
        <time>2011-05-21T11:48:59Z</time>
      </trkpt>
      <trkpt lat="48.77942" lon="2.11607">
        <ele>163.08</ele>
        <time>2011-05-21T11:49:03Z</time>
      </trkpt>
      <trkpt lat="48.77945" lon="2.11606">
        <ele>163.08</ele>
        <time>2011-05-21T11:49:04Z</time>
      </trkpt>
      <trkpt lat="48.77948" lon="2.11604">
        <ele>162.6</ele>
        <time>2011-05-21T11:49:05Z</time>
      </trkpt>
      <trkpt lat="48.7795" lon="2.11603">
        <ele>163.08</ele>
        <time>2011-05-21T11:49:06Z</time>
      </trkpt>
      <trkpt lat="48.77952" lon="2.11601">
        <ele>163.08</ele>
        <time>2011-05-21T11:49:07Z</time>
      </trkpt>
      <trkpt lat="48.77955" lon="2.11602">
        <ele>163.08</ele>
        <time>2011-05-21T11:49:08Z</time>
      </trkpt>
      <trkpt lat="48.77957" lon="2.11603">
        <ele>163.08</ele>
        <time>2011-05-21T11:49:09Z</time>
      </trkpt>
      <trkpt lat="48.7796" lon="2.11601">
        <ele>163.56</ele>
        <time>2011-05-21T11:49:20Z</time>
      </trkpt>
      <trkpt lat="48.77959" lon="2.11601">
        <ele>163.56</ele>
        <time>2011-05-21T11:49:22Z</time>
      </trkpt>
      <trkpt lat="48.77958" lon="2.11601">
        <ele>163.08</ele>
        <time>2011-05-21T11:49:23Z</time>
      </trkpt>
      <trkpt lat="48.77957" lon="2.11601">
        <ele>163.56</ele>
        <time>2011-05-21T11:49:24Z</time>
      </trkpt>
      <trkpt lat="48.77955" lon="2.11601">
        <ele>163.56</ele>
        <time>2011-05-21T11:49:25Z</time>
      </trkpt>
      <trkpt lat="48.77953" lon="2.11602">
        <ele>163.08</ele>
        <time>2011-05-21T11:49:26Z</time>
      </trkpt>
      <trkpt lat="48.77952" lon="2.11604">
        <ele>163.56</ele>
        <time>2011-05-21T11:49:27Z</time>
      </trkpt>
      <trkpt lat="48.77951" lon="2.11607">
        <ele>163.56</ele>
        <time>2011-05-21T11:49:28Z</time>
      </trkpt>
      <trkpt lat="48.77951" lon="2.11609">
        <ele>163.08</ele>
        <time>2011-05-21T11:49:29Z</time>
      </trkpt>
      <trkpt lat="48.77951" lon="2.11612">
        <ele>163.08</ele>
        <time>2011-05-21T11:49:30Z</time>
      </trkpt>
      <trkpt lat="48.77951" lon="2.11615">
        <ele>163.08</ele>
        <time>2011-05-21T11:49:31Z</time>
      </trkpt>
      <trkpt lat="48.77951" lon="2.11617">
        <ele>162.6</ele>
        <time>2011-05-21T11:49:32Z</time>
      </trkpt>
      <trkpt lat="48.77952" lon="2.1162">
        <ele>162.6</ele>
        <time>2011-05-21T11:49:33Z</time>
      </trkpt>
      <trkpt lat="48.77966" lon="2.11656">
        <ele>162.6</ele>
        <time>2011-05-21T11:49:43Z</time>
      </trkpt>
      <trkpt lat="48.77985" lon="2.11698">
        <ele>160.68</ele>
        <time>2011-05-21T11:49:52Z</time>
      </trkpt>
      <trkpt lat="48.77995" lon="2.11719">
        <ele>159.24</ele>
        <time>2011-05-21T11:49:55Z</time>
      </trkpt>
      <trkpt lat="48.78004" lon="2.11733">
        <ele>157.79</ele>
        <time>2011-05-21T11:49:57Z</time>
      </trkpt>
      <trkpt lat="48.78009" lon="2.1174">
        <ele>156.83</ele>
        <time>2011-05-21T11:49:58Z</time>
      </trkpt>
      <trkpt lat="48.78014" lon="2.11748">
        <ele>156.83</ele>
        <time>2011-05-21T11:49:59Z</time>
      </trkpt>
      <trkpt lat="48.78028" lon="2.11769">
        <ele>157.31</ele>
        <time>2011-05-21T11:50:02Z</time>
      </trkpt>
      <trkpt lat="48.78033" lon="2.11781">
        <ele>157.79</ele>
        <time>2011-05-21T11:50:04Z</time>
      </trkpt>
      <trkpt lat="48.7805" lon="2.11838">
        <ele>158.27</ele>
        <time>2011-05-21T11:50:14Z</time>
      </trkpt>
      <trkpt lat="48.7805" lon="2.11847">
        <ele>158.27</ele>
        <time>2011-05-21T11:50:15Z</time>
      </trkpt>
      <trkpt lat="48.78046" lon="2.11882">
        <ele>160.2</ele>
        <time>2011-05-21T11:50:20Z</time>
      </trkpt>
      <trkpt lat="48.78043" lon="2.11923">
        <ele>162.12</ele>
        <time>2011-05-21T11:50:26Z</time>
      </trkpt>
      <trkpt lat="48.78043" lon="2.11931">
        <ele>162.12</ele>
        <time>2011-05-21T11:50:27Z</time>
      </trkpt>
      <trkpt lat="48.78035" lon="2.11993">
        <ele>165</ele>
        <time>2011-05-21T11:50:37Z</time>
      </trkpt>
      <trkpt lat="48.78031" lon="2.12025">
        <ele>165</ele>
        <time>2011-05-21T11:50:42Z</time>
      </trkpt>
      <trkpt lat="48.7803" lon="2.12032">
        <ele>165</ele>
        <time>2011-05-21T11:50:43Z</time>
      </trkpt>
      <trkpt lat="48.7803" lon="2.12038">
        <ele>165</ele>
        <time>2011-05-21T11:50:44Z</time>
      </trkpt>
      <trkpt lat="48.78029" lon="2.12052">
        <ele>165.48</ele>
        <time>2011-05-21T11:50:46Z</time>
      </trkpt>
      <trkpt lat="48.78029" lon="2.12059">
        <ele>165.48</ele>
        <time>2011-05-21T11:50:47Z</time>
      </trkpt>
      <trkpt lat="48.78029" lon="2.12066">
        <ele>165.48</ele>
        <time>2011-05-21T11:50:48Z</time>
      </trkpt>
      <trkpt lat="48.78027" lon="2.1208">
        <ele>165</ele>
        <time>2011-05-21T11:50:50Z</time>
      </trkpt>
      <trkpt lat="48.78025" lon="2.12099">
        <ele>165.48</ele>
        <time>2011-05-21T11:50:53Z</time>
      </trkpt>
      <trkpt lat="48.78024" lon="2.12106">
        <ele>165</ele>
        <time>2011-05-21T11:50:54Z</time>
      </trkpt>
      <trkpt lat="48.78022" lon="2.12122">
        <ele>165</ele>
        <time>2011-05-21T11:50:56Z</time>
      </trkpt>
      <trkpt lat="48.78016" lon="2.12175">
        <ele>165</ele>
        <time>2011-05-21T11:51:04Z</time>
      </trkpt>
      <trkpt lat="48.78013" lon="2.12208">
        <ele>164.52</ele>
        <time>2011-05-21T11:51:08Z</time>
      </trkpt>
      <trkpt lat="48.78012" lon="2.12218">
        <ele>164.04</ele>
        <time>2011-05-21T11:51:09Z</time>
      </trkpt>
      <trkpt lat="48.78009" lon="2.12255">
        <ele>163.08</ele>
        <time>2011-05-21T11:51:13Z</time>
      </trkpt>
      <trkpt lat="48.78002" lon="2.12308">
        <ele>159.24</ele>
        <time>2011-05-21T11:51:18Z</time>
      </trkpt>
      <trkpt lat="48.77991" lon="2.12429">
        <ele>161.16</ele>
        <time>2011-05-21T11:51:27Z</time>
      </trkpt>
      <trkpt lat="48.77993" lon="2.12448">
        <ele>162.12</ele>
        <time>2011-05-21T11:51:29Z</time>
      </trkpt>
      <trkpt lat="48.78006" lon="2.12475">
        <ele>164.04</ele>
        <time>2011-05-21T11:51:38Z</time>
      </trkpt>
      <trkpt lat="48.78026" lon="2.12502">
        <ele>165.48</ele>
        <time>2011-05-21T11:51:52Z</time>
      </trkpt>
      <trkpt lat="48.78052" lon="2.12538">
        <ele>166.45</ele>
        <time>2011-05-21T11:52:04Z</time>
      </trkpt>
      <trkpt lat="48.78083" lon="2.1258">
        <ele>168.37</ele>
        <time>2011-05-21T11:52:17Z</time>
      </trkpt>
      <trkpt lat="48.78114" lon="2.12619">
        <ele>170.29</ele>
        <time>2011-05-21T11:52:28Z</time>
      </trkpt>
      <trkpt lat="48.78118" lon="2.12623">
        <ele>169.81</ele>
        <time>2011-05-21T11:52:29Z</time>
      </trkpt>
      <trkpt lat="48.78162" lon="2.1268">
        <ele>171.73</ele>
        <time>2011-05-21T11:52:43Z</time>
      </trkpt>
      <trkpt lat="48.78201" lon="2.12733">
        <ele>173.17</ele>
        <time>2011-05-21T11:52:56Z</time>
      </trkpt>
      <trkpt lat="48.78225" lon="2.12763">
        <ele>173.66</ele>
        <time>2011-05-21T11:53:03Z</time>
      </trkpt>
      <trkpt lat="48.78262" lon="2.12812">
        <ele>174.62</ele>
        <time>2011-05-21T11:53:16Z</time>
      </trkpt>
      <trkpt lat="48.78295" lon="2.12849">
        <ele>175.1</ele>
        <time>2011-05-21T11:53:29Z</time>
      </trkpt>
      <trkpt lat="48.78297" lon="2.1285">
        <ele>175.1</ele>
        <time>2011-05-21T11:53:43Z</time>
      </trkpt>
      <trkpt lat="48.78299" lon="2.12849">
        <ele>175.1</ele>
        <time>2011-05-21T11:54:14Z</time>
      </trkpt>
    </trkseg>
  </trk>
</gpx>